<?xml version="1.0" encoding="UTF-8" standalone="no" ?>
<gpx xmlns="http://www.topografix.com/GPX/1/1" xmlns:xsi="http://www.w3.org/2001/XMLSchema-instance" xsi:schemaLocation="http://www.topografix.com/GPX/1/1 http://www.topografix.com/GPX/1/1/gpx.xsd" version="1.1" creator="VisuGPX - https://www.visugpx.com">
  <metadata>
    <name>Balade hivernale</name>
    <desc><![CDATA[Balade effectuée du 9 décembre 2022 au 7 janvier 2023.]]></desc>
  </metadata>
  <trk>
    <name><![CDATA[Fabas - Mauvezin]]></name>
    <extensions>
      <line xmlns="http://www.topografix.com/GPX/gpx_style/0/2">
        <color>0000ff</color>
        <width>4</width>
      </line>
    </extensions>
    <trkseg>
      <trkpt lat="43.8628" lon="1.35334">
        <ele>193.18945</ele>
        <time>2023-01-01T09:37:42.444Z</time>
      </trkpt>
      <trkpt lat="43.86279" lon="1.35321">
        <ele>193.18945</ele>
        <time>2023-01-01T09:40:06.476Z</time>
      </trkpt>
      <trkpt lat="43.86273" lon="1.35311">
        <ele>193.18945</ele>
        <time>2023-01-01T09:40:10.471Z</time>
      </trkpt>
      <trkpt lat="43.86265" lon="1.353">
        <ele>193.18945</ele>
        <time>2023-01-01T09:40:15.483Z</time>
      </trkpt>
      <trkpt lat="43.8626" lon="1.35288">
        <ele>193.18945</ele>
        <time>2023-01-01T09:40:19.482Z</time>
      </trkpt>
      <trkpt lat="43.86261" lon="1.35273">
        <ele>193.18945</ele>
        <time>2023-01-01T09:40:24.464Z</time>
      </trkpt>
      <trkpt lat="43.86263" lon="1.3526">
        <ele>193.18945</ele>
        <time>2023-01-01T09:40:28.471Z</time>
      </trkpt>
      <trkpt lat="43.86267" lon="1.35246">
        <ele>193.18945</ele>
        <time>2023-01-01T09:40:32.485Z</time>
      </trkpt>
      <trkpt lat="43.86271" lon="1.35234">
        <ele>193.18945</ele>
        <time>2023-01-01T09:40:36.463Z</time>
      </trkpt>
      <trkpt lat="43.86271" lon="1.3522">
        <ele>193.187426</ele>
        <time>2023-01-01T09:40:41.479Z</time>
      </trkpt>
      <trkpt lat="43.86269" lon="1.35206">
        <ele>193.150627</ele>
        <time>2023-01-01T09:40:46.478Z</time>
      </trkpt>
      <trkpt lat="43.86266" lon="1.3519">
        <ele>193.110711</ele>
        <time>2023-01-01T09:40:51.479Z</time>
      </trkpt>
      <trkpt lat="43.86262" lon="1.35177">
        <ele>193.074437</ele>
        <time>2023-01-01T09:40:55.467Z</time>
      </trkpt>
      <trkpt lat="43.86259" lon="1.35165">
        <ele>193.041561</ele>
        <time>2023-01-01T09:40:58.479Z</time>
      </trkpt>
      <trkpt lat="43.86255" lon="1.35152">
        <ele>193.007583</ele>
        <time>2023-01-01T09:41:01.486Z</time>
      </trkpt>
      <trkpt lat="43.86251" lon="1.3514">
        <ele>192.973557</ele>
        <time>2023-01-01T09:41:04.487Z</time>
      </trkpt>
      <trkpt lat="43.86248" lon="1.35127">
        <ele>192.939752</ele>
        <time>2023-01-01T09:41:07.489Z</time>
      </trkpt>
      <trkpt lat="43.86245" lon="1.35114">
        <ele>192.905712</ele>
        <time>2023-01-01T09:41:10.487Z</time>
      </trkpt>
      <trkpt lat="43.86241" lon="1.35101">
        <ele>192.869078</ele>
        <time>2023-01-01T09:41:13.486Z</time>
      </trkpt>
      <trkpt lat="43.86236" lon="1.35087">
        <ele>192.830443</ele>
        <time>2023-01-01T09:41:16.485Z</time>
      </trkpt>
      <trkpt lat="43.86232" lon="1.35075">
        <ele>192.79663</ele>
        <time>2023-01-01T09:41:19.483Z</time>
      </trkpt>
      <trkpt lat="43.86228" lon="1.35063">
        <ele>192.765278</ele>
        <time>2023-01-01T09:41:22.467Z</time>
      </trkpt>
      <trkpt lat="43.86224" lon="1.35049">
        <ele>192.725899</ele>
        <time>2023-01-01T09:41:26.483Z</time>
      </trkpt>
      <trkpt lat="43.86218" lon="1.35034">
        <ele>192.683251</ele>
        <time>2023-01-01T09:41:30.494Z</time>
      </trkpt>
      <trkpt lat="43.86214" lon="1.35022">
        <ele>192.650199</ele>
        <time>2023-01-01T09:41:33.463Z</time>
      </trkpt>
      <trkpt lat="43.8621" lon="1.3501">
        <ele>192.617969</ele>
        <time>2023-01-01T09:41:36.480Z</time>
      </trkpt>
      <trkpt lat="43.86206" lon="1.34999">
        <ele>192.585048</ele>
        <time>2023-01-01T09:41:39.458Z</time>
      </trkpt>
      <trkpt lat="43.86197" lon="1.34993">
        <ele>192.359428</ele>
        <time>2023-01-01T09:41:42.469Z</time>
      </trkpt>
      <trkpt lat="43.86188" lon="1.34992">
        <ele>191.8289</ele>
        <time>2023-01-01T09:41:45.530Z</time>
      </trkpt>
      <trkpt lat="43.86176" lon="1.34995">
        <ele>191.16924</ele>
        <time>2023-01-01T09:41:49.478Z</time>
      </trkpt>
      <trkpt lat="43.86167" lon="1.34997">
        <ele>190.624792</ele>
        <time>2023-01-01T09:41:53.487Z</time>
      </trkpt>
      <trkpt lat="43.8616" lon="1.34989">
        <ele>190.097099</ele>
        <time>2023-01-01T09:41:58.470Z</time>
      </trkpt>
      <trkpt lat="43.86167" lon="1.34979">
        <ele>189.527498</ele>
        <time>2023-01-01T09:42:02.465Z</time>
      </trkpt>
      <trkpt lat="43.86176" lon="1.34976">
        <ele>189.007231</ele>
        <time>2023-01-01T09:42:05.465Z</time>
      </trkpt>
      <trkpt lat="43.86186" lon="1.3497">
        <ele>188.417006</ele>
        <time>2023-01-01T09:42:08.477Z</time>
      </trkpt>
      <trkpt lat="43.86195" lon="1.34964">
        <ele>187.831391</ele>
        <time>2023-01-01T09:42:11.484Z</time>
      </trkpt>
      <trkpt lat="43.86205" lon="1.34961">
        <ele>187.236574</ele>
        <time>2023-01-01T09:42:15.461Z</time>
      </trkpt>
      <trkpt lat="43.86208" lon="1.34955">
        <ele>186.946302</ele>
        <time>2023-01-01T09:42:24.692Z</time>
      </trkpt>
      <trkpt lat="43.86199" lon="1.34941">
        <ele>186.178702</ele>
        <time>2023-01-01T09:43:05.484Z</time>
      </trkpt>
      <trkpt lat="43.86188" lon="1.34943">
        <ele>185.551558</ele>
        <time>2023-01-01T09:43:08.464Z</time>
      </trkpt>
      <trkpt lat="43.86177" lon="1.34944">
        <ele>184.899117</ele>
        <time>2023-01-01T09:43:11.480Z</time>
      </trkpt>
      <trkpt lat="43.86167" lon="1.34945">
        <ele>184.322082</ele>
        <time>2023-01-01T09:43:14.484Z</time>
      </trkpt>
      <trkpt lat="43.86157" lon="1.34942">
        <ele>183.740982</ele>
        <time>2023-01-01T09:43:17.466Z</time>
      </trkpt>
      <trkpt lat="43.86147" lon="1.34931">
        <ele>183.01667</ele>
        <time>2023-01-01T09:43:20.471Z</time>
      </trkpt>
      <trkpt lat="43.86143" lon="1.34919">
        <ele>182.489725</ele>
        <time>2023-01-01T09:43:22.471Z</time>
      </trkpt>
      <trkpt lat="43.86141" lon="1.34905">
        <ele>182.318135</ele>
        <time>2023-01-01T09:43:24.465Z</time>
      </trkpt>
      <trkpt lat="43.86139" lon="1.34888">
        <ele>182.343533</ele>
        <time>2023-01-01T09:43:26.472Z</time>
      </trkpt>
      <trkpt lat="43.86137" lon="1.34871">
        <ele>182.37006</ele>
        <time>2023-01-01T09:43:28.487Z</time>
      </trkpt>
      <trkpt lat="43.86135" lon="1.34852">
        <ele>182.398013</ele>
        <time>2023-01-01T09:43:30.492Z</time>
      </trkpt>
      <trkpt lat="43.86133" lon="1.34834">
        <ele>182.425432</ele>
        <time>2023-01-01T09:43:32.461Z</time>
      </trkpt>
      <trkpt lat="43.86131" lon="1.34816">
        <ele>182.452215</ele>
        <time>2023-01-01T09:43:34.473Z</time>
      </trkpt>
      <trkpt lat="43.86129" lon="1.348">
        <ele>182.476516</ele>
        <time>2023-01-01T09:43:36.461Z</time>
      </trkpt>
      <trkpt lat="43.86127" lon="1.34784">
        <ele>182.499868</ele>
        <time>2023-01-01T09:43:38.461Z</time>
      </trkpt>
      <trkpt lat="43.86125" lon="1.3477">
        <ele>182.522199</ele>
        <time>2023-01-01T09:43:40.480Z</time>
      </trkpt>
      <trkpt lat="43.86123" lon="1.34756">
        <ele>182.542666</ele>
        <time>2023-01-01T09:43:42.461Z</time>
      </trkpt>
      <trkpt lat="43.86121" lon="1.34743">
        <ele>182.562134</ele>
        <time>2023-01-01T09:43:44.468Z</time>
      </trkpt>
      <trkpt lat="43.86119" lon="1.34726">
        <ele>182.587859</ele>
        <time>2023-01-01T09:43:47.481Z</time>
      </trkpt>
      <trkpt lat="43.86117" lon="1.34711">
        <ele>182.609715</ele>
        <time>2023-01-01T09:43:50.482Z</time>
      </trkpt>
      <trkpt lat="43.86115" lon="1.34699">
        <ele>182.62846</ele>
        <time>2023-01-01T09:43:53.465Z</time>
      </trkpt>
      <trkpt lat="43.86112" lon="1.34686">
        <ele>182.64844</ele>
        <time>2023-01-01T09:43:56.479Z</time>
      </trkpt>
      <trkpt lat="43.8611" lon="1.34673">
        <ele>182.668723</ele>
        <time>2023-01-01T09:43:59.476Z</time>
      </trkpt>
      <trkpt lat="43.86107" lon="1.34658">
        <ele>183.129805</ele>
        <time>2023-01-01T09:44:03.474Z</time>
      </trkpt>
      <trkpt lat="43.86104" lon="1.34644">
        <ele>183.672713</ele>
        <time>2023-01-01T09:44:07.491Z</time>
      </trkpt>
      <trkpt lat="43.86101" lon="1.34629">
        <ele>184.219935</ele>
        <time>2023-01-01T09:44:11.458Z</time>
      </trkpt>
      <trkpt lat="43.86098" lon="1.34616">
        <ele>184.722277</ele>
        <time>2023-01-01T09:44:15.479Z</time>
      </trkpt>
      <trkpt lat="43.86095" lon="1.34602">
        <ele>185.270091</ele>
        <time>2023-01-01T09:44:20.483Z</time>
      </trkpt>
      <trkpt lat="43.86092" lon="1.34588">
        <ele>185.79602</ele>
        <time>2023-01-01T09:44:25.479Z</time>
      </trkpt>
      <trkpt lat="43.86089" lon="1.34574">
        <ele>186.322802</ele>
        <time>2023-01-01T09:44:30.482Z</time>
      </trkpt>
      <trkpt lat="43.86086" lon="1.3456">
        <ele>186.848144</ele>
        <time>2023-01-01T09:44:35.463Z</time>
      </trkpt>
      <trkpt lat="43.86083" lon="1.34547">
        <ele>187.353555</ele>
        <time>2023-01-01T09:44:40.491Z</time>
      </trkpt>
      <trkpt lat="43.86081" lon="1.34534">
        <ele>187.853424</ele>
        <time>2023-01-01T09:44:45.474Z</time>
      </trkpt>
      <trkpt lat="43.86078" lon="1.3452">
        <ele>188.393678</ele>
        <time>2023-01-01T09:44:51.472Z</time>
      </trkpt>
      <trkpt lat="43.86075" lon="1.34507">
        <ele>188.873327</ele>
        <time>2023-01-01T09:44:56.469Z</time>
      </trkpt>
      <trkpt lat="43.86073" lon="1.34493">
        <ele>189.421022</ele>
        <time>2023-01-01T09:45:02.466Z</time>
      </trkpt>
      <trkpt lat="43.86069" lon="1.3448">
        <ele>189.926433</ele>
        <time>2023-01-01T09:45:07.480Z</time>
      </trkpt>
      <trkpt lat="43.86066" lon="1.34466">
        <ele>190.452491</ele>
        <time>2023-01-01T09:45:13.465Z</time>
      </trkpt>
      <trkpt lat="43.86061" lon="1.34453">
        <ele>190.991238</ele>
        <time>2023-01-01T09:45:19.478Z</time>
      </trkpt>
      <trkpt lat="43.86058" lon="1.34441">
        <ele>191.472306</ele>
        <time>2023-01-01T09:45:25.471Z</time>
      </trkpt>
      <trkpt lat="43.86053" lon="1.34427">
        <ele>191.932094</ele>
        <time>2023-01-01T09:45:31.466Z</time>
      </trkpt>
      <trkpt lat="43.86049" lon="1.34416">
        <ele>192.245817</ele>
        <time>2023-01-01T09:45:37.475Z</time>
      </trkpt>
      <trkpt lat="43.86044" lon="1.34403">
        <ele>192.57014</ele>
        <time>2023-01-01T09:45:43.466Z</time>
      </trkpt>
      <trkpt lat="43.86039" lon="1.3439">
        <ele>192.919908</ele>
        <time>2023-01-01T09:45:49.467Z</time>
      </trkpt>
      <trkpt lat="43.86036" lon="1.34378">
        <ele>193.228612</ele>
        <time>2023-01-01T09:45:54.469Z</time>
      </trkpt>
      <trkpt lat="43.86033" lon="1.34365">
        <ele>193.562113</ele>
        <time>2023-01-01T09:46:00.474Z</time>
      </trkpt>
      <trkpt lat="43.8603" lon="1.34351">
        <ele>193.899771</ele>
        <time>2023-01-01T09:46:05.472Z</time>
      </trkpt>
      <trkpt lat="43.86027" lon="1.34337">
        <ele>194.254472</ele>
        <time>2023-01-01T09:46:10.485Z</time>
      </trkpt>
      <trkpt lat="43.86024" lon="1.34322">
        <ele>194.620546</ele>
        <time>2023-01-01T09:46:15.485Z</time>
      </trkpt>
      <trkpt lat="43.86021" lon="1.34309">
        <ele>194.954518</ele>
        <time>2023-01-01T09:46:20.473Z</time>
      </trkpt>
      <trkpt lat="43.8602" lon="1.34296">
        <ele>195.26708</ele>
        <time>2023-01-01T09:46:25.481Z</time>
      </trkpt>
      <trkpt lat="43.86019" lon="1.34282">
        <ele>195.603578</ele>
        <time>2023-01-01T09:46:30.474Z</time>
      </trkpt>
      <trkpt lat="43.86017" lon="1.34268">
        <ele>195.935882</ele>
        <time>2023-01-01T09:46:34.479Z</time>
      </trkpt>
      <trkpt lat="43.86014" lon="1.34255">
        <ele>196.252952</ele>
        <time>2023-01-01T09:46:39.478Z</time>
      </trkpt>
      <trkpt lat="43.86012" lon="1.34253">
        <ele>196.341223</ele>
        <time>2023-01-01T09:46:57.838Z</time>
      </trkpt>
      <trkpt lat="43.8601" lon="1.34238">
        <ele>196.716802</ele>
        <time>2023-01-01T09:48:09.472Z</time>
      </trkpt>
      <trkpt lat="43.86008" lon="1.34223">
        <ele>197.078882</ele>
        <time>2023-01-01T09:48:13.461Z</time>
      </trkpt>
      <trkpt lat="43.86006" lon="1.3421">
        <ele>197.392994</ele>
        <time>2023-01-01T09:48:16.479Z</time>
      </trkpt>
      <trkpt lat="43.86004" lon="1.34195">
        <ele>197.722115</ele>
        <time>2023-01-01T09:48:19.464Z</time>
      </trkpt>
      <trkpt lat="43.86002" lon="1.3418">
        <ele>197.74271</ele>
        <time>2023-01-01T09:48:22.457Z</time>
      </trkpt>
      <trkpt lat="43.86" lon="1.34166">
        <ele>197.761749</ele>
        <time>2023-01-01T09:48:25.477Z</time>
      </trkpt>
      <trkpt lat="43.85999" lon="1.34153">
        <ele>197.780197</ele>
        <time>2023-01-01T09:48:28.490Z</time>
      </trkpt>
      <trkpt lat="43.85997" lon="1.34139">
        <ele>197.79856</ele>
        <time>2023-01-01T09:48:31.466Z</time>
      </trkpt>
      <trkpt lat="43.85996" lon="1.34124">
        <ele>197.818538</ele>
        <time>2023-01-01T09:48:34.472Z</time>
      </trkpt>
      <trkpt lat="43.85996" lon="1.34108">
        <ele>197.839766</ele>
        <time>2023-01-01T09:48:37.458Z</time>
      </trkpt>
      <trkpt lat="43.85996" lon="1.34092">
        <ele>197.86166</ele>
        <time>2023-01-01T09:48:40.483Z</time>
      </trkpt>
      <trkpt lat="43.85997" lon="1.34075">
        <ele>197.884283</ele>
        <time>2023-01-01T09:48:43.479Z</time>
      </trkpt>
      <trkpt lat="43.85999" lon="1.3406">
        <ele>197.904926</ele>
        <time>2023-01-01T09:48:46.482Z</time>
      </trkpt>
      <trkpt lat="43.86003" lon="1.34047">
        <ele>197.923767</ele>
        <time>2023-01-01T09:48:49.463Z</time>
      </trkpt>
      <trkpt lat="43.86007" lon="1.34033">
        <ele>197.94412</ele>
        <time>2023-01-01T09:48:52.483Z</time>
      </trkpt>
      <trkpt lat="43.86013" lon="1.34018">
        <ele>197.965999</ele>
        <time>2023-01-01T09:48:55.480Z</time>
      </trkpt>
      <trkpt lat="43.86019" lon="1.34003">
        <ele>197.989592</ele>
        <time>2023-01-01T09:48:58.461Z</time>
      </trkpt>
      <trkpt lat="43.86026" lon="1.33987">
        <ele>198.014482</ele>
        <time>2023-01-01T09:49:01.481Z</time>
      </trkpt>
      <trkpt lat="43.86031" lon="1.33976">
        <ele>198.031509</ele>
        <time>2023-01-01T09:49:03.485Z</time>
      </trkpt>
      <trkpt lat="43.86037" lon="1.33959">
        <ele>198.027469</ele>
        <time>2023-01-01T09:49:06.482Z</time>
      </trkpt>
      <trkpt lat="43.86042" lon="1.33948">
        <ele>197.847583</ele>
        <time>2023-01-01T09:49:08.482Z</time>
      </trkpt>
      <trkpt lat="43.86046" lon="1.33937">
        <ele>197.666242</ele>
        <time>2023-01-01T09:49:10.477Z</time>
      </trkpt>
      <trkpt lat="43.86051" lon="1.33925">
        <ele>197.479355</ele>
        <time>2023-01-01T09:49:12.473Z</time>
      </trkpt>
      <trkpt lat="43.86055" lon="1.33913">
        <ele>197.297961</ele>
        <time>2023-01-01T09:49:14.479Z</time>
      </trkpt>
      <trkpt lat="43.86062" lon="1.33898">
        <ele>197.043753</ele>
        <time>2023-01-01T09:49:17.479Z</time>
      </trkpt>
      <trkpt lat="43.86069" lon="1.33883">
        <ele>196.792889</ele>
        <time>2023-01-01T09:49:20.480Z</time>
      </trkpt>
      <trkpt lat="43.86074" lon="1.33868">
        <ele>196.557492</ele>
        <time>2023-01-01T09:49:23.485Z</time>
      </trkpt>
      <trkpt lat="43.8608" lon="1.33853">
        <ele>196.325771</ele>
        <time>2023-01-01T09:49:26.484Z</time>
      </trkpt>
      <trkpt lat="43.86085" lon="1.33839">
        <ele>196.103208</ele>
        <time>2023-01-01T09:49:29.482Z</time>
      </trkpt>
      <trkpt lat="43.86092" lon="1.33825">
        <ele>195.873775</ele>
        <time>2023-01-01T09:49:32.460Z</time>
      </trkpt>
      <trkpt lat="43.86098" lon="1.33811">
        <ele>195.636195</ele>
        <time>2023-01-01T09:49:35.479Z</time>
      </trkpt>
      <trkpt lat="43.86104" lon="1.33795">
        <ele>195.39517</ele>
        <time>2023-01-01T09:49:38.480Z</time>
      </trkpt>
      <trkpt lat="43.86109" lon="1.33781">
        <ele>195.171145</ele>
        <time>2023-01-01T09:49:41.480Z</time>
      </trkpt>
      <trkpt lat="43.86116" lon="1.33767">
        <ele>194.93136</ele>
        <time>2023-01-01T09:49:44.484Z</time>
      </trkpt>
      <trkpt lat="43.86123" lon="1.33751">
        <ele>194.673405</ele>
        <time>2023-01-01T09:49:47.485Z</time>
      </trkpt>
      <trkpt lat="43.86127" lon="1.3374">
        <ele>194.558532</ele>
        <time>2023-01-01T09:49:49.479Z</time>
      </trkpt>
      <trkpt lat="43.86132" lon="1.33729">
        <ele>194.533515</ele>
        <time>2023-01-01T09:49:51.485Z</time>
      </trkpt>
      <trkpt lat="43.86136" lon="1.33718">
        <ele>194.507919</ele>
        <time>2023-01-01T09:49:53.479Z</time>
      </trkpt>
      <trkpt lat="43.86141" lon="1.33707">
        <ele>194.48287</ele>
        <time>2023-01-01T09:49:55.486Z</time>
      </trkpt>
      <trkpt lat="43.86149" lon="1.33692">
        <ele>194.446537</ele>
        <time>2023-01-01T09:49:58.483Z</time>
      </trkpt>
      <trkpt lat="43.86157" lon="1.33678">
        <ele>194.410473</ele>
        <time>2023-01-01T09:50:01.459Z</time>
      </trkpt>
      <trkpt lat="43.86165" lon="1.33664">
        <ele>194.377007</ele>
        <time>2023-01-01T09:50:04.481Z</time>
      </trkpt>
      <trkpt lat="43.86171" lon="1.3365">
        <ele>194.34442</ele>
        <time>2023-01-01T09:50:07.478Z</time>
      </trkpt>
      <trkpt lat="43.86177" lon="1.33636">
        <ele>194.312664</ele>
        <time>2023-01-01T09:50:10.480Z</time>
      </trkpt>
      <trkpt lat="43.86183" lon="1.33622">
        <ele>194.281199</ele>
        <time>2023-01-01T09:50:13.485Z</time>
      </trkpt>
      <trkpt lat="43.86188" lon="1.33606">
        <ele>194.246542</ele>
        <time>2023-01-01T09:50:16.466Z</time>
      </trkpt>
      <trkpt lat="43.8619" lon="1.33594">
        <ele>194.221902</ele>
        <time>2023-01-01T09:50:18.460Z</time>
      </trkpt>
      <trkpt lat="43.86191" lon="1.33575">
        <ele>194.185141</ele>
        <time>2023-01-01T09:50:21.468Z</time>
      </trkpt>
      <trkpt lat="43.86191" lon="1.33562">
        <ele>194.15955</ele>
        <time>2023-01-01T09:50:23.479Z</time>
      </trkpt>
      <trkpt lat="43.8619" lon="1.33549">
        <ele>194.133183</ele>
        <time>2023-01-01T09:50:25.482Z</time>
      </trkpt>
      <trkpt lat="43.86189" lon="1.33536">
        <ele>194.107361</ele>
        <time>2023-01-01T09:50:27.485Z</time>
      </trkpt>
      <trkpt lat="43.86186" lon="1.33523">
        <ele>194.080629</ele>
        <time>2023-01-01T09:50:29.460Z</time>
      </trkpt>
      <trkpt lat="43.86182" lon="1.3351">
        <ele>194.056578</ele>
        <time>2023-01-01T09:50:31.478Z</time>
      </trkpt>
      <trkpt lat="43.86178" lon="1.33497">
        <ele>194.033232</ele>
        <time>2023-01-01T09:50:33.462Z</time>
      </trkpt>
      <trkpt lat="43.86175" lon="1.33484">
        <ele>194.010002</ele>
        <time>2023-01-01T09:50:35.483Z</time>
      </trkpt>
      <trkpt lat="43.86172" lon="1.33471">
        <ele>193.986321</ele>
        <time>2023-01-01T09:50:37.480Z</time>
      </trkpt>
      <trkpt lat="43.86171" lon="1.33457">
        <ele>193.963483</ele>
        <time>2023-01-01T09:50:39.473Z</time>
      </trkpt>
      <trkpt lat="43.86171" lon="1.33444">
        <ele>193.940477</ele>
        <time>2023-01-01T09:50:41.460Z</time>
      </trkpt>
      <trkpt lat="43.86174" lon="1.33431">
        <ele>193.9178</ele>
        <time>2023-01-01T09:50:43.472Z</time>
      </trkpt>
      <trkpt lat="43.86179" lon="1.33418">
        <ele>193.893996</ele>
        <time>2023-01-01T09:50:45.468Z</time>
      </trkpt>
      <trkpt lat="43.86186" lon="1.33408">
        <ele>193.870461</ele>
        <time>2023-01-01T09:50:47.458Z</time>
      </trkpt>
      <trkpt lat="43.86192" lon="1.33397">
        <ele>193.846302</ele>
        <time>2023-01-01T09:50:49.467Z</time>
      </trkpt>
      <trkpt lat="43.86198" lon="1.33383">
        <ele>193.820545</ele>
        <time>2023-01-01T09:50:51.473Z</time>
      </trkpt>
      <trkpt lat="43.86201" lon="1.33369">
        <ele>193.795167</ele>
        <time>2023-01-01T09:50:53.459Z</time>
      </trkpt>
      <trkpt lat="43.86205" lon="1.33354">
        <ele>193.768643</ele>
        <time>2023-01-01T09:50:55.471Z</time>
      </trkpt>
      <trkpt lat="43.86205" lon="1.3334">
        <ele>193.744908</ele>
        <time>2023-01-01T09:50:57.457Z</time>
      </trkpt>
      <trkpt lat="43.86206" lon="1.33325">
        <ele>193.719654</ele>
        <time>2023-01-01T09:50:59.463Z</time>
      </trkpt>
      <trkpt lat="43.86206" lon="1.33311">
        <ele>193.695289</ele>
        <time>2023-01-01T09:51:01.478Z</time>
      </trkpt>
      <trkpt lat="43.86208" lon="1.33297">
        <ele>193.670863</ele>
        <time>2023-01-01T09:51:03.467Z</time>
      </trkpt>
      <trkpt lat="43.86209" lon="1.33282">
        <ele>193.647714</ele>
        <time>2023-01-01T09:51:05.481Z</time>
      </trkpt>
      <trkpt lat="43.8621" lon="1.33268">
        <ele>193.626795</ele>
        <time>2023-01-01T09:51:07.484Z</time>
      </trkpt>
      <trkpt lat="43.86212" lon="1.33253">
        <ele>193.606017</ele>
        <time>2023-01-01T09:51:09.479Z</time>
      </trkpt>
      <trkpt lat="43.86215" lon="1.3324">
        <ele>193.585561</ele>
        <time>2023-01-01T09:51:11.483Z</time>
      </trkpt>
      <trkpt lat="43.86219" lon="1.33227">
        <ele>193.566371</ele>
        <time>2023-01-01T09:51:13.462Z</time>
      </trkpt>
      <trkpt lat="43.86222" lon="1.33215">
        <ele>193.546519</ele>
        <time>2023-01-01T09:51:15.478Z</time>
      </trkpt>
      <trkpt lat="43.86227" lon="1.33202">
        <ele>193.526585</ele>
        <time>2023-01-01T09:51:17.468Z</time>
      </trkpt>
      <trkpt lat="43.86231" lon="1.3319">
        <ele>193.506898</ele>
        <time>2023-01-01T09:51:19.479Z</time>
      </trkpt>
      <trkpt lat="43.86235" lon="1.33178">
        <ele>193.488708</ele>
        <time>2023-01-01T09:51:21.482Z</time>
      </trkpt>
      <trkpt lat="43.8624" lon="1.33162">
        <ele>193.463748</ele>
        <time>2023-01-01T09:51:24.482Z</time>
      </trkpt>
      <trkpt lat="43.86246" lon="1.33148">
        <ele>193.440157</ele>
        <time>2023-01-01T09:51:27.484Z</time>
      </trkpt>
      <trkpt lat="43.86251" lon="1.33134">
        <ele>193.418289</ele>
        <time>2023-01-01T09:51:30.488Z</time>
      </trkpt>
      <trkpt lat="43.86256" lon="1.33119">
        <ele>193.394186</ele>
        <time>2023-01-01T09:51:33.483Z</time>
      </trkpt>
      <trkpt lat="43.86263" lon="1.33104">
        <ele>193.368084</ele>
        <time>2023-01-01T09:51:36.477Z</time>
      </trkpt>
      <trkpt lat="43.8627" lon="1.33094">
        <ele>193.348375</ele>
        <time>2023-01-01T09:51:38.471Z</time>
      </trkpt>
      <trkpt lat="43.86278" lon="1.33086">
        <ele>193.329257</ele>
        <time>2023-01-01T09:51:40.465Z</time>
      </trkpt>
      <trkpt lat="43.86286" lon="1.33079">
        <ele>193.310909</ele>
        <time>2023-01-01T09:51:42.462Z</time>
      </trkpt>
      <trkpt lat="43.86295" lon="1.33067">
        <ele>193.351524</ele>
        <time>2023-01-01T09:51:45.487Z</time>
      </trkpt>
      <trkpt lat="43.86301" lon="1.33053">
        <ele>193.439485</ele>
        <time>2023-01-01T09:51:48.471Z</time>
      </trkpt>
      <trkpt lat="43.86298" lon="1.33039">
        <ele>193.5213</ele>
        <time>2023-01-01T09:51:51.466Z</time>
      </trkpt>
      <trkpt lat="43.8629" lon="1.33028">
        <ele>193.60768</ele>
        <time>2023-01-01T09:51:54.465Z</time>
      </trkpt>
      <trkpt lat="43.86282" lon="1.33016">
        <ele>193.697525</ele>
        <time>2023-01-01T09:51:57.480Z</time>
      </trkpt>
      <trkpt lat="43.86273" lon="1.33002">
        <ele>193.792576</ele>
        <time>2023-01-01T09:52:00.483Z</time>
      </trkpt>
      <trkpt lat="43.86266" lon="1.32989">
        <ele>193.888694</ele>
        <time>2023-01-01T09:52:03.465Z</time>
      </trkpt>
      <trkpt lat="43.8626" lon="1.32974">
        <ele>193.981723</ele>
        <time>2023-01-01T09:52:06.470Z</time>
      </trkpt>
      <trkpt lat="43.86254" lon="1.32959">
        <ele>194.07522</ele>
        <time>2023-01-01T09:52:09.480Z</time>
      </trkpt>
      <trkpt lat="43.86249" lon="1.32943">
        <ele>194.171695</ele>
        <time>2023-01-01T09:52:12.475Z</time>
      </trkpt>
      <trkpt lat="43.86243" lon="1.32926">
        <ele>194.2703</ele>
        <time>2023-01-01T09:52:15.484Z</time>
      </trkpt>
      <trkpt lat="43.86237" lon="1.3291">
        <ele>194.372599</ele>
        <time>2023-01-01T09:52:18.491Z</time>
      </trkpt>
      <trkpt lat="43.86233" lon="1.32898">
        <ele>194.447063</ele>
        <time>2023-01-01T09:52:20.467Z</time>
      </trkpt>
      <trkpt lat="43.86228" lon="1.32887">
        <ele>194.517211</ele>
        <time>2023-01-01T09:52:22.475Z</time>
      </trkpt>
      <trkpt lat="43.86223" lon="1.32876">
        <ele>194.588522</ele>
        <time>2023-01-01T09:52:24.480Z</time>
      </trkpt>
      <trkpt lat="43.86218" lon="1.32864">
        <ele>194.663767</ele>
        <time>2023-01-01T09:52:26.481Z</time>
      </trkpt>
      <trkpt lat="43.86212" lon="1.32853">
        <ele>194.709892</ele>
        <time>2023-01-01T09:52:28.479Z</time>
      </trkpt>
      <trkpt lat="43.86206" lon="1.32841">
        <ele>194.75338</ele>
        <time>2023-01-01T09:52:30.480Z</time>
      </trkpt>
      <trkpt lat="43.86201" lon="1.32831">
        <ele>194.795025</ele>
        <time>2023-01-01T09:52:32.467Z</time>
      </trkpt>
      <trkpt lat="43.86195" lon="1.32821">
        <ele>194.837566</ele>
        <time>2023-01-01T09:52:34.485Z</time>
      </trkpt>
      <trkpt lat="43.86189" lon="1.32811">
        <ele>194.878504</ele>
        <time>2023-01-01T09:52:36.479Z</time>
      </trkpt>
      <trkpt lat="43.86183" lon="1.32801">
        <ele>194.920225</ele>
        <time>2023-01-01T09:52:38.479Z</time>
      </trkpt>
      <trkpt lat="43.86177" lon="1.32791">
        <ele>194.962861</ele>
        <time>2023-01-01T09:52:40.471Z</time>
      </trkpt>
      <trkpt lat="43.86171" lon="1.32781">
        <ele>195.005366</ele>
        <time>2023-01-01T09:52:42.479Z</time>
      </trkpt>
      <trkpt lat="43.86165" lon="1.32771">
        <ele>195.048732</ele>
        <time>2023-01-01T09:52:44.476Z</time>
      </trkpt>
      <trkpt lat="43.86158" lon="1.3276">
        <ele>195.093338</ele>
        <time>2023-01-01T09:52:46.476Z</time>
      </trkpt>
      <trkpt lat="43.86152" lon="1.3275">
        <ele>195.137486</ele>
        <time>2023-01-01T09:52:48.483Z</time>
      </trkpt>
      <trkpt lat="43.86146" lon="1.32739">
        <ele>195.180178</ele>
        <time>2023-01-01T09:52:50.472Z</time>
      </trkpt>
      <trkpt lat="43.8614" lon="1.32729">
        <ele>195.22379</ele>
        <time>2023-01-01T09:52:52.468Z</time>
      </trkpt>
      <trkpt lat="43.86134" lon="1.32718">
        <ele>195.268113</ele>
        <time>2023-01-01T09:52:54.474Z</time>
      </trkpt>
      <trkpt lat="43.86127" lon="1.32707">
        <ele>195.312469</ele>
        <time>2023-01-01T09:52:56.482Z</time>
      </trkpt>
      <trkpt lat="43.86121" lon="1.32696">
        <ele>195.358308</ele>
        <time>2023-01-01T09:52:58.462Z</time>
      </trkpt>
      <trkpt lat="43.86116" lon="1.32685">
        <ele>195.402573</ele>
        <time>2023-01-01T09:53:00.479Z</time>
      </trkpt>
      <trkpt lat="43.86111" lon="1.32674">
        <ele>195.443989</ele>
        <time>2023-01-01T09:53:02.462Z</time>
      </trkpt>
      <trkpt lat="43.86104" lon="1.32659">
        <ele>195.469558</ele>
        <time>2023-01-01T09:53:05.484Z</time>
      </trkpt>
      <trkpt lat="43.86098" lon="1.32643">
        <ele>195.465036</ele>
        <time>2023-01-01T09:53:08.483Z</time>
      </trkpt>
      <trkpt lat="43.86094" lon="1.32632">
        <ele>195.461869</ele>
        <time>2023-01-01T09:53:10.481Z</time>
      </trkpt>
      <trkpt lat="43.8609" lon="1.32619">
        <ele>195.458482</ele>
        <time>2023-01-01T09:53:12.471Z</time>
      </trkpt>
      <trkpt lat="43.86086" lon="1.32607">
        <ele>195.455044</ele>
        <time>2023-01-01T09:53:14.481Z</time>
      </trkpt>
      <trkpt lat="43.86083" lon="1.32595">
        <ele>195.451867</ele>
        <time>2023-01-01T09:53:16.475Z</time>
      </trkpt>
      <trkpt lat="43.8608" lon="1.32583">
        <ele>195.448597</ele>
        <time>2023-01-01T09:53:18.483Z</time>
      </trkpt>
      <trkpt lat="43.86077" lon="1.3257">
        <ele>195.445356</ele>
        <time>2023-01-01T09:53:20.483Z</time>
      </trkpt>
      <trkpt lat="43.86074" lon="1.32557">
        <ele>195.44192</ele>
        <time>2023-01-01T09:53:22.464Z</time>
      </trkpt>
      <trkpt lat="43.8607" lon="1.32545">
        <ele>195.438508</ele>
        <time>2023-01-01T09:53:24.482Z</time>
      </trkpt>
      <trkpt lat="43.86066" lon="1.32526">
        <ele>195.433742</ele>
        <time>2023-01-01T09:53:27.483Z</time>
      </trkpt>
      <trkpt lat="43.86064" lon="1.32514">
        <ele>195.430431</ele>
        <time>2023-01-01T09:53:29.482Z</time>
      </trkpt>
      <trkpt lat="43.86062" lon="1.325">
        <ele>195.42709</ele>
        <time>2023-01-01T09:53:31.482Z</time>
      </trkpt>
      <trkpt lat="43.86061" lon="1.32487">
        <ele>195.423667</ele>
        <time>2023-01-01T09:53:33.479Z</time>
      </trkpt>
      <trkpt lat="43.86061" lon="1.32474">
        <ele>195.420324</ele>
        <time>2023-01-01T09:53:35.486Z</time>
      </trkpt>
      <trkpt lat="43.8606" lon="1.3246">
        <ele>195.416982</ele>
        <time>2023-01-01T09:53:37.480Z</time>
      </trkpt>
      <trkpt lat="43.86059" lon="1.32446">
        <ele>195.413339</ele>
        <time>2023-01-01T09:53:39.481Z</time>
      </trkpt>
      <trkpt lat="43.86059" lon="1.32432">
        <ele>195.409821</ele>
        <time>2023-01-01T09:53:41.480Z</time>
      </trkpt>
      <trkpt lat="43.86059" lon="1.32418">
        <ele>195.450683</ele>
        <time>2023-01-01T09:53:43.461Z</time>
      </trkpt>
      <trkpt lat="43.86058" lon="1.32404">
        <ele>195.498789</ele>
        <time>2023-01-01T09:53:45.478Z</time>
      </trkpt>
      <trkpt lat="43.86058" lon="1.32389">
        <ele>195.54973</ele>
        <time>2023-01-01T09:53:47.483Z</time>
      </trkpt>
      <trkpt lat="43.86057" lon="1.32373">
        <ele>195.602729</ele>
        <time>2023-01-01T09:53:49.482Z</time>
      </trkpt>
      <trkpt lat="43.86056" lon="1.32358">
        <ele>195.654768</ele>
        <time>2023-01-01T09:53:51.478Z</time>
      </trkpt>
      <trkpt lat="43.86055" lon="1.32343">
        <ele>195.706318</ele>
        <time>2023-01-01T09:53:53.467Z</time>
      </trkpt>
      <trkpt lat="43.86054" lon="1.32329">
        <ele>195.756689</ele>
        <time>2023-01-01T09:53:55.459Z</time>
      </trkpt>
      <trkpt lat="43.86053" lon="1.32314">
        <ele>195.808428</ele>
        <time>2023-01-01T09:53:57.487Z</time>
      </trkpt>
      <trkpt lat="43.86051" lon="1.32299">
        <ele>195.860264</ele>
        <time>2023-01-01T09:53:59.481Z</time>
      </trkpt>
      <trkpt lat="43.8605" lon="1.32284">
        <ele>195.911417</ele>
        <time>2023-01-01T09:54:01.458Z</time>
      </trkpt>
      <trkpt lat="43.86048" lon="1.32269">
        <ele>195.965161</ele>
        <time>2023-01-01T09:54:03.483Z</time>
      </trkpt>
      <trkpt lat="43.86046" lon="1.32254">
        <ele>196.01705</ele>
        <time>2023-01-01T09:54:05.482Z</time>
      </trkpt>
      <trkpt lat="43.86044" lon="1.32238">
        <ele>196.071268</ele>
        <time>2023-01-01T09:54:07.478Z</time>
      </trkpt>
      <trkpt lat="43.86041" lon="1.32223">
        <ele>196.126817</ele>
        <time>2023-01-01T09:54:09.479Z</time>
      </trkpt>
      <trkpt lat="43.86038" lon="1.32207">
        <ele>196.181863</ele>
        <time>2023-01-01T09:54:11.484Z</time>
      </trkpt>
      <trkpt lat="43.86035" lon="1.32192">
        <ele>196.234416</ele>
        <time>2023-01-01T09:54:13.471Z</time>
      </trkpt>
      <trkpt lat="43.86032" lon="1.32177">
        <ele>196.420546</ele>
        <time>2023-01-01T09:54:15.484Z</time>
      </trkpt>
      <trkpt lat="43.86029" lon="1.32162">
        <ele>196.796457</ele>
        <time>2023-01-01T09:54:17.481Z</time>
      </trkpt>
      <trkpt lat="43.86026" lon="1.32147">
        <ele>197.154658</ele>
        <time>2023-01-01T09:54:19.480Z</time>
      </trkpt>
      <trkpt lat="43.86023" lon="1.32133">
        <ele>197.508301</ele>
        <time>2023-01-01T09:54:21.485Z</time>
      </trkpt>
      <trkpt lat="43.86021" lon="1.32119">
        <ele>197.842567</ele>
        <time>2023-01-01T09:54:23.485Z</time>
      </trkpt>
      <trkpt lat="43.86018" lon="1.32107">
        <ele>198.144168</ele>
        <time>2023-01-01T09:54:25.483Z</time>
      </trkpt>
      <trkpt lat="43.86014" lon="1.3209">
        <ele>198.56662</ele>
        <time>2023-01-01T09:54:28.462Z</time>
      </trkpt>
      <trkpt lat="43.86011" lon="1.32075">
        <ele>198.938315</ele>
        <time>2023-01-01T09:54:31.482Z</time>
      </trkpt>
      <trkpt lat="43.86007" lon="1.32063">
        <ele>199.246158</ele>
        <time>2023-01-01T09:54:34.466Z</time>
      </trkpt>
      <trkpt lat="43.86002" lon="1.3205">
        <ele>199.59014</ele>
        <time>2023-01-01T09:54:38.474Z</time>
      </trkpt>
      <trkpt lat="43.85999" lon="1.32036">
        <ele>199.941715</ele>
        <time>2023-01-01T09:54:42.469Z</time>
      </trkpt>
      <trkpt lat="43.85996" lon="1.32022">
        <ele>200.296256</ele>
        <time>2023-01-01T09:54:46.462Z</time>
      </trkpt>
      <trkpt lat="43.85992" lon="1.32008">
        <ele>200.643442</ele>
        <time>2023-01-01T09:54:50.474Z</time>
      </trkpt>
      <trkpt lat="43.85989" lon="1.31995">
        <ele>200.965316</ele>
        <time>2023-01-01T09:54:54.478Z</time>
      </trkpt>
      <trkpt lat="43.85987" lon="1.31983">
        <ele>201.270408</ele>
        <time>2023-01-01T09:54:58.467Z</time>
      </trkpt>
      <trkpt lat="43.85984" lon="1.31971">
        <ele>201.565246</ele>
        <time>2023-01-01T09:55:02.482Z</time>
      </trkpt>
      <trkpt lat="43.8598" lon="1.31958">
        <ele>201.879039</ele>
        <time>2023-01-01T09:55:06.484Z</time>
      </trkpt>
      <trkpt lat="43.85977" lon="1.31946">
        <ele>202.165338</ele>
        <time>2023-01-01T09:55:10.464Z</time>
      </trkpt>
      <trkpt lat="43.85974" lon="1.31934">
        <ele>202.151861</ele>
        <time>2023-01-01T09:55:14.484Z</time>
      </trkpt>
      <trkpt lat="43.85971" lon="1.31922">
        <ele>202.138058</ele>
        <time>2023-01-01T09:55:18.481Z</time>
      </trkpt>
      <trkpt lat="43.85969" lon="1.31909">
        <ele>202.124118</ele>
        <time>2023-01-01T09:55:22.457Z</time>
      </trkpt>
      <trkpt lat="43.85964" lon="1.31896">
        <ele>202.108809</ele>
        <time>2023-01-01T09:55:26.473Z</time>
      </trkpt>
      <trkpt lat="43.85961" lon="1.31881">
        <ele>202.092362</ele>
        <time>2023-01-01T09:55:30.485Z</time>
      </trkpt>
      <trkpt lat="43.85957" lon="1.31867">
        <ele>202.076759</ele>
        <time>2023-01-01T09:55:34.464Z</time>
      </trkpt>
      <trkpt lat="43.85953" lon="1.31855">
        <ele>202.06215</ele>
        <time>2023-01-01T09:55:38.480Z</time>
      </trkpt>
      <trkpt lat="43.85949" lon="1.31839">
        <ele>202.044458</ele>
        <time>2023-01-01T09:55:42.462Z</time>
      </trkpt>
      <trkpt lat="43.85946" lon="1.31826">
        <ele>202.029617</ele>
        <time>2023-01-01T09:55:45.493Z</time>
      </trkpt>
      <trkpt lat="43.85943" lon="1.31812">
        <ele>202.013913</ele>
        <time>2023-01-01T09:55:48.461Z</time>
      </trkpt>
      <trkpt lat="43.85939" lon="1.31796">
        <ele>201.996572</ele>
        <time>2023-01-01T09:55:51.481Z</time>
      </trkpt>
      <trkpt lat="43.85935" lon="1.31781">
        <ele>201.980102</ele>
        <time>2023-01-01T09:55:54.482Z</time>
      </trkpt>
      <trkpt lat="43.85932" lon="1.31765">
        <ele>201.961973</ele>
        <time>2023-01-01T09:55:57.481Z</time>
      </trkpt>
      <trkpt lat="43.85929" lon="1.31751">
        <ele>201.947022</ele>
        <time>2023-01-01T09:55:59.481Z</time>
      </trkpt>
      <trkpt lat="43.85925" lon="1.31738">
        <ele>201.931774</ele>
        <time>2023-01-01T09:56:01.457Z</time>
      </trkpt>
      <trkpt lat="43.85922" lon="1.31724">
        <ele>201.915878</ele>
        <time>2023-01-01T09:56:03.478Z</time>
      </trkpt>
      <trkpt lat="43.85918" lon="1.31708">
        <ele>201.860879</ele>
        <time>2023-01-01T09:56:05.483Z</time>
      </trkpt>
      <trkpt lat="43.85914" lon="1.31692">
        <ele>201.636344</ele>
        <time>2023-01-01T09:56:07.476Z</time>
      </trkpt>
      <trkpt lat="43.85909" lon="1.31673">
        <ele>201.383071</ele>
        <time>2023-01-01T09:56:09.476Z</time>
      </trkpt>
      <trkpt lat="43.85904" lon="1.31653">
        <ele>201.111276</ele>
        <time>2023-01-01T09:56:11.484Z</time>
      </trkpt>
      <trkpt lat="43.85898" lon="1.31633">
        <ele>200.834074</ele>
        <time>2023-01-01T09:56:13.480Z</time>
      </trkpt>
      <trkpt lat="43.85892" lon="1.31611">
        <ele>200.539356</ele>
        <time>2023-01-01T09:56:15.481Z</time>
      </trkpt>
      <trkpt lat="43.85886" lon="1.31589">
        <ele>200.242365</ele>
        <time>2023-01-01T09:56:17.481Z</time>
      </trkpt>
      <trkpt lat="43.8588" lon="1.31567">
        <ele>199.943554</ele>
        <time>2023-01-01T09:56:19.467Z</time>
      </trkpt>
      <trkpt lat="43.85874" lon="1.31546">
        <ele>199.657384</ele>
        <time>2023-01-01T09:56:21.477Z</time>
      </trkpt>
      <trkpt lat="43.85869" lon="1.31527">
        <ele>199.393967</ele>
        <time>2023-01-01T09:56:23.482Z</time>
      </trkpt>
      <trkpt lat="43.85864" lon="1.31509">
        <ele>199.144258</ele>
        <time>2023-01-01T09:56:25.490Z</time>
      </trkpt>
      <trkpt lat="43.8586" lon="1.31492">
        <ele>198.918411</ele>
        <time>2023-01-01T09:56:27.478Z</time>
      </trkpt>
      <trkpt lat="43.85856" lon="1.31476">
        <ele>198.732477</ele>
        <time>2023-01-01T09:56:29.480Z</time>
      </trkpt>
      <trkpt lat="43.85852" lon="1.31461">
        <ele>198.774125</ele>
        <time>2023-01-01T09:56:31.479Z</time>
      </trkpt>
      <trkpt lat="43.85848" lon="1.31447">
        <ele>198.816041</ele>
        <time>2023-01-01T09:56:33.455Z</time>
      </trkpt>
      <trkpt lat="43.85844" lon="1.31432">
        <ele>198.858692</ele>
        <time>2023-01-01T09:56:35.458Z</time>
      </trkpt>
      <trkpt lat="43.85841" lon="1.31417">
        <ele>198.901749</ele>
        <time>2023-01-01T09:56:37.488Z</time>
      </trkpt>
      <trkpt lat="43.85837" lon="1.31403">
        <ele>198.944146</ele>
        <time>2023-01-01T09:56:39.468Z</time>
      </trkpt>
      <trkpt lat="43.85833" lon="1.31387">
        <ele>198.987815</ele>
        <time>2023-01-01T09:56:41.472Z</time>
      </trkpt>
      <trkpt lat="43.85829" lon="1.31373">
        <ele>199.029324</ele>
        <time>2023-01-01T09:56:43.472Z</time>
      </trkpt>
      <trkpt lat="43.85826" lon="1.31359">
        <ele>199.069805</ele>
        <time>2023-01-01T09:56:45.459Z</time>
      </trkpt>
      <trkpt lat="43.85821" lon="1.31345">
        <ele>199.111613</ele>
        <time>2023-01-01T09:56:47.463Z</time>
      </trkpt>
      <trkpt lat="43.85816" lon="1.31332">
        <ele>199.151131</ele>
        <time>2023-01-01T09:56:49.467Z</time>
      </trkpt>
      <trkpt lat="43.8581" lon="1.31319">
        <ele>199.193521</ele>
        <time>2023-01-01T09:56:51.470Z</time>
      </trkpt>
      <trkpt lat="43.85804" lon="1.31308">
        <ele>199.2331</ele>
        <time>2023-01-01T09:56:53.469Z</time>
      </trkpt>
      <trkpt lat="43.85797" lon="1.31296">
        <ele>199.274299</ele>
        <time>2023-01-01T09:56:55.470Z</time>
      </trkpt>
      <trkpt lat="43.8579" lon="1.31284">
        <ele>199.313838</ele>
        <time>2023-01-01T09:56:57.484Z</time>
      </trkpt>
      <trkpt lat="43.85783" lon="1.31273">
        <ele>199.355388</ele>
        <time>2023-01-01T09:56:59.482Z</time>
      </trkpt>
      <trkpt lat="43.85776" lon="1.31262">
        <ele>199.393406</ele>
        <time>2023-01-01T09:57:01.459Z</time>
      </trkpt>
      <trkpt lat="43.85769" lon="1.31252">
        <ele>199.415826</ele>
        <time>2023-01-01T09:57:03.481Z</time>
      </trkpt>
      <trkpt lat="43.85763" lon="1.31242">
        <ele>199.431227</ele>
        <time>2023-01-01T09:57:05.481Z</time>
      </trkpt>
      <trkpt lat="43.85758" lon="1.31232">
        <ele>199.445803</ele>
        <time>2023-01-01T09:57:07.466Z</time>
      </trkpt>
      <trkpt lat="43.85752" lon="1.31221">
        <ele>199.46189</ele>
        <time>2023-01-01T09:57:09.484Z</time>
      </trkpt>
      <trkpt lat="43.85746" lon="1.31209">
        <ele>199.478758</ele>
        <time>2023-01-01T09:57:11.476Z</time>
      </trkpt>
      <trkpt lat="43.85741" lon="1.31197">
        <ele>199.495226</ele>
        <time>2023-01-01T09:57:13.475Z</time>
      </trkpt>
      <trkpt lat="43.85737" lon="1.31183">
        <ele>199.512188</ele>
        <time>2023-01-01T09:57:15.461Z</time>
      </trkpt>
      <trkpt lat="43.85734" lon="1.3117">
        <ele>199.528431</ele>
        <time>2023-01-01T09:57:17.472Z</time>
      </trkpt>
      <trkpt lat="43.8573" lon="1.31157">
        <ele>199.544732</ele>
        <time>2023-01-01T09:57:19.483Z</time>
      </trkpt>
      <trkpt lat="43.85727" lon="1.31144">
        <ele>199.560696</ele>
        <time>2023-01-01T09:57:21.492Z</time>
      </trkpt>
      <trkpt lat="43.85723" lon="1.31131">
        <ele>199.577139</ele>
        <time>2023-01-01T09:57:23.482Z</time>
      </trkpt>
      <trkpt lat="43.85719" lon="1.31118">
        <ele>199.593838</ele>
        <time>2023-01-01T09:57:25.484Z</time>
      </trkpt>
      <trkpt lat="43.85716" lon="1.31105">
        <ele>199.609587</ele>
        <time>2023-01-01T09:57:27.483Z</time>
      </trkpt>
      <trkpt lat="43.85713" lon="1.31093">
        <ele>199.624953</ele>
        <time>2023-01-01T09:57:29.483Z</time>
      </trkpt>
      <trkpt lat="43.85709" lon="1.3108">
        <ele>199.640929</ele>
        <time>2023-01-01T09:57:31.480Z</time>
      </trkpt>
      <trkpt lat="43.85706" lon="1.31068">
        <ele>199.65629</ele>
        <time>2023-01-01T09:57:33.464Z</time>
      </trkpt>
      <trkpt lat="43.85702" lon="1.31056">
        <ele>199.671269</ele>
        <time>2023-01-01T09:57:35.481Z</time>
      </trkpt>
      <trkpt lat="43.85699" lon="1.31043">
        <ele>199.687344</ele>
        <time>2023-01-01T09:57:37.481Z</time>
      </trkpt>
      <trkpt lat="43.85696" lon="1.3103">
        <ele>199.66516</ele>
        <time>2023-01-01T09:57:39.483Z</time>
      </trkpt>
      <trkpt lat="43.85693" lon="1.31016">
        <ele>199.604263</ele>
        <time>2023-01-01T09:57:41.490Z</time>
      </trkpt>
      <trkpt lat="43.85689" lon="1.31003">
        <ele>199.541936</ele>
        <time>2023-01-01T09:57:43.481Z</time>
      </trkpt>
      <trkpt lat="43.85685" lon="1.30989">
        <ele>199.477757</ele>
        <time>2023-01-01T09:57:45.482Z</time>
      </trkpt>
      <trkpt lat="43.85681" lon="1.30974">
        <ele>199.406698</ele>
        <time>2023-01-01T09:57:47.480Z</time>
      </trkpt>
      <trkpt lat="43.85677" lon="1.30959">
        <ele>199.33889</ele>
        <time>2023-01-01T09:57:49.481Z</time>
      </trkpt>
      <trkpt lat="43.85673" lon="1.30944">
        <ele>199.271496</ele>
        <time>2023-01-01T09:57:51.476Z</time>
      </trkpt>
      <trkpt lat="43.85669" lon="1.3093">
        <ele>199.20512</ele>
        <time>2023-01-01T09:57:53.465Z</time>
      </trkpt>
      <trkpt lat="43.85666" lon="1.30915">
        <ele>199.136679</ele>
        <time>2023-01-01T09:57:55.480Z</time>
      </trkpt>
      <trkpt lat="43.85662" lon="1.309">
        <ele>199.068678</ele>
        <time>2023-01-01T09:57:57.483Z</time>
      </trkpt>
      <trkpt lat="43.85658" lon="1.30886">
        <ele>199.00332</ele>
        <time>2023-01-01T09:57:59.481Z</time>
      </trkpt>
      <trkpt lat="43.85654" lon="1.30872">
        <ele>198.938557</ele>
        <time>2023-01-01T09:58:01.485Z</time>
      </trkpt>
      <trkpt lat="43.85652" lon="1.30858">
        <ele>198.87674</ele>
        <time>2023-01-01T09:58:03.490Z</time>
      </trkpt>
      <trkpt lat="43.85649" lon="1.30844">
        <ele>198.814957</ele>
        <time>2023-01-01T09:58:05.469Z</time>
      </trkpt>
      <trkpt lat="43.85646" lon="1.30831">
        <ele>198.755494</ele>
        <time>2023-01-01T09:58:07.486Z</time>
      </trkpt>
      <trkpt lat="43.85644" lon="1.30818">
        <ele>198.698572</ele>
        <time>2023-01-01T09:58:09.481Z</time>
      </trkpt>
      <trkpt lat="43.85641" lon="1.30805">
        <ele>198.641024</ele>
        <time>2023-01-01T09:58:11.484Z</time>
      </trkpt>
      <trkpt lat="43.85639" lon="1.30793">
        <ele>198.467787</ele>
        <time>2023-01-01T09:58:13.488Z</time>
      </trkpt>
      <trkpt lat="43.85636" lon="1.3078">
        <ele>198.210464</ele>
        <time>2023-01-01T09:58:15.482Z</time>
      </trkpt>
      <trkpt lat="43.85634" lon="1.30767">
        <ele>197.956898</ele>
        <time>2023-01-01T09:58:17.480Z</time>
      </trkpt>
      <trkpt lat="43.85632" lon="1.30753">
        <ele>197.690373</ele>
        <time>2023-01-01T09:58:19.483Z</time>
      </trkpt>
      <trkpt lat="43.8563" lon="1.30739">
        <ele>197.432453</ele>
        <time>2023-01-01T09:58:21.479Z</time>
      </trkpt>
      <trkpt lat="43.85628" lon="1.30726">
        <ele>197.171753</ele>
        <time>2023-01-01T09:58:23.484Z</time>
      </trkpt>
      <trkpt lat="43.85627" lon="1.30712">
        <ele>196.905241</ele>
        <time>2023-01-01T09:58:25.487Z</time>
      </trkpt>
      <trkpt lat="43.85626" lon="1.30698">
        <ele>196.63908</ele>
        <time>2023-01-01T09:58:27.481Z</time>
      </trkpt>
      <trkpt lat="43.85625" lon="1.30683">
        <ele>196.359145</ele>
        <time>2023-01-01T09:58:29.481Z</time>
      </trkpt>
      <trkpt lat="43.85624" lon="1.30669">
        <ele>196.081453</ele>
        <time>2023-01-01T09:58:31.483Z</time>
      </trkpt>
      <trkpt lat="43.85624" lon="1.30654">
        <ele>195.805657</ele>
        <time>2023-01-01T09:58:33.464Z</time>
      </trkpt>
      <trkpt lat="43.85623" lon="1.30639">
        <ele>195.509132</ele>
        <time>2023-01-01T09:58:35.481Z</time>
      </trkpt>
      <trkpt lat="43.85622" lon="1.30624">
        <ele>195.220359</ele>
        <time>2023-01-01T09:58:37.485Z</time>
      </trkpt>
      <trkpt lat="43.8562" lon="1.30609">
        <ele>194.936556</ele>
        <time>2023-01-01T09:58:39.471Z</time>
      </trkpt>
      <trkpt lat="43.85619" lon="1.30595">
        <ele>194.66591</ele>
        <time>2023-01-01T09:58:41.481Z</time>
      </trkpt>
      <trkpt lat="43.85616" lon="1.30579">
        <ele>194.363668</ele>
        <time>2023-01-01T09:58:43.462Z</time>
      </trkpt>
      <trkpt lat="43.85613" lon="1.30564">
        <ele>194.065174</ele>
        <time>2023-01-01T09:58:45.483Z</time>
      </trkpt>
      <trkpt lat="43.8561" lon="1.30548">
        <ele>193.815954</ele>
        <time>2023-01-01T09:58:47.479Z</time>
      </trkpt>
      <trkpt lat="43.85607" lon="1.30533">
        <ele>193.660936</ele>
        <time>2023-01-01T09:58:49.483Z</time>
      </trkpt>
      <trkpt lat="43.85603" lon="1.30519">
        <ele>193.510092</ele>
        <time>2023-01-01T09:58:51.480Z</time>
      </trkpt>
      <trkpt lat="43.856" lon="1.30505">
        <ele>193.366693</ele>
        <time>2023-01-01T09:58:53.480Z</time>
      </trkpt>
      <trkpt lat="43.85596" lon="1.30492">
        <ele>193.221414</ele>
        <time>2023-01-01T09:58:55.488Z</time>
      </trkpt>
      <trkpt lat="43.85593" lon="1.30478">
        <ele>193.078951</ele>
        <time>2023-01-01T09:58:57.479Z</time>
      </trkpt>
      <trkpt lat="43.85589" lon="1.30465">
        <ele>192.943479</ele>
        <time>2023-01-01T09:58:59.489Z</time>
      </trkpt>
      <trkpt lat="43.85586" lon="1.30451">
        <ele>192.799613</ele>
        <time>2023-01-01T09:59:01.474Z</time>
      </trkpt>
      <trkpt lat="43.85582" lon="1.30439">
        <ele>192.664554</ele>
        <time>2023-01-01T09:59:03.480Z</time>
      </trkpt>
      <trkpt lat="43.85579" lon="1.30427">
        <ele>192.536066</ele>
        <time>2023-01-01T09:59:05.480Z</time>
      </trkpt>
      <trkpt lat="43.85576" lon="1.30414">
        <ele>192.405716</ele>
        <time>2023-01-01T09:59:07.482Z</time>
      </trkpt>
      <trkpt lat="43.85572" lon="1.30402">
        <ele>192.279529</ele>
        <time>2023-01-01T09:59:09.471Z</time>
      </trkpt>
      <trkpt lat="43.85568" lon="1.30385">
        <ele>192.098353</ele>
        <time>2023-01-01T09:59:12.488Z</time>
      </trkpt>
      <trkpt lat="43.85564" lon="1.30367">
        <ele>191.910822</ele>
        <time>2023-01-01T09:59:15.478Z</time>
      </trkpt>
      <trkpt lat="43.85561" lon="1.30354">
        <ele>191.781801</ele>
        <time>2023-01-01T09:59:17.481Z</time>
      </trkpt>
      <trkpt lat="43.85559" lon="1.30342">
        <ele>191.655494</ele>
        <time>2023-01-01T09:59:19.454Z</time>
      </trkpt>
      <trkpt lat="43.85557" lon="1.30329">
        <ele>191.526835</ele>
        <time>2023-01-01T09:59:21.492Z</time>
      </trkpt>
      <trkpt lat="43.85555" lon="1.30316">
        <ele>191.399327</ele>
        <time>2023-01-01T09:59:23.481Z</time>
      </trkpt>
      <trkpt lat="43.85553" lon="1.30303">
        <ele>191.32733</ele>
        <time>2023-01-01T09:59:25.485Z</time>
      </trkpt>
      <trkpt lat="43.85551" lon="1.30289">
        <ele>191.251302</ele>
        <time>2023-01-01T09:59:27.484Z</time>
      </trkpt>
      <trkpt lat="43.85549" lon="1.30275">
        <ele>191.173127</ele>
        <time>2023-01-01T09:59:29.481Z</time>
      </trkpt>
      <trkpt lat="43.85547" lon="1.3026">
        <ele>191.091043</ele>
        <time>2023-01-01T09:59:31.480Z</time>
      </trkpt>
      <trkpt lat="43.85545" lon="1.30245">
        <ele>191.008421</ele>
        <time>2023-01-01T09:59:33.481Z</time>
      </trkpt>
      <trkpt lat="43.85544" lon="1.30231">
        <ele>190.92699</ele>
        <time>2023-01-01T09:59:35.479Z</time>
      </trkpt>
      <trkpt lat="43.85542" lon="1.30216">
        <ele>190.844041</ele>
        <time>2023-01-01T09:59:37.482Z</time>
      </trkpt>
      <trkpt lat="43.8554" lon="1.30201">
        <ele>190.762239</ele>
        <time>2023-01-01T09:59:39.475Z</time>
      </trkpt>
      <trkpt lat="43.85539" lon="1.30186">
        <ele>190.67864</ele>
        <time>2023-01-01T09:59:41.480Z</time>
      </trkpt>
      <trkpt lat="43.85538" lon="1.3017">
        <ele>190.59307</ele>
        <time>2023-01-01T09:59:43.473Z</time>
      </trkpt>
      <trkpt lat="43.85536" lon="1.30154">
        <ele>190.501294</ele>
        <time>2023-01-01T09:59:45.480Z</time>
      </trkpt>
      <trkpt lat="43.85535" lon="1.30137">
        <ele>190.409747</ele>
        <time>2023-01-01T09:59:47.486Z</time>
      </trkpt>
      <trkpt lat="43.85533" lon="1.3012">
        <ele>190.315631</ele>
        <time>2023-01-01T09:59:49.486Z</time>
      </trkpt>
      <trkpt lat="43.8553" lon="1.30103">
        <ele>190.220442</ele>
        <time>2023-01-01T09:59:51.482Z</time>
      </trkpt>
      <trkpt lat="43.85527" lon="1.30087">
        <ele>190.128833</ele>
        <time>2023-01-01T09:59:53.461Z</time>
      </trkpt>
      <trkpt lat="43.85523" lon="1.30072">
        <ele>190.035149</ele>
        <time>2023-01-01T09:59:55.459Z</time>
      </trkpt>
      <trkpt lat="43.85517" lon="1.30059">
        <ele>189.921638</ele>
        <time>2023-01-01T09:59:57.458Z</time>
      </trkpt>
      <trkpt lat="43.85511" lon="1.30047">
        <ele>189.804579</ele>
        <time>2023-01-01T09:59:59.471Z</time>
      </trkpt>
      <trkpt lat="43.85505" lon="1.30036">
        <ele>189.687401</ele>
        <time>2023-01-01T10:00:01.478Z</time>
      </trkpt>
      <trkpt lat="43.85498" lon="1.30025">
        <ele>189.575664</ele>
        <time>2023-01-01T10:00:03.481Z</time>
      </trkpt>
      <trkpt lat="43.85492" lon="1.30014">
        <ele>189.46683</ele>
        <time>2023-01-01T10:00:05.472Z</time>
      </trkpt>
      <trkpt lat="43.85486" lon="1.30003">
        <ele>189.361862</ele>
        <time>2023-01-01T10:00:07.480Z</time>
      </trkpt>
      <trkpt lat="43.8548" lon="1.29993">
        <ele>189.260032</ele>
        <time>2023-01-01T10:00:09.466Z</time>
      </trkpt>
      <trkpt lat="43.85475" lon="1.29982">
        <ele>189.161345</ele>
        <time>2023-01-01T10:00:11.465Z</time>
      </trkpt>
      <trkpt lat="43.8547" lon="1.29972">
        <ele>189.061985</ele>
        <time>2023-01-01T10:00:13.481Z</time>
      </trkpt>
      <trkpt lat="43.85465" lon="1.29961">
        <ele>188.958825</ele>
        <time>2023-01-01T10:00:15.481Z</time>
      </trkpt>
      <trkpt lat="43.85459" lon="1.2995">
        <ele>188.851121</ele>
        <time>2023-01-01T10:00:17.480Z</time>
      </trkpt>
      <trkpt lat="43.85454" lon="1.29938">
        <ele>188.748936</ele>
        <time>2023-01-01T10:00:19.482Z</time>
      </trkpt>
      <trkpt lat="43.85449" lon="1.29927">
        <ele>188.643919</ele>
        <time>2023-01-01T10:00:21.485Z</time>
      </trkpt>
      <trkpt lat="43.85442" lon="1.29912">
        <ele>188.500478</ele>
        <time>2023-01-01T10:00:24.482Z</time>
      </trkpt>
      <trkpt lat="43.85435" lon="1.29897">
        <ele>188.358498</ele>
        <time>2023-01-01T10:00:27.484Z</time>
      </trkpt>
      <trkpt lat="43.85428" lon="1.29883">
        <ele>188.231872</ele>
        <time>2023-01-01T10:00:30.485Z</time>
      </trkpt>
      <trkpt lat="43.85422" lon="1.29869">
        <ele>188.101561</ele>
        <time>2023-01-01T10:00:33.467Z</time>
      </trkpt>
      <trkpt lat="43.85415" lon="1.29854">
        <ele>188.164388</ele>
        <time>2023-01-01T10:00:36.481Z</time>
      </trkpt>
      <trkpt lat="43.85411" lon="1.29837">
        <ele>188.24344</ele>
        <time>2023-01-01T10:00:39.461Z</time>
      </trkpt>
      <trkpt lat="43.85412" lon="1.29819">
        <ele>188.326361</ele>
        <time>2023-01-01T10:00:42.470Z</time>
      </trkpt>
      <trkpt lat="43.85415" lon="1.29806">
        <ele>188.386234</ele>
        <time>2023-01-01T10:00:44.465Z</time>
      </trkpt>
      <trkpt lat="43.8542" lon="1.29794">
        <ele>188.449223</ele>
        <time>2023-01-01T10:00:46.474Z</time>
      </trkpt>
      <trkpt lat="43.85425" lon="1.29782">
        <ele>188.508933</ele>
        <time>2023-01-01T10:00:48.483Z</time>
      </trkpt>
      <trkpt lat="43.8543" lon="1.29771">
        <ele>188.566521</ele>
        <time>2023-01-01T10:00:50.483Z</time>
      </trkpt>
      <trkpt lat="43.85435" lon="1.2976">
        <ele>188.628141</ele>
        <time>2023-01-01T10:00:52.484Z</time>
      </trkpt>
      <trkpt lat="43.8544" lon="1.29748">
        <ele>188.689554</ele>
        <time>2023-01-01T10:00:54.480Z</time>
      </trkpt>
      <trkpt lat="43.85445" lon="1.29736">
        <ele>188.752646</ele>
        <time>2023-01-01T10:00:56.480Z</time>
      </trkpt>
      <trkpt lat="43.85451" lon="1.29724">
        <ele>188.817209</ele>
        <time>2023-01-01T10:00:58.479Z</time>
      </trkpt>
      <trkpt lat="43.85456" lon="1.29711">
        <ele>188.882364</ele>
        <time>2023-01-01T10:01:00.483Z</time>
      </trkpt>
      <trkpt lat="43.85461" lon="1.29699">
        <ele>188.944828</ele>
        <time>2023-01-01T10:01:02.480Z</time>
      </trkpt>
      <trkpt lat="43.85466" lon="1.29688">
        <ele>189.002743</ele>
        <time>2023-01-01T10:01:04.464Z</time>
      </trkpt>
      <trkpt lat="43.85469" lon="1.29676">
        <ele>189.060909</ele>
        <time>2023-01-01T10:01:06.466Z</time>
      </trkpt>
      <trkpt lat="43.85469" lon="1.29659">
        <ele>189.137503</ele>
        <time>2023-01-01T10:01:09.473Z</time>
      </trkpt>
      <trkpt lat="43.85465" lon="1.29644">
        <ele>189.211094</ele>
        <time>2023-01-01T10:01:12.473Z</time>
      </trkpt>
      <trkpt lat="43.85458" lon="1.2963">
        <ele>189.320756</ele>
        <time>2023-01-01T10:01:15.480Z</time>
      </trkpt>
      <trkpt lat="43.8545" lon="1.29618">
        <ele>189.429752</ele>
        <time>2023-01-01T10:01:18.472Z</time>
      </trkpt>
      <trkpt lat="43.85442" lon="1.29606">
        <ele>189.529287</ele>
        <time>2023-01-01T10:01:21.470Z</time>
      </trkpt>
      <trkpt lat="43.85435" lon="1.29597">
        <ele>189.617176</ele>
        <time>2023-01-01T10:01:24.481Z</time>
      </trkpt>
      <trkpt lat="43.85427" lon="1.29587">
        <ele>189.714279</ele>
        <time>2023-01-01T10:01:27.492Z</time>
      </trkpt>
      <trkpt lat="43.8542" lon="1.29576">
        <ele>189.812028</ele>
        <time>2023-01-01T10:01:30.477Z</time>
      </trkpt>
      <trkpt lat="43.85412" lon="1.29565">
        <ele>189.915215</ele>
        <time>2023-01-01T10:01:33.485Z</time>
      </trkpt>
      <trkpt lat="43.85403" lon="1.29554">
        <ele>190.01755</ele>
        <time>2023-01-01T10:01:36.482Z</time>
      </trkpt>
      <trkpt lat="43.85395" lon="1.29542">
        <ele>190.12609</ele>
        <time>2023-01-01T10:01:39.484Z</time>
      </trkpt>
      <trkpt lat="43.85386" lon="1.2953">
        <ele>190.237562</ele>
        <time>2023-01-01T10:01:42.480Z</time>
      </trkpt>
      <trkpt lat="43.85378" lon="1.29517">
        <ele>190.349657</ele>
        <time>2023-01-01T10:01:45.481Z</time>
      </trkpt>
      <trkpt lat="43.85369" lon="1.29505">
        <ele>190.459715</ele>
        <time>2023-01-01T10:01:48.484Z</time>
      </trkpt>
      <trkpt lat="43.85361" lon="1.29492">
        <ele>190.572034</ele>
        <time>2023-01-01T10:01:51.485Z</time>
      </trkpt>
      <trkpt lat="43.85353" lon="1.29479">
        <ele>190.682571</ele>
        <time>2023-01-01T10:01:54.494Z</time>
      </trkpt>
      <trkpt lat="43.85346" lon="1.29468">
        <ele>190.779591</ele>
        <time>2023-01-01T10:01:57.461Z</time>
      </trkpt>
      <trkpt lat="43.85341" lon="1.29457">
        <ele>190.82136</ele>
        <time>2023-01-01T10:02:00.483Z</time>
      </trkpt>
      <trkpt lat="43.85335" lon="1.29445">
        <ele>190.802468</ele>
        <time>2023-01-01T10:02:03.481Z</time>
      </trkpt>
      <trkpt lat="43.85329" lon="1.29434">
        <ele>190.783676</ele>
        <time>2023-01-01T10:02:06.467Z</time>
      </trkpt>
      <trkpt lat="43.85324" lon="1.29422">
        <ele>190.765296</ele>
        <time>2023-01-01T10:02:09.483Z</time>
      </trkpt>
      <trkpt lat="43.85319" lon="1.29409">
        <ele>190.746253</ele>
        <time>2023-01-01T10:02:12.486Z</time>
      </trkpt>
      <trkpt lat="43.85319" lon="1.29394">
        <ele>190.727196</ele>
        <time>2023-01-01T10:02:15.465Z</time>
      </trkpt>
      <trkpt lat="43.85318" lon="1.29379">
        <ele>190.707053</ele>
        <time>2023-01-01T10:02:18.482Z</time>
      </trkpt>
      <trkpt lat="43.85312" lon="1.29365">
        <ele>190.686191</ele>
        <time>2023-01-01T10:02:21.471Z</time>
      </trkpt>
      <trkpt lat="43.85306" lon="1.29354">
        <ele>190.666745</ele>
        <time>2023-01-01T10:02:24.472Z</time>
      </trkpt>
      <trkpt lat="43.85299" lon="1.29343">
        <ele>190.64803</ele>
        <time>2023-01-01T10:02:27.460Z</time>
      </trkpt>
      <trkpt lat="43.85294" lon="1.29328">
        <ele>190.626876</ele>
        <time>2023-01-01T10:02:30.464Z</time>
      </trkpt>
      <trkpt lat="43.8529" lon="1.29311">
        <ele>190.602964</ele>
        <time>2023-01-01T10:02:33.465Z</time>
      </trkpt>
      <trkpt lat="43.85286" lon="1.29294">
        <ele>190.578879</ele>
        <time>2023-01-01T10:02:36.478Z</time>
      </trkpt>
      <trkpt lat="43.85281" lon="1.29278">
        <ele>190.555338</ele>
        <time>2023-01-01T10:02:39.480Z</time>
      </trkpt>
      <trkpt lat="43.85277" lon="1.29261">
        <ele>190.532113</ele>
        <time>2023-01-01T10:02:42.482Z</time>
      </trkpt>
      <trkpt lat="43.85275" lon="1.29246">
        <ele>190.511441</ele>
        <time>2023-01-01T10:02:45.464Z</time>
      </trkpt>
      <trkpt lat="43.85278" lon="1.29233">
        <ele>190.386046</ele>
        <time>2023-01-01T10:02:48.465Z</time>
      </trkpt>
      <trkpt lat="43.85278" lon="1.2922">
        <ele>189.959114</ele>
        <time>2023-01-01T10:02:51.475Z</time>
      </trkpt>
      <trkpt lat="43.8527" lon="1.29212">
        <ele>189.516962</ele>
        <time>2023-01-01T10:02:54.468Z</time>
      </trkpt>
      <trkpt lat="43.85259" lon="1.29211">
        <ele>189.027782</ele>
        <time>2023-01-01T10:02:57.466Z</time>
      </trkpt>
      <trkpt lat="43.85247" lon="1.2921">
        <ele>188.500946</ele>
        <time>2023-01-01T10:03:00.479Z</time>
      </trkpt>
      <trkpt lat="43.85236" lon="1.29208">
        <ele>187.98163</ele>
        <time>2023-01-01T10:03:03.483Z</time>
      </trkpt>
      <trkpt lat="43.85226" lon="1.29206">
        <ele>187.536041</ele>
        <time>2023-01-01T10:03:06.481Z</time>
      </trkpt>
      <trkpt lat="43.85216" lon="1.29204">
        <ele>187.075403</ele>
        <time>2023-01-01T10:03:09.481Z</time>
      </trkpt>
      <trkpt lat="43.85205" lon="1.29201">
        <ele>186.551409</ele>
        <time>2023-01-01T10:03:12.481Z</time>
      </trkpt>
      <trkpt lat="43.85194" lon="1.29195">
        <ele>186.027316</ele>
        <time>2023-01-01T10:03:15.466Z</time>
      </trkpt>
      <trkpt lat="43.85184" lon="1.29187">
        <ele>185.51892</ele>
        <time>2023-01-01T10:03:18.470Z</time>
      </trkpt>
      <trkpt lat="43.85176" lon="1.2918">
        <ele>185.073793</ele>
        <time>2023-01-01T10:03:21.481Z</time>
      </trkpt>
      <trkpt lat="43.85168" lon="1.29173">
        <ele>184.647544</ele>
        <time>2023-01-01T10:03:25.486Z</time>
      </trkpt>
      <trkpt lat="43.85169" lon="1.2916">
        <ele>184.199815</ele>
        <time>2023-01-01T10:03:30.466Z</time>
      </trkpt>
      <trkpt lat="43.85174" lon="1.29149">
        <ele>183.79048</ele>
        <time>2023-01-01T10:03:33.474Z</time>
      </trkpt>
      <trkpt lat="43.85179" lon="1.29138">
        <ele>183.36217</ele>
        <time>2023-01-01T10:03:36.481Z</time>
      </trkpt>
      <trkpt lat="43.85168" lon="1.2914">
        <ele>182.866776</ele>
        <time>2023-01-01T10:03:47.474Z</time>
      </trkpt>
      <trkpt lat="43.85161" lon="1.29151">
        <ele>182.388289</ele>
        <time>2023-01-01T10:03:50.481Z</time>
      </trkpt>
      <trkpt lat="43.85153" lon="1.2916">
        <ele>181.829331</ele>
        <time>2023-01-01T10:03:53.462Z</time>
      </trkpt>
      <trkpt lat="43.85144" lon="1.29164">
        <ele>181.322044</ele>
        <time>2023-01-01T10:03:56.470Z</time>
      </trkpt>
      <trkpt lat="43.85133" lon="1.2916">
        <ele>180.710246</ele>
        <time>2023-01-01T10:03:59.471Z</time>
      </trkpt>
      <trkpt lat="43.85126" lon="1.29148">
        <ele>180.093431</ele>
        <time>2023-01-01T10:04:02.467Z</time>
      </trkpt>
      <trkpt lat="43.85123" lon="1.29135">
        <ele>179.545833</ele>
        <time>2023-01-01T10:04:05.464Z</time>
      </trkpt>
      <trkpt lat="43.85125" lon="1.29121">
        <ele>178.967959</ele>
        <time>2023-01-01T10:04:08.458Z</time>
      </trkpt>
      <trkpt lat="43.85129" lon="1.29109">
        <ele>178.444116</ele>
        <time>2023-01-01T10:04:11.472Z</time>
      </trkpt>
      <trkpt lat="43.85133" lon="1.29098">
        <ele>177.933553</ele>
        <time>2023-01-01T10:04:14.482Z</time>
      </trkpt>
      <trkpt lat="43.85138" lon="1.29086">
        <ele>177.420521</ele>
        <time>2023-01-01T10:04:17.482Z</time>
      </trkpt>
      <trkpt lat="43.85141" lon="1.29072">
        <ele>176.80461</ele>
        <time>2023-01-01T10:04:20.466Z</time>
      </trkpt>
      <trkpt lat="43.85146" lon="1.29055">
        <ele>176.080157</ele>
        <time>2023-01-01T10:04:23.486Z</time>
      </trkpt>
      <trkpt lat="43.85149" lon="1.29042">
        <ele>175.535345</ele>
        <time>2023-01-01T10:04:25.477Z</time>
      </trkpt>
      <trkpt lat="43.85154" lon="1.29029">
        <ele>174.96478</ele>
        <time>2023-01-01T10:04:27.480Z</time>
      </trkpt>
      <trkpt lat="43.85158" lon="1.29015">
        <ele>174.390577</ele>
        <time>2023-01-01T10:04:29.480Z</time>
      </trkpt>
      <trkpt lat="43.85162" lon="1.29003">
        <ele>173.844137</ele>
        <time>2023-01-01T10:04:31.484Z</time>
      </trkpt>
      <trkpt lat="43.85166" lon="1.2899">
        <ele>173.276416</ele>
        <time>2023-01-01T10:04:33.492Z</time>
      </trkpt>
      <trkpt lat="43.8517" lon="1.28976">
        <ele>172.689063</ele>
        <time>2023-01-01T10:04:35.465Z</time>
      </trkpt>
      <trkpt lat="43.85174" lon="1.28964">
        <ele>172.110427</ele>
        <time>2023-01-01T10:04:37.487Z</time>
      </trkpt>
      <trkpt lat="43.85178" lon="1.28951">
        <ele>171.456726</ele>
        <time>2023-01-01T10:04:39.483Z</time>
      </trkpt>
      <trkpt lat="43.85181" lon="1.28939">
        <ele>170.82561</ele>
        <time>2023-01-01T10:04:41.483Z</time>
      </trkpt>
      <trkpt lat="43.85183" lon="1.28925">
        <ele>170.177648</ele>
        <time>2023-01-01T10:04:43.482Z</time>
      </trkpt>
      <trkpt lat="43.85185" lon="1.28912">
        <ele>169.556915</ele>
        <time>2023-01-01T10:04:45.461Z</time>
      </trkpt>
      <trkpt lat="43.85184" lon="1.28898">
        <ele>168.884754</ele>
        <time>2023-01-01T10:04:47.466Z</time>
      </trkpt>
      <trkpt lat="43.85181" lon="1.28884">
        <ele>168.199557</ele>
        <time>2023-01-01T10:04:49.474Z</time>
      </trkpt>
      <trkpt lat="43.85176" lon="1.28871">
        <ele>167.514037</ele>
        <time>2023-01-01T10:04:51.458Z</time>
      </trkpt>
      <trkpt lat="43.8517" lon="1.28857">
        <ele>166.685297</ele>
        <time>2023-01-01T10:04:53.463Z</time>
      </trkpt>
      <trkpt lat="43.85162" lon="1.28841">
        <ele>165.785078</ele>
        <time>2023-01-01T10:04:55.464Z</time>
      </trkpt>
      <trkpt lat="43.85153" lon="1.28825">
        <ele>164.827462</ele>
        <time>2023-01-01T10:04:57.489Z</time>
      </trkpt>
      <trkpt lat="43.85144" lon="1.28807">
        <ele>163.820025</ele>
        <time>2023-01-01T10:04:59.479Z</time>
      </trkpt>
      <trkpt lat="43.85135" lon="1.2879">
        <ele>162.781814</ele>
        <time>2023-01-01T10:05:01.464Z</time>
      </trkpt>
      <trkpt lat="43.85125" lon="1.28772">
        <ele>161.739908</ele>
        <time>2023-01-01T10:05:03.480Z</time>
      </trkpt>
      <trkpt lat="43.85116" lon="1.28754">
        <ele>160.717122</ele>
        <time>2023-01-01T10:05:05.478Z</time>
      </trkpt>
      <trkpt lat="43.85108" lon="1.28738">
        <ele>160.617941</ele>
        <time>2023-01-01T10:05:07.485Z</time>
      </trkpt>
      <trkpt lat="43.851" lon="1.28724">
        <ele>160.576891</ele>
        <time>2023-01-01T10:05:09.481Z</time>
      </trkpt>
      <trkpt lat="43.85094" lon="1.28712">
        <ele>160.542078</ele>
        <time>2023-01-01T10:05:11.483Z</time>
      </trkpt>
      <trkpt lat="43.85087" lon="1.287">
        <ele>160.505442</ele>
        <time>2023-01-01T10:05:14.479Z</time>
      </trkpt>
      <trkpt lat="43.8508" lon="1.28689">
        <ele>160.470045</ele>
        <time>2023-01-01T10:05:17.488Z</time>
      </trkpt>
      <trkpt lat="43.85073" lon="1.28678">
        <ele>160.434648</ele>
        <time>2023-01-01T10:05:20.484Z</time>
      </trkpt>
      <trkpt lat="43.85067" lon="1.28667">
        <ele>160.399978</ele>
        <time>2023-01-01T10:05:23.484Z</time>
      </trkpt>
      <trkpt lat="43.8506" lon="1.28657">
        <ele>160.366451</ele>
        <time>2023-01-01T10:05:26.484Z</time>
      </trkpt>
      <trkpt lat="43.85054" lon="1.28647">
        <ele>160.334577</ele>
        <time>2023-01-01T10:05:29.482Z</time>
      </trkpt>
      <trkpt lat="43.85048" lon="1.28637">
        <ele>160.302176</ele>
        <time>2023-01-01T10:05:32.481Z</time>
      </trkpt>
      <trkpt lat="43.85042" lon="1.28626">
        <ele>160.270097</ele>
        <time>2023-01-01T10:05:35.484Z</time>
      </trkpt>
      <trkpt lat="43.85037" lon="1.28613">
        <ele>160.235633</ele>
        <time>2023-01-01T10:05:39.489Z</time>
      </trkpt>
      <trkpt lat="43.85033" lon="1.286">
        <ele>160.20001</ele>
        <time>2023-01-01T10:05:48.470Z</time>
      </trkpt>
      <trkpt lat="43.85028" lon="1.28587">
        <ele>160.164966</ele>
        <time>2023-01-01T10:05:52.484Z</time>
      </trkpt>
      <trkpt lat="43.85025" lon="1.28574">
        <ele>160.133227</ele>
        <time>2023-01-01T10:05:57.483Z</time>
      </trkpt>
      <trkpt lat="43.85036" lon="1.2857">
        <ele>160.094763</ele>
        <time>2023-01-01T10:06:04.472Z</time>
      </trkpt>
      <trkpt lat="43.85048" lon="1.28565">
        <ele>160.10409</ele>
        <time>2023-01-01T10:06:07.474Z</time>
      </trkpt>
      <trkpt lat="43.85057" lon="1.2856">
        <ele>160.241411</ele>
        <time>2023-01-01T10:06:09.463Z</time>
      </trkpt>
      <trkpt lat="43.85066" lon="1.28557">
        <ele>160.370412</ele>
        <time>2023-01-01T10:06:11.482Z</time>
      </trkpt>
      <trkpt lat="43.85076" lon="1.28548">
        <ele>160.5343</ele>
        <time>2023-01-01T10:06:14.480Z</time>
      </trkpt>
      <trkpt lat="43.85087" lon="1.28542">
        <ele>160.691083</ele>
        <time>2023-01-01T10:06:17.491Z</time>
      </trkpt>
      <trkpt lat="43.85098" lon="1.28536">
        <ele>160.85461</ele>
        <time>2023-01-01T10:06:20.480Z</time>
      </trkpt>
      <trkpt lat="43.85108" lon="1.2853">
        <ele>161.003806</ele>
        <time>2023-01-01T10:06:23.491Z</time>
      </trkpt>
      <trkpt lat="43.85117" lon="1.28524">
        <ele>161.14802</ele>
        <time>2023-01-01T10:06:26.483Z</time>
      </trkpt>
      <trkpt lat="43.85128" lon="1.28517">
        <ele>161.305198</ele>
        <time>2023-01-01T10:06:30.482Z</time>
      </trkpt>
      <trkpt lat="43.85138" lon="1.2851">
        <ele>161.466464</ele>
        <time>2023-01-01T10:06:34.465Z</time>
      </trkpt>
      <trkpt lat="43.85147" lon="1.28505">
        <ele>161.597815</ele>
        <time>2023-01-01T10:06:37.466Z</time>
      </trkpt>
      <trkpt lat="43.85156" lon="1.28498">
        <ele>161.747877</ele>
        <time>2023-01-01T10:06:40.468Z</time>
      </trkpt>
      <trkpt lat="43.85168" lon="1.28491">
        <ele>161.916659</ele>
        <time>2023-01-01T10:06:43.481Z</time>
      </trkpt>
      <trkpt lat="43.85179" lon="1.28484">
        <ele>162.089717</ele>
        <time>2023-01-01T10:06:46.478Z</time>
      </trkpt>
      <trkpt lat="43.85188" lon="1.28478">
        <ele>162.218076</ele>
        <time>2023-01-01T10:06:48.472Z</time>
      </trkpt>
      <trkpt lat="43.85196" lon="1.28474">
        <ele>162.344945</ele>
        <time>2023-01-01T10:06:50.480Z</time>
      </trkpt>
      <trkpt lat="43.85206" lon="1.28469">
        <ele>162.487812</ele>
        <time>2023-01-01T10:06:52.482Z</time>
      </trkpt>
      <trkpt lat="43.85215" lon="1.28463">
        <ele>162.573378</ele>
        <time>2023-01-01T10:06:54.479Z</time>
      </trkpt>
      <trkpt lat="43.85224" lon="1.28457">
        <ele>162.633385</ele>
        <time>2023-01-01T10:06:56.483Z</time>
      </trkpt>
      <trkpt lat="43.85233" lon="1.28451">
        <ele>162.690616</ele>
        <time>2023-01-01T10:06:58.483Z</time>
      </trkpt>
      <trkpt lat="43.85245" lon="1.28442">
        <ele>162.767745</ele>
        <time>2023-01-01T10:07:01.486Z</time>
      </trkpt>
      <trkpt lat="43.85254" lon="1.28437">
        <ele>162.826723</ele>
        <time>2023-01-01T10:07:03.480Z</time>
      </trkpt>
      <trkpt lat="43.85262" lon="1.2843">
        <ele>162.879258</ele>
        <time>2023-01-01T10:07:05.483Z</time>
      </trkpt>
      <trkpt lat="43.8527" lon="1.28424">
        <ele>162.933299</ele>
        <time>2023-01-01T10:07:07.482Z</time>
      </trkpt>
      <trkpt lat="43.85279" lon="1.28419">
        <ele>162.988501</ele>
        <time>2023-01-01T10:07:09.481Z</time>
      </trkpt>
      <trkpt lat="43.85289" lon="1.28413">
        <ele>163.050952</ele>
        <time>2023-01-01T10:07:11.501Z</time>
      </trkpt>
      <trkpt lat="43.85298" lon="1.28408">
        <ele>163.10785</ele>
        <time>2023-01-01T10:07:13.482Z</time>
      </trkpt>
      <trkpt lat="43.85308" lon="1.28402">
        <ele>163.171722</ele>
        <time>2023-01-01T10:07:15.500Z</time>
      </trkpt>
      <trkpt lat="43.85317" lon="1.28395">
        <ele>163.229005</ele>
        <time>2023-01-01T10:07:17.484Z</time>
      </trkpt>
      <trkpt lat="43.85326" lon="1.28389">
        <ele>163.286572</ele>
        <time>2023-01-01T10:07:19.461Z</time>
      </trkpt>
      <trkpt lat="43.85335" lon="1.28383">
        <ele>163.34396</ele>
        <time>2023-01-01T10:07:21.490Z</time>
      </trkpt>
      <trkpt lat="43.85347" lon="1.28376">
        <ele>163.419008</ele>
        <time>2023-01-01T10:07:24.481Z</time>
      </trkpt>
      <trkpt lat="43.85357" lon="1.28369">
        <ele>163.48565</ele>
        <time>2023-01-01T10:07:27.481Z</time>
      </trkpt>
      <trkpt lat="43.85369" lon="1.28362">
        <ele>163.55961</ele>
        <time>2023-01-01T10:07:30.483Z</time>
      </trkpt>
      <trkpt lat="43.85377" lon="1.28356">
        <ele>163.491028</ele>
        <time>2023-01-01T10:07:32.481Z</time>
      </trkpt>
      <trkpt lat="43.85389" lon="1.28349">
        <ele>163.30918</ele>
        <time>2023-01-01T10:07:35.485Z</time>
      </trkpt>
      <trkpt lat="43.85398" lon="1.28343">
        <ele>163.173989</ele>
        <time>2023-01-01T10:07:37.481Z</time>
      </trkpt>
      <trkpt lat="43.85406" lon="1.28339">
        <ele>163.043414</ele>
        <time>2023-01-01T10:07:39.478Z</time>
      </trkpt>
      <trkpt lat="43.85415" lon="1.28333">
        <ele>162.904029</ele>
        <time>2023-01-01T10:07:41.477Z</time>
      </trkpt>
      <trkpt lat="43.85424" lon="1.28327">
        <ele>162.76636</ele>
        <time>2023-01-01T10:07:43.484Z</time>
      </trkpt>
      <trkpt lat="43.85433" lon="1.28322">
        <ele>162.630371</ele>
        <time>2023-01-01T10:07:45.491Z</time>
      </trkpt>
      <trkpt lat="43.85441" lon="1.28316">
        <ele>162.497849</ele>
        <time>2023-01-01T10:07:47.485Z</time>
      </trkpt>
      <trkpt lat="43.85453" lon="1.28309">
        <ele>162.319437</ele>
        <time>2023-01-01T10:07:50.486Z</time>
      </trkpt>
      <trkpt lat="43.85462" lon="1.28302">
        <ele>162.166174</ele>
        <time>2023-01-01T10:07:53.495Z</time>
      </trkpt>
      <trkpt lat="43.85471" lon="1.28296">
        <ele>162.030516</ele>
        <time>2023-01-01T10:07:56.481Z</time>
      </trkpt>
      <trkpt lat="43.85479" lon="1.2829">
        <ele>161.895411</ele>
        <time>2023-01-01T10:07:59.483Z</time>
      </trkpt>
      <trkpt lat="43.85488" lon="1.28284">
        <ele>161.763996</ele>
        <time>2023-01-01T10:08:02.482Z</time>
      </trkpt>
      <trkpt lat="43.85498" lon="1.28277">
        <ele>161.595019</ele>
        <time>2023-01-01T10:08:05.485Z</time>
      </trkpt>
      <trkpt lat="43.85511" lon="1.2827">
        <ele>161.406276</ele>
        <time>2023-01-01T10:08:08.483Z</time>
      </trkpt>
      <trkpt lat="43.85519" lon="1.28265">
        <ele>161.276571</ele>
        <time>2023-01-01T10:08:10.486Z</time>
      </trkpt>
      <trkpt lat="43.85529" lon="1.28258">
        <ele>161.113596</ele>
        <time>2023-01-01T10:08:13.483Z</time>
      </trkpt>
      <trkpt lat="43.85538" lon="1.28253">
        <ele>160.913675</ele>
        <time>2023-01-01T10:08:16.484Z</time>
      </trkpt>
      <trkpt lat="43.85547" lon="1.28246">
        <ele>160.556187</ele>
        <time>2023-01-01T10:08:20.459Z</time>
      </trkpt>
      <trkpt lat="43.85555" lon="1.28239">
        <ele>160.237687</ele>
        <time>2023-01-01T10:08:23.479Z</time>
      </trkpt>
      <trkpt lat="43.85565" lon="1.28234">
        <ele>159.898251</ele>
        <time>2023-01-01T10:08:26.482Z</time>
      </trkpt>
      <trkpt lat="43.85575" lon="1.28227">
        <ele>159.528198</ele>
        <time>2023-01-01T10:08:29.486Z</time>
      </trkpt>
      <trkpt lat="43.85584" lon="1.28221">
        <ele>159.156033</ele>
        <time>2023-01-01T10:08:32.484Z</time>
      </trkpt>
      <trkpt lat="43.85595" lon="1.28214">
        <ele>158.766562</ele>
        <time>2023-01-01T10:08:35.480Z</time>
      </trkpt>
      <trkpt lat="43.85605" lon="1.28207">
        <ele>158.39302</ele>
        <time>2023-01-01T10:08:38.482Z</time>
      </trkpt>
      <trkpt lat="43.85614" lon="1.282">
        <ele>158.041181</ele>
        <time>2023-01-01T10:08:41.482Z</time>
      </trkpt>
      <trkpt lat="43.85624" lon="1.28194">
        <ele>157.682211</ele>
        <time>2023-01-01T10:08:45.482Z</time>
      </trkpt>
      <trkpt lat="43.85623" lon="1.28193">
        <ele>157.668282</ele>
        <time>2023-01-01T10:08:52.453Z</time>
      </trkpt>
      <trkpt lat="43.85641" lon="1.28185">
        <ele>157.040219</ele>
        <time>2023-01-01T10:38:08.477Z</time>
      </trkpt>
      <trkpt lat="43.8565" lon="1.28179">
        <ele>156.693356</ele>
        <time>2023-01-01T10:38:12.467Z</time>
      </trkpt>
      <trkpt lat="43.85659" lon="1.28173">
        <ele>156.361134</ele>
        <time>2023-01-01T10:38:15.484Z</time>
      </trkpt>
      <trkpt lat="43.85669" lon="1.28166">
        <ele>155.98347</ele>
        <time>2023-01-01T10:38:18.488Z</time>
      </trkpt>
      <trkpt lat="43.85679" lon="1.28159">
        <ele>155.609144</ele>
        <time>2023-01-01T10:38:21.478Z</time>
      </trkpt>
      <trkpt lat="43.8569" lon="1.28153">
        <ele>155.218565</ele>
        <time>2023-01-01T10:38:24.487Z</time>
      </trkpt>
      <trkpt lat="43.85701" lon="1.28145">
        <ele>154.946276</ele>
        <time>2023-01-01T10:38:27.485Z</time>
      </trkpt>
      <trkpt lat="43.85712" lon="1.28138">
        <ele>154.93076</ele>
        <time>2023-01-01T10:38:30.478Z</time>
      </trkpt>
      <trkpt lat="43.85724" lon="1.2813">
        <ele>154.915057</ele>
        <time>2023-01-01T10:38:33.495Z</time>
      </trkpt>
      <trkpt lat="43.85735" lon="1.28122">
        <ele>154.90042</ele>
        <time>2023-01-01T10:38:36.483Z</time>
      </trkpt>
      <trkpt lat="43.85746" lon="1.28115">
        <ele>154.884464</ele>
        <time>2023-01-01T10:38:39.481Z</time>
      </trkpt>
      <trkpt lat="43.85758" lon="1.28107">
        <ele>154.868619</ele>
        <time>2023-01-01T10:38:42.492Z</time>
      </trkpt>
      <trkpt lat="43.8577" lon="1.28099">
        <ele>154.85265</ele>
        <time>2023-01-01T10:38:45.496Z</time>
      </trkpt>
      <trkpt lat="43.85778" lon="1.28093">
        <ele>154.841437</ele>
        <time>2023-01-01T10:38:47.483Z</time>
      </trkpt>
      <trkpt lat="43.85787" lon="1.28088">
        <ele>154.82978</ele>
        <time>2023-01-01T10:38:49.483Z</time>
      </trkpt>
      <trkpt lat="43.85799" lon="1.2808">
        <ele>154.813772</ele>
        <time>2023-01-01T10:38:52.485Z</time>
      </trkpt>
      <trkpt lat="43.85807" lon="1.28074">
        <ele>154.802227</ele>
        <time>2023-01-01T10:38:54.483Z</time>
      </trkpt>
      <trkpt lat="43.85816" lon="1.28068">
        <ele>154.791012</ele>
        <time>2023-01-01T10:38:56.492Z</time>
      </trkpt>
      <trkpt lat="43.85824" lon="1.28063">
        <ele>154.779906</ele>
        <time>2023-01-01T10:38:58.491Z</time>
      </trkpt>
      <trkpt lat="43.85836" lon="1.28054">
        <ele>154.76383</ele>
        <time>2023-01-01T10:39:01.485Z</time>
      </trkpt>
      <trkpt lat="43.85844" lon="1.28049">
        <ele>154.752387</ele>
        <time>2023-01-01T10:39:03.481Z</time>
      </trkpt>
      <trkpt lat="43.85857" lon="1.28042">
        <ele>154.736211</ele>
        <time>2023-01-01T10:39:06.473Z</time>
      </trkpt>
      <trkpt lat="43.85868" lon="1.28034">
        <ele>154.771772</ele>
        <time>2023-01-01T10:39:09.481Z</time>
      </trkpt>
      <trkpt lat="43.85879" lon="1.28026">
        <ele>154.821486</ele>
        <time>2023-01-01T10:39:12.475Z</time>
      </trkpt>
      <trkpt lat="43.85888" lon="1.2802">
        <ele>154.85754</ele>
        <time>2023-01-01T10:39:14.485Z</time>
      </trkpt>
      <trkpt lat="43.859" lon="1.28012">
        <ele>154.908092</ele>
        <time>2023-01-01T10:39:17.480Z</time>
      </trkpt>
      <trkpt lat="43.85908" lon="1.28006">
        <ele>154.945686</ele>
        <time>2023-01-01T10:39:19.480Z</time>
      </trkpt>
      <trkpt lat="43.85921" lon="1.27999">
        <ele>154.998085</ele>
        <time>2023-01-01T10:39:22.479Z</time>
      </trkpt>
      <trkpt lat="43.85933" lon="1.27992">
        <ele>155.050717</ele>
        <time>2023-01-01T10:39:25.484Z</time>
      </trkpt>
      <trkpt lat="43.85945" lon="1.27984">
        <ele>155.100084</ele>
        <time>2023-01-01T10:39:28.493Z</time>
      </trkpt>
      <trkpt lat="43.85956" lon="1.27977">
        <ele>155.14524</ele>
        <time>2023-01-01T10:39:31.492Z</time>
      </trkpt>
      <trkpt lat="43.85966" lon="1.27971">
        <ele>155.189822</ele>
        <time>2023-01-01T10:39:34.474Z</time>
      </trkpt>
      <trkpt lat="43.85976" lon="1.27964">
        <ele>155.230082</ele>
        <time>2023-01-01T10:39:37.498Z</time>
      </trkpt>
      <trkpt lat="43.85986" lon="1.27958">
        <ele>155.273721</ele>
        <time>2023-01-01T10:39:40.482Z</time>
      </trkpt>
      <trkpt lat="43.85997" lon="1.2795">
        <ele>155.322619</ele>
        <time>2023-01-01T10:39:43.485Z</time>
      </trkpt>
      <trkpt lat="43.86009" lon="1.27942">
        <ele>155.372923</ele>
        <time>2023-01-01T10:39:46.491Z</time>
      </trkpt>
      <trkpt lat="43.8602" lon="1.27934">
        <ele>155.423046</ele>
        <time>2023-01-01T10:39:49.482Z</time>
      </trkpt>
      <trkpt lat="43.8603" lon="1.27927">
        <ele>155.470129</ele>
        <time>2023-01-01T10:39:51.495Z</time>
      </trkpt>
      <trkpt lat="43.86039" lon="1.27922">
        <ele>155.515242</ele>
        <time>2023-01-01T10:39:53.487Z</time>
      </trkpt>
      <trkpt lat="43.86048" lon="1.27916">
        <ele>155.560928</ele>
        <time>2023-01-01T10:39:55.497Z</time>
      </trkpt>
      <trkpt lat="43.86056" lon="1.2791">
        <ele>155.603814</ele>
        <time>2023-01-01T10:39:57.490Z</time>
      </trkpt>
      <trkpt lat="43.86065" lon="1.27905">
        <ele>155.647617</ele>
        <time>2023-01-01T10:39:59.486Z</time>
      </trkpt>
      <trkpt lat="43.86073" lon="1.279">
        <ele>155.688839</ele>
        <time>2023-01-01T10:40:01.485Z</time>
      </trkpt>
      <trkpt lat="43.86082" lon="1.27896">
        <ele>155.730513</ele>
        <time>2023-01-01T10:40:03.489Z</time>
      </trkpt>
      <trkpt lat="43.86093" lon="1.27888">
        <ele>155.789503</ele>
        <time>2023-01-01T10:40:06.466Z</time>
      </trkpt>
      <trkpt lat="43.86105" lon="1.27881">
        <ele>155.846408</ele>
        <time>2023-01-01T10:40:09.482Z</time>
      </trkpt>
      <trkpt lat="43.86116" lon="1.27873">
        <ele>155.904839</ele>
        <time>2023-01-01T10:40:12.472Z</time>
      </trkpt>
      <trkpt lat="43.86124" lon="1.27867">
        <ele>155.946962</ele>
        <time>2023-01-01T10:40:14.486Z</time>
      </trkpt>
      <trkpt lat="43.86133" lon="1.27861">
        <ele>155.990363</ele>
        <time>2023-01-01T10:40:16.487Z</time>
      </trkpt>
      <trkpt lat="43.86141" lon="1.27855">
        <ele>156.032848</ele>
        <time>2023-01-01T10:40:18.481Z</time>
      </trkpt>
      <trkpt lat="43.86153" lon="1.27847">
        <ele>156.097264</ele>
        <time>2023-01-01T10:40:21.488Z</time>
      </trkpt>
      <trkpt lat="43.86166" lon="1.27839">
        <ele>156.160693</ele>
        <time>2023-01-01T10:40:24.482Z</time>
      </trkpt>
      <trkpt lat="43.86176" lon="1.27831">
        <ele>156.215021</ele>
        <time>2023-01-01T10:40:27.486Z</time>
      </trkpt>
      <trkpt lat="43.86186" lon="1.27822">
        <ele>156.271031</ele>
        <time>2023-01-01T10:40:30.489Z</time>
      </trkpt>
      <trkpt lat="43.86196" lon="1.27815">
        <ele>156.328072</ele>
        <time>2023-01-01T10:40:33.481Z</time>
      </trkpt>
      <trkpt lat="43.86205" lon="1.27807">
        <ele>156.382255</ele>
        <time>2023-01-01T10:40:36.484Z</time>
      </trkpt>
      <trkpt lat="43.86216" lon="1.27799">
        <ele>156.446824</ele>
        <time>2023-01-01T10:40:39.483Z</time>
      </trkpt>
      <trkpt lat="43.86227" lon="1.2779">
        <ele>156.512312</ele>
        <time>2023-01-01T10:40:42.490Z</time>
      </trkpt>
      <trkpt lat="43.86235" lon="1.27784">
        <ele>156.558411</ele>
        <time>2023-01-01T10:40:44.485Z</time>
      </trkpt>
      <trkpt lat="43.86243" lon="1.27777">
        <ele>156.605263</ele>
        <time>2023-01-01T10:40:46.492Z</time>
      </trkpt>
      <trkpt lat="43.86251" lon="1.27771">
        <ele>156.655761</ele>
        <time>2023-01-01T10:40:48.497Z</time>
      </trkpt>
      <trkpt lat="43.86263" lon="1.2776">
        <ele>156.726139</ele>
        <time>2023-01-01T10:40:51.487Z</time>
      </trkpt>
      <trkpt lat="43.86271" lon="1.27754">
        <ele>156.775558</ele>
        <time>2023-01-01T10:40:53.490Z</time>
      </trkpt>
      <trkpt lat="43.8628" lon="1.27747">
        <ele>156.82435</ele>
        <time>2023-01-01T10:40:55.492Z</time>
      </trkpt>
      <trkpt lat="43.86291" lon="1.27739">
        <ele>156.889465</ele>
        <time>2023-01-01T10:40:58.498Z</time>
      </trkpt>
      <trkpt lat="43.86302" lon="1.27731">
        <ele>156.953953</ele>
        <time>2023-01-01T10:41:01.496Z</time>
      </trkpt>
      <trkpt lat="43.86314" lon="1.27721">
        <ele>157.023031</ele>
        <time>2023-01-01T10:41:04.484Z</time>
      </trkpt>
      <trkpt lat="43.86324" lon="1.27713">
        <ele>157.0833</ele>
        <time>2023-01-01T10:41:07.485Z</time>
      </trkpt>
      <trkpt lat="43.86333" lon="1.27705">
        <ele>157.141113</ele>
        <time>2023-01-01T10:41:10.468Z</time>
      </trkpt>
      <trkpt lat="43.86343" lon="1.27697">
        <ele>157.180229</ele>
        <time>2023-01-01T10:41:13.483Z</time>
      </trkpt>
      <trkpt lat="43.86352" lon="1.2769">
        <ele>157.1933</ele>
        <time>2023-01-01T10:41:16.481Z</time>
      </trkpt>
      <trkpt lat="43.86361" lon="1.27682">
        <ele>157.207012</ele>
        <time>2023-01-01T10:41:19.485Z</time>
      </trkpt>
      <trkpt lat="43.86371" lon="1.27673">
        <ele>157.222539</ele>
        <time>2023-01-01T10:41:22.482Z</time>
      </trkpt>
      <trkpt lat="43.86382" lon="1.27664">
        <ele>157.238764</ele>
        <time>2023-01-01T10:41:25.497Z</time>
      </trkpt>
      <trkpt lat="43.86393" lon="1.27655">
        <ele>157.255046</ele>
        <time>2023-01-01T10:41:28.486Z</time>
      </trkpt>
      <trkpt lat="43.86403" lon="1.27647">
        <ele>157.270618</ele>
        <time>2023-01-01T10:41:31.487Z</time>
      </trkpt>
      <trkpt lat="43.86414" lon="1.27639">
        <ele>157.285808</ele>
        <time>2023-01-01T10:41:34.485Z</time>
      </trkpt>
      <trkpt lat="43.86423" lon="1.27632">
        <ele>157.299625</ele>
        <time>2023-01-01T10:41:37.487Z</time>
      </trkpt>
      <trkpt lat="43.86434" lon="1.27627">
        <ele>157.314361</ele>
        <time>2023-01-01T10:41:41.480Z</time>
      </trkpt>
      <trkpt lat="43.86444" lon="1.27627">
        <ele>157.326989</ele>
        <time>2023-01-01T10:41:45.480Z</time>
      </trkpt>
      <trkpt lat="43.86452" lon="1.2762">
        <ele>157.339127</ele>
        <time>2023-01-01T10:41:50.476Z</time>
      </trkpt>
      <trkpt lat="43.86457" lon="1.27607">
        <ele>157.352713</ele>
        <time>2023-01-01T10:41:56.470Z</time>
      </trkpt>
      <trkpt lat="43.86463" lon="1.27597">
        <ele>157.364812</ele>
        <time>2023-01-01T10:42:00.473Z</time>
      </trkpt>
      <trkpt lat="43.8647" lon="1.27586">
        <ele>157.378241</ele>
        <time>2023-01-01T10:42:05.494Z</time>
      </trkpt>
      <trkpt lat="43.86477" lon="1.27578">
        <ele>157.390115</ele>
        <time>2023-01-01T10:42:10.475Z</time>
      </trkpt>
      <trkpt lat="43.86467" lon="1.27578">
        <ele>157.403515</ele>
        <time>2023-01-01T10:42:24.470Z</time>
      </trkpt>
      <trkpt lat="43.86459" lon="1.27587">
        <ele>157.288566</ele>
        <time>2023-01-01T10:42:28.476Z</time>
      </trkpt>
      <trkpt lat="43.86451" lon="1.27595">
        <ele>157.128491</ele>
        <time>2023-01-01T10:42:33.493Z</time>
      </trkpt>
      <trkpt lat="43.86442" lon="1.27602">
        <ele>156.976785</ele>
        <time>2023-01-01T10:42:39.477Z</time>
      </trkpt>
      <trkpt lat="43.86436" lon="1.27592">
        <ele>156.828759</ele>
        <time>2023-01-01T10:42:51.469Z</time>
      </trkpt>
      <trkpt lat="43.86431" lon="1.2758">
        <ele>156.672697</ele>
        <time>2023-01-01T10:42:54.468Z</time>
      </trkpt>
      <trkpt lat="43.86425" lon="1.27562">
        <ele>156.453947</ele>
        <time>2023-01-01T10:42:57.468Z</time>
      </trkpt>
      <trkpt lat="43.86422" lon="1.27549">
        <ele>156.29861</ele>
        <time>2023-01-01T10:42:59.471Z</time>
      </trkpt>
      <trkpt lat="43.86419" lon="1.27534">
        <ele>156.131877</ele>
        <time>2023-01-01T10:43:01.492Z</time>
      </trkpt>
      <trkpt lat="43.86415" lon="1.2752">
        <ele>155.959647</ele>
        <time>2023-01-01T10:43:03.493Z</time>
      </trkpt>
      <trkpt lat="43.86412" lon="1.27507">
        <ele>155.803921</ele>
        <time>2023-01-01T10:43:05.482Z</time>
      </trkpt>
      <trkpt lat="43.86408" lon="1.27493">
        <ele>155.640336</ele>
        <time>2023-01-01T10:43:07.488Z</time>
      </trkpt>
      <trkpt lat="43.86406" lon="1.27476">
        <ele>155.444755</ele>
        <time>2023-01-01T10:43:10.484Z</time>
      </trkpt>
      <trkpt lat="43.86402" lon="1.27461">
        <ele>155.277477</ele>
        <time>2023-01-01T10:43:13.490Z</time>
      </trkpt>
      <trkpt lat="43.864" lon="1.27448">
        <ele>155.125348</ele>
        <time>2023-01-01T10:43:17.467Z</time>
      </trkpt>
      <trkpt lat="43.86396" lon="1.27432">
        <ele>154.933967</ele>
        <time>2023-01-01T10:43:21.494Z</time>
      </trkpt>
      <trkpt lat="43.86392" lon="1.27418">
        <ele>154.764578</ele>
        <time>2023-01-01T10:43:24.486Z</time>
      </trkpt>
      <trkpt lat="43.86389" lon="1.27402">
        <ele>154.6641</ele>
        <time>2023-01-01T10:43:27.486Z</time>
      </trkpt>
      <trkpt lat="43.86385" lon="1.27387">
        <ele>154.821192</ele>
        <time>2023-01-01T10:43:30.482Z</time>
      </trkpt>
      <trkpt lat="43.86382" lon="1.27375">
        <ele>154.945521</ele>
        <time>2023-01-01T10:43:33.486Z</time>
      </trkpt>
      <trkpt lat="43.86379" lon="1.27362">
        <ele>155.083027</ele>
        <time>2023-01-01T10:43:37.477Z</time>
      </trkpt>
      <trkpt lat="43.86378" lon="1.27348">
        <ele>155.21469</ele>
        <time>2023-01-01T10:43:41.467Z</time>
      </trkpt>
      <trkpt lat="43.86375" lon="1.27334">
        <ele>155.359623</ele>
        <time>2023-01-01T10:43:44.485Z</time>
      </trkpt>
      <trkpt lat="43.86371" lon="1.27318">
        <ele>155.530954</ele>
        <time>2023-01-01T10:43:47.481Z</time>
      </trkpt>
      <trkpt lat="43.86366" lon="1.27304">
        <ele>155.680638</ele>
        <time>2023-01-01T10:43:50.472Z</time>
      </trkpt>
      <trkpt lat="43.86362" lon="1.27293">
        <ele>155.81035</ele>
        <time>2023-01-01T10:43:53.481Z</time>
      </trkpt>
      <trkpt lat="43.86359" lon="1.2728">
        <ele>155.945344</ele>
        <time>2023-01-01T10:43:56.475Z</time>
      </trkpt>
      <trkpt lat="43.86355" lon="1.27265">
        <ele>156.098044</ele>
        <time>2023-01-01T10:43:59.493Z</time>
      </trkpt>
      <trkpt lat="43.86352" lon="1.27249">
        <ele>156.2692</ele>
        <time>2023-01-01T10:44:02.483Z</time>
      </trkpt>
      <trkpt lat="43.86349" lon="1.27236">
        <ele>156.396326</ele>
        <time>2023-01-01T10:44:04.498Z</time>
      </trkpt>
      <trkpt lat="43.86344" lon="1.2722">
        <ele>156.570716</ele>
        <time>2023-01-01T10:44:07.472Z</time>
      </trkpt>
      <trkpt lat="43.8634" lon="1.27206">
        <ele>156.72528</ele>
        <time>2023-01-01T10:44:10.482Z</time>
      </trkpt>
      <trkpt lat="43.86335" lon="1.27191">
        <ele>156.883323</ele>
        <time>2023-01-01T10:44:13.490Z</time>
      </trkpt>
      <trkpt lat="43.86331" lon="1.27176">
        <ele>157.038097</ele>
        <time>2023-01-01T10:44:16.478Z</time>
      </trkpt>
      <trkpt lat="43.86326" lon="1.27161">
        <ele>157.27616</ele>
        <time>2023-01-01T10:44:19.486Z</time>
      </trkpt>
      <trkpt lat="43.86321" lon="1.27143">
        <ele>157.563371</ele>
        <time>2023-01-01T10:44:22.481Z</time>
      </trkpt>
      <trkpt lat="43.86317" lon="1.27128">
        <ele>157.816874</ele>
        <time>2023-01-01T10:44:25.485Z</time>
      </trkpt>
      <trkpt lat="43.86312" lon="1.27111">
        <ele>158.092292</ele>
        <time>2023-01-01T10:44:28.465Z</time>
      </trkpt>
      <trkpt lat="43.86307" lon="1.27096">
        <ele>158.347327</ele>
        <time>2023-01-01T10:44:31.482Z</time>
      </trkpt>
      <trkpt lat="43.86301" lon="1.27083">
        <ele>158.591308</ele>
        <time>2023-01-01T10:44:34.484Z</time>
      </trkpt>
      <trkpt lat="43.86297" lon="1.27069">
        <ele>158.820084</ele>
        <time>2023-01-01T10:44:37.481Z</time>
      </trkpt>
      <trkpt lat="43.86292" lon="1.27054">
        <ele>159.085613</ele>
        <time>2023-01-01T10:44:40.482Z</time>
      </trkpt>
      <trkpt lat="43.86287" lon="1.27037">
        <ele>159.367137</ele>
        <time>2023-01-01T10:44:43.485Z</time>
      </trkpt>
      <trkpt lat="43.86282" lon="1.27021">
        <ele>159.63124</ele>
        <time>2023-01-01T10:44:46.471Z</time>
      </trkpt>
      <trkpt lat="43.86277" lon="1.27009">
        <ele>159.852734</ele>
        <time>2023-01-01T10:44:49.483Z</time>
      </trkpt>
      <trkpt lat="43.86274" lon="1.26996">
        <ele>160.063298</ele>
        <time>2023-01-01T10:44:52.486Z</time>
      </trkpt>
      <trkpt lat="43.8627" lon="1.26981">
        <ele>160.303732</ele>
        <time>2023-01-01T10:44:55.488Z</time>
      </trkpt>
      <trkpt lat="43.86268" lon="1.26965">
        <ele>160.554206</ele>
        <time>2023-01-01T10:44:58.490Z</time>
      </trkpt>
      <trkpt lat="43.86265" lon="1.2695">
        <ele>160.800174</ele>
        <time>2023-01-01T10:45:01.479Z</time>
      </trkpt>
      <trkpt lat="43.86266" lon="1.26936">
        <ele>160.831778</ele>
        <time>2023-01-01T10:45:07.483Z</time>
      </trkpt>
      <trkpt lat="43.86266" lon="1.26923">
        <ele>160.36653</ele>
        <time>2023-01-01T10:45:11.488Z</time>
      </trkpt>
      <trkpt lat="43.86259" lon="1.26911">
        <ele>159.861293</ele>
        <time>2023-01-01T10:45:15.483Z</time>
      </trkpt>
      <trkpt lat="43.86254" lon="1.26896">
        <ele>159.304236</ele>
        <time>2023-01-01T10:45:18.475Z</time>
      </trkpt>
      <trkpt lat="43.8625" lon="1.26881">
        <ele>158.750016</ele>
        <time>2023-01-01T10:45:21.476Z</time>
      </trkpt>
      <trkpt lat="43.86247" lon="1.26866">
        <ele>158.223129</ele>
        <time>2023-01-01T10:45:24.474Z</time>
      </trkpt>
      <trkpt lat="43.8624" lon="1.26852">
        <ele>157.644688</ele>
        <time>2023-01-01T10:45:27.472Z</time>
      </trkpt>
      <trkpt lat="43.86233" lon="1.26844">
        <ele>157.210359</ele>
        <time>2023-01-01T10:45:29.474Z</time>
      </trkpt>
      <trkpt lat="43.86225" lon="1.26835">
        <ele>156.742497</ele>
        <time>2023-01-01T10:45:31.480Z</time>
      </trkpt>
      <trkpt lat="43.86218" lon="1.26826">
        <ele>156.295426</ele>
        <time>2023-01-01T10:45:33.481Z</time>
      </trkpt>
      <trkpt lat="43.86211" lon="1.26816">
        <ele>155.813309</ele>
        <time>2023-01-01T10:45:35.490Z</time>
      </trkpt>
      <trkpt lat="43.86203" lon="1.26807">
        <ele>155.344171</ele>
        <time>2023-01-01T10:45:37.466Z</time>
      </trkpt>
      <trkpt lat="43.86197" lon="1.26796">
        <ele>154.863117</ele>
        <time>2023-01-01T10:45:39.485Z</time>
      </trkpt>
      <trkpt lat="43.8619" lon="1.26788">
        <ele>154.428637</ele>
        <time>2023-01-01T10:45:41.486Z</time>
      </trkpt>
      <trkpt lat="43.86182" lon="1.26777">
        <ele>153.920261</ele>
        <time>2023-01-01T10:45:44.484Z</time>
      </trkpt>
      <trkpt lat="43.86173" lon="1.26766">
        <ele>153.338172</ele>
        <time>2023-01-01T10:45:47.484Z</time>
      </trkpt>
      <trkpt lat="43.8617" lon="1.26754">
        <ele>152.907052</ele>
        <time>2023-01-01T10:45:49.470Z</time>
      </trkpt>
      <trkpt lat="43.86165" lon="1.26743">
        <ele>152.483966</ele>
        <time>2023-01-01T10:45:51.471Z</time>
      </trkpt>
      <trkpt lat="43.86158" lon="1.26732">
        <ele>152.156364</ele>
        <time>2023-01-01T10:45:53.478Z</time>
      </trkpt>
      <trkpt lat="43.86153" lon="1.26717">
        <ele>151.783716</ele>
        <time>2023-01-01T10:45:55.490Z</time>
      </trkpt>
      <trkpt lat="43.86149" lon="1.26703">
        <ele>151.43118</ele>
        <time>2023-01-01T10:45:57.471Z</time>
      </trkpt>
      <trkpt lat="43.86144" lon="1.26687">
        <ele>151.045985</ele>
        <time>2023-01-01T10:46:00.480Z</time>
      </trkpt>
      <trkpt lat="43.86139" lon="1.26672">
        <ele>150.671801</ele>
        <time>2023-01-01T10:46:03.481Z</time>
      </trkpt>
      <trkpt lat="43.86134" lon="1.26655">
        <ele>150.249307</ele>
        <time>2023-01-01T10:46:06.490Z</time>
      </trkpt>
      <trkpt lat="43.86131" lon="1.26643">
        <ele>149.947473</ele>
        <time>2023-01-01T10:46:08.492Z</time>
      </trkpt>
      <trkpt lat="43.86127" lon="1.26629">
        <ele>149.618866</ele>
        <time>2023-01-01T10:46:10.481Z</time>
      </trkpt>
      <trkpt lat="43.86122" lon="1.26615">
        <ele>149.275444</ele>
        <time>2023-01-01T10:46:12.484Z</time>
      </trkpt>
      <trkpt lat="43.86118" lon="1.266">
        <ele>148.904964</ele>
        <time>2023-01-01T10:46:14.494Z</time>
      </trkpt>
      <trkpt lat="43.86113" lon="1.26587">
        <ele>148.565693</ele>
        <time>2023-01-01T10:46:16.481Z</time>
      </trkpt>
      <trkpt lat="43.86108" lon="1.26572">
        <ele>148.187725</ele>
        <time>2023-01-01T10:46:18.490Z</time>
      </trkpt>
      <trkpt lat="43.86104" lon="1.26556">
        <ele>147.815147</ele>
        <time>2023-01-01T10:46:20.481Z</time>
      </trkpt>
      <trkpt lat="43.86099" lon="1.26541">
        <ele>147.431783</ele>
        <time>2023-01-01T10:46:22.481Z</time>
      </trkpt>
      <trkpt lat="43.86094" lon="1.26527">
        <ele>147.077529</ele>
        <time>2023-01-01T10:46:24.486Z</time>
      </trkpt>
      <trkpt lat="43.8609" lon="1.26512">
        <ele>146.829301</ele>
        <time>2023-01-01T10:46:26.490Z</time>
      </trkpt>
      <trkpt lat="43.86086" lon="1.26497">
        <ele>146.817595</ele>
        <time>2023-01-01T10:46:28.481Z</time>
      </trkpt>
      <trkpt lat="43.86082" lon="1.26482">
        <ele>146.806019</ele>
        <time>2023-01-01T10:46:30.485Z</time>
      </trkpt>
      <trkpt lat="43.86078" lon="1.26468">
        <ele>146.794622</ele>
        <time>2023-01-01T10:46:32.486Z</time>
      </trkpt>
      <trkpt lat="43.86073" lon="1.26454">
        <ele>146.783691</ele>
        <time>2023-01-01T10:46:34.486Z</time>
      </trkpt>
      <trkpt lat="43.86069" lon="1.26439">
        <ele>146.772211</ele>
        <time>2023-01-01T10:46:36.467Z</time>
      </trkpt>
      <trkpt lat="43.86066" lon="1.26425">
        <ele>146.761324</ele>
        <time>2023-01-01T10:46:38.482Z</time>
      </trkpt>
      <trkpt lat="43.86061" lon="1.26411">
        <ele>146.749831</ele>
        <time>2023-01-01T10:46:40.477Z</time>
      </trkpt>
      <trkpt lat="43.86057" lon="1.26396">
        <ele>146.738366</ele>
        <time>2023-01-01T10:46:42.492Z</time>
      </trkpt>
      <trkpt lat="43.86052" lon="1.26381">
        <ele>146.72659</ele>
        <time>2023-01-01T10:46:44.470Z</time>
      </trkpt>
      <trkpt lat="43.86048" lon="1.26367">
        <ele>146.714923</ele>
        <time>2023-01-01T10:46:46.485Z</time>
      </trkpt>
      <trkpt lat="43.86044" lon="1.26352">
        <ele>146.703836</ele>
        <time>2023-01-01T10:46:48.485Z</time>
      </trkpt>
      <trkpt lat="43.86041" lon="1.26338">
        <ele>146.692848</ele>
        <time>2023-01-01T10:46:50.481Z</time>
      </trkpt>
      <trkpt lat="43.86036" lon="1.26324">
        <ele>146.681513</ele>
        <time>2023-01-01T10:46:52.481Z</time>
      </trkpt>
      <trkpt lat="43.86033" lon="1.26309">
        <ele>146.670219</ele>
        <time>2023-01-01T10:46:54.459Z</time>
      </trkpt>
      <trkpt lat="43.86028" lon="1.26296">
        <ele>146.659557</ele>
        <time>2023-01-01T10:46:56.486Z</time>
      </trkpt>
      <trkpt lat="43.86024" lon="1.26282">
        <ele>146.652466</ele>
        <time>2023-01-01T10:46:58.480Z</time>
      </trkpt>
      <trkpt lat="43.8602" lon="1.26268">
        <ele>146.658913</ele>
        <time>2023-01-01T10:47:00.490Z</time>
      </trkpt>
      <trkpt lat="43.86016" lon="1.26254">
        <ele>146.665293</ele>
        <time>2023-01-01T10:47:02.499Z</time>
      </trkpt>
      <trkpt lat="43.86012" lon="1.2624">
        <ele>146.671827</ele>
        <time>2023-01-01T10:47:04.489Z</time>
      </trkpt>
      <trkpt lat="43.86007" lon="1.26226">
        <ele>146.678376</ele>
        <time>2023-01-01T10:47:06.489Z</time>
      </trkpt>
      <trkpt lat="43.86003" lon="1.26212">
        <ele>146.684896</ele>
        <time>2023-01-01T10:47:08.481Z</time>
      </trkpt>
      <trkpt lat="43.85998" lon="1.26197">
        <ele>146.691649</ele>
        <time>2023-01-01T10:47:10.485Z</time>
      </trkpt>
      <trkpt lat="43.85994" lon="1.26183">
        <ele>146.698238</ele>
        <time>2023-01-01T10:47:12.467Z</time>
      </trkpt>
      <trkpt lat="43.8599" lon="1.26168">
        <ele>146.704774</ele>
        <time>2023-01-01T10:47:14.484Z</time>
      </trkpt>
      <trkpt lat="43.85986" lon="1.26154">
        <ele>146.71148</ele>
        <time>2023-01-01T10:47:16.492Z</time>
      </trkpt>
      <trkpt lat="43.85982" lon="1.26139">
        <ele>146.7183</ele>
        <time>2023-01-01T10:47:18.481Z</time>
      </trkpt>
      <trkpt lat="43.85978" lon="1.26125">
        <ele>146.724702</ele>
        <time>2023-01-01T10:47:20.486Z</time>
      </trkpt>
      <trkpt lat="43.85974" lon="1.26111">
        <ele>146.730985</ele>
        <time>2023-01-01T10:47:22.481Z</time>
      </trkpt>
      <trkpt lat="43.8597" lon="1.26097">
        <ele>146.737636</ele>
        <time>2023-01-01T10:47:24.492Z</time>
      </trkpt>
      <trkpt lat="43.85966" lon="1.26082">
        <ele>146.744153</ele>
        <time>2023-01-01T10:47:26.473Z</time>
      </trkpt>
      <trkpt lat="43.85962" lon="1.26068">
        <ele>146.750741</ele>
        <time>2023-01-01T10:47:28.480Z</time>
      </trkpt>
      <trkpt lat="43.85958" lon="1.26054">
        <ele>146.75724</ele>
        <time>2023-01-01T10:47:30.486Z</time>
      </trkpt>
      <trkpt lat="43.85954" lon="1.2604">
        <ele>146.74577</ele>
        <time>2023-01-01T10:47:32.494Z</time>
      </trkpt>
      <trkpt lat="43.85949" lon="1.26025">
        <ele>146.732737</ele>
        <time>2023-01-01T10:47:34.486Z</time>
      </trkpt>
      <trkpt lat="43.85945" lon="1.26012">
        <ele>146.72098</ele>
        <time>2023-01-01T10:47:36.482Z</time>
      </trkpt>
      <trkpt lat="43.85941" lon="1.25998">
        <ele>146.709348</ele>
        <time>2023-01-01T10:47:38.490Z</time>
      </trkpt>
      <trkpt lat="43.85937" lon="1.25985">
        <ele>146.697656</ele>
        <time>2023-01-01T10:47:40.485Z</time>
      </trkpt>
      <trkpt lat="43.85933" lon="1.25972">
        <ele>146.686138</ele>
        <time>2023-01-01T10:47:42.474Z</time>
      </trkpt>
      <trkpt lat="43.8593" lon="1.25958">
        <ele>146.674571</ele>
        <time>2023-01-01T10:47:44.470Z</time>
      </trkpt>
      <trkpt lat="43.85926" lon="1.25944">
        <ele>146.662675</ele>
        <time>2023-01-01T10:47:46.489Z</time>
      </trkpt>
      <trkpt lat="43.85922" lon="1.25931">
        <ele>146.651375</ele>
        <time>2023-01-01T10:47:48.465Z</time>
      </trkpt>
      <trkpt lat="43.85918" lon="1.25918">
        <ele>146.639991</ele>
        <time>2023-01-01T10:47:50.473Z</time>
      </trkpt>
      <trkpt lat="43.85913" lon="1.25904">
        <ele>146.627708</ele>
        <time>2023-01-01T10:47:52.483Z</time>
      </trkpt>
      <trkpt lat="43.85909" lon="1.2589">
        <ele>146.615158</ele>
        <time>2023-01-01T10:47:54.482Z</time>
      </trkpt>
      <trkpt lat="43.85905" lon="1.25876">
        <ele>146.603376</ele>
        <time>2023-01-01T10:47:56.464Z</time>
      </trkpt>
      <trkpt lat="43.85901" lon="1.25862">
        <ele>146.591463</ele>
        <time>2023-01-01T10:47:58.483Z</time>
      </trkpt>
      <trkpt lat="43.85897" lon="1.25848">
        <ele>146.579229</ele>
        <time>2023-01-01T10:48:00.490Z</time>
      </trkpt>
      <trkpt lat="43.85893" lon="1.25835">
        <ele>146.567519</ele>
        <time>2023-01-01T10:48:02.485Z</time>
      </trkpt>
      <trkpt lat="43.85888" lon="1.25822">
        <ele>146.549037</ele>
        <time>2023-01-01T10:48:04.465Z</time>
      </trkpt>
      <trkpt lat="43.85885" lon="1.25809">
        <ele>146.485715</ele>
        <time>2023-01-01T10:48:06.486Z</time>
      </trkpt>
      <trkpt lat="43.85881" lon="1.25795">
        <ele>146.42043</ele>
        <time>2023-01-01T10:48:08.492Z</time>
      </trkpt>
      <trkpt lat="43.85877" lon="1.25782">
        <ele>146.356579</ele>
        <time>2023-01-01T10:48:10.485Z</time>
      </trkpt>
      <trkpt lat="43.85874" lon="1.25769">
        <ele>146.29303</ele>
        <time>2023-01-01T10:48:12.487Z</time>
      </trkpt>
      <trkpt lat="43.8587" lon="1.25757">
        <ele>146.233593</ele>
        <time>2023-01-01T10:48:14.482Z</time>
      </trkpt>
      <trkpt lat="43.85867" lon="1.25744">
        <ele>146.170495</ele>
        <time>2023-01-01T10:48:16.480Z</time>
      </trkpt>
      <trkpt lat="43.85863" lon="1.25731">
        <ele>146.107174</ele>
        <time>2023-01-01T10:48:18.492Z</time>
      </trkpt>
      <trkpt lat="43.8586" lon="1.25718">
        <ele>146.043624</ele>
        <time>2023-01-01T10:48:20.487Z</time>
      </trkpt>
      <trkpt lat="43.85855" lon="1.25705">
        <ele>145.976516</ele>
        <time>2023-01-01T10:48:22.493Z</time>
      </trkpt>
      <trkpt lat="43.85852" lon="1.25691">
        <ele>145.910388</ele>
        <time>2023-01-01T10:48:24.478Z</time>
      </trkpt>
      <trkpt lat="43.85848" lon="1.25677">
        <ele>145.844292</ele>
        <time>2023-01-01T10:48:26.481Z</time>
      </trkpt>
      <trkpt lat="43.85843" lon="1.25663">
        <ele>145.774432</ele>
        <time>2023-01-01T10:48:28.484Z</time>
      </trkpt>
      <trkpt lat="43.85839" lon="1.25649">
        <ele>145.705406</ele>
        <time>2023-01-01T10:48:30.493Z</time>
      </trkpt>
      <trkpt lat="43.85835" lon="1.25636">
        <ele>145.637714</ele>
        <time>2023-01-01T10:48:32.462Z</time>
      </trkpt>
      <trkpt lat="43.85831" lon="1.25622">
        <ele>145.569185</ele>
        <time>2023-01-01T10:48:34.471Z</time>
      </trkpt>
      <trkpt lat="43.85827" lon="1.25608">
        <ele>145.502455</ele>
        <time>2023-01-01T10:48:36.496Z</time>
      </trkpt>
      <trkpt lat="43.85823" lon="1.25594">
        <ele>145.433558</ele>
        <time>2023-01-01T10:48:38.484Z</time>
      </trkpt>
      <trkpt lat="43.85819" lon="1.2558">
        <ele>145.352139</ele>
        <time>2023-01-01T10:48:40.484Z</time>
      </trkpt>
      <trkpt lat="43.85814" lon="1.25566">
        <ele>145.268671</ele>
        <time>2023-01-01T10:48:42.480Z</time>
      </trkpt>
      <trkpt lat="43.8581" lon="1.25552">
        <ele>145.187082</ele>
        <time>2023-01-01T10:48:44.482Z</time>
      </trkpt>
      <trkpt lat="43.85807" lon="1.25538">
        <ele>145.106829</ele>
        <time>2023-01-01T10:48:46.484Z</time>
      </trkpt>
      <trkpt lat="43.85802" lon="1.25525">
        <ele>145.027147</ele>
        <time>2023-01-01T10:48:48.494Z</time>
      </trkpt>
      <trkpt lat="43.85799" lon="1.2551">
        <ele>144.945885</ele>
        <time>2023-01-01T10:48:50.493Z</time>
      </trkpt>
      <trkpt lat="43.85795" lon="1.25497">
        <ele>144.864295</ele>
        <time>2023-01-01T10:48:52.486Z</time>
      </trkpt>
      <trkpt lat="43.8579" lon="1.25482">
        <ele>144.780185</ele>
        <time>2023-01-01T10:48:54.484Z</time>
      </trkpt>
      <trkpt lat="43.85786" lon="1.25468">
        <ele>144.69658</ele>
        <time>2023-01-01T10:48:56.485Z</time>
      </trkpt>
      <trkpt lat="43.85783" lon="1.25455">
        <ele>144.620146</ele>
        <time>2023-01-01T10:48:58.490Z</time>
      </trkpt>
      <trkpt lat="43.85779" lon="1.25441">
        <ele>144.541355</ele>
        <time>2023-01-01T10:49:00.481Z</time>
      </trkpt>
      <trkpt lat="43.85775" lon="1.25428">
        <ele>144.461876</ele>
        <time>2023-01-01T10:49:02.481Z</time>
      </trkpt>
      <trkpt lat="43.8577" lon="1.25414">
        <ele>144.379594</ele>
        <time>2023-01-01T10:49:04.496Z</time>
      </trkpt>
      <trkpt lat="43.85766" lon="1.25399">
        <ele>144.294628</ele>
        <time>2023-01-01T10:49:06.497Z</time>
      </trkpt>
      <trkpt lat="43.85761" lon="1.25384">
        <ele>144.205572</ele>
        <time>2023-01-01T10:49:08.486Z</time>
      </trkpt>
      <trkpt lat="43.85758" lon="1.2537">
        <ele>144.122771</ele>
        <time>2023-01-01T10:49:10.495Z</time>
      </trkpt>
      <trkpt lat="43.85754" lon="1.25355">
        <ele>144.075535</ele>
        <time>2023-01-01T10:49:12.486Z</time>
      </trkpt>
      <trkpt lat="43.8575" lon="1.2534">
        <ele>144.094153</ele>
        <time>2023-01-01T10:49:14.485Z</time>
      </trkpt>
      <trkpt lat="43.85745" lon="1.25326">
        <ele>144.112541</ele>
        <time>2023-01-01T10:49:16.477Z</time>
      </trkpt>
      <trkpt lat="43.8574" lon="1.25311">
        <ele>144.132015</ele>
        <time>2023-01-01T10:49:18.488Z</time>
      </trkpt>
      <trkpt lat="43.85736" lon="1.25295">
        <ele>144.151207</ele>
        <time>2023-01-01T10:49:20.488Z</time>
      </trkpt>
      <trkpt lat="43.85732" lon="1.2528">
        <ele>144.169633</ele>
        <time>2023-01-01T10:49:22.482Z</time>
      </trkpt>
      <trkpt lat="43.85727" lon="1.25265">
        <ele>144.188511</ele>
        <time>2023-01-01T10:49:24.474Z</time>
      </trkpt>
      <trkpt lat="43.85722" lon="1.2525">
        <ele>144.207685</ele>
        <time>2023-01-01T10:49:26.487Z</time>
      </trkpt>
      <trkpt lat="43.85718" lon="1.25236">
        <ele>144.226142</ele>
        <time>2023-01-01T10:49:28.492Z</time>
      </trkpt>
      <trkpt lat="43.85713" lon="1.25221">
        <ele>144.24459</ele>
        <time>2023-01-01T10:49:30.484Z</time>
      </trkpt>
      <trkpt lat="43.85709" lon="1.25207">
        <ele>144.262466</ele>
        <time>2023-01-01T10:49:32.462Z</time>
      </trkpt>
      <trkpt lat="43.85705" lon="1.25192">
        <ele>144.281453</ele>
        <time>2023-01-01T10:49:34.495Z</time>
      </trkpt>
      <trkpt lat="43.85701" lon="1.25177">
        <ele>144.299552</ele>
        <time>2023-01-01T10:49:36.486Z</time>
      </trkpt>
      <trkpt lat="43.85696" lon="1.25162">
        <ele>144.318707</ele>
        <time>2023-01-01T10:49:38.485Z</time>
      </trkpt>
      <trkpt lat="43.85692" lon="1.25148">
        <ele>144.336962</ele>
        <time>2023-01-01T10:49:40.494Z</time>
      </trkpt>
      <trkpt lat="43.85688" lon="1.25134">
        <ele>144.354518</ele>
        <time>2023-01-01T10:49:42.481Z</time>
      </trkpt>
      <trkpt lat="43.85684" lon="1.2512">
        <ele>144.317435</ele>
        <time>2023-01-01T10:49:44.495Z</time>
      </trkpt>
      <trkpt lat="43.8568" lon="1.25106">
        <ele>144.260254</ele>
        <time>2023-01-01T10:49:46.489Z</time>
      </trkpt>
      <trkpt lat="43.85676" lon="1.25093">
        <ele>144.205082</ele>
        <time>2023-01-01T10:49:48.482Z</time>
      </trkpt>
      <trkpt lat="43.85672" lon="1.2508">
        <ele>144.150435</ele>
        <time>2023-01-01T10:49:50.485Z</time>
      </trkpt>
      <trkpt lat="43.85669" lon="1.25065">
        <ele>144.093433</ele>
        <time>2023-01-01T10:49:52.485Z</time>
      </trkpt>
      <trkpt lat="43.85665" lon="1.25051">
        <ele>144.034116</ele>
        <time>2023-01-01T10:49:54.491Z</time>
      </trkpt>
      <trkpt lat="43.8566" lon="1.25038">
        <ele>143.978445</ele>
        <time>2023-01-01T10:49:56.482Z</time>
      </trkpt>
      <trkpt lat="43.85656" lon="1.25025">
        <ele>143.925238</ele>
        <time>2023-01-01T10:49:58.491Z</time>
      </trkpt>
      <trkpt lat="43.85652" lon="1.25011">
        <ele>143.868007</ele>
        <time>2023-01-01T10:50:00.487Z</time>
      </trkpt>
      <trkpt lat="43.85648" lon="1.24996">
        <ele>143.805978</ele>
        <time>2023-01-01T10:50:02.491Z</time>
      </trkpt>
      <trkpt lat="43.85644" lon="1.24982">
        <ele>143.748395</ele>
        <time>2023-01-01T10:50:04.476Z</time>
      </trkpt>
      <trkpt lat="43.85639" lon="1.24969">
        <ele>143.693749</ele>
        <time>2023-01-01T10:50:06.486Z</time>
      </trkpt>
      <trkpt lat="43.85636" lon="1.24955">
        <ele>143.637856</ele>
        <time>2023-01-01T10:50:08.486Z</time>
      </trkpt>
      <trkpt lat="43.85632" lon="1.24942">
        <ele>143.581535</ele>
        <time>2023-01-01T10:50:10.485Z</time>
      </trkpt>
      <trkpt lat="43.85628" lon="1.24929">
        <ele>143.530196</ele>
        <time>2023-01-01T10:50:12.467Z</time>
      </trkpt>
      <trkpt lat="43.85624" lon="1.24912">
        <ele>143.460466</ele>
        <time>2023-01-01T10:50:15.484Z</time>
      </trkpt>
      <trkpt lat="43.85619" lon="1.24894">
        <ele>143.387136</ele>
        <time>2023-01-01T10:50:18.487Z</time>
      </trkpt>
      <trkpt lat="43.85615" lon="1.24882">
        <ele>143.341836</ele>
        <time>2023-01-01T10:50:20.480Z</time>
      </trkpt>
      <trkpt lat="43.85611" lon="1.2487">
        <ele>143.296074</ele>
        <time>2023-01-01T10:50:22.487Z</time>
      </trkpt>
      <trkpt lat="43.85607" lon="1.24859">
        <ele>143.251365</ele>
        <time>2023-01-01T10:50:24.483Z</time>
      </trkpt>
      <trkpt lat="43.85604" lon="1.24846">
        <ele>143.202405</ele>
        <time>2023-01-01T10:50:26.491Z</time>
      </trkpt>
      <trkpt lat="43.85599" lon="1.24833">
        <ele>143.15174</ele>
        <time>2023-01-01T10:50:28.496Z</time>
      </trkpt>
      <trkpt lat="43.85596" lon="1.24821">
        <ele>143.105316</ele>
        <time>2023-01-01T10:50:30.482Z</time>
      </trkpt>
      <trkpt lat="43.85591" lon="1.24803">
        <ele>143.035812</ele>
        <time>2023-01-01T10:50:33.486Z</time>
      </trkpt>
      <trkpt lat="43.85586" lon="1.24791">
        <ele>142.989982</ele>
        <time>2023-01-01T10:50:35.487Z</time>
      </trkpt>
      <trkpt lat="43.85582" lon="1.24777">
        <ele>142.935629</ele>
        <time>2023-01-01T10:50:37.487Z</time>
      </trkpt>
      <trkpt lat="43.85577" lon="1.24763">
        <ele>142.881444</ele>
        <time>2023-01-01T10:50:39.484Z</time>
      </trkpt>
      <trkpt lat="43.85573" lon="1.24752">
        <ele>142.83536</ele>
        <time>2023-01-01T10:50:41.497Z</time>
      </trkpt>
      <trkpt lat="43.85569" lon="1.24738">
        <ele>142.783576</ele>
        <time>2023-01-01T10:50:43.494Z</time>
      </trkpt>
      <trkpt lat="43.85565" lon="1.24724">
        <ele>142.728377</ele>
        <time>2023-01-01T10:50:46.494Z</time>
      </trkpt>
      <trkpt lat="43.85562" lon="1.24711">
        <ele>142.680255</ele>
        <time>2023-01-01T10:50:48.480Z</time>
      </trkpt>
      <trkpt lat="43.85558" lon="1.24693">
        <ele>142.614144</ele>
        <time>2023-01-01T10:50:51.469Z</time>
      </trkpt>
      <trkpt lat="43.85555" lon="1.24681">
        <ele>142.568199</ele>
        <time>2023-01-01T10:50:53.484Z</time>
      </trkpt>
      <trkpt lat="43.85551" lon="1.24669">
        <ele>142.526194</ele>
        <time>2023-01-01T10:50:55.491Z</time>
      </trkpt>
      <trkpt lat="43.85547" lon="1.24654">
        <ele>142.750728</ele>
        <time>2023-01-01T10:50:58.500Z</time>
      </trkpt>
      <trkpt lat="43.85544" lon="1.24639">
        <ele>142.987611</ele>
        <time>2023-01-01T10:51:00.486Z</time>
      </trkpt>
      <trkpt lat="43.85546" lon="1.2462">
        <ele>143.258549</ele>
        <time>2023-01-01T10:51:03.468Z</time>
      </trkpt>
      <trkpt lat="43.8555" lon="1.24608">
        <ele>143.454345</ele>
        <time>2023-01-01T10:51:05.472Z</time>
      </trkpt>
      <trkpt lat="43.85555" lon="1.24592">
        <ele>143.715097</ele>
        <time>2023-01-01T10:51:08.469Z</time>
      </trkpt>
      <trkpt lat="43.85554" lon="1.24576">
        <ele>143.958046</ele>
        <time>2023-01-01T10:51:11.474Z</time>
      </trkpt>
      <trkpt lat="43.85549" lon="1.24564">
        <ele>144.162505</ele>
        <time>2023-01-01T10:51:14.474Z</time>
      </trkpt>
      <trkpt lat="43.85544" lon="1.2455">
        <ele>144.384267</ele>
        <time>2023-01-01T10:51:17.485Z</time>
      </trkpt>
      <trkpt lat="43.85541" lon="1.24534">
        <ele>144.624092</ele>
        <time>2023-01-01T10:51:20.491Z</time>
      </trkpt>
      <trkpt lat="43.85537" lon="1.24518">
        <ele>144.878336</ele>
        <time>2023-01-01T10:51:23.494Z</time>
      </trkpt>
      <trkpt lat="43.85534" lon="1.24501">
        <ele>145.13276</ele>
        <time>2023-01-01T10:51:26.482Z</time>
      </trkpt>
      <trkpt lat="43.8553" lon="1.24485">
        <ele>145.380947</ele>
        <time>2023-01-01T10:51:29.488Z</time>
      </trkpt>
      <trkpt lat="43.85527" lon="1.2447">
        <ele>145.611708</ele>
        <time>2023-01-01T10:51:32.476Z</time>
      </trkpt>
      <trkpt lat="43.85523" lon="1.24457">
        <ele>145.818935</ele>
        <time>2023-01-01T10:51:35.487Z</time>
      </trkpt>
      <trkpt lat="43.85521" lon="1.24444">
        <ele>146.011472</ele>
        <time>2023-01-01T10:51:38.484Z</time>
      </trkpt>
      <trkpt lat="43.85519" lon="1.24432">
        <ele>146.200987</ele>
        <time>2023-01-01T10:51:41.496Z</time>
      </trkpt>
      <trkpt lat="43.85516" lon="1.24419">
        <ele>146.288483</ele>
        <time>2023-01-01T10:51:44.489Z</time>
      </trkpt>
      <trkpt lat="43.85513" lon="1.24407">
        <ele>146.373706</ele>
        <time>2023-01-01T10:51:47.465Z</time>
      </trkpt>
      <trkpt lat="43.8551" lon="1.24391">
        <ele>146.480277</ele>
        <time>2023-01-01T10:51:51.486Z</time>
      </trkpt>
      <trkpt lat="43.85507" lon="1.24379">
        <ele>146.563421</ele>
        <time>2023-01-01T10:51:54.497Z</time>
      </trkpt>
      <trkpt lat="43.85504" lon="1.24367">
        <ele>146.651403</ele>
        <time>2023-01-01T10:51:57.495Z</time>
      </trkpt>
      <trkpt lat="43.855" lon="1.24355">
        <ele>146.740662</ele>
        <time>2023-01-01T10:52:00.483Z</time>
      </trkpt>
      <trkpt lat="43.85497" lon="1.24342">
        <ele>146.829911</ele>
        <time>2023-01-01T10:52:03.495Z</time>
      </trkpt>
      <trkpt lat="43.85494" lon="1.24329">
        <ele>146.918237</ele>
        <time>2023-01-01T10:52:06.499Z</time>
      </trkpt>
      <trkpt lat="43.85491" lon="1.24316">
        <ele>147.011233</ele>
        <time>2023-01-01T10:52:09.474Z</time>
      </trkpt>
      <trkpt lat="43.85488" lon="1.24302">
        <ele>147.110543</ele>
        <time>2023-01-01T10:52:12.499Z</time>
      </trkpt>
      <trkpt lat="43.85485" lon="1.24287">
        <ele>147.214801</ele>
        <time>2023-01-01T10:52:15.483Z</time>
      </trkpt>
      <trkpt lat="43.85482" lon="1.24275">
        <ele>147.298207</ele>
        <time>2023-01-01T10:52:17.497Z</time>
      </trkpt>
      <trkpt lat="43.8548" lon="1.24263">
        <ele>147.382146</ele>
        <time>2023-01-01T10:52:19.496Z</time>
      </trkpt>
      <trkpt lat="43.85477" lon="1.24245">
        <ele>147.501671</ele>
        <time>2023-01-01T10:52:22.494Z</time>
      </trkpt>
      <trkpt lat="43.85474" lon="1.24228">
        <ele>147.619694</ele>
        <time>2023-01-01T10:52:25.482Z</time>
      </trkpt>
      <trkpt lat="43.85471" lon="1.24216">
        <ele>147.705495</ele>
        <time>2023-01-01T10:52:27.485Z</time>
      </trkpt>
      <trkpt lat="43.85468" lon="1.24203">
        <ele>147.794269</ele>
        <time>2023-01-01T10:52:29.487Z</time>
      </trkpt>
      <trkpt lat="43.85465" lon="1.24189">
        <ele>147.850989</ele>
        <time>2023-01-01T10:52:31.487Z</time>
      </trkpt>
      <trkpt lat="43.85462" lon="1.24173">
        <ele>147.836977</ele>
        <time>2023-01-01T10:52:33.483Z</time>
      </trkpt>
      <trkpt lat="43.85459" lon="1.24158">
        <ele>147.82298</ele>
        <time>2023-01-01T10:52:35.484Z</time>
      </trkpt>
      <trkpt lat="43.85456" lon="1.24142">
        <ele>147.808609</ele>
        <time>2023-01-01T10:52:37.489Z</time>
      </trkpt>
      <trkpt lat="43.85452" lon="1.24126">
        <ele>147.794008</ele>
        <time>2023-01-01T10:52:39.486Z</time>
      </trkpt>
      <trkpt lat="43.85449" lon="1.2411">
        <ele>147.779355</ele>
        <time>2023-01-01T10:52:41.481Z</time>
      </trkpt>
      <trkpt lat="43.85445" lon="1.24096">
        <ele>147.765693</ele>
        <time>2023-01-01T10:52:43.482Z</time>
      </trkpt>
      <trkpt lat="43.85442" lon="1.2408">
        <ele>147.751572</ele>
        <time>2023-01-01T10:52:45.488Z</time>
      </trkpt>
      <trkpt lat="43.85438" lon="1.24065">
        <ele>147.737868</ele>
        <time>2023-01-01T10:52:47.490Z</time>
      </trkpt>
      <trkpt lat="43.85435" lon="1.24052">
        <ele>147.725155</ele>
        <time>2023-01-01T10:52:49.468Z</time>
      </trkpt>
      <trkpt lat="43.85431" lon="1.24037">
        <ele>147.7117</ele>
        <time>2023-01-01T10:52:51.464Z</time>
      </trkpt>
      <trkpt lat="43.85428" lon="1.24023">
        <ele>147.698897</ele>
        <time>2023-01-01T10:52:53.487Z</time>
      </trkpt>
      <trkpt lat="43.85425" lon="1.24008">
        <ele>147.685361</ele>
        <time>2023-01-01T10:52:55.486Z</time>
      </trkpt>
      <trkpt lat="43.85422" lon="1.23992">
        <ele>147.67091</ele>
        <time>2023-01-01T10:52:57.484Z</time>
      </trkpt>
      <trkpt lat="43.85419" lon="1.23977">
        <ele>147.656917</ele>
        <time>2023-01-01T10:52:59.480Z</time>
      </trkpt>
      <trkpt lat="43.85415" lon="1.23962">
        <ele>147.642962</ele>
        <time>2023-01-01T10:53:01.485Z</time>
      </trkpt>
      <trkpt lat="43.85411" lon="1.23947">
        <ele>147.668829</ele>
        <time>2023-01-01T10:53:03.488Z</time>
      </trkpt>
      <trkpt lat="43.85409" lon="1.23933">
        <ele>147.718984</ele>
        <time>2023-01-01T10:53:05.496Z</time>
      </trkpt>
      <trkpt lat="43.85406" lon="1.23917">
        <ele>147.775246</ele>
        <time>2023-01-01T10:53:07.476Z</time>
      </trkpt>
      <trkpt lat="43.85404" lon="1.23903">
        <ele>147.827913</ele>
        <time>2023-01-01T10:53:09.486Z</time>
      </trkpt>
      <trkpt lat="43.85398" lon="1.2389">
        <ele>147.880292</ele>
        <time>2023-01-01T10:53:12.478Z</time>
      </trkpt>
      <trkpt lat="43.85388" lon="1.2388">
        <ele>147.937783</ele>
        <time>2023-01-01T10:53:15.474Z</time>
      </trkpt>
      <trkpt lat="43.85378" lon="1.23871">
        <ele>147.997448</ele>
        <time>2023-01-01T10:53:18.470Z</time>
      </trkpt>
      <trkpt lat="43.8537" lon="1.23857">
        <ele>148.059477</ele>
        <time>2023-01-01T10:53:21.474Z</time>
      </trkpt>
      <trkpt lat="43.85364" lon="1.23842">
        <ele>148.119916</ele>
        <time>2023-01-01T10:53:24.484Z</time>
      </trkpt>
      <trkpt lat="43.85359" lon="1.23829">
        <ele>148.170505</ele>
        <time>2023-01-01T10:53:27.473Z</time>
      </trkpt>
      <trkpt lat="43.85354" lon="1.23814">
        <ele>148.227808</ele>
        <time>2023-01-01T10:53:31.496Z</time>
      </trkpt>
      <trkpt lat="43.85349" lon="1.23803">
        <ele>148.271501</ele>
        <time>2023-01-01T10:53:34.464Z</time>
      </trkpt>
      <trkpt lat="43.85344" lon="1.23791">
        <ele>148.320453</ele>
        <time>2023-01-01T10:53:37.474Z</time>
      </trkpt>
      <trkpt lat="43.85339" lon="1.23778">
        <ele>148.372323</ele>
        <time>2023-01-01T10:53:40.483Z</time>
      </trkpt>
      <trkpt lat="43.85334" lon="1.23766">
        <ele>148.422588</ele>
        <time>2023-01-01T10:53:43.483Z</time>
      </trkpt>
      <trkpt lat="43.85329" lon="1.23754">
        <ele>148.469005</ele>
        <time>2023-01-01T10:53:46.487Z</time>
      </trkpt>
      <trkpt lat="43.85324" lon="1.23743">
        <ele>148.586343</ele>
        <time>2023-01-01T10:53:49.495Z</time>
      </trkpt>
      <trkpt lat="43.8532" lon="1.23731">
        <ele>148.978274</ele>
        <time>2023-01-01T10:53:52.466Z</time>
      </trkpt>
      <trkpt lat="43.85314" lon="1.2372">
        <ele>149.359778</ele>
        <time>2023-01-01T10:53:55.492Z</time>
      </trkpt>
      <trkpt lat="43.85309" lon="1.23709">
        <ele>149.743801</ele>
        <time>2023-01-01T10:53:58.492Z</time>
      </trkpt>
      <trkpt lat="43.85303" lon="1.23698">
        <ele>150.144367</ele>
        <time>2023-01-01T10:54:01.485Z</time>
      </trkpt>
      <trkpt lat="43.85297" lon="1.23686">
        <ele>150.566123</ele>
        <time>2023-01-01T10:54:04.472Z</time>
      </trkpt>
      <trkpt lat="43.85292" lon="1.23675">
        <ele>150.966425</ele>
        <time>2023-01-01T10:54:07.486Z</time>
      </trkpt>
      <trkpt lat="43.85287" lon="1.23664">
        <ele>151.334103</ele>
        <time>2023-01-01T10:54:10.490Z</time>
      </trkpt>
      <trkpt lat="43.85282" lon="1.23653">
        <ele>151.712299</ele>
        <time>2023-01-01T10:54:13.482Z</time>
      </trkpt>
      <trkpt lat="43.85277" lon="1.2364">
        <ele>152.124698</ele>
        <time>2023-01-01T10:54:16.510Z</time>
      </trkpt>
      <trkpt lat="43.85272" lon="1.23629">
        <ele>152.516006</ele>
        <time>2023-01-01T10:54:19.485Z</time>
      </trkpt>
      <trkpt lat="43.85268" lon="1.23616">
        <ele>152.898651</ele>
        <time>2023-01-01T10:54:22.469Z</time>
      </trkpt>
      <trkpt lat="43.85262" lon="1.23603">
        <ele>153.369555</ele>
        <time>2023-01-01T10:54:26.486Z</time>
      </trkpt>
      <trkpt lat="43.85257" lon="1.23589">
        <ele>153.813568</ele>
        <time>2023-01-01T10:54:31.481Z</time>
      </trkpt>
      <trkpt lat="43.85262" lon="1.23577">
        <ele>154.203381</ele>
        <time>2023-01-01T10:54:35.472Z</time>
      </trkpt>
      <trkpt lat="43.85268" lon="1.23564">
        <ele>154.658234</ele>
        <time>2023-01-01T10:54:39.466Z</time>
      </trkpt>
      <trkpt lat="43.85273" lon="1.23553">
        <ele>155.04953</ele>
        <time>2023-01-01T10:54:43.494Z</time>
      </trkpt>
      <trkpt lat="43.85272" lon="1.23537">
        <ele>155.51539</ele>
        <time>2023-01-01T10:54:48.475Z</time>
      </trkpt>
      <trkpt lat="43.85279" lon="1.23526">
        <ele>155.775073</ele>
        <time>2023-01-01T10:54:52.493Z</time>
      </trkpt>
      <trkpt lat="43.85288" lon="1.23521">
        <ele>155.839603</ele>
        <time>2023-01-01T10:54:55.491Z</time>
      </trkpt>
      <trkpt lat="43.85299" lon="1.23516">
        <ele>155.917209</ele>
        <time>2023-01-01T10:54:59.468Z</time>
      </trkpt>
      <trkpt lat="43.85308" lon="1.2351">
        <ele>155.975899</ele>
        <time>2023-01-01T10:55:02.486Z</time>
      </trkpt>
      <trkpt lat="43.85312" lon="1.235">
        <ele>156.034968</ele>
        <time>2023-01-01T10:55:05.474Z</time>
      </trkpt>
      <trkpt lat="43.85315" lon="1.23484">
        <ele>156.112204</ele>
        <time>2023-01-01T10:55:09.484Z</time>
      </trkpt>
      <trkpt lat="43.85317" lon="1.2347">
        <ele>156.177242</ele>
        <time>2023-01-01T10:55:12.489Z</time>
      </trkpt>
      <trkpt lat="43.85319" lon="1.23456">
        <ele>156.243803</ele>
        <time>2023-01-01T10:55:15.485Z</time>
      </trkpt>
      <trkpt lat="43.85321" lon="1.23443">
        <ele>156.307323</ele>
        <time>2023-01-01T10:55:18.481Z</time>
      </trkpt>
      <trkpt lat="43.85323" lon="1.23428">
        <ele>156.377564</ele>
        <time>2023-01-01T10:55:21.487Z</time>
      </trkpt>
      <trkpt lat="43.85325" lon="1.23413">
        <ele>156.451963</ele>
        <time>2023-01-01T10:55:24.482Z</time>
      </trkpt>
      <trkpt lat="43.85326" lon="1.23396">
        <ele>156.531606</ele>
        <time>2023-01-01T10:55:27.483Z</time>
      </trkpt>
      <trkpt lat="43.85328" lon="1.2338">
        <ele>156.609166</ele>
        <time>2023-01-01T10:55:30.480Z</time>
      </trkpt>
      <trkpt lat="43.85329" lon="1.23365">
        <ele>156.680518</ele>
        <time>2023-01-01T10:55:33.501Z</time>
      </trkpt>
      <trkpt lat="43.8533" lon="1.23349">
        <ele>156.752527</ele>
        <time>2023-01-01T10:55:36.474Z</time>
      </trkpt>
      <trkpt lat="43.85331" lon="1.23335">
        <ele>156.820488</ele>
        <time>2023-01-01T10:55:39.487Z</time>
      </trkpt>
      <trkpt lat="43.85332" lon="1.23322">
        <ele>156.883532</ele>
        <time>2023-01-01T10:55:42.485Z</time>
      </trkpt>
      <trkpt lat="43.85334" lon="1.23305">
        <ele>156.961444</ele>
        <time>2023-01-01T10:55:46.487Z</time>
      </trkpt>
      <trkpt lat="43.85336" lon="1.23291">
        <ele>157.028443</ele>
        <time>2023-01-01T10:55:50.486Z</time>
      </trkpt>
      <trkpt lat="43.85336" lon="1.23275">
        <ele>157.103885</ele>
        <time>2023-01-01T10:55:54.486Z</time>
      </trkpt>
      <trkpt lat="43.8534" lon="1.23259">
        <ele>157.183208</ele>
        <time>2023-01-01T10:55:57.472Z</time>
      </trkpt>
      <trkpt lat="43.85341" lon="1.23242">
        <ele>157.263195</ele>
        <time>2023-01-01T10:56:00.473Z</time>
      </trkpt>
      <trkpt lat="43.85343" lon="1.23226">
        <ele>157.340282</ele>
        <time>2023-01-01T10:56:03.481Z</time>
      </trkpt>
      <trkpt lat="43.85344" lon="1.2321">
        <ele>157.415086</ele>
        <time>2023-01-01T10:56:06.485Z</time>
      </trkpt>
      <trkpt lat="43.85346" lon="1.23194">
        <ele>157.48884</ele>
        <time>2023-01-01T10:56:09.485Z</time>
      </trkpt>
      <trkpt lat="43.85347" lon="1.23179">
        <ele>157.56001</ele>
        <time>2023-01-01T10:56:12.485Z</time>
      </trkpt>
      <trkpt lat="43.85348" lon="1.23164">
        <ele>157.629345</ele>
        <time>2023-01-01T10:56:15.493Z</time>
      </trkpt>
      <trkpt lat="43.85349" lon="1.23148">
        <ele>157.70687</ele>
        <time>2023-01-01T10:56:18.494Z</time>
      </trkpt>
      <trkpt lat="43.85351" lon="1.23131">
        <ele>157.783997</ele>
        <time>2023-01-01T10:56:21.480Z</time>
      </trkpt>
      <trkpt lat="43.85353" lon="1.23116">
        <ele>157.857495</ele>
        <time>2023-01-01T10:56:24.478Z</time>
      </trkpt>
      <trkpt lat="43.85353" lon="1.23103">
        <ele>157.917615</ele>
        <time>2023-01-01T10:56:27.468Z</time>
      </trkpt>
      <trkpt lat="43.85353" lon="1.2309">
        <ele>157.978858</ele>
        <time>2023-01-01T10:56:30.481Z</time>
      </trkpt>
      <trkpt lat="43.85354" lon="1.23075">
        <ele>158.046286</ele>
        <time>2023-01-01T10:56:33.492Z</time>
      </trkpt>
      <trkpt lat="43.85357" lon="1.2306">
        <ele>158.107061</ele>
        <time>2023-01-01T10:56:37.477Z</time>
      </trkpt>
      <trkpt lat="43.85361" lon="1.23047">
        <ele>158.150193</ele>
        <time>2023-01-01T10:56:42.485Z</time>
      </trkpt>
      <trkpt lat="43.85356" lon="1.23035">
        <ele>158.190227</ele>
        <time>2023-01-01T10:56:53.479Z</time>
      </trkpt>
      <trkpt lat="43.85347" lon="1.23028">
        <ele>158.234241</ele>
        <time>2023-01-01T10:56:58.472Z</time>
      </trkpt>
      <trkpt lat="43.85338" lon="1.23029">
        <ele>158.273173</ele>
        <time>2023-01-01T10:57:01.467Z</time>
      </trkpt>
      <trkpt lat="43.85326" lon="1.23028">
        <ele>158.323148</ele>
        <time>2023-01-01T10:57:04.469Z</time>
      </trkpt>
      <trkpt lat="43.85313" lon="1.23023">
        <ele>158.37654</ele>
        <time>2023-01-01T10:57:07.472Z</time>
      </trkpt>
      <trkpt lat="43.85304" lon="1.23017">
        <ele>158.418098</ele>
        <time>2023-01-01T10:57:10.470Z</time>
      </trkpt>
      <trkpt lat="43.85295" lon="1.23011">
        <ele>158.459417</ele>
        <time>2023-01-01T10:57:13.472Z</time>
      </trkpt>
      <trkpt lat="43.85286" lon="1.23008">
        <ele>158.498924</ele>
        <time>2023-01-01T10:57:16.495Z</time>
      </trkpt>
      <trkpt lat="43.85276" lon="1.23005">
        <ele>158.54109</ele>
        <time>2023-01-01T10:57:19.481Z</time>
      </trkpt>
      <trkpt lat="43.85265" lon="1.23001">
        <ele>158.587668</ele>
        <time>2023-01-01T10:57:22.486Z</time>
      </trkpt>
      <trkpt lat="43.85253" lon="1.22997">
        <ele>158.639372</ele>
        <time>2023-01-01T10:57:25.497Z</time>
      </trkpt>
      <trkpt lat="43.85241" lon="1.22993">
        <ele>158.690242</ele>
        <time>2023-01-01T10:57:28.469Z</time>
      </trkpt>
      <trkpt lat="43.85229" lon="1.22989">
        <ele>158.740816</ele>
        <time>2023-01-01T10:57:31.484Z</time>
      </trkpt>
      <trkpt lat="43.85217" lon="1.22985">
        <ele>158.790515</ele>
        <time>2023-01-01T10:57:34.491Z</time>
      </trkpt>
      <trkpt lat="43.85205" lon="1.22982">
        <ele>158.863528</ele>
        <time>2023-01-01T10:57:37.481Z</time>
      </trkpt>
      <trkpt lat="43.85193" lon="1.22978">
        <ele>158.995859</ele>
        <time>2023-01-01T10:57:40.470Z</time>
      </trkpt>
      <trkpt lat="43.85182" lon="1.22975">
        <ele>159.126299</ele>
        <time>2023-01-01T10:57:43.489Z</time>
      </trkpt>
      <trkpt lat="43.85173" lon="1.22972">
        <ele>159.232735</ele>
        <time>2023-01-01T10:57:46.485Z</time>
      </trkpt>
      <trkpt lat="43.85164" lon="1.22968">
        <ele>159.337793</ele>
        <time>2023-01-01T10:57:49.478Z</time>
      </trkpt>
      <trkpt lat="43.85153" lon="1.22966">
        <ele>159.456417</ele>
        <time>2023-01-01T10:57:52.475Z</time>
      </trkpt>
      <trkpt lat="43.85143" lon="1.22962">
        <ele>159.577343</ele>
        <time>2023-01-01T10:57:55.495Z</time>
      </trkpt>
      <trkpt lat="43.85132" lon="1.22959">
        <ele>159.704234</ele>
        <time>2023-01-01T10:57:58.482Z</time>
      </trkpt>
      <trkpt lat="43.8512" lon="1.22956">
        <ele>159.831389</ele>
        <time>2023-01-01T10:58:01.497Z</time>
      </trkpt>
      <trkpt lat="43.85109" lon="1.22952">
        <ele>159.962276</ele>
        <time>2023-01-01T10:58:04.490Z</time>
      </trkpt>
      <trkpt lat="43.85097" lon="1.22948">
        <ele>160.100235</ele>
        <time>2023-01-01T10:58:07.486Z</time>
      </trkpt>
      <trkpt lat="43.85086" lon="1.22946">
        <ele>160.22401</ele>
        <time>2023-01-01T10:58:10.483Z</time>
      </trkpt>
      <trkpt lat="43.85077" lon="1.22943">
        <ele>160.331354</ele>
        <time>2023-01-01T10:58:13.499Z</time>
      </trkpt>
      <trkpt lat="43.85067" lon="1.22939">
        <ele>160.44586</ele>
        <time>2023-01-01T10:58:17.487Z</time>
      </trkpt>
      <trkpt lat="43.85059" lon="1.22931">
        <ele>160.547615</ele>
        <time>2023-01-01T10:58:21.495Z</time>
      </trkpt>
      <trkpt lat="43.85057" lon="1.2292">
        <ele>160.648239</ele>
        <time>2023-01-01T10:58:24.468Z</time>
      </trkpt>
      <trkpt lat="43.85053" lon="1.22907">
        <ele>160.753736</ele>
        <time>2023-01-01T10:58:27.483Z</time>
      </trkpt>
      <trkpt lat="43.8505" lon="1.22895">
        <ele>160.851187</ele>
        <time>2023-01-01T10:58:30.484Z</time>
      </trkpt>
      <trkpt lat="43.85047" lon="1.2288">
        <ele>160.945609</ele>
        <time>2023-01-01T10:58:33.485Z</time>
      </trkpt>
      <trkpt lat="43.85043" lon="1.22864">
        <ele>161.046144</ele>
        <time>2023-01-01T10:58:36.478Z</time>
      </trkpt>
      <trkpt lat="43.85039" lon="1.22847">
        <ele>161.153965</ele>
        <time>2023-01-01T10:58:39.495Z</time>
      </trkpt>
      <trkpt lat="43.85035" lon="1.22829">
        <ele>161.262583</ele>
        <time>2023-01-01T10:58:42.493Z</time>
      </trkpt>
      <trkpt lat="43.85031" lon="1.22812">
        <ele>161.371237</ele>
        <time>2023-01-01T10:58:45.484Z</time>
      </trkpt>
      <trkpt lat="43.85027" lon="1.22796">
        <ele>161.473711</ele>
        <time>2023-01-01T10:58:48.472Z</time>
      </trkpt>
      <trkpt lat="43.85023" lon="1.22781">
        <ele>161.569726</ele>
        <time>2023-01-01T10:58:51.484Z</time>
      </trkpt>
      <trkpt lat="43.8502" lon="1.22764">
        <ele>161.67187</ele>
        <time>2023-01-01T10:58:54.466Z</time>
      </trkpt>
      <trkpt lat="43.85016" lon="1.22747">
        <ele>161.778601</ele>
        <time>2023-01-01T10:58:57.483Z</time>
      </trkpt>
      <trkpt lat="43.85012" lon="1.22735">
        <ele>161.859458</ele>
        <time>2023-01-01T10:58:59.495Z</time>
      </trkpt>
      <trkpt lat="43.8501" lon="1.22723">
        <ele>161.933918</ele>
        <time>2023-01-01T10:59:01.481Z</time>
      </trkpt>
      <trkpt lat="43.85006" lon="1.22705">
        <ele>162.044718</ele>
        <time>2023-01-01T10:59:04.495Z</time>
      </trkpt>
      <trkpt lat="43.85003" lon="1.22693">
        <ele>162.120522</ele>
        <time>2023-01-01T10:59:06.488Z</time>
      </trkpt>
      <trkpt lat="43.85" lon="1.22681">
        <ele>162.198855</ele>
        <time>2023-01-01T10:59:08.485Z</time>
      </trkpt>
      <trkpt lat="43.84997" lon="1.22669">
        <ele>162.273828</ele>
        <time>2023-01-01T10:59:10.485Z</time>
      </trkpt>
      <trkpt lat="43.84994" lon="1.22656">
        <ele>162.327359</ele>
        <time>2023-01-01T10:59:12.486Z</time>
      </trkpt>
      <trkpt lat="43.84991" lon="1.22643">
        <ele>162.342609</ele>
        <time>2023-01-01T10:59:14.486Z</time>
      </trkpt>
      <trkpt lat="43.84988" lon="1.2263">
        <ele>162.357866</ele>
        <time>2023-01-01T10:59:16.487Z</time>
      </trkpt>
      <trkpt lat="43.84985" lon="1.22618">
        <ele>162.372981</ele>
        <time>2023-01-01T10:59:18.500Z</time>
      </trkpt>
      <trkpt lat="43.84982" lon="1.22606">
        <ele>162.387646</ele>
        <time>2023-01-01T10:59:20.496Z</time>
      </trkpt>
      <trkpt lat="43.84978" lon="1.22592">
        <ele>162.404399</ele>
        <time>2023-01-01T10:59:22.468Z</time>
      </trkpt>
      <trkpt lat="43.84975" lon="1.22579">
        <ele>162.419917</ele>
        <time>2023-01-01T10:59:24.491Z</time>
      </trkpt>
      <trkpt lat="43.84972" lon="1.22566">
        <ele>162.436027</ele>
        <time>2023-01-01T10:59:26.487Z</time>
      </trkpt>
      <trkpt lat="43.84968" lon="1.22552">
        <ele>162.452684</ele>
        <time>2023-01-01T10:59:28.478Z</time>
      </trkpt>
      <trkpt lat="43.84965" lon="1.22539">
        <ele>162.468156</ele>
        <time>2023-01-01T10:59:30.492Z</time>
      </trkpt>
      <trkpt lat="43.84962" lon="1.22527">
        <ele>162.482789</ele>
        <time>2023-01-01T10:59:32.496Z</time>
      </trkpt>
      <trkpt lat="43.84959" lon="1.22513">
        <ele>162.498903</ele>
        <time>2023-01-01T10:59:34.479Z</time>
      </trkpt>
      <trkpt lat="43.84956" lon="1.22496">
        <ele>162.519856</ele>
        <time>2023-01-01T10:59:37.493Z</time>
      </trkpt>
      <trkpt lat="43.84953" lon="1.2248">
        <ele>162.5388</ele>
        <time>2023-01-01T10:59:40.494Z</time>
      </trkpt>
      <trkpt lat="43.84949" lon="1.22465">
        <ele>162.556848</ele>
        <time>2023-01-01T10:59:43.486Z</time>
      </trkpt>
      <trkpt lat="43.84946" lon="1.22449">
        <ele>162.576</ele>
        <time>2023-01-01T10:59:46.481Z</time>
      </trkpt>
      <trkpt lat="43.84941" lon="1.22431">
        <ele>162.597272</ele>
        <time>2023-01-01T10:59:49.495Z</time>
      </trkpt>
      <trkpt lat="43.84939" lon="1.22418">
        <ele>162.636031</ele>
        <time>2023-01-01T10:59:51.492Z</time>
      </trkpt>
      <trkpt lat="43.84936" lon="1.22405">
        <ele>162.695793</ele>
        <time>2023-01-01T10:59:53.489Z</time>
      </trkpt>
      <trkpt lat="43.84933" lon="1.22393">
        <ele>162.756053</ele>
        <time>2023-01-01T10:59:55.501Z</time>
      </trkpt>
      <trkpt lat="43.8493" lon="1.2238">
        <ele>162.819285</ele>
        <time>2023-01-01T10:59:57.486Z</time>
      </trkpt>
      <trkpt lat="43.84927" lon="1.22366">
        <ele>162.885594</ele>
        <time>2023-01-01T10:59:59.484Z</time>
      </trkpt>
      <trkpt lat="43.84924" lon="1.22353">
        <ele>162.95122</ele>
        <time>2023-01-01T11:00:01.491Z</time>
      </trkpt>
      <trkpt lat="43.8492" lon="1.22341">
        <ele>163.008576</ele>
        <time>2023-01-01T11:00:03.495Z</time>
      </trkpt>
      <trkpt lat="43.84916" lon="1.22327">
        <ele>163.076899</ele>
        <time>2023-01-01T11:00:05.498Z</time>
      </trkpt>
      <trkpt lat="43.84913" lon="1.22314">
        <ele>163.140335</ele>
        <time>2023-01-01T11:00:07.506Z</time>
      </trkpt>
      <trkpt lat="43.8491" lon="1.22302">
        <ele>163.198552</ele>
        <time>2023-01-01T11:00:09.503Z</time>
      </trkpt>
      <trkpt lat="43.84907" lon="1.22289">
        <ele>163.261785</ele>
        <time>2023-01-01T11:00:11.488Z</time>
      </trkpt>
      <trkpt lat="43.84904" lon="1.22277">
        <ele>163.320356</ele>
        <time>2023-01-01T11:00:13.488Z</time>
      </trkpt>
      <trkpt lat="43.84901" lon="1.22265">
        <ele>163.381051</ele>
        <time>2023-01-01T11:00:15.488Z</time>
      </trkpt>
      <trkpt lat="43.84898" lon="1.22251">
        <ele>163.44692</ele>
        <time>2023-01-01T11:00:17.480Z</time>
      </trkpt>
      <trkpt lat="43.84896" lon="1.22238">
        <ele>163.508892</ele>
        <time>2023-01-01T11:00:19.470Z</time>
      </trkpt>
      <trkpt lat="43.84893" lon="1.22225">
        <ele>163.573059</ele>
        <time>2023-01-01T11:00:21.496Z</time>
      </trkpt>
      <trkpt lat="43.8489" lon="1.22212">
        <ele>163.636423</ele>
        <time>2023-01-01T11:00:23.470Z</time>
      </trkpt>
      <trkpt lat="43.84887" lon="1.22199">
        <ele>163.69643</ele>
        <time>2023-01-01T11:00:25.468Z</time>
      </trkpt>
      <trkpt lat="43.84884" lon="1.22186">
        <ele>163.756961</ele>
        <time>2023-01-01T11:00:27.490Z</time>
      </trkpt>
      <trkpt lat="43.84881" lon="1.22173">
        <ele>163.750433</ele>
        <time>2023-01-01T11:00:29.491Z</time>
      </trkpt>
      <trkpt lat="43.84878" lon="1.2216">
        <ele>163.744094</ele>
        <time>2023-01-01T11:00:31.480Z</time>
      </trkpt>
      <trkpt lat="43.84875" lon="1.22147">
        <ele>163.737837</ele>
        <time>2023-01-01T11:00:33.484Z</time>
      </trkpt>
      <trkpt lat="43.84872" lon="1.22135">
        <ele>163.731565</ele>
        <time>2023-01-01T11:00:35.497Z</time>
      </trkpt>
      <trkpt lat="43.84869" lon="1.22123">
        <ele>163.725667</ele>
        <time>2023-01-01T11:00:37.489Z</time>
      </trkpt>
      <trkpt lat="43.84866" lon="1.2211">
        <ele>163.719283</ele>
        <time>2023-01-01T11:00:39.495Z</time>
      </trkpt>
      <trkpt lat="43.84862" lon="1.22097">
        <ele>163.712435</ele>
        <time>2023-01-01T11:00:41.483Z</time>
      </trkpt>
      <trkpt lat="43.84859" lon="1.22083">
        <ele>163.705805</ele>
        <time>2023-01-01T11:00:43.489Z</time>
      </trkpt>
      <trkpt lat="43.84856" lon="1.2207">
        <ele>163.699276</ele>
        <time>2023-01-01T11:00:45.483Z</time>
      </trkpt>
      <trkpt lat="43.84853" lon="1.22057">
        <ele>163.692805</ele>
        <time>2023-01-01T11:00:47.491Z</time>
      </trkpt>
      <trkpt lat="43.8485" lon="1.22044">
        <ele>163.686258</ele>
        <time>2023-01-01T11:00:49.484Z</time>
      </trkpt>
      <trkpt lat="43.84847" lon="1.2203">
        <ele>163.679653</ele>
        <time>2023-01-01T11:00:51.492Z</time>
      </trkpt>
      <trkpt lat="43.84844" lon="1.22017">
        <ele>163.67317</ele>
        <time>2023-01-01T11:00:53.485Z</time>
      </trkpt>
      <trkpt lat="43.84841" lon="1.22004">
        <ele>163.666642</ele>
        <time>2023-01-01T11:00:55.489Z</time>
      </trkpt>
      <trkpt lat="43.84838" lon="1.21992">
        <ele>163.660479</ele>
        <time>2023-01-01T11:00:57.486Z</time>
      </trkpt>
      <trkpt lat="43.84834" lon="1.21975">
        <ele>163.652012</ele>
        <time>2023-01-01T11:01:00.481Z</time>
      </trkpt>
      <trkpt lat="43.84829" lon="1.21958">
        <ele>163.643635</ele>
        <time>2023-01-01T11:01:03.480Z</time>
      </trkpt>
      <trkpt lat="43.84825" lon="1.21941">
        <ele>163.788138</ele>
        <time>2023-01-01T11:01:06.496Z</time>
      </trkpt>
      <trkpt lat="43.84823" lon="1.21928">
        <ele>163.97091</ele>
        <time>2023-01-01T11:01:08.497Z</time>
      </trkpt>
      <trkpt lat="43.84819" lon="1.21916">
        <ele>164.160955</ele>
        <time>2023-01-01T11:01:10.491Z</time>
      </trkpt>
      <trkpt lat="43.84816" lon="1.21898">
        <ele>164.425797</ele>
        <time>2023-01-01T11:01:13.483Z</time>
      </trkpt>
      <trkpt lat="43.84812" lon="1.21885">
        <ele>164.623988</ele>
        <time>2023-01-01T11:01:15.500Z</time>
      </trkpt>
      <trkpt lat="43.8481" lon="1.21873">
        <ele>164.812283</ele>
        <time>2023-01-01T11:01:17.500Z</time>
      </trkpt>
      <trkpt lat="43.84807" lon="1.21861">
        <ele>164.993091</ele>
        <time>2023-01-01T11:01:19.500Z</time>
      </trkpt>
      <trkpt lat="43.84805" lon="1.21848">
        <ele>165.183939</ele>
        <time>2023-01-01T11:01:21.491Z</time>
      </trkpt>
      <trkpt lat="43.84802" lon="1.21836">
        <ele>165.372817</ele>
        <time>2023-01-01T11:01:23.481Z</time>
      </trkpt>
      <trkpt lat="43.84799" lon="1.21823">
        <ele>165.563563</ele>
        <time>2023-01-01T11:01:25.491Z</time>
      </trkpt>
      <trkpt lat="43.84794" lon="1.21805">
        <ele>165.846666</ele>
        <time>2023-01-01T11:01:28.490Z</time>
      </trkpt>
      <trkpt lat="43.84792" lon="1.21792">
        <ele>166.039683</ele>
        <time>2023-01-01T11:01:30.496Z</time>
      </trkpt>
      <trkpt lat="43.84789" lon="1.21775">
        <ele>166.291767</ele>
        <time>2023-01-01T11:01:33.487Z</time>
      </trkpt>
      <trkpt lat="43.84785" lon="1.21759">
        <ele>166.530684</ele>
        <time>2023-01-01T11:01:36.484Z</time>
      </trkpt>
      <trkpt lat="43.84782" lon="1.21746">
        <ele>166.730066</ele>
        <time>2023-01-01T11:01:39.489Z</time>
      </trkpt>
      <trkpt lat="43.84777" lon="1.2173">
        <ele>166.974032</ele>
        <time>2023-01-01T11:01:42.492Z</time>
      </trkpt>
      <trkpt lat="43.84773" lon="1.21714">
        <ele>167.22249</ele>
        <time>2023-01-01T11:01:45.479Z</time>
      </trkpt>
      <trkpt lat="43.84769" lon="1.21698">
        <ele>167.207316</ele>
        <time>2023-01-01T11:01:48.490Z</time>
      </trkpt>
      <trkpt lat="43.84765" lon="1.21681">
        <ele>167.171874</ele>
        <time>2023-01-01T11:01:51.490Z</time>
      </trkpt>
      <trkpt lat="43.84761" lon="1.21669">
        <ele>167.146651</ele>
        <time>2023-01-01T11:01:53.486Z</time>
      </trkpt>
      <trkpt lat="43.84757" lon="1.21653">
        <ele>167.112871</ele>
        <time>2023-01-01T11:01:56.481Z</time>
      </trkpt>
      <trkpt lat="43.84753" lon="1.21636">
        <ele>167.076298</ele>
        <time>2023-01-01T11:01:59.483Z</time>
      </trkpt>
      <trkpt lat="43.84749" lon="1.21618">
        <ele>167.03884</ele>
        <time>2023-01-01T11:02:02.495Z</time>
      </trkpt>
      <trkpt lat="43.84747" lon="1.21605">
        <ele>167.013063</ele>
        <time>2023-01-01T11:02:04.488Z</time>
      </trkpt>
      <trkpt lat="43.84745" lon="1.21592">
        <ele>166.987926</ele>
        <time>2023-01-01T11:02:06.485Z</time>
      </trkpt>
      <trkpt lat="43.84742" lon="1.2158">
        <ele>166.962463</ele>
        <time>2023-01-01T11:02:08.486Z</time>
      </trkpt>
      <trkpt lat="43.84738" lon="1.21563">
        <ele>166.925891</ele>
        <time>2023-01-01T11:02:11.497Z</time>
      </trkpt>
      <trkpt lat="43.84736" lon="1.21548">
        <ele>166.895094</ele>
        <time>2023-01-01T11:02:14.487Z</time>
      </trkpt>
      <trkpt lat="43.84737" lon="1.21533">
        <ele>166.866455</ele>
        <time>2023-01-01T11:02:17.472Z</time>
      </trkpt>
      <trkpt lat="43.84741" lon="1.21521">
        <ele>166.840061</ele>
        <time>2023-01-01T11:02:20.486Z</time>
      </trkpt>
      <trkpt lat="43.84741" lon="1.21507">
        <ele>166.812872</ele>
        <time>2023-01-01T11:02:23.481Z</time>
      </trkpt>
      <trkpt lat="43.84736" lon="1.21495">
        <ele>166.785008</ele>
        <time>2023-01-01T11:02:26.479Z</time>
      </trkpt>
      <trkpt lat="43.84727" lon="1.21486">
        <ele>166.755176</ele>
        <time>2023-01-01T11:02:29.471Z</time>
      </trkpt>
      <trkpt lat="43.84719" lon="1.21477">
        <ele>166.718168</ele>
        <time>2023-01-01T11:02:32.471Z</time>
      </trkpt>
      <trkpt lat="43.84713" lon="1.21463">
        <ele>166.674067</ele>
        <time>2023-01-01T11:02:35.463Z</time>
      </trkpt>
      <trkpt lat="43.84708" lon="1.21446">
        <ele>166.626374</ele>
        <time>2023-01-01T11:02:38.476Z</time>
      </trkpt>
      <trkpt lat="43.84704" lon="1.21429">
        <ele>166.575989</ele>
        <time>2023-01-01T11:02:41.499Z</time>
      </trkpt>
      <trkpt lat="43.847" lon="1.21417">
        <ele>166.540708</ele>
        <time>2023-01-01T11:02:43.495Z</time>
      </trkpt>
      <trkpt lat="43.84698" lon="1.21404">
        <ele>166.506685</ele>
        <time>2023-01-01T11:02:45.491Z</time>
      </trkpt>
      <trkpt lat="43.84695" lon="1.21392">
        <ele>166.471651</ele>
        <time>2023-01-01T11:02:47.498Z</time>
      </trkpt>
      <trkpt lat="43.84692" lon="1.2138">
        <ele>166.435605</ele>
        <time>2023-01-01T11:02:49.489Z</time>
      </trkpt>
      <trkpt lat="43.84688" lon="1.21367">
        <ele>166.399307</ele>
        <time>2023-01-01T11:02:51.483Z</time>
      </trkpt>
      <trkpt lat="43.84686" lon="1.21354">
        <ele>166.363884</ele>
        <time>2023-01-01T11:02:53.463Z</time>
      </trkpt>
      <trkpt lat="43.84683" lon="1.21341">
        <ele>166.3254</ele>
        <time>2023-01-01T11:02:55.471Z</time>
      </trkpt>
      <trkpt lat="43.8468" lon="1.21329">
        <ele>166.291503</ele>
        <time>2023-01-01T11:02:57.494Z</time>
      </trkpt>
      <trkpt lat="43.84677" lon="1.21316">
        <ele>166.254816</ele>
        <time>2023-01-01T11:02:59.494Z</time>
      </trkpt>
      <trkpt lat="43.84674" lon="1.21303">
        <ele>166.218055</ele>
        <time>2023-01-01T11:03:01.487Z</time>
      </trkpt>
      <trkpt lat="43.8467" lon="1.2129">
        <ele>166.180744</ele>
        <time>2023-01-01T11:03:03.482Z</time>
      </trkpt>
      <trkpt lat="43.84668" lon="1.21276">
        <ele>166.141804</ele>
        <time>2023-01-01T11:03:05.496Z</time>
      </trkpt>
      <trkpt lat="43.84665" lon="1.21263">
        <ele>166.105512</ele>
        <time>2023-01-01T11:03:07.497Z</time>
      </trkpt>
      <trkpt lat="43.84662" lon="1.21249">
        <ele>166.0768</ele>
        <time>2023-01-01T11:03:09.484Z</time>
      </trkpt>
      <trkpt lat="43.84659" lon="1.21235">
        <ele>166.118318</ele>
        <time>2023-01-01T11:03:11.475Z</time>
      </trkpt>
      <trkpt lat="43.84656" lon="1.21222">
        <ele>166.157397</ele>
        <time>2023-01-01T11:03:13.491Z</time>
      </trkpt>
      <trkpt lat="43.84653" lon="1.21208">
        <ele>166.196002</ele>
        <time>2023-01-01T11:03:15.480Z</time>
      </trkpt>
      <trkpt lat="43.8465" lon="1.21195">
        <ele>166.234994</ele>
        <time>2023-01-01T11:03:17.483Z</time>
      </trkpt>
      <trkpt lat="43.84647" lon="1.21182">
        <ele>166.273484</ele>
        <time>2023-01-01T11:03:19.493Z</time>
      </trkpt>
      <trkpt lat="43.84644" lon="1.21169">
        <ele>166.312859</ele>
        <time>2023-01-01T11:03:21.493Z</time>
      </trkpt>
      <trkpt lat="43.84641" lon="1.21156">
        <ele>166.349987</ele>
        <time>2023-01-01T11:03:23.482Z</time>
      </trkpt>
      <trkpt lat="43.84638" lon="1.21144">
        <ele>166.385801</ele>
        <time>2023-01-01T11:03:25.497Z</time>
      </trkpt>
      <trkpt lat="43.84635" lon="1.21132">
        <ele>166.422565</ele>
        <time>2023-01-01T11:03:27.486Z</time>
      </trkpt>
      <trkpt lat="43.84632" lon="1.2112">
        <ele>166.457991</ele>
        <time>2023-01-01T11:03:29.488Z</time>
      </trkpt>
      <trkpt lat="43.8463" lon="1.21108">
        <ele>166.494104</ele>
        <time>2023-01-01T11:03:31.492Z</time>
      </trkpt>
      <trkpt lat="43.84626" lon="1.21095">
        <ele>166.530966</ele>
        <time>2023-01-01T11:03:33.501Z</time>
      </trkpt>
      <trkpt lat="43.84623" lon="1.21082">
        <ele>166.569017</ele>
        <time>2023-01-01T11:03:35.495Z</time>
      </trkpt>
      <trkpt lat="43.8462" lon="1.21069">
        <ele>166.608918</ele>
        <time>2023-01-01T11:03:37.485Z</time>
      </trkpt>
      <trkpt lat="43.84616" lon="1.21056">
        <ele>166.64776</ele>
        <time>2023-01-01T11:03:39.501Z</time>
      </trkpt>
      <trkpt lat="43.84613" lon="1.21042">
        <ele>166.68913</ele>
        <time>2023-01-01T11:03:41.500Z</time>
      </trkpt>
      <trkpt lat="43.8461" lon="1.21028">
        <ele>166.731422</ele>
        <time>2023-01-01T11:03:43.495Z</time>
      </trkpt>
      <trkpt lat="43.84607" lon="1.21014">
        <ele>166.773431</ele>
        <time>2023-01-01T11:03:45.494Z</time>
      </trkpt>
      <trkpt lat="43.84603" lon="1.21">
        <ele>166.849394</ele>
        <time>2023-01-01T11:03:47.492Z</time>
      </trkpt>
      <trkpt lat="43.846" lon="1.20986">
        <ele>166.923587</ele>
        <time>2023-01-01T11:03:49.487Z</time>
      </trkpt>
      <trkpt lat="43.84597" lon="1.20974">
        <ele>166.992864</ele>
        <time>2023-01-01T11:03:51.488Z</time>
      </trkpt>
      <trkpt lat="43.84593" lon="1.20956">
        <ele>167.08794</ele>
        <time>2023-01-01T11:03:54.484Z</time>
      </trkpt>
      <trkpt lat="43.84589" lon="1.2094">
        <ele>167.178654</ele>
        <time>2023-01-01T11:03:57.551Z</time>
      </trkpt>
      <trkpt lat="43.84585" lon="1.20923">
        <ele>167.272015</ele>
        <time>2023-01-01T11:04:00.479Z</time>
      </trkpt>
      <trkpt lat="43.84583" lon="1.20911">
        <ele>167.338145</ele>
        <time>2023-01-01T11:04:02.488Z</time>
      </trkpt>
      <trkpt lat="43.8458" lon="1.20898">
        <ele>167.405681</ele>
        <time>2023-01-01T11:04:04.497Z</time>
      </trkpt>
      <trkpt lat="43.84578" lon="1.20886">
        <ele>167.473023</ele>
        <time>2023-01-01T11:04:06.500Z</time>
      </trkpt>
      <trkpt lat="43.84574" lon="1.20873">
        <ele>167.546215</ele>
        <time>2023-01-01T11:04:08.492Z</time>
      </trkpt>
      <trkpt lat="43.84571" lon="1.2086">
        <ele>167.615053</ele>
        <time>2023-01-01T11:04:10.489Z</time>
      </trkpt>
      <trkpt lat="43.84568" lon="1.20846">
        <ele>167.691921</ele>
        <time>2023-01-01T11:04:12.492Z</time>
      </trkpt>
      <trkpt lat="43.84564" lon="1.20833">
        <ele>167.76585</ele>
        <time>2023-01-01T11:04:14.494Z</time>
      </trkpt>
      <trkpt lat="43.84561" lon="1.20819">
        <ele>167.84075</ele>
        <time>2023-01-01T11:04:16.482Z</time>
      </trkpt>
      <trkpt lat="43.84558" lon="1.20806">
        <ele>167.911516</ele>
        <time>2023-01-01T11:04:18.486Z</time>
      </trkpt>
      <trkpt lat="43.84556" lon="1.20794">
        <ele>167.977174</ele>
        <time>2023-01-01T11:04:20.498Z</time>
      </trkpt>
      <trkpt lat="43.84552" lon="1.20782">
        <ele>168.048687</ele>
        <time>2023-01-01T11:04:22.497Z</time>
      </trkpt>
      <trkpt lat="43.84549" lon="1.20769">
        <ele>168.095917</ele>
        <time>2023-01-01T11:04:24.471Z</time>
      </trkpt>
      <trkpt lat="43.84547" lon="1.20756">
        <ele>168.127647</ele>
        <time>2023-01-01T11:04:26.493Z</time>
      </trkpt>
      <trkpt lat="43.84542" lon="1.20739">
        <ele>168.174754</ele>
        <time>2023-01-01T11:04:29.494Z</time>
      </trkpt>
      <trkpt lat="43.84539" lon="1.20726">
        <ele>168.207264</ele>
        <time>2023-01-01T11:04:31.469Z</time>
      </trkpt>
      <trkpt lat="43.84536" lon="1.20714">
        <ele>168.239665</ele>
        <time>2023-01-01T11:04:33.489Z</time>
      </trkpt>
      <trkpt lat="43.84533" lon="1.20701">
        <ele>168.273238</ele>
        <time>2023-01-01T11:04:35.484Z</time>
      </trkpt>
      <trkpt lat="43.8453" lon="1.20689">
        <ele>168.30509</ele>
        <time>2023-01-01T11:04:37.496Z</time>
      </trkpt>
      <trkpt lat="43.84528" lon="1.20677">
        <ele>168.33739</ele>
        <time>2023-01-01T11:04:39.491Z</time>
      </trkpt>
      <trkpt lat="43.84526" lon="1.20664">
        <ele>168.369933</ele>
        <time>2023-01-01T11:04:41.488Z</time>
      </trkpt>
      <trkpt lat="43.84522" lon="1.20652">
        <ele>168.403402</ele>
        <time>2023-01-01T11:04:43.492Z</time>
      </trkpt>
      <trkpt lat="43.84519" lon="1.20639">
        <ele>168.43732</ele>
        <time>2023-01-01T11:04:45.500Z</time>
      </trkpt>
      <trkpt lat="43.84516" lon="1.20627">
        <ele>168.46912</ele>
        <time>2023-01-01T11:04:47.486Z</time>
      </trkpt>
      <trkpt lat="43.84512" lon="1.2061">
        <ele>168.514714</ele>
        <time>2023-01-01T11:04:50.484Z</time>
      </trkpt>
      <trkpt lat="43.84507" lon="1.20593">
        <ele>168.558525</ele>
        <time>2023-01-01T11:04:53.486Z</time>
      </trkpt>
      <trkpt lat="43.84503" lon="1.20576">
        <ele>168.604578</ele>
        <time>2023-01-01T11:04:56.482Z</time>
      </trkpt>
      <trkpt lat="43.845" lon="1.20564">
        <ele>168.637453</ele>
        <time>2023-01-01T11:04:58.487Z</time>
      </trkpt>
      <trkpt lat="43.84496" lon="1.20547">
        <ele>168.682358</ele>
        <time>2023-01-01T11:05:01.493Z</time>
      </trkpt>
      <trkpt lat="43.84492" lon="1.20531">
        <ele>168.775552</ele>
        <time>2023-01-01T11:05:04.488Z</time>
      </trkpt>
      <trkpt lat="43.84489" lon="1.20517">
        <ele>168.901016</ele>
        <time>2023-01-01T11:05:07.497Z</time>
      </trkpt>
      <trkpt lat="43.84485" lon="1.20501">
        <ele>169.037365</ele>
        <time>2023-01-01T11:05:10.484Z</time>
      </trkpt>
      <trkpt lat="43.84481" lon="1.20485">
        <ele>169.175665</ele>
        <time>2023-01-01T11:05:13.498Z</time>
      </trkpt>
      <trkpt lat="43.84477" lon="1.20468">
        <ele>169.318854</ele>
        <time>2023-01-01T11:05:16.471Z</time>
      </trkpt>
      <trkpt lat="43.84474" lon="1.20451">
        <ele>169.462992</ele>
        <time>2023-01-01T11:05:19.496Z</time>
      </trkpt>
      <trkpt lat="43.8447" lon="1.20435">
        <ele>169.605474</ele>
        <time>2023-01-01T11:05:22.497Z</time>
      </trkpt>
      <trkpt lat="43.84465" lon="1.20419">
        <ele>169.74411</ele>
        <time>2023-01-01T11:05:25.483Z</time>
      </trkpt>
      <trkpt lat="43.84461" lon="1.20403">
        <ele>169.883854</ele>
        <time>2023-01-01T11:05:28.491Z</time>
      </trkpt>
      <trkpt lat="43.84457" lon="1.20387">
        <ele>170.025279</ele>
        <time>2023-01-01T11:05:31.482Z</time>
      </trkpt>
      <trkpt lat="43.84452" lon="1.2037">
        <ele>170.16616</ele>
        <time>2023-01-01T11:05:34.482Z</time>
      </trkpt>
      <trkpt lat="43.84448" lon="1.20354">
        <ele>170.310495</ele>
        <time>2023-01-01T11:05:37.492Z</time>
      </trkpt>
      <trkpt lat="43.84443" lon="1.20337">
        <ele>170.457898</ele>
        <time>2023-01-01T11:05:40.486Z</time>
      </trkpt>
      <trkpt lat="43.8444" lon="1.20318">
        <ele>170.612368</ele>
        <time>2023-01-01T11:05:43.488Z</time>
      </trkpt>
      <trkpt lat="43.84438" lon="1.20306">
        <ele>170.71686</ele>
        <time>2023-01-01T11:05:45.484Z</time>
      </trkpt>
      <trkpt lat="43.84434" lon="1.20289">
        <ele>170.654029</ele>
        <time>2023-01-01T11:05:48.486Z</time>
      </trkpt>
      <trkpt lat="43.8443" lon="1.20273">
        <ele>170.567372</ele>
        <time>2023-01-01T11:05:51.494Z</time>
      </trkpt>
      <trkpt lat="43.84427" lon="1.20258">
        <ele>170.488236</ele>
        <time>2023-01-01T11:05:54.489Z</time>
      </trkpt>
      <trkpt lat="43.84424" lon="1.20242">
        <ele>170.403457</ele>
        <time>2023-01-01T11:05:57.485Z</time>
      </trkpt>
      <trkpt lat="43.8442" lon="1.20227">
        <ele>170.318963</ele>
        <time>2023-01-01T11:06:00.479Z</time>
      </trkpt>
      <trkpt lat="43.84416" lon="1.20211">
        <ele>170.233547</ele>
        <time>2023-01-01T11:06:03.473Z</time>
      </trkpt>
      <trkpt lat="43.84411" lon="1.20194">
        <ele>170.140433</ele>
        <time>2023-01-01T11:06:06.495Z</time>
      </trkpt>
      <trkpt lat="43.84408" lon="1.20181">
        <ele>170.069683</ele>
        <time>2023-01-01T11:06:08.486Z</time>
      </trkpt>
      <trkpt lat="43.84405" lon="1.20169">
        <ele>170.005831</ele>
        <time>2023-01-01T11:06:10.481Z</time>
      </trkpt>
      <trkpt lat="43.84402" lon="1.20156">
        <ele>169.935568</ele>
        <time>2023-01-01T11:06:12.486Z</time>
      </trkpt>
      <trkpt lat="43.84399" lon="1.2014">
        <ele>169.850688</ele>
        <time>2023-01-01T11:06:15.494Z</time>
      </trkpt>
      <trkpt lat="43.84396" lon="1.20127">
        <ele>169.781331</ele>
        <time>2023-01-01T11:06:17.489Z</time>
      </trkpt>
      <trkpt lat="43.84394" lon="1.20115">
        <ele>169.716874</ele>
        <time>2023-01-01T11:06:19.498Z</time>
      </trkpt>
      <trkpt lat="43.84392" lon="1.20102">
        <ele>169.651242</ele>
        <time>2023-01-01T11:06:21.491Z</time>
      </trkpt>
      <trkpt lat="43.84388" lon="1.2009">
        <ele>169.583171</ele>
        <time>2023-01-01T11:06:23.495Z</time>
      </trkpt>
      <trkpt lat="43.84385" lon="1.20078">
        <ele>169.517046</ele>
        <time>2023-01-01T11:06:25.485Z</time>
      </trkpt>
      <trkpt lat="43.84381" lon="1.2006">
        <ele>169.560603</ele>
        <time>2023-01-01T11:06:28.489Z</time>
      </trkpt>
      <trkpt lat="43.84377" lon="1.20047">
        <ele>169.744009</ele>
        <time>2023-01-01T11:06:30.487Z</time>
      </trkpt>
      <trkpt lat="43.84374" lon="1.20029">
        <ele>169.989118</ele>
        <time>2023-01-01T11:06:33.481Z</time>
      </trkpt>
      <trkpt lat="43.84371" lon="1.20018">
        <ele>170.157358</ele>
        <time>2023-01-01T11:06:35.486Z</time>
      </trkpt>
      <trkpt lat="43.84367" lon="1.2">
        <ele>170.402113</ele>
        <time>2023-01-01T11:06:38.486Z</time>
      </trkpt>
      <trkpt lat="43.84362" lon="1.19983">
        <ele>170.646182</ele>
        <time>2023-01-01T11:06:41.500Z</time>
      </trkpt>
      <trkpt lat="43.8436" lon="1.19971">
        <ele>170.816283</ele>
        <time>2023-01-01T11:06:43.475Z</time>
      </trkpt>
      <trkpt lat="43.84355" lon="1.19954">
        <ele>171.062316</ele>
        <time>2023-01-01T11:06:46.466Z</time>
      </trkpt>
      <trkpt lat="43.84352" lon="1.19939">
        <ele>171.274733</ele>
        <time>2023-01-01T11:06:49.485Z</time>
      </trkpt>
      <trkpt lat="43.84349" lon="1.19925">
        <ele>171.465157</ele>
        <time>2023-01-01T11:06:52.484Z</time>
      </trkpt>
      <trkpt lat="43.84345" lon="1.19912">
        <ele>171.655446</ele>
        <time>2023-01-01T11:06:55.470Z</time>
      </trkpt>
      <trkpt lat="43.84342" lon="1.19898">
        <ele>171.853996</ele>
        <time>2023-01-01T11:06:58.479Z</time>
      </trkpt>
      <trkpt lat="43.84338" lon="1.19884">
        <ele>172.05765</ele>
        <time>2023-01-01T11:07:01.499Z</time>
      </trkpt>
      <trkpt lat="43.84335" lon="1.1987">
        <ele>172.258055</ele>
        <time>2023-01-01T11:07:04.491Z</time>
      </trkpt>
      <trkpt lat="43.84331" lon="1.19856">
        <ele>172.456019</ele>
        <time>2023-01-01T11:07:07.484Z</time>
      </trkpt>
      <trkpt lat="43.84328" lon="1.19842">
        <ele>172.652858</ele>
        <time>2023-01-01T11:07:10.499Z</time>
      </trkpt>
      <trkpt lat="43.84324" lon="1.19827">
        <ele>172.840217</ele>
        <time>2023-01-01T11:07:13.497Z</time>
      </trkpt>
      <trkpt lat="43.84321" lon="1.19812">
        <ele>172.972141</ele>
        <time>2023-01-01T11:07:16.495Z</time>
      </trkpt>
      <trkpt lat="43.84317" lon="1.19798">
        <ele>173.09722</ele>
        <time>2023-01-01T11:07:19.499Z</time>
      </trkpt>
      <trkpt lat="43.84314" lon="1.19783">
        <ele>173.230249</ele>
        <time>2023-01-01T11:07:23.490Z</time>
      </trkpt>
      <trkpt lat="43.84312" lon="1.1977">
        <ele>173.343316</ele>
        <time>2023-01-01T11:07:27.478Z</time>
      </trkpt>
      <trkpt lat="43.84308" lon="1.19755">
        <ele>173.482035</ele>
        <time>2023-01-01T11:07:31.473Z</time>
      </trkpt>
      <trkpt lat="43.84305" lon="1.19742">
        <ele>173.596816</ele>
        <time>2023-01-01T11:07:34.495Z</time>
      </trkpt>
      <trkpt lat="43.84302" lon="1.19728">
        <ele>173.718378</ele>
        <time>2023-01-01T11:07:37.486Z</time>
      </trkpt>
      <trkpt lat="43.84298" lon="1.19715">
        <ele>173.838355</ele>
        <time>2023-01-01T11:07:40.492Z</time>
      </trkpt>
      <trkpt lat="43.84295" lon="1.19701">
        <ele>173.964233</ele>
        <time>2023-01-01T11:07:44.485Z</time>
      </trkpt>
      <trkpt lat="43.84292" lon="1.19688">
        <ele>174.074724</ele>
        <time>2023-01-01T11:07:48.493Z</time>
      </trkpt>
      <trkpt lat="43.84289" lon="1.19674">
        <ele>174.196872</ele>
        <time>2023-01-01T11:07:52.486Z</time>
      </trkpt>
      <trkpt lat="43.84286" lon="1.19662">
        <ele>174.308977</ele>
        <time>2023-01-01T11:07:56.490Z</time>
      </trkpt>
      <trkpt lat="43.84283" lon="1.19649">
        <ele>174.423394</ele>
        <time>2023-01-01T11:08:00.471Z</time>
      </trkpt>
      <trkpt lat="43.84281" lon="1.19637">
        <ele>174.529645</ele>
        <time>2023-01-01T11:08:04.492Z</time>
      </trkpt>
      <trkpt lat="43.84277" lon="1.19622">
        <ele>174.658333</ele>
        <time>2023-01-01T11:08:09.475Z</time>
      </trkpt>
      <trkpt lat="43.84273" lon="1.19609">
        <ele>174.779834</ele>
        <time>2023-01-01T11:08:14.483Z</time>
      </trkpt>
      <trkpt lat="43.84271" lon="1.19596">
        <ele>174.891277</ele>
        <time>2023-01-01T11:08:18.480Z</time>
      </trkpt>
      <trkpt lat="43.84267" lon="1.19583">
        <ele>174.988794</ele>
        <time>2023-01-01T11:08:23.486Z</time>
      </trkpt>
      <trkpt lat="43.84264" lon="1.1957">
        <ele>175.081705</ele>
        <time>2023-01-01T11:08:28.472Z</time>
      </trkpt>
      <trkpt lat="43.84261" lon="1.19556">
        <ele>175.179753</ele>
        <time>2023-01-01T11:08:33.496Z</time>
      </trkpt>
      <trkpt lat="43.84259" lon="1.19542">
        <ele>175.279419</ele>
        <time>2023-01-01T11:08:38.481Z</time>
      </trkpt>
      <trkpt lat="43.84256" lon="1.19529">
        <ele>175.366982</ele>
        <time>2023-01-01T11:08:42.467Z</time>
      </trkpt>
      <trkpt lat="43.84254" lon="1.19514">
        <ele>175.472304</ele>
        <time>2023-01-01T11:08:46.473Z</time>
      </trkpt>
      <trkpt lat="43.84251" lon="1.19502">
        <ele>175.559224</ele>
        <time>2023-01-01T11:08:49.497Z</time>
      </trkpt>
      <trkpt lat="43.84248" lon="1.1949">
        <ele>175.644307</ele>
        <time>2023-01-01T11:08:52.490Z</time>
      </trkpt>
      <trkpt lat="43.84245" lon="1.19474">
        <ele>175.755614</ele>
        <time>2023-01-01T11:08:56.499Z</time>
      </trkpt>
      <trkpt lat="43.84242" lon="1.19461">
        <ele>175.846672</ele>
        <time>2023-01-01T11:08:59.488Z</time>
      </trkpt>
      <trkpt lat="43.84239" lon="1.19448">
        <ele>175.940582</ele>
        <time>2023-01-01T11:09:02.483Z</time>
      </trkpt>
      <trkpt lat="43.84236" lon="1.19433">
        <ele>176.041706</ele>
        <time>2023-01-01T11:09:05.500Z</time>
      </trkpt>
      <trkpt lat="43.84232" lon="1.19419">
        <ele>176.146306</ele>
        <time>2023-01-01T11:09:08.493Z</time>
      </trkpt>
      <trkpt lat="43.84229" lon="1.19405">
        <ele>176.243004</ele>
        <time>2023-01-01T11:09:11.476Z</time>
      </trkpt>
      <trkpt lat="43.84226" lon="1.19391">
        <ele>176.340014</ele>
        <time>2023-01-01T11:09:14.495Z</time>
      </trkpt>
      <trkpt lat="43.84224" lon="1.19377">
        <ele>176.43415</ele>
        <time>2023-01-01T11:09:17.499Z</time>
      </trkpt>
      <trkpt lat="43.84219" lon="1.19362">
        <ele>176.544363</ele>
        <time>2023-01-01T11:09:21.496Z</time>
      </trkpt>
      <trkpt lat="43.84216" lon="1.1935">
        <ele>176.813175</ele>
        <time>2023-01-01T11:09:25.496Z</time>
      </trkpt>
      <trkpt lat="43.84212" lon="1.19336">
        <ele>177.377188</ele>
        <time>2023-01-01T11:09:29.490Z</time>
      </trkpt>
      <trkpt lat="43.84208" lon="1.19324">
        <ele>177.858379</ele>
        <time>2023-01-01T11:09:32.500Z</time>
      </trkpt>
      <trkpt lat="43.84205" lon="1.19312">
        <ele>178.354821</ele>
        <time>2023-01-01T11:09:35.480Z</time>
      </trkpt>
      <trkpt lat="43.84202" lon="1.19299">
        <ele>178.835364</ele>
        <time>2023-01-01T11:09:38.480Z</time>
      </trkpt>
      <trkpt lat="43.84199" lon="1.19286">
        <ele>179.365323</ele>
        <time>2023-01-01T11:09:41.492Z</time>
      </trkpt>
      <trkpt lat="43.84196" lon="1.19273">
        <ele>179.881218</ele>
        <time>2023-01-01T11:09:44.487Z</time>
      </trkpt>
      <trkpt lat="43.84193" lon="1.19258">
        <ele>180.483125</ele>
        <time>2023-01-01T11:09:48.493Z</time>
      </trkpt>
      <trkpt lat="43.84189" lon="1.19245">
        <ele>181.018864</ele>
        <time>2023-01-01T11:09:52.497Z</time>
      </trkpt>
      <trkpt lat="43.84185" lon="1.19232">
        <ele>181.50471</ele>
        <time>2023-01-01T11:09:56.489Z</time>
      </trkpt>
      <trkpt lat="43.84183" lon="1.1922">
        <ele>181.990403</ele>
        <time>2023-01-01T11:10:00.489Z</time>
      </trkpt>
      <trkpt lat="43.8418" lon="1.19206">
        <ele>182.552162</ele>
        <time>2023-01-01T11:10:05.488Z</time>
      </trkpt>
      <trkpt lat="43.84176" lon="1.19192">
        <ele>183.116178</ele>
        <time>2023-01-01T11:10:10.483Z</time>
      </trkpt>
      <trkpt lat="43.84172" lon="1.19178">
        <ele>183.663874</ele>
        <time>2023-01-01T11:10:16.476Z</time>
      </trkpt>
      <trkpt lat="43.8417" lon="1.19164">
        <ele>184.192293</ele>
        <time>2023-01-01T11:10:22.470Z</time>
      </trkpt>
      <trkpt lat="43.84166" lon="1.19152">
        <ele>184.67463</ele>
        <time>2023-01-01T11:10:27.480Z</time>
      </trkpt>
      <trkpt lat="43.84163" lon="1.19139">
        <ele>185.205176</ele>
        <time>2023-01-01T11:10:32.470Z</time>
      </trkpt>
      <trkpt lat="43.8416" lon="1.19127">
        <ele>185.691188</ele>
        <time>2023-01-01T11:10:37.473Z</time>
      </trkpt>
      <trkpt lat="43.84157" lon="1.19115">
        <ele>186.170927</ele>
        <time>2023-01-01T11:10:43.476Z</time>
      </trkpt>
      <trkpt lat="43.84154" lon="1.19101">
        <ele>186.686331</ele>
        <time>2023-01-01T11:10:49.500Z</time>
      </trkpt>
      <trkpt lat="43.84151" lon="1.19087">
        <ele>187.196285</ele>
        <time>2023-01-01T11:10:55.475Z</time>
      </trkpt>
      <trkpt lat="43.84149" lon="1.19075">
        <ele>187.646264</ele>
        <time>2023-01-01T11:11:00.473Z</time>
      </trkpt>
      <trkpt lat="43.84145" lon="1.19063">
        <ele>188.131328</ele>
        <time>2023-01-01T11:11:06.478Z</time>
      </trkpt>
      <trkpt lat="43.84142" lon="1.1905">
        <ele>188.605574</ele>
        <time>2023-01-01T11:11:12.475Z</time>
      </trkpt>
      <trkpt lat="43.84139" lon="1.19038">
        <ele>189.053451</ele>
        <time>2023-01-01T11:11:17.478Z</time>
      </trkpt>
      <trkpt lat="43.84136" lon="1.19025">
        <ele>189.536047</ele>
        <time>2023-01-01T11:11:22.471Z</time>
      </trkpt>
      <trkpt lat="43.84132" lon="1.19014">
        <ele>189.99615</ele>
        <time>2023-01-01T11:11:27.499Z</time>
      </trkpt>
      <trkpt lat="43.8413" lon="1.19002">
        <ele>190.445432</ele>
        <time>2023-01-01T11:11:32.493Z</time>
      </trkpt>
      <trkpt lat="43.84127" lon="1.18988">
        <ele>190.967132</ele>
        <time>2023-01-01T11:11:38.480Z</time>
      </trkpt>
      <trkpt lat="43.84124" lon="1.18974">
        <ele>191.477088</ele>
        <time>2023-01-01T11:11:43.498Z</time>
      </trkpt>
      <trkpt lat="43.84121" lon="1.1896">
        <ele>192.011668</ele>
        <time>2023-01-01T11:11:48.487Z</time>
      </trkpt>
      <trkpt lat="43.84119" lon="1.18945">
        <ele>192.547425</ele>
        <time>2023-01-01T11:11:53.465Z</time>
      </trkpt>
      <trkpt lat="43.84116" lon="1.18932">
        <ele>193.031933</ele>
        <time>2023-01-01T11:11:57.492Z</time>
      </trkpt>
      <trkpt lat="43.84113" lon="1.18918">
        <ele>193.542134</ele>
        <time>2023-01-01T11:12:02.486Z</time>
      </trkpt>
      <trkpt lat="43.8411" lon="1.18905">
        <ele>194.054873</ele>
        <time>2023-01-01T11:12:06.470Z</time>
      </trkpt>
      <trkpt lat="43.84106" lon="1.18893">
        <ele>194.505341</ele>
        <time>2023-01-01T11:12:09.470Z</time>
      </trkpt>
      <trkpt lat="43.84103" lon="1.18881">
        <ele>194.929212</ele>
        <time>2023-01-01T11:12:12.478Z</time>
      </trkpt>
      <trkpt lat="43.84101" lon="1.18868">
        <ele>195.127799</ele>
        <time>2023-01-01T11:12:15.498Z</time>
      </trkpt>
      <trkpt lat="43.84097" lon="1.18854">
        <ele>195.336591</ele>
        <time>2023-01-01T11:12:18.489Z</time>
      </trkpt>
      <trkpt lat="43.84093" lon="1.1884">
        <ele>195.538118</ele>
        <time>2023-01-01T11:12:21.497Z</time>
      </trkpt>
      <trkpt lat="43.8409" lon="1.18827">
        <ele>195.742943</ele>
        <time>2023-01-01T11:12:24.496Z</time>
      </trkpt>
      <trkpt lat="43.84086" lon="1.18811">
        <ele>195.979745</ele>
        <time>2023-01-01T11:12:27.488Z</time>
      </trkpt>
      <trkpt lat="43.84083" lon="1.18795">
        <ele>196.214763</ele>
        <time>2023-01-01T11:12:30.480Z</time>
      </trkpt>
      <trkpt lat="43.84079" lon="1.18779">
        <ele>196.45306</ele>
        <time>2023-01-01T11:12:33.495Z</time>
      </trkpt>
      <trkpt lat="43.84076" lon="1.18762">
        <ele>196.697853</ele>
        <time>2023-01-01T11:12:36.469Z</time>
      </trkpt>
      <trkpt lat="43.84072" lon="1.18746">
        <ele>196.94003</ele>
        <time>2023-01-01T11:12:39.481Z</time>
      </trkpt>
      <trkpt lat="43.84068" lon="1.18729">
        <ele>197.179911</ele>
        <time>2023-01-01T11:12:42.489Z</time>
      </trkpt>
      <trkpt lat="43.84065" lon="1.18712">
        <ele>197.432873</ele>
        <time>2023-01-01T11:12:45.480Z</time>
      </trkpt>
      <trkpt lat="43.84061" lon="1.18694">
        <ele>197.698309</ele>
        <time>2023-01-01T11:12:48.496Z</time>
      </trkpt>
      <trkpt lat="43.84057" lon="1.18677">
        <ele>197.954407</ele>
        <time>2023-01-01T11:12:51.478Z</time>
      </trkpt>
      <trkpt lat="43.84054" lon="1.18665">
        <ele>198.132349</ele>
        <time>2023-01-01T11:12:53.487Z</time>
      </trkpt>
      <trkpt lat="43.84052" lon="1.18652">
        <ele>198.319825</ele>
        <time>2023-01-01T11:12:55.472Z</time>
      </trkpt>
      <trkpt lat="43.84048" lon="1.1864">
        <ele>198.412872</ele>
        <time>2023-01-01T11:12:57.496Z</time>
      </trkpt>
      <trkpt lat="43.84045" lon="1.18627">
        <ele>198.368132</ele>
        <time>2023-01-01T11:12:59.501Z</time>
      </trkpt>
      <trkpt lat="43.84042" lon="1.18613">
        <ele>198.321982</ele>
        <time>2023-01-01T11:13:01.471Z</time>
      </trkpt>
      <trkpt lat="43.84039" lon="1.186">
        <ele>198.277973</ele>
        <time>2023-01-01T11:13:03.492Z</time>
      </trkpt>
      <trkpt lat="43.84036" lon="1.18586">
        <ele>198.231888</ele>
        <time>2023-01-01T11:13:05.473Z</time>
      </trkpt>
      <trkpt lat="43.84032" lon="1.18573">
        <ele>198.185351</ele>
        <time>2023-01-01T11:13:07.494Z</time>
      </trkpt>
      <trkpt lat="43.84029" lon="1.18559">
        <ele>198.139408</ele>
        <time>2023-01-01T11:13:09.469Z</time>
      </trkpt>
      <trkpt lat="43.84025" lon="1.18546">
        <ele>198.093776</ele>
        <time>2023-01-01T11:13:11.492Z</time>
      </trkpt>
      <trkpt lat="43.84022" lon="1.18533">
        <ele>198.050948</ele>
        <time>2023-01-01T11:13:13.501Z</time>
      </trkpt>
      <trkpt lat="43.84018" lon="1.18516">
        <ele>197.994266</ele>
        <time>2023-01-01T11:13:16.475Z</time>
      </trkpt>
      <trkpt lat="43.84015" lon="1.18501">
        <ele>197.941848</ele>
        <time>2023-01-01T11:13:19.497Z</time>
      </trkpt>
      <trkpt lat="43.84011" lon="1.18485">
        <ele>197.889708</ele>
        <time>2023-01-01T11:13:22.488Z</time>
      </trkpt>
      <trkpt lat="43.84006" lon="1.18469">
        <ele>197.832905</ele>
        <time>2023-01-01T11:13:25.496Z</time>
      </trkpt>
      <trkpt lat="43.84003" lon="1.18456">
        <ele>197.789176</ele>
        <time>2023-01-01T11:13:27.498Z</time>
      </trkpt>
      <trkpt lat="43.84" lon="1.18444">
        <ele>197.748621</ele>
        <time>2023-01-01T11:13:29.502Z</time>
      </trkpt>
      <trkpt lat="43.83997" lon="1.18432">
        <ele>197.707016</ele>
        <time>2023-01-01T11:13:31.482Z</time>
      </trkpt>
      <trkpt lat="43.83995" lon="1.18419">
        <ele>197.664555</ele>
        <time>2023-01-01T11:13:33.497Z</time>
      </trkpt>
      <trkpt lat="43.83992" lon="1.18406">
        <ele>197.612674</ele>
        <time>2023-01-01T11:13:35.501Z</time>
      </trkpt>
      <trkpt lat="43.83989" lon="1.18394">
        <ele>197.53183</ele>
        <time>2023-01-01T11:13:37.478Z</time>
      </trkpt>
      <trkpt lat="43.83986" lon="1.18382">
        <ele>197.448522</ele>
        <time>2023-01-01T11:13:39.497Z</time>
      </trkpt>
      <trkpt lat="43.83982" lon="1.18365">
        <ele>197.335926</ele>
        <time>2023-01-01T11:13:42.485Z</time>
      </trkpt>
      <trkpt lat="43.83978" lon="1.18347">
        <ele>197.213774</ele>
        <time>2023-01-01T11:13:45.481Z</time>
      </trkpt>
      <trkpt lat="43.83975" lon="1.18335">
        <ele>197.131153</ele>
        <time>2023-01-01T11:13:47.499Z</time>
      </trkpt>
      <trkpt lat="43.83971" lon="1.18322">
        <ele>197.043407</ele>
        <time>2023-01-01T11:13:49.488Z</time>
      </trkpt>
      <trkpt lat="43.83968" lon="1.18308">
        <ele>196.951019</ele>
        <time>2023-01-01T11:13:51.500Z</time>
      </trkpt>
      <trkpt lat="43.83965" lon="1.18295">
        <ele>196.860833</ele>
        <time>2023-01-01T11:13:53.497Z</time>
      </trkpt>
      <trkpt lat="43.83962" lon="1.18281">
        <ele>196.766695</ele>
        <time>2023-01-01T11:13:55.492Z</time>
      </trkpt>
      <trkpt lat="43.83959" lon="1.18267">
        <ele>196.675789</ele>
        <time>2023-01-01T11:13:57.490Z</time>
      </trkpt>
      <trkpt lat="43.83956" lon="1.18255">
        <ele>196.594982</ele>
        <time>2023-01-01T11:13:59.473Z</time>
      </trkpt>
      <trkpt lat="43.83952" lon="1.1824">
        <ele>196.487612</ele>
        <time>2023-01-01T11:14:02.475Z</time>
      </trkpt>
      <trkpt lat="43.83948" lon="1.18224">
        <ele>196.381308</ele>
        <time>2023-01-01T11:14:05.495Z</time>
      </trkpt>
      <trkpt lat="43.83944" lon="1.18206">
        <ele>196.260711</ele>
        <time>2023-01-01T11:14:08.496Z</time>
      </trkpt>
      <trkpt lat="43.8394" lon="1.18188">
        <ele>196.140851</ele>
        <time>2023-01-01T11:14:11.489Z</time>
      </trkpt>
      <trkpt lat="43.83937" lon="1.18175">
        <ele>196.052749</ele>
        <time>2023-01-01T11:14:13.489Z</time>
      </trkpt>
      <trkpt lat="43.83934" lon="1.18163">
        <ele>196.089975</ele>
        <time>2023-01-01T11:14:15.499Z</time>
      </trkpt>
      <trkpt lat="43.83931" lon="1.1815">
        <ele>196.165554</ele>
        <time>2023-01-01T11:14:17.493Z</time>
      </trkpt>
      <trkpt lat="43.83928" lon="1.18138">
        <ele>196.237357</ele>
        <time>2023-01-01T11:14:19.485Z</time>
      </trkpt>
      <trkpt lat="43.83925" lon="1.18125">
        <ele>196.312629</ele>
        <time>2023-01-01T11:14:21.499Z</time>
      </trkpt>
      <trkpt lat="43.83923" lon="1.18112">
        <ele>196.386587</ele>
        <time>2023-01-01T11:14:23.485Z</time>
      </trkpt>
      <trkpt lat="43.8392" lon="1.181">
        <ele>196.459883</ele>
        <time>2023-01-01T11:14:25.497Z</time>
      </trkpt>
      <trkpt lat="43.83917" lon="1.18087">
        <ele>196.538567</ele>
        <time>2023-01-01T11:14:27.488Z</time>
      </trkpt>
      <trkpt lat="43.83913" lon="1.18075">
        <ele>196.610138</ele>
        <time>2023-01-01T11:14:29.491Z</time>
      </trkpt>
      <trkpt lat="43.83911" lon="1.18063">
        <ele>196.682841</ele>
        <time>2023-01-01T11:14:31.497Z</time>
      </trkpt>
      <trkpt lat="43.83908" lon="1.18051">
        <ele>196.75593</ele>
        <time>2023-01-01T11:14:33.503Z</time>
      </trkpt>
      <trkpt lat="43.83905" lon="1.18038">
        <ele>196.830085</ele>
        <time>2023-01-01T11:14:35.475Z</time>
      </trkpt>
      <trkpt lat="43.83902" lon="1.18024">
        <ele>196.911217</ele>
        <time>2023-01-01T11:14:37.501Z</time>
      </trkpt>
      <trkpt lat="43.83899" lon="1.1801">
        <ele>196.993451</ele>
        <time>2023-01-01T11:14:39.499Z</time>
      </trkpt>
      <trkpt lat="43.83896" lon="1.17997">
        <ele>197.072674</ele>
        <time>2023-01-01T11:14:41.498Z</time>
      </trkpt>
      <trkpt lat="43.83892" lon="1.17983">
        <ele>197.155609</ele>
        <time>2023-01-01T11:14:43.494Z</time>
      </trkpt>
      <trkpt lat="43.83889" lon="1.17968">
        <ele>197.243584</ele>
        <time>2023-01-01T11:14:45.487Z</time>
      </trkpt>
      <trkpt lat="43.83885" lon="1.17954">
        <ele>197.333148</ele>
        <time>2023-01-01T11:14:47.489Z</time>
      </trkpt>
      <trkpt lat="43.83881" lon="1.17939">
        <ele>197.421121</ele>
        <time>2023-01-01T11:14:49.495Z</time>
      </trkpt>
      <trkpt lat="43.83877" lon="1.17924">
        <ele>197.232378</ele>
        <time>2023-01-01T11:14:51.502Z</time>
      </trkpt>
      <trkpt lat="43.83874" lon="1.1791">
        <ele>196.971186</ele>
        <time>2023-01-01T11:14:53.493Z</time>
      </trkpt>
      <trkpt lat="43.83871" lon="1.17896">
        <ele>196.704934</ele>
        <time>2023-01-01T11:14:55.474Z</time>
      </trkpt>
      <trkpt lat="43.83867" lon="1.17881">
        <ele>196.420324</ele>
        <time>2023-01-01T11:14:57.466Z</time>
      </trkpt>
      <trkpt lat="43.83863" lon="1.17865">
        <ele>196.121446</ele>
        <time>2023-01-01T11:14:59.478Z</time>
      </trkpt>
      <trkpt lat="43.8386" lon="1.17849">
        <ele>195.826183</ele>
        <time>2023-01-01T11:15:01.475Z</time>
      </trkpt>
      <trkpt lat="43.83856" lon="1.17833">
        <ele>195.534038</ele>
        <time>2023-01-01T11:15:03.495Z</time>
      </trkpt>
      <trkpt lat="43.83852" lon="1.17817">
        <ele>195.227181</ele>
        <time>2023-01-01T11:15:05.497Z</time>
      </trkpt>
      <trkpt lat="43.83848" lon="1.17801">
        <ele>194.929255</ele>
        <time>2023-01-01T11:15:07.493Z</time>
      </trkpt>
      <trkpt lat="43.83845" lon="1.17785">
        <ele>194.639105</ele>
        <time>2023-01-01T11:15:09.484Z</time>
      </trkpt>
      <trkpt lat="43.83841" lon="1.1777">
        <ele>194.361186</ele>
        <time>2023-01-01T11:15:11.498Z</time>
      </trkpt>
      <trkpt lat="43.83838" lon="1.17756">
        <ele>194.098288</ele>
        <time>2023-01-01T11:15:13.496Z</time>
      </trkpt>
      <trkpt lat="43.83835" lon="1.17743">
        <ele>193.852082</ele>
        <time>2023-01-01T11:15:15.494Z</time>
      </trkpt>
      <trkpt lat="43.83832" lon="1.1773">
        <ele>193.602398</ele>
        <time>2023-01-01T11:15:17.491Z</time>
      </trkpt>
      <trkpt lat="43.83829" lon="1.17716">
        <ele>193.343656</ele>
        <time>2023-01-01T11:15:19.495Z</time>
      </trkpt>
      <trkpt lat="43.83825" lon="1.17702">
        <ele>193.089838</ele>
        <time>2023-01-01T11:15:21.495Z</time>
      </trkpt>
      <trkpt lat="43.83822" lon="1.17689">
        <ele>193.038474</ele>
        <time>2023-01-01T11:15:23.473Z</time>
      </trkpt>
      <trkpt lat="43.83819" lon="1.17674">
        <ele>193.07102</ele>
        <time>2023-01-01T11:15:25.475Z</time>
      </trkpt>
      <trkpt lat="43.83815" lon="1.17659">
        <ele>193.103606</ele>
        <time>2023-01-01T11:15:27.487Z</time>
      </trkpt>
      <trkpt lat="43.83812" lon="1.17643">
        <ele>193.137222</ele>
        <time>2023-01-01T11:15:29.485Z</time>
      </trkpt>
      <trkpt lat="43.83808" lon="1.17629">
        <ele>193.167948</ele>
        <time>2023-01-01T11:15:31.490Z</time>
      </trkpt>
      <trkpt lat="43.83805" lon="1.17615">
        <ele>193.198842</ele>
        <time>2023-01-01T11:15:33.491Z</time>
      </trkpt>
      <trkpt lat="43.83801" lon="1.17601">
        <ele>193.228672</ele>
        <time>2023-01-01T11:15:35.487Z</time>
      </trkpt>
      <trkpt lat="43.83798" lon="1.17588">
        <ele>193.257138</ele>
        <time>2023-01-01T11:15:37.468Z</time>
      </trkpt>
      <trkpt lat="43.83794" lon="1.17576">
        <ele>193.28532</ele>
        <time>2023-01-01T11:15:39.495Z</time>
      </trkpt>
      <trkpt lat="43.83791" lon="1.17564">
        <ele>193.312035</ele>
        <time>2023-01-01T11:15:41.499Z</time>
      </trkpt>
      <trkpt lat="43.83788" lon="1.17551">
        <ele>193.338652</ele>
        <time>2023-01-01T11:15:43.501Z</time>
      </trkpt>
      <trkpt lat="43.83785" lon="1.17539">
        <ele>193.364846</ele>
        <time>2023-01-01T11:15:45.505Z</time>
      </trkpt>
      <trkpt lat="43.83781" lon="1.17522">
        <ele>193.403801</ele>
        <time>2023-01-01T11:15:48.498Z</time>
      </trkpt>
      <trkpt lat="43.83778" lon="1.1751">
        <ele>193.429679</ele>
        <time>2023-01-01T11:15:50.487Z</time>
      </trkpt>
      <trkpt lat="43.83775" lon="1.17498">
        <ele>193.455817</ele>
        <time>2023-01-01T11:15:52.494Z</time>
      </trkpt>
      <trkpt lat="43.83771" lon="1.1748">
        <ele>193.494437</ele>
        <time>2023-01-01T11:15:55.501Z</time>
      </trkpt>
      <trkpt lat="43.83767" lon="1.17462">
        <ele>193.532529</ele>
        <time>2023-01-01T11:15:58.474Z</time>
      </trkpt>
      <trkpt lat="43.83764" lon="1.1745">
        <ele>193.544611</ele>
        <time>2023-01-01T11:16:00.492Z</time>
      </trkpt>
      <trkpt lat="43.83761" lon="1.17438">
        <ele>193.556381</ele>
        <time>2023-01-01T11:16:02.476Z</time>
      </trkpt>
      <trkpt lat="43.83757" lon="1.17426">
        <ele>193.568506</ele>
        <time>2023-01-01T11:16:04.492Z</time>
      </trkpt>
      <trkpt lat="43.83755" lon="1.17414">
        <ele>193.580096</ele>
        <time>2023-01-01T11:16:06.498Z</time>
      </trkpt>
      <trkpt lat="43.83753" lon="1.17401">
        <ele>193.592207</ele>
        <time>2023-01-01T11:16:08.489Z</time>
      </trkpt>
      <trkpt lat="43.83751" lon="1.17389">
        <ele>193.604032</ele>
        <time>2023-01-01T11:16:10.472Z</time>
      </trkpt>
      <trkpt lat="43.83748" lon="1.17376">
        <ele>193.616521</ele>
        <time>2023-01-01T11:16:12.498Z</time>
      </trkpt>
      <trkpt lat="43.83745" lon="1.17364">
        <ele>193.628488</ele>
        <time>2023-01-01T11:16:14.492Z</time>
      </trkpt>
      <trkpt lat="43.83742" lon="1.17352">
        <ele>193.640654</ele>
        <time>2023-01-01T11:16:16.477Z</time>
      </trkpt>
      <trkpt lat="43.83739" lon="1.17339">
        <ele>193.653043</ele>
        <time>2023-01-01T11:16:18.486Z</time>
      </trkpt>
      <trkpt lat="43.83736" lon="1.17327">
        <ele>193.66473</ele>
        <time>2023-01-01T11:16:20.480Z</time>
      </trkpt>
      <trkpt lat="43.83733" lon="1.17315">
        <ele>193.67703</ele>
        <time>2023-01-01T11:16:22.473Z</time>
      </trkpt>
      <trkpt lat="43.83731" lon="1.17302">
        <ele>193.688984</ele>
        <time>2023-01-01T11:16:24.493Z</time>
      </trkpt>
      <trkpt lat="43.83728" lon="1.17291">
        <ele>193.700667</ele>
        <time>2023-01-01T11:16:26.495Z</time>
      </trkpt>
      <trkpt lat="43.83725" lon="1.17279">
        <ele>193.712384</ele>
        <time>2023-01-01T11:16:28.489Z</time>
      </trkpt>
      <trkpt lat="43.83722" lon="1.17266">
        <ele>193.724685</ele>
        <time>2023-01-01T11:16:30.481Z</time>
      </trkpt>
      <trkpt lat="43.83719" lon="1.17254">
        <ele>193.736543</ele>
        <time>2023-01-01T11:16:32.480Z</time>
      </trkpt>
      <trkpt lat="43.83717" lon="1.17242">
        <ele>193.748654</ele>
        <time>2023-01-01T11:16:34.497Z</time>
      </trkpt>
      <trkpt lat="43.83712" lon="1.17225">
        <ele>193.765079</ele>
        <time>2023-01-01T11:16:37.496Z</time>
      </trkpt>
      <trkpt lat="43.83707" lon="1.1721">
        <ele>193.973213</ele>
        <time>2023-01-01T11:16:40.498Z</time>
      </trkpt>
      <trkpt lat="43.83704" lon="1.17193">
        <ele>194.189604</ele>
        <time>2023-01-01T11:16:43.488Z</time>
      </trkpt>
      <trkpt lat="43.837" lon="1.17178">
        <ele>194.395603</ele>
        <time>2023-01-01T11:16:46.467Z</time>
      </trkpt>
      <trkpt lat="43.83696" lon="1.17163">
        <ele>194.598649</ele>
        <time>2023-01-01T11:16:49.501Z</time>
      </trkpt>
      <trkpt lat="43.83692" lon="1.17149">
        <ele>194.78581</ele>
        <time>2023-01-01T11:16:52.475Z</time>
      </trkpt>
      <trkpt lat="43.83689" lon="1.17136">
        <ele>194.951828</ele>
        <time>2023-01-01T11:16:55.459Z</time>
      </trkpt>
      <trkpt lat="43.83686" lon="1.17129">
        <ele>195.05658</ele>
        <time>2023-01-01T11:17:27.082Z</time>
      </trkpt>
      <trkpt lat="43.83681" lon="1.17109">
        <ele>195.320819</ele>
        <time>2023-01-01T11:23:17.471Z</time>
      </trkpt>
      <trkpt lat="43.83676" lon="1.17095">
        <ele>195.514522</ele>
        <time>2023-01-01T11:23:21.468Z</time>
      </trkpt>
      <trkpt lat="43.83673" lon="1.17082">
        <ele>195.685206</ele>
        <time>2023-01-01T11:23:24.490Z</time>
      </trkpt>
      <trkpt lat="43.8367" lon="1.17067">
        <ele>195.875889</ele>
        <time>2023-01-01T11:23:27.484Z</time>
      </trkpt>
      <trkpt lat="43.83667" lon="1.17051">
        <ele>196.079557</ele>
        <time>2023-01-01T11:23:30.496Z</time>
      </trkpt>
      <trkpt lat="43.83664" lon="1.17035">
        <ele>196.286404</ele>
        <time>2023-01-01T11:23:33.496Z</time>
      </trkpt>
      <trkpt lat="43.83661" lon="1.1702">
        <ele>196.486044</ele>
        <time>2023-01-01T11:23:36.497Z</time>
      </trkpt>
      <trkpt lat="43.83657" lon="1.17004">
        <ele>196.690979</ele>
        <time>2023-01-01T11:23:39.471Z</time>
      </trkpt>
      <trkpt lat="43.83653" lon="1.16988">
        <ele>196.890518</ele>
        <time>2023-01-01T11:23:42.499Z</time>
      </trkpt>
      <trkpt lat="43.83649" lon="1.16972">
        <ele>196.94742</ele>
        <time>2023-01-01T11:23:45.500Z</time>
      </trkpt>
      <trkpt lat="43.83645" lon="1.16956">
        <ele>197.003837</ele>
        <time>2023-01-01T11:23:48.465Z</time>
      </trkpt>
      <trkpt lat="43.83642" lon="1.16939">
        <ele>197.060915</ele>
        <time>2023-01-01T11:23:51.497Z</time>
      </trkpt>
      <trkpt lat="43.83638" lon="1.16923">
        <ele>197.117364</ele>
        <time>2023-01-01T11:23:54.498Z</time>
      </trkpt>
      <trkpt lat="43.83634" lon="1.16906">
        <ele>197.175325</ele>
        <time>2023-01-01T11:23:57.496Z</time>
      </trkpt>
      <trkpt lat="43.8363" lon="1.16889">
        <ele>197.234395</ele>
        <time>2023-01-01T11:24:00.482Z</time>
      </trkpt>
      <trkpt lat="43.83626" lon="1.16872">
        <ele>197.293905</ele>
        <time>2023-01-01T11:24:03.489Z</time>
      </trkpt>
      <trkpt lat="43.83622" lon="1.16855">
        <ele>197.353119</ele>
        <time>2023-01-01T11:24:06.500Z</time>
      </trkpt>
      <trkpt lat="43.83618" lon="1.16838">
        <ele>197.411777</ele>
        <time>2023-01-01T11:24:09.495Z</time>
      </trkpt>
      <trkpt lat="43.83614" lon="1.16821">
        <ele>197.470885</ele>
        <time>2023-01-01T11:24:12.494Z</time>
      </trkpt>
      <trkpt lat="43.8361" lon="1.16805">
        <ele>197.529306</ele>
        <time>2023-01-01T11:24:15.493Z</time>
      </trkpt>
      <trkpt lat="43.83605" lon="1.16787">
        <ele>197.58944</ele>
        <time>2023-01-01T11:24:18.496Z</time>
      </trkpt>
      <trkpt lat="43.83601" lon="1.1677">
        <ele>197.651285</ele>
        <time>2023-01-01T11:24:21.498Z</time>
      </trkpt>
      <trkpt lat="43.83598" lon="1.16758">
        <ele>197.692864</ele>
        <time>2023-01-01T11:24:23.492Z</time>
      </trkpt>
      <trkpt lat="43.83595" lon="1.16746">
        <ele>197.737936</ele>
        <time>2023-01-01T11:24:25.503Z</time>
      </trkpt>
      <trkpt lat="43.83592" lon="1.16734">
        <ele>197.784544</ele>
        <time>2023-01-01T11:24:27.488Z</time>
      </trkpt>
      <trkpt lat="43.8359" lon="1.16721">
        <ele>197.831746</ele>
        <time>2023-01-01T11:24:29.490Z</time>
      </trkpt>
      <trkpt lat="43.83587" lon="1.16708">
        <ele>197.88044</ele>
        <time>2023-01-01T11:24:31.497Z</time>
      </trkpt>
      <trkpt lat="43.83584" lon="1.16696">
        <ele>197.927936</ele>
        <time>2023-01-01T11:24:33.467Z</time>
      </trkpt>
      <trkpt lat="43.8358" lon="1.16683">
        <ele>197.979862</ele>
        <time>2023-01-01T11:24:35.496Z</time>
      </trkpt>
      <trkpt lat="43.83577" lon="1.1667">
        <ele>198.027671</ele>
        <time>2023-01-01T11:24:37.499Z</time>
      </trkpt>
      <trkpt lat="43.83574" lon="1.16658">
        <ele>198.073773</ele>
        <time>2023-01-01T11:24:39.497Z</time>
      </trkpt>
      <trkpt lat="43.83572" lon="1.16646">
        <ele>198.122317</ele>
        <time>2023-01-01T11:24:41.489Z</time>
      </trkpt>
      <trkpt lat="43.83568" lon="1.16633">
        <ele>198.170113</ele>
        <time>2023-01-01T11:24:43.495Z</time>
      </trkpt>
      <trkpt lat="43.83565" lon="1.16621">
        <ele>198.216706</ele>
        <time>2023-01-01T11:24:45.501Z</time>
      </trkpt>
      <trkpt lat="43.83563" lon="1.16609">
        <ele>198.263156</ele>
        <time>2023-01-01T11:24:47.493Z</time>
      </trkpt>
      <trkpt lat="43.83559" lon="1.16597">
        <ele>198.311985</ele>
        <time>2023-01-01T11:24:49.499Z</time>
      </trkpt>
      <trkpt lat="43.83557" lon="1.16584">
        <ele>198.359332</ele>
        <time>2023-01-01T11:24:51.489Z</time>
      </trkpt>
      <trkpt lat="43.83552" lon="1.16567">
        <ele>198.428112</ele>
        <time>2023-01-01T11:24:54.492Z</time>
      </trkpt>
      <trkpt lat="43.83548" lon="1.16549">
        <ele>198.496763</ele>
        <time>2023-01-01T11:24:57.493Z</time>
      </trkpt>
      <trkpt lat="43.83545" lon="1.16536">
        <ele>198.544559</ele>
        <time>2023-01-01T11:24:59.496Z</time>
      </trkpt>
      <trkpt lat="43.83542" lon="1.16524">
        <ele>198.591358</ele>
        <time>2023-01-01T11:25:01.490Z</time>
      </trkpt>
      <trkpt lat="43.83539" lon="1.1651">
        <ele>198.645293</ele>
        <time>2023-01-01T11:25:03.492Z</time>
      </trkpt>
      <trkpt lat="43.83535" lon="1.16497">
        <ele>198.70142</ele>
        <time>2023-01-01T11:25:05.487Z</time>
      </trkpt>
      <trkpt lat="43.83532" lon="1.16482">
        <ele>198.759736</ele>
        <time>2023-01-01T11:25:07.487Z</time>
      </trkpt>
      <trkpt lat="43.83528" lon="1.16468">
        <ele>198.81803</ele>
        <time>2023-01-01T11:25:09.486Z</time>
      </trkpt>
      <trkpt lat="43.83525" lon="1.16453">
        <ele>198.877079</ele>
        <time>2023-01-01T11:25:11.495Z</time>
      </trkpt>
      <trkpt lat="43.83521" lon="1.16439">
        <ele>198.93718</ele>
        <time>2023-01-01T11:25:13.496Z</time>
      </trkpt>
      <trkpt lat="43.83518" lon="1.16424">
        <ele>198.996595</ele>
        <time>2023-01-01T11:25:15.504Z</time>
      </trkpt>
      <trkpt lat="43.83514" lon="1.1641">
        <ele>199.055464</ele>
        <time>2023-01-01T11:25:17.494Z</time>
      </trkpt>
      <trkpt lat="43.83511" lon="1.16394">
        <ele>199.11659</ele>
        <time>2023-01-01T11:25:19.501Z</time>
      </trkpt>
      <trkpt lat="43.83507" lon="1.1638">
        <ele>199.176512</ele>
        <time>2023-01-01T11:25:21.500Z</time>
      </trkpt>
      <trkpt lat="43.83504" lon="1.16366">
        <ele>199.231174</ele>
        <time>2023-01-01T11:25:23.503Z</time>
      </trkpt>
      <trkpt lat="43.83501" lon="1.16353">
        <ele>199.284651</ele>
        <time>2023-01-01T11:25:25.495Z</time>
      </trkpt>
      <trkpt lat="43.83498" lon="1.1634">
        <ele>199.336244</ele>
        <time>2023-01-01T11:25:27.497Z</time>
      </trkpt>
      <trkpt lat="43.83495" lon="1.16327">
        <ele>199.388044</ele>
        <time>2023-01-01T11:25:29.485Z</time>
      </trkpt>
      <trkpt lat="43.83492" lon="1.16315">
        <ele>199.438748</ele>
        <time>2023-01-01T11:25:31.487Z</time>
      </trkpt>
      <trkpt lat="43.83489" lon="1.16302">
        <ele>199.489652</ele>
        <time>2023-01-01T11:25:33.496Z</time>
      </trkpt>
      <trkpt lat="43.83485" lon="1.16285">
        <ele>199.560443</ele>
        <time>2023-01-01T11:25:36.484Z</time>
      </trkpt>
      <trkpt lat="43.83481" lon="1.16268">
        <ele>199.812193</ele>
        <time>2023-01-01T11:25:39.489Z</time>
      </trkpt>
      <trkpt lat="43.83478" lon="1.16253">
        <ele>200.119134</ele>
        <time>2023-01-01T11:25:42.491Z</time>
      </trkpt>
      <trkpt lat="43.83474" lon="1.16238">
        <ele>200.423817</ele>
        <time>2023-01-01T11:25:45.485Z</time>
      </trkpt>
      <trkpt lat="43.83471" lon="1.16225">
        <ele>200.677685</ele>
        <time>2023-01-01T11:25:48.480Z</time>
      </trkpt>
      <trkpt lat="43.83468" lon="1.16213">
        <ele>200.927329</ele>
        <time>2023-01-01T11:25:51.487Z</time>
      </trkpt>
      <trkpt lat="43.83464" lon="1.162">
        <ele>201.174929</ele>
        <time>2023-01-01T11:25:54.475Z</time>
      </trkpt>
      <trkpt lat="43.83461" lon="1.16186">
        <ele>201.469932</ele>
        <time>2023-01-01T11:25:58.472Z</time>
      </trkpt>
      <trkpt lat="43.83459" lon="1.16172">
        <ele>201.740787</ele>
        <time>2023-01-01T11:26:02.486Z</time>
      </trkpt>
      <trkpt lat="43.83455" lon="1.16157">
        <ele>202.030226</ele>
        <time>2023-01-01T11:26:06.480Z</time>
      </trkpt>
      <trkpt lat="43.83452" lon="1.16144">
        <ele>202.294891</ele>
        <time>2023-01-01T11:26:10.492Z</time>
      </trkpt>
      <trkpt lat="43.83449" lon="1.1613">
        <ele>202.571535</ele>
        <time>2023-01-01T11:26:14.496Z</time>
      </trkpt>
      <trkpt lat="43.83447" lon="1.16118">
        <ele>202.815909</ele>
        <time>2023-01-01T11:26:17.488Z</time>
      </trkpt>
      <trkpt lat="43.83444" lon="1.16106">
        <ele>203.058049</ele>
        <time>2023-01-01T11:26:20.491Z</time>
      </trkpt>
      <trkpt lat="43.83441" lon="1.16094">
        <ele>203.300214</ele>
        <time>2023-01-01T11:26:23.500Z</time>
      </trkpt>
      <trkpt lat="43.83438" lon="1.16082">
        <ele>203.544091</ele>
        <time>2023-01-01T11:26:26.494Z</time>
      </trkpt>
      <trkpt lat="43.83435" lon="1.16069">
        <ele>203.784648</ele>
        <time>2023-01-01T11:26:29.498Z</time>
      </trkpt>
      <trkpt lat="43.83432" lon="1.16057">
        <ele>204.030316</ele>
        <time>2023-01-01T11:26:32.502Z</time>
      </trkpt>
      <trkpt lat="43.83429" lon="1.16043">
        <ele>204.315681</ele>
        <time>2023-01-01T11:26:36.495Z</time>
      </trkpt>
      <trkpt lat="43.83427" lon="1.16028">
        <ele>204.298061</ele>
        <time>2023-01-01T11:26:40.472Z</time>
      </trkpt>
      <trkpt lat="43.83427" lon="1.16014">
        <ele>204.280735</ele>
        <time>2023-01-01T11:26:44.482Z</time>
      </trkpt>
      <trkpt lat="43.83426" lon="1.16006">
        <ele>204.271115</ele>
        <time>2023-01-01T11:26:57.997Z</time>
      </trkpt>
      <trkpt lat="43.83426" lon="1.1599">
        <ele>204.25198</ele>
        <time>2023-01-01T11:30:38.470Z</time>
      </trkpt>
      <trkpt lat="43.83433" lon="1.1598">
        <ele>204.235315</ele>
        <time>2023-01-01T11:30:42.482Z</time>
      </trkpt>
      <trkpt lat="43.83442" lon="1.15972">
        <ele>204.216489</ele>
        <time>2023-01-01T11:30:46.488Z</time>
      </trkpt>
      <trkpt lat="43.83451" lon="1.15966">
        <ele>204.199302</ele>
        <time>2023-01-01T11:30:49.489Z</time>
      </trkpt>
      <trkpt lat="43.83461" lon="1.15959">
        <ele>204.180794</ele>
        <time>2023-01-01T11:30:52.493Z</time>
      </trkpt>
      <trkpt lat="43.83472" lon="1.15952">
        <ele>204.161169</ele>
        <time>2023-01-01T11:30:55.490Z</time>
      </trkpt>
      <trkpt lat="43.83483" lon="1.15945">
        <ele>204.139931</ele>
        <time>2023-01-01T11:30:58.492Z</time>
      </trkpt>
      <trkpt lat="43.83495" lon="1.15936">
        <ele>204.117026</ele>
        <time>2023-01-01T11:31:01.486Z</time>
      </trkpt>
      <trkpt lat="43.83504" lon="1.15929">
        <ele>204.100639</ele>
        <time>2023-01-01T11:31:03.492Z</time>
      </trkpt>
      <trkpt lat="43.83513" lon="1.15924">
        <ele>204.084535</ele>
        <time>2023-01-01T11:31:05.481Z</time>
      </trkpt>
      <trkpt lat="43.83521" lon="1.15918">
        <ele>204.068575</ele>
        <time>2023-01-01T11:31:07.490Z</time>
      </trkpt>
      <trkpt lat="43.8353" lon="1.15912">
        <ele>204.05242</ele>
        <time>2023-01-01T11:31:09.484Z</time>
      </trkpt>
      <trkpt lat="43.83538" lon="1.15906">
        <ele>204.036406</ele>
        <time>2023-01-01T11:31:11.481Z</time>
      </trkpt>
      <trkpt lat="43.83547" lon="1.159">
        <ele>204.01948</ele>
        <time>2023-01-01T11:31:13.490Z</time>
      </trkpt>
      <trkpt lat="43.83556" lon="1.15894">
        <ele>203.969592</ele>
        <time>2023-01-01T11:31:15.470Z</time>
      </trkpt>
      <trkpt lat="43.83568" lon="1.15885">
        <ele>203.874409</ele>
        <time>2023-01-01T11:31:18.471Z</time>
      </trkpt>
      <trkpt lat="43.83581" lon="1.15878">
        <ele>203.77924</ele>
        <time>2023-01-01T11:31:21.497Z</time>
      </trkpt>
      <trkpt lat="43.83592" lon="1.1587">
        <ele>203.690015</ele>
        <time>2023-01-01T11:31:24.499Z</time>
      </trkpt>
      <trkpt lat="43.83604" lon="1.15863">
        <ele>203.602959</ele>
        <time>2023-01-01T11:31:27.486Z</time>
      </trkpt>
      <trkpt lat="43.83615" lon="1.15856">
        <ele>203.518014</ele>
        <time>2023-01-01T11:31:30.483Z</time>
      </trkpt>
      <trkpt lat="43.83625" lon="1.15848">
        <ele>203.437462</ele>
        <time>2023-01-01T11:31:33.499Z</time>
      </trkpt>
      <trkpt lat="43.83636" lon="1.15842">
        <ele>203.355245</ele>
        <time>2023-01-01T11:31:36.468Z</time>
      </trkpt>
      <trkpt lat="43.83646" lon="1.15834">
        <ele>203.27059</ele>
        <time>2023-01-01T11:31:39.478Z</time>
      </trkpt>
      <trkpt lat="43.83658" lon="1.15828">
        <ele>203.180332</ele>
        <time>2023-01-01T11:31:42.490Z</time>
      </trkpt>
      <trkpt lat="43.83667" lon="1.15822">
        <ele>203.115461</ele>
        <time>2023-01-01T11:31:44.495Z</time>
      </trkpt>
      <trkpt lat="43.83675" lon="1.15816">
        <ele>203.049931</ele>
        <time>2023-01-01T11:31:46.497Z</time>
      </trkpt>
      <trkpt lat="43.83683" lon="1.1581">
        <ele>202.985183</ele>
        <time>2023-01-01T11:31:48.495Z</time>
      </trkpt>
      <trkpt lat="43.83692" lon="1.15804">
        <ele>202.919817</ele>
        <time>2023-01-01T11:31:50.501Z</time>
      </trkpt>
      <trkpt lat="43.83701" lon="1.15799">
        <ele>202.850627</ele>
        <time>2023-01-01T11:31:52.496Z</time>
      </trkpt>
      <trkpt lat="43.8371" lon="1.15793">
        <ele>202.780519</ele>
        <time>2023-01-01T11:31:54.498Z</time>
      </trkpt>
      <trkpt lat="43.83719" lon="1.15786">
        <ele>202.489226</ele>
        <time>2023-01-01T11:31:56.483Z</time>
      </trkpt>
      <trkpt lat="43.8373" lon="1.15779">
        <ele>202.081753</ele>
        <time>2023-01-01T11:31:58.495Z</time>
      </trkpt>
      <trkpt lat="43.8374" lon="1.15772">
        <ele>201.661034</ele>
        <time>2023-01-01T11:32:00.486Z</time>
      </trkpt>
      <trkpt lat="43.83751" lon="1.15765">
        <ele>201.240496</ele>
        <time>2023-01-01T11:32:02.495Z</time>
      </trkpt>
      <trkpt lat="43.83761" lon="1.15759">
        <ele>200.831958</ele>
        <time>2023-01-01T11:32:04.479Z</time>
      </trkpt>
      <trkpt lat="43.83771" lon="1.15751">
        <ele>200.428997</ele>
        <time>2023-01-01T11:32:06.490Z</time>
      </trkpt>
      <trkpt lat="43.83781" lon="1.15744">
        <ele>200.032291</ele>
        <time>2023-01-01T11:32:08.491Z</time>
      </trkpt>
      <trkpt lat="43.83791" lon="1.15738">
        <ele>199.641032</ele>
        <time>2023-01-01T11:32:10.477Z</time>
      </trkpt>
      <trkpt lat="43.83801" lon="1.15731">
        <ele>199.242212</ele>
        <time>2023-01-01T11:32:12.506Z</time>
      </trkpt>
      <trkpt lat="43.83812" lon="1.15724">
        <ele>198.816381</ele>
        <time>2023-01-01T11:32:14.488Z</time>
      </trkpt>
      <trkpt lat="43.83823" lon="1.15718">
        <ele>198.386192</ele>
        <time>2023-01-01T11:32:16.506Z</time>
      </trkpt>
      <trkpt lat="43.83834" lon="1.15711">
        <ele>197.963576</ele>
        <time>2023-01-01T11:32:18.468Z</time>
      </trkpt>
      <trkpt lat="43.83844" lon="1.15704">
        <ele>197.556104</ele>
        <time>2023-01-01T11:32:20.494Z</time>
      </trkpt>
      <trkpt lat="43.83854" lon="1.15697">
        <ele>197.168146</ele>
        <time>2023-01-01T11:32:22.465Z</time>
      </trkpt>
      <trkpt lat="43.83864" lon="1.1569">
        <ele>196.773195</ele>
        <time>2023-01-01T11:32:24.483Z</time>
      </trkpt>
      <trkpt lat="43.83873" lon="1.15683">
        <ele>196.380864</ele>
        <time>2023-01-01T11:32:26.483Z</time>
      </trkpt>
      <trkpt lat="43.83883" lon="1.15676">
        <ele>195.732387</ele>
        <time>2023-01-01T11:32:28.495Z</time>
      </trkpt>
      <trkpt lat="43.83893" lon="1.15668">
        <ele>195.058711</ele>
        <time>2023-01-01T11:32:30.491Z</time>
      </trkpt>
      <trkpt lat="43.83904" lon="1.15661">
        <ele>194.354098</ele>
        <time>2023-01-01T11:32:32.481Z</time>
      </trkpt>
      <trkpt lat="43.83914" lon="1.15653">
        <ele>193.663876</ele>
        <time>2023-01-01T11:32:34.483Z</time>
      </trkpt>
      <trkpt lat="43.83925" lon="1.15647">
        <ele>193.00223</ele>
        <time>2023-01-01T11:32:36.482Z</time>
      </trkpt>
      <trkpt lat="43.83937" lon="1.15642">
        <ele>192.255984</ele>
        <time>2023-01-01T11:32:38.488Z</time>
      </trkpt>
      <trkpt lat="43.83947" lon="1.15637">
        <ele>191.617595</ele>
        <time>2023-01-01T11:32:40.497Z</time>
      </trkpt>
      <trkpt lat="43.83958" lon="1.15631">
        <ele>190.914724</ele>
        <time>2023-01-01T11:32:42.496Z</time>
      </trkpt>
      <trkpt lat="43.83969" lon="1.15625">
        <ele>190.241467</ele>
        <time>2023-01-01T11:32:44.482Z</time>
      </trkpt>
      <trkpt lat="43.8398" lon="1.15622">
        <ele>189.5304</ele>
        <time>2023-01-01T11:32:46.470Z</time>
      </trkpt>
      <trkpt lat="43.83993" lon="1.1562">
        <ele>188.758108</ele>
        <time>2023-01-01T11:32:48.474Z</time>
      </trkpt>
      <trkpt lat="43.84007" lon="1.15621">
        <ele>187.927464</ele>
        <time>2023-01-01T11:32:50.471Z</time>
      </trkpt>
      <trkpt lat="43.84022" lon="1.15624">
        <ele>187.054706</ele>
        <time>2023-01-01T11:32:52.474Z</time>
      </trkpt>
      <trkpt lat="43.84037" lon="1.15627">
        <ele>186.120295</ele>
        <time>2023-01-01T11:32:54.481Z</time>
      </trkpt>
      <trkpt lat="43.84052" lon="1.15632">
        <ele>185.570608</ele>
        <time>2023-01-01T11:32:56.500Z</time>
      </trkpt>
      <trkpt lat="43.84068" lon="1.15635">
        <ele>185.337736</ele>
        <time>2023-01-01T11:32:58.471Z</time>
      </trkpt>
      <trkpt lat="43.84083" lon="1.15641">
        <ele>185.099636</ele>
        <time>2023-01-01T11:33:00.490Z</time>
      </trkpt>
      <trkpt lat="43.84098" lon="1.15648">
        <ele>184.86816</ele>
        <time>2023-01-01T11:33:02.484Z</time>
      </trkpt>
      <trkpt lat="43.84113" lon="1.15656">
        <ele>184.644376</ele>
        <time>2023-01-01T11:33:04.478Z</time>
      </trkpt>
      <trkpt lat="43.84126" lon="1.15667">
        <ele>184.415933</ele>
        <time>2023-01-01T11:33:06.470Z</time>
      </trkpt>
      <trkpt lat="43.8414" lon="1.15679">
        <ele>184.169547</ele>
        <time>2023-01-01T11:33:08.495Z</time>
      </trkpt>
      <trkpt lat="43.84153" lon="1.15691">
        <ele>183.943326</ele>
        <time>2023-01-01T11:33:10.501Z</time>
      </trkpt>
      <trkpt lat="43.84167" lon="1.15701">
        <ele>183.714204</ele>
        <time>2023-01-01T11:33:12.501Z</time>
      </trkpt>
      <trkpt lat="43.84179" lon="1.15711">
        <ele>183.51266</ele>
        <time>2023-01-01T11:33:14.489Z</time>
      </trkpt>
      <trkpt lat="43.84192" lon="1.15721">
        <ele>183.304272</ele>
        <time>2023-01-01T11:33:16.481Z</time>
      </trkpt>
      <trkpt lat="43.84205" lon="1.1573">
        <ele>183.086155</ele>
        <time>2023-01-01T11:33:18.475Z</time>
      </trkpt>
      <trkpt lat="43.84217" lon="1.1574">
        <ele>182.728339</ele>
        <time>2023-01-01T11:33:20.494Z</time>
      </trkpt>
      <trkpt lat="43.84229" lon="1.1575">
        <ele>182.346333</ele>
        <time>2023-01-01T11:33:22.497Z</time>
      </trkpt>
      <trkpt lat="43.84241" lon="1.1576">
        <ele>181.966307</ele>
        <time>2023-01-01T11:33:24.503Z</time>
      </trkpt>
      <trkpt lat="43.84254" lon="1.1577">
        <ele>181.574594</ele>
        <time>2023-01-01T11:33:26.483Z</time>
      </trkpt>
      <trkpt lat="43.84266" lon="1.1578">
        <ele>181.176081</ele>
        <time>2023-01-01T11:33:28.502Z</time>
      </trkpt>
      <trkpt lat="43.84279" lon="1.1579">
        <ele>180.77281</ele>
        <time>2023-01-01T11:33:30.497Z</time>
      </trkpt>
      <trkpt lat="43.84291" lon="1.15799">
        <ele>180.413759</ele>
        <time>2023-01-01T11:33:32.488Z</time>
      </trkpt>
      <trkpt lat="43.84304" lon="1.15809">
        <ele>180.016061</ele>
        <time>2023-01-01T11:33:34.498Z</time>
      </trkpt>
      <trkpt lat="43.84316" lon="1.15819">
        <ele>179.643229</ele>
        <time>2023-01-01T11:33:36.499Z</time>
      </trkpt>
      <trkpt lat="43.84328" lon="1.15828">
        <ele>179.246612</ele>
        <time>2023-01-01T11:33:38.491Z</time>
      </trkpt>
      <trkpt lat="43.8434" lon="1.15836">
        <ele>178.903153</ele>
        <time>2023-01-01T11:33:40.491Z</time>
      </trkpt>
      <trkpt lat="43.84351" lon="1.15843">
        <ele>178.578803</ele>
        <time>2023-01-01T11:33:42.474Z</time>
      </trkpt>
      <trkpt lat="43.84363" lon="1.15847">
        <ele>178.23342</ele>
        <time>2023-01-01T11:33:44.490Z</time>
      </trkpt>
      <trkpt lat="43.84375" lon="1.15847">
        <ele>178.092271</ele>
        <time>2023-01-01T11:33:46.475Z</time>
      </trkpt>
      <trkpt lat="43.84387" lon="1.15843">
        <ele>178.000951</ele>
        <time>2023-01-01T11:33:48.485Z</time>
      </trkpt>
      <trkpt lat="43.84397" lon="1.15833">
        <ele>177.913434</ele>
        <time>2023-01-01T11:33:50.473Z</time>
      </trkpt>
      <trkpt lat="43.84405" lon="1.15821">
        <ele>177.828413</ele>
        <time>2023-01-01T11:33:52.481Z</time>
      </trkpt>
      <trkpt lat="43.84411" lon="1.1581">
        <ele>177.752322</ele>
        <time>2023-01-01T11:33:54.474Z</time>
      </trkpt>
      <trkpt lat="43.84417" lon="1.15799">
        <ele>177.684041</ele>
        <time>2023-01-01T11:33:56.473Z</time>
      </trkpt>
      <trkpt lat="43.84425" lon="1.15784">
        <ele>177.587322</ele>
        <time>2023-01-01T11:33:59.497Z</time>
      </trkpt>
      <trkpt lat="43.84433" lon="1.15769">
        <ele>177.491976</ele>
        <time>2023-01-01T11:34:02.487Z</time>
      </trkpt>
      <trkpt lat="43.8444" lon="1.15755">
        <ele>177.396627</ele>
        <time>2023-01-01T11:34:05.494Z</time>
      </trkpt>
      <trkpt lat="43.84446" lon="1.15745">
        <ele>177.329581</ele>
        <time>2023-01-01T11:34:07.475Z</time>
      </trkpt>
      <trkpt lat="43.84451" lon="1.15734">
        <ele>177.262621</ele>
        <time>2023-01-01T11:34:09.468Z</time>
      </trkpt>
      <trkpt lat="43.84456" lon="1.15724">
        <ele>177.19684</ele>
        <time>2023-01-01T11:34:11.472Z</time>
      </trkpt>
      <trkpt lat="43.84462" lon="1.15712">
        <ele>177.126852</ele>
        <time>2023-01-01T11:34:13.500Z</time>
      </trkpt>
      <trkpt lat="43.84468" lon="1.15702">
        <ele>177.056001</ele>
        <time>2023-01-01T11:34:15.486Z</time>
      </trkpt>
      <trkpt lat="43.84474" lon="1.1569">
        <ele>176.982267</ele>
        <time>2023-01-01T11:34:17.486Z</time>
      </trkpt>
      <trkpt lat="43.8448" lon="1.15679">
        <ele>176.910225</ele>
        <time>2023-01-01T11:34:19.492Z</time>
      </trkpt>
      <trkpt lat="43.84485" lon="1.15669">
        <ele>176.91021</ele>
        <time>2023-01-01T11:34:21.502Z</time>
      </trkpt>
      <trkpt lat="43.84491" lon="1.15658">
        <ele>177.176288</ele>
        <time>2023-01-01T11:34:23.479Z</time>
      </trkpt>
      <trkpt lat="43.84496" lon="1.15647">
        <ele>177.422007</ele>
        <time>2023-01-01T11:34:25.472Z</time>
      </trkpt>
      <trkpt lat="43.84504" lon="1.15632">
        <ele>177.772626</ele>
        <time>2023-01-01T11:34:28.497Z</time>
      </trkpt>
      <trkpt lat="43.84511" lon="1.15618">
        <ele>178.114311</ele>
        <time>2023-01-01T11:34:31.495Z</time>
      </trkpt>
      <trkpt lat="43.84518" lon="1.15604">
        <ele>178.438304</ele>
        <time>2023-01-01T11:34:34.540Z</time>
      </trkpt>
      <trkpt lat="43.84525" lon="1.15591">
        <ele>178.751324</ele>
        <time>2023-01-01T11:34:37.494Z</time>
      </trkpt>
      <trkpt lat="43.84531" lon="1.15579">
        <ele>179.03937</ele>
        <time>2023-01-01T11:34:40.482Z</time>
      </trkpt>
      <trkpt lat="43.84538" lon="1.15567">
        <ele>179.319956</ele>
        <time>2023-01-01T11:34:43.501Z</time>
      </trkpt>
      <trkpt lat="43.84544" lon="1.15554">
        <ele>179.626785</ele>
        <time>2023-01-01T11:34:47.473Z</time>
      </trkpt>
      <trkpt lat="43.8455" lon="1.15541">
        <ele>179.929499</ele>
        <time>2023-01-01T11:34:51.481Z</time>
      </trkpt>
      <trkpt lat="43.84555" lon="1.15528">
        <ele>180.205318</ele>
        <time>2023-01-01T11:34:55.474Z</time>
      </trkpt>
      <trkpt lat="43.84561" lon="1.15516">
        <ele>180.486222</ele>
        <time>2023-01-01T11:34:59.491Z</time>
      </trkpt>
      <trkpt lat="43.84565" lon="1.15503">
        <ele>180.768555</ele>
        <time>2023-01-01T11:35:03.498Z</time>
      </trkpt>
      <trkpt lat="43.8457" lon="1.15491">
        <ele>181.032903</ele>
        <time>2023-01-01T11:35:07.473Z</time>
      </trkpt>
      <trkpt lat="43.84574" lon="1.15478">
        <ele>181.301398</ele>
        <time>2023-01-01T11:35:11.496Z</time>
      </trkpt>
      <trkpt lat="43.84578" lon="1.15465">
        <ele>181.576956</ele>
        <time>2023-01-01T11:35:15.496Z</time>
      </trkpt>
      <trkpt lat="43.84581" lon="1.15451">
        <ele>181.951571</ele>
        <time>2023-01-01T11:35:19.496Z</time>
      </trkpt>
      <trkpt lat="43.84584" lon="1.15437">
        <ele>182.376954</ele>
        <time>2023-01-01T11:35:23.472Z</time>
      </trkpt>
      <trkpt lat="43.84587" lon="1.15423">
        <ele>182.792236</ele>
        <time>2023-01-01T11:35:27.497Z</time>
      </trkpt>
      <trkpt lat="43.84589" lon="1.15409">
        <ele>183.203698</ele>
        <time>2023-01-01T11:35:31.493Z</time>
      </trkpt>
      <trkpt lat="43.84591" lon="1.15395">
        <ele>183.607859</ele>
        <time>2023-01-01T11:35:35.482Z</time>
      </trkpt>
      <trkpt lat="43.84594" lon="1.15382">
        <ele>184.003796</ele>
        <time>2023-01-01T11:35:39.500Z</time>
      </trkpt>
      <trkpt lat="43.84597" lon="1.15368">
        <ele>184.408601</ele>
        <time>2023-01-01T11:35:43.487Z</time>
      </trkpt>
      <trkpt lat="43.846" lon="1.15355">
        <ele>184.797008</ele>
        <time>2023-01-01T11:35:47.496Z</time>
      </trkpt>
      <trkpt lat="43.84602" lon="1.15341">
        <ele>185.21239</ele>
        <time>2023-01-01T11:35:51.496Z</time>
      </trkpt>
      <trkpt lat="43.84604" lon="1.15327">
        <ele>185.607324</ele>
        <time>2023-01-01T11:35:55.498Z</time>
      </trkpt>
      <trkpt lat="43.84606" lon="1.15313">
        <ele>186.01555</ele>
        <time>2023-01-01T11:35:59.490Z</time>
      </trkpt>
      <trkpt lat="43.84609" lon="1.153">
        <ele>186.413359</ele>
        <time>2023-01-01T11:36:03.475Z</time>
      </trkpt>
      <trkpt lat="43.84611" lon="1.15287">
        <ele>186.818318</ele>
        <time>2023-01-01T11:36:07.484Z</time>
      </trkpt>
      <trkpt lat="43.84614" lon="1.15272">
        <ele>187.237182</ele>
        <time>2023-01-01T11:36:11.479Z</time>
      </trkpt>
      <trkpt lat="43.84616" lon="1.15259">
        <ele>187.64054</ele>
        <time>2023-01-01T11:36:15.484Z</time>
      </trkpt>
      <trkpt lat="43.84619" lon="1.15245">
        <ele>188.052037</ele>
        <time>2023-01-01T11:36:19.480Z</time>
      </trkpt>
      <trkpt lat="43.84622" lon="1.15231">
        <ele>188.454102</ele>
        <time>2023-01-01T11:36:23.488Z</time>
      </trkpt>
      <trkpt lat="43.84624" lon="1.15217">
        <ele>188.937576</ele>
        <time>2023-01-01T11:36:27.495Z</time>
      </trkpt>
      <trkpt lat="43.84627" lon="1.15202">
        <ele>189.735444</ele>
        <time>2023-01-01T11:36:32.470Z</time>
      </trkpt>
      <trkpt lat="43.84629" lon="1.1519">
        <ele>190.423839</ele>
        <time>2023-01-01T11:36:36.495Z</time>
      </trkpt>
      <trkpt lat="43.84632" lon="1.15176">
        <ele>191.218852</ele>
        <time>2023-01-01T11:36:41.490Z</time>
      </trkpt>
      <trkpt lat="43.84634" lon="1.15161">
        <ele>192.018617</ele>
        <time>2023-01-01T11:36:46.504Z</time>
      </trkpt>
      <trkpt lat="43.84638" lon="1.15147">
        <ele>192.827412</ele>
        <time>2023-01-01T11:36:51.496Z</time>
      </trkpt>
      <trkpt lat="43.8464" lon="1.15135">
        <ele>193.506692</ele>
        <time>2023-01-01T11:36:55.473Z</time>
      </trkpt>
      <trkpt lat="43.84643" lon="1.15123">
        <ele>194.191233</ele>
        <time>2023-01-01T11:36:59.494Z</time>
      </trkpt>
      <trkpt lat="43.84646" lon="1.15111">
        <ele>194.893132</ele>
        <time>2023-01-01T11:37:04.495Z</time>
      </trkpt>
      <trkpt lat="43.84649" lon="1.15097">
        <ele>195.650798</ele>
        <time>2023-01-01T11:37:09.473Z</time>
      </trkpt>
      <trkpt lat="43.84654" lon="1.15086">
        <ele>196.346146</ele>
        <time>2023-01-01T11:37:14.481Z</time>
      </trkpt>
      <trkpt lat="43.84659" lon="1.15076">
        <ele>197.023937</ele>
        <time>2023-01-01T11:37:19.475Z</time>
      </trkpt>
      <trkpt lat="43.84664" lon="1.15063">
        <ele>197.782041</ele>
        <time>2023-01-01T11:37:25.472Z</time>
      </trkpt>
      <trkpt lat="43.84668" lon="1.15052">
        <ele>198.467002</ele>
        <time>2023-01-01T11:37:30.481Z</time>
      </trkpt>
      <trkpt lat="43.84673" lon="1.15041">
        <ele>199.159575</ele>
        <time>2023-01-01T11:37:35.480Z</time>
      </trkpt>
      <trkpt lat="43.84678" lon="1.1503">
        <ele>199.860633</ele>
        <time>2023-01-01T11:37:40.475Z</time>
      </trkpt>
      <trkpt lat="43.84683" lon="1.15018">
        <ele>200.613448</ele>
        <time>2023-01-01T11:37:46.475Z</time>
      </trkpt>
      <trkpt lat="43.84688" lon="1.15005">
        <ele>201.398838</ele>
        <time>2023-01-01T11:37:53.469Z</time>
      </trkpt>
      <trkpt lat="43.84692" lon="1.14992">
        <ele>202.154006</ele>
        <time>2023-01-01T11:37:59.476Z</time>
      </trkpt>
      <trkpt lat="43.84696" lon="1.14981">
        <ele>202.492244</ele>
        <time>2023-01-01T11:38:05.474Z</time>
      </trkpt>
      <trkpt lat="43.84701" lon="1.14969">
        <ele>202.772681</ele>
        <time>2023-01-01T11:38:11.477Z</time>
      </trkpt>
      <trkpt lat="43.84706" lon="1.14958">
        <ele>203.043023</ele>
        <time>2023-01-01T11:38:16.475Z</time>
      </trkpt>
      <trkpt lat="43.84711" lon="1.14945">
        <ele>203.361699</ele>
        <time>2023-01-01T11:38:22.474Z</time>
      </trkpt>
      <trkpt lat="43.84716" lon="1.14935">
        <ele>203.628646</ele>
        <time>2023-01-01T11:38:27.474Z</time>
      </trkpt>
      <trkpt lat="43.84722" lon="1.14923">
        <ele>203.924948</ele>
        <time>2023-01-01T11:38:32.479Z</time>
      </trkpt>
      <trkpt lat="43.84727" lon="1.1491">
        <ele>204.238483</ele>
        <time>2023-01-01T11:38:37.503Z</time>
      </trkpt>
      <trkpt lat="43.84733" lon="1.14897">
        <ele>204.554593</ele>
        <time>2023-01-01T11:38:42.477Z</time>
      </trkpt>
      <trkpt lat="43.84737" lon="1.14884">
        <ele>204.863821</ele>
        <time>2023-01-01T11:38:47.471Z</time>
      </trkpt>
      <trkpt lat="43.84742" lon="1.14872">
        <ele>205.169326</ele>
        <time>2023-01-01T11:38:51.473Z</time>
      </trkpt>
      <trkpt lat="43.84748" lon="1.14858">
        <ele>205.504535</ele>
        <time>2023-01-01T11:38:55.501Z</time>
      </trkpt>
      <trkpt lat="43.84754" lon="1.14844">
        <ele>205.851042</ele>
        <time>2023-01-01T11:38:59.492Z</time>
      </trkpt>
      <trkpt lat="43.8476" lon="1.14831">
        <ele>206.188837</ele>
        <time>2023-01-01T11:39:03.496Z</time>
      </trkpt>
      <trkpt lat="43.84765" lon="1.14819">
        <ele>206.464555</ele>
        <time>2023-01-01T11:39:06.495Z</time>
      </trkpt>
      <trkpt lat="43.84769" lon="1.14807">
        <ele>206.74869</ele>
        <time>2023-01-01T11:39:09.499Z</time>
      </trkpt>
      <trkpt lat="43.84774" lon="1.14795">
        <ele>207.040267</ele>
        <time>2023-01-01T11:39:12.490Z</time>
      </trkpt>
      <trkpt lat="43.84779" lon="1.14783">
        <ele>207.342752</ele>
        <time>2023-01-01T11:39:15.497Z</time>
      </trkpt>
      <trkpt lat="43.84784" lon="1.14771">
        <ele>207.55576</ele>
        <time>2023-01-01T11:39:18.490Z</time>
      </trkpt>
      <trkpt lat="43.84788" lon="1.14759">
        <ele>207.598032</ele>
        <time>2023-01-01T11:39:21.493Z</time>
      </trkpt>
      <trkpt lat="43.84793" lon="1.14747">
        <ele>207.644242</ele>
        <time>2023-01-01T11:39:24.490Z</time>
      </trkpt>
      <trkpt lat="43.84799" lon="1.14734">
        <ele>207.694298</ele>
        <time>2023-01-01T11:39:27.490Z</time>
      </trkpt>
      <trkpt lat="43.84804" lon="1.1472">
        <ele>207.744686</ele>
        <time>2023-01-01T11:39:30.498Z</time>
      </trkpt>
      <trkpt lat="43.8481" lon="1.14706">
        <ele>207.796926</ele>
        <time>2023-01-01T11:39:33.506Z</time>
      </trkpt>
      <trkpt lat="43.84816" lon="1.14692">
        <ele>207.849597</ele>
        <time>2023-01-01T11:39:36.502Z</time>
      </trkpt>
      <trkpt lat="43.84821" lon="1.14677">
        <ele>207.902268</ele>
        <time>2023-01-01T11:39:39.500Z</time>
      </trkpt>
      <trkpt lat="43.84827" lon="1.14663">
        <ele>207.954596</ele>
        <time>2023-01-01T11:39:42.493Z</time>
      </trkpt>
      <trkpt lat="43.84832" lon="1.1465">
        <ele>208.005767</ele>
        <time>2023-01-01T11:39:45.498Z</time>
      </trkpt>
      <trkpt lat="43.84838" lon="1.14636">
        <ele>208.056868</ele>
        <time>2023-01-01T11:39:48.493Z</time>
      </trkpt>
      <trkpt lat="43.84844" lon="1.14621">
        <ele>208.110995</ele>
        <time>2023-01-01T11:39:51.498Z</time>
      </trkpt>
      <trkpt lat="43.8485" lon="1.14607">
        <ele>208.164895</ele>
        <time>2023-01-01T11:39:54.497Z</time>
      </trkpt>
      <trkpt lat="43.84856" lon="1.14593">
        <ele>208.218463</ele>
        <time>2023-01-01T11:39:57.494Z</time>
      </trkpt>
      <trkpt lat="43.84862" lon="1.14578">
        <ele>208.272363</ele>
        <time>2023-01-01T11:40:00.494Z</time>
      </trkpt>
      <trkpt lat="43.84868" lon="1.14564">
        <ele>208.326604</ele>
        <time>2023-01-01T11:40:03.495Z</time>
      </trkpt>
      <trkpt lat="43.84874" lon="1.14549">
        <ele>208.400049</ele>
        <time>2023-01-01T11:40:06.502Z</time>
      </trkpt>
      <trkpt lat="43.8488" lon="1.14535">
        <ele>208.489184</ele>
        <time>2023-01-01T11:40:09.501Z</time>
      </trkpt>
      <trkpt lat="43.84886" lon="1.14521">
        <ele>208.579352</ele>
        <time>2023-01-01T11:40:12.486Z</time>
      </trkpt>
      <trkpt lat="43.84892" lon="1.14507">
        <ele>208.667866</ele>
        <time>2023-01-01T11:40:15.486Z</time>
      </trkpt>
      <trkpt lat="43.84898" lon="1.14491">
        <ele>208.759692</ele>
        <time>2023-01-01T11:40:18.496Z</time>
      </trkpt>
      <trkpt lat="43.84905" lon="1.14476">
        <ele>208.856062</ele>
        <time>2023-01-01T11:40:21.500Z</time>
      </trkpt>
      <trkpt lat="43.84911" lon="1.14461">
        <ele>208.953041</ele>
        <time>2023-01-01T11:40:24.496Z</time>
      </trkpt>
      <trkpt lat="43.84917" lon="1.14445">
        <ele>209.050549</ele>
        <time>2023-01-01T11:40:27.486Z</time>
      </trkpt>
      <trkpt lat="43.84922" lon="1.14434">
        <ele>209.11796</ele>
        <time>2023-01-01T11:40:29.481Z</time>
      </trkpt>
      <trkpt lat="43.84927" lon="1.14423">
        <ele>209.188415</ele>
        <time>2023-01-01T11:40:31.472Z</time>
      </trkpt>
      <trkpt lat="43.84931" lon="1.14411">
        <ele>209.261987</ele>
        <time>2023-01-01T11:40:33.496Z</time>
      </trkpt>
      <trkpt lat="43.84936" lon="1.14399">
        <ele>209.334334</ele>
        <time>2023-01-01T11:40:35.492Z</time>
      </trkpt>
      <trkpt lat="43.84941" lon="1.14388">
        <ele>209.402938</ele>
        <time>2023-01-01T11:40:37.497Z</time>
      </trkpt>
      <trkpt lat="43.84946" lon="1.14377">
        <ele>209.470899</ele>
        <time>2023-01-01T11:40:39.487Z</time>
      </trkpt>
      <trkpt lat="43.8495" lon="1.14366">
        <ele>209.540212</ele>
        <time>2023-01-01T11:40:41.495Z</time>
      </trkpt>
      <trkpt lat="43.84955" lon="1.14354">
        <ele>209.612947</ele>
        <time>2023-01-01T11:40:43.500Z</time>
      </trkpt>
      <trkpt lat="43.8496" lon="1.14343">
        <ele>209.682761</ele>
        <time>2023-01-01T11:40:45.498Z</time>
      </trkpt>
      <trkpt lat="43.84965" lon="1.14331">
        <ele>209.713535</ele>
        <time>2023-01-01T11:40:47.490Z</time>
      </trkpt>
      <trkpt lat="43.84969" lon="1.14318">
        <ele>209.737076</ele>
        <time>2023-01-01T11:40:49.499Z</time>
      </trkpt>
      <trkpt lat="43.84974" lon="1.14306">
        <ele>209.760801</ele>
        <time>2023-01-01T11:40:51.490Z</time>
      </trkpt>
      <trkpt lat="43.8498" lon="1.14293">
        <ele>209.784958</ele>
        <time>2023-01-01T11:40:53.495Z</time>
      </trkpt>
      <trkpt lat="43.84984" lon="1.14279">
        <ele>209.809978</ele>
        <time>2023-01-01T11:40:55.499Z</time>
      </trkpt>
      <trkpt lat="43.8499" lon="1.14267">
        <ele>209.833728</ele>
        <time>2023-01-01T11:40:57.495Z</time>
      </trkpt>
      <trkpt lat="43.84994" lon="1.14256">
        <ele>209.855421</ele>
        <time>2023-01-01T11:40:59.495Z</time>
      </trkpt>
      <trkpt lat="43.85" lon="1.14245">
        <ele>209.877403</ele>
        <time>2023-01-01T11:41:01.500Z</time>
      </trkpt>
      <trkpt lat="43.85005" lon="1.14233">
        <ele>209.899304</ele>
        <time>2023-01-01T11:41:03.499Z</time>
      </trkpt>
      <trkpt lat="43.85009" lon="1.14222">
        <ele>209.920996</ele>
        <time>2023-01-01T11:41:05.485Z</time>
      </trkpt>
      <trkpt lat="43.85014" lon="1.14211">
        <ele>209.942065</ele>
        <time>2023-01-01T11:41:07.495Z</time>
      </trkpt>
      <trkpt lat="43.85018" lon="1.142">
        <ele>209.962735</ele>
        <time>2023-01-01T11:41:09.496Z</time>
      </trkpt>
      <trkpt lat="43.85022" lon="1.14189">
        <ele>209.983588</ele>
        <time>2023-01-01T11:41:11.499Z</time>
      </trkpt>
      <trkpt lat="43.85027" lon="1.14178">
        <ele>210.00465</ele>
        <time>2023-01-01T11:41:13.497Z</time>
      </trkpt>
      <trkpt lat="43.85032" lon="1.14166">
        <ele>210.027031</ele>
        <time>2023-01-01T11:41:15.497Z</time>
      </trkpt>
      <trkpt lat="43.85037" lon="1.14154">
        <ele>210.049267</ele>
        <time>2023-01-01T11:41:17.498Z</time>
      </trkpt>
      <trkpt lat="43.85042" lon="1.14142">
        <ele>210.072661</ele>
        <time>2023-01-01T11:41:19.499Z</time>
      </trkpt>
      <trkpt lat="43.85047" lon="1.1413">
        <ele>210.095956</ele>
        <time>2023-01-01T11:41:21.502Z</time>
      </trkpt>
      <trkpt lat="43.85052" lon="1.14117">
        <ele>210.054363</ele>
        <time>2023-01-01T11:41:23.479Z</time>
      </trkpt>
      <trkpt lat="43.85057" lon="1.14104">
        <ele>209.96525</ele>
        <time>2023-01-01T11:41:25.484Z</time>
      </trkpt>
      <trkpt lat="43.85063" lon="1.14091">
        <ele>209.874267</ele>
        <time>2023-01-01T11:41:27.513Z</time>
      </trkpt>
      <trkpt lat="43.85068" lon="1.14079">
        <ele>209.787322</ele>
        <time>2023-01-01T11:41:29.500Z</time>
      </trkpt>
      <trkpt lat="43.85073" lon="1.14066">
        <ele>209.70087</ele>
        <time>2023-01-01T11:41:31.475Z</time>
      </trkpt>
      <trkpt lat="43.85078" lon="1.14053">
        <ele>209.611908</ele>
        <time>2023-01-01T11:41:33.495Z</time>
      </trkpt>
      <trkpt lat="43.85084" lon="1.14041">
        <ele>209.52662</ele>
        <time>2023-01-01T11:41:35.497Z</time>
      </trkpt>
      <trkpt lat="43.85088" lon="1.14029">
        <ele>209.443205</ele>
        <time>2023-01-01T11:41:37.479Z</time>
      </trkpt>
      <trkpt lat="43.85093" lon="1.14018">
        <ele>209.364387</ele>
        <time>2023-01-01T11:41:39.487Z</time>
      </trkpt>
      <trkpt lat="43.85098" lon="1.14007">
        <ele>209.285482</ele>
        <time>2023-01-01T11:41:41.481Z</time>
      </trkpt>
      <trkpt lat="43.85103" lon="1.13996">
        <ele>209.207367</ele>
        <time>2023-01-01T11:41:43.490Z</time>
      </trkpt>
      <trkpt lat="43.85108" lon="1.13985">
        <ele>209.131045</ele>
        <time>2023-01-01T11:41:45.498Z</time>
      </trkpt>
      <trkpt lat="43.85113" lon="1.13973">
        <ele>209.049206</ele>
        <time>2023-01-01T11:41:47.471Z</time>
      </trkpt>
      <trkpt lat="43.85118" lon="1.13961">
        <ele>208.96612</ele>
        <time>2023-01-01T11:41:49.494Z</time>
      </trkpt>
      <trkpt lat="43.85123" lon="1.13948">
        <ele>208.877717</ele>
        <time>2023-01-01T11:41:51.483Z</time>
      </trkpt>
      <trkpt lat="43.85129" lon="1.13934">
        <ele>208.779452</ele>
        <time>2023-01-01T11:41:53.489Z</time>
      </trkpt>
      <trkpt lat="43.85136" lon="1.13919">
        <ele>208.6763</ele>
        <time>2023-01-01T11:41:55.470Z</time>
      </trkpt>
      <trkpt lat="43.85142" lon="1.13902">
        <ele>208.701697</ele>
        <time>2023-01-01T11:41:57.496Z</time>
      </trkpt>
      <trkpt lat="43.85149" lon="1.13886">
        <ele>208.920266</ele>
        <time>2023-01-01T11:41:59.487Z</time>
      </trkpt>
      <trkpt lat="43.85156" lon="1.13869">
        <ele>209.151905</ele>
        <time>2023-01-01T11:42:01.481Z</time>
      </trkpt>
      <trkpt lat="43.85162" lon="1.13852">
        <ele>209.372981</ele>
        <time>2023-01-01T11:42:03.500Z</time>
      </trkpt>
      <trkpt lat="43.85168" lon="1.13836">
        <ele>209.586956</ele>
        <time>2023-01-01T11:42:05.499Z</time>
      </trkpt>
      <trkpt lat="43.85174" lon="1.1382">
        <ele>209.793308</ele>
        <time>2023-01-01T11:42:07.494Z</time>
      </trkpt>
      <trkpt lat="43.8518" lon="1.13807">
        <ele>209.974015</ele>
        <time>2023-01-01T11:42:09.488Z</time>
      </trkpt>
      <trkpt lat="43.85185" lon="1.13795">
        <ele>210.146401</ele>
        <time>2023-01-01T11:42:11.485Z</time>
      </trkpt>
      <trkpt lat="43.8519" lon="1.13783">
        <ele>210.303884</ele>
        <time>2023-01-01T11:42:13.502Z</time>
      </trkpt>
      <trkpt lat="43.85197" lon="1.13768">
        <ele>210.510273</ele>
        <time>2023-01-01T11:42:16.489Z</time>
      </trkpt>
      <trkpt lat="43.85201" lon="1.13754">
        <ele>210.686594</ele>
        <time>2023-01-01T11:42:19.469Z</time>
      </trkpt>
      <trkpt lat="43.85206" lon="1.13741">
        <ele>210.856878</ele>
        <time>2023-01-01T11:42:22.491Z</time>
      </trkpt>
      <trkpt lat="43.85211" lon="1.13729">
        <ele>211.024325</ele>
        <time>2023-01-01T11:42:25.498Z</time>
      </trkpt>
      <trkpt lat="43.85217" lon="1.13716">
        <ele>211.207401</ele>
        <time>2023-01-01T11:42:28.508Z</time>
      </trkpt>
      <trkpt lat="43.85222" lon="1.13702">
        <ele>211.38669</ele>
        <time>2023-01-01T11:42:31.499Z</time>
      </trkpt>
      <trkpt lat="43.85228" lon="1.13689">
        <ele>211.499405</ele>
        <time>2023-01-01T11:42:34.479Z</time>
      </trkpt>
      <trkpt lat="43.85233" lon="1.13676">
        <ele>211.340967</ele>
        <time>2023-01-01T11:42:37.500Z</time>
      </trkpt>
      <trkpt lat="43.85239" lon="1.13663">
        <ele>211.177939</ele>
        <time>2023-01-01T11:42:40.498Z</time>
      </trkpt>
      <trkpt lat="43.85244" lon="1.13649">
        <ele>211.010082</ele>
        <time>2023-01-01T11:42:43.500Z</time>
      </trkpt>
      <trkpt lat="43.8525" lon="1.13635">
        <ele>210.837657</ele>
        <time>2023-01-01T11:42:46.499Z</time>
      </trkpt>
      <trkpt lat="43.85256" lon="1.13621">
        <ele>210.66855</ele>
        <time>2023-01-01T11:42:49.500Z</time>
      </trkpt>
      <trkpt lat="43.85261" lon="1.13608">
        <ele>210.506037</ele>
        <time>2023-01-01T11:42:52.478Z</time>
      </trkpt>
      <trkpt lat="43.85267" lon="1.13594">
        <ele>210.342592</ele>
        <time>2023-01-01T11:42:55.501Z</time>
      </trkpt>
      <trkpt lat="43.85271" lon="1.13577">
        <ele>210.147471</ele>
        <time>2023-01-01T11:42:58.487Z</time>
      </trkpt>
      <trkpt lat="43.85274" lon="1.13564">
        <ele>209.99929</ele>
        <time>2023-01-01T11:43:00.470Z</time>
      </trkpt>
      <trkpt lat="43.85275" lon="1.13549">
        <ele>209.842286</ele>
        <time>2023-01-01T11:43:02.482Z</time>
      </trkpt>
      <trkpt lat="43.85276" lon="1.13533">
        <ele>209.673209</ele>
        <time>2023-01-01T11:43:04.474Z</time>
      </trkpt>
      <trkpt lat="43.85275" lon="1.13519">
        <ele>209.516336</ele>
        <time>2023-01-01T11:43:06.471Z</time>
      </trkpt>
      <trkpt lat="43.85273" lon="1.13504">
        <ele>209.360128</ele>
        <time>2023-01-01T11:43:08.494Z</time>
      </trkpt>
      <trkpt lat="43.8527" lon="1.1349">
        <ele>209.203384</ele>
        <time>2023-01-01T11:43:10.472Z</time>
      </trkpt>
      <trkpt lat="43.85267" lon="1.13477">
        <ele>209.053172</ele>
        <time>2023-01-01T11:43:12.480Z</time>
      </trkpt>
      <trkpt lat="43.85263" lon="1.13464">
        <ele>208.908347</ele>
        <time>2023-01-01T11:43:14.494Z</time>
      </trkpt>
      <trkpt lat="43.8526" lon="1.13452">
        <ele>208.485993</ele>
        <time>2023-01-01T11:43:16.496Z</time>
      </trkpt>
      <trkpt lat="43.85256" lon="1.13439">
        <ele>207.964139</ele>
        <time>2023-01-01T11:43:18.499Z</time>
      </trkpt>
      <trkpt lat="43.85253" lon="1.13427">
        <ele>207.491596</ele>
        <time>2023-01-01T11:43:20.490Z</time>
      </trkpt>
      <trkpt lat="43.85251" lon="1.13414">
        <ele>207.007698</ele>
        <time>2023-01-01T11:43:22.485Z</time>
      </trkpt>
      <trkpt lat="43.85251" lon="1.13401">
        <ele>206.530158</ele>
        <time>2023-01-01T11:43:24.478Z</time>
      </trkpt>
      <trkpt lat="43.85254" lon="1.13388">
        <ele>206.036717</ele>
        <time>2023-01-01T11:43:26.478Z</time>
      </trkpt>
      <trkpt lat="43.8526" lon="1.13377">
        <ele>205.50994</ele>
        <time>2023-01-01T11:43:28.482Z</time>
      </trkpt>
      <trkpt lat="43.85268" lon="1.13368">
        <ele>204.966586</ele>
        <time>2023-01-01T11:43:30.476Z</time>
      </trkpt>
      <trkpt lat="43.85277" lon="1.1336">
        <ele>204.427166</ele>
        <time>2023-01-01T11:43:32.475Z</time>
      </trkpt>
      <trkpt lat="43.85287" lon="1.13355">
        <ele>203.889138</ele>
        <time>2023-01-01T11:43:34.476Z</time>
      </trkpt>
      <trkpt lat="43.85297" lon="1.1335">
        <ele>203.341667</ele>
        <time>2023-01-01T11:43:36.471Z</time>
      </trkpt>
      <trkpt lat="43.85306" lon="1.13347">
        <ele>202.813102</ele>
        <time>2023-01-01T11:43:38.492Z</time>
      </trkpt>
      <trkpt lat="43.85317" lon="1.13342">
        <ele>202.250941</ele>
        <time>2023-01-01T11:43:40.474Z</time>
      </trkpt>
      <trkpt lat="43.85327" lon="1.13338">
        <ele>201.715328</ele>
        <time>2023-01-01T11:43:42.497Z</time>
      </trkpt>
      <trkpt lat="43.85336" lon="1.13332">
        <ele>201.187498</ele>
        <time>2023-01-01T11:43:44.489Z</time>
      </trkpt>
      <trkpt lat="43.85345" lon="1.13325">
        <ele>200.649172</ele>
        <time>2023-01-01T11:43:46.495Z</time>
      </trkpt>
      <trkpt lat="43.85353" lon="1.13316">
        <ele>200.12726</ele>
        <time>2023-01-01T11:43:48.491Z</time>
      </trkpt>
      <trkpt lat="43.85359" lon="1.13306">
        <ele>199.623452</ele>
        <time>2023-01-01T11:43:50.493Z</time>
      </trkpt>
      <trkpt lat="43.85364" lon="1.13295">
        <ele>199.160437</ele>
        <time>2023-01-01T11:43:52.474Z</time>
      </trkpt>
      <trkpt lat="43.8537" lon="1.13283">
        <ele>198.653709</ele>
        <time>2023-01-01T11:43:54.475Z</time>
      </trkpt>
      <trkpt lat="43.85374" lon="1.13269">
        <ele>198.123549</ele>
        <time>2023-01-01T11:43:56.495Z</time>
      </trkpt>
      <trkpt lat="43.8538" lon="1.13256">
        <ele>197.576053</ele>
        <time>2023-01-01T11:43:58.504Z</time>
      </trkpt>
      <trkpt lat="43.85385" lon="1.13242">
        <ele>197.044749</ele>
        <time>2023-01-01T11:44:00.502Z</time>
      </trkpt>
      <trkpt lat="43.8539" lon="1.13229">
        <ele>196.529488</ele>
        <time>2023-01-01T11:44:02.493Z</time>
      </trkpt>
      <trkpt lat="43.85395" lon="1.13216">
        <ele>196.020307</ele>
        <time>2023-01-01T11:44:04.501Z</time>
      </trkpt>
      <trkpt lat="43.85398" lon="1.13204">
        <ele>195.547373</ele>
        <time>2023-01-01T11:44:06.496Z</time>
      </trkpt>
      <trkpt lat="43.85401" lon="1.1319">
        <ele>195.067606</ele>
        <time>2023-01-01T11:44:08.471Z</time>
      </trkpt>
      <trkpt lat="43.85401" lon="1.13178">
        <ele>194.615504</ele>
        <time>2023-01-01T11:44:10.476Z</time>
      </trkpt>
      <trkpt lat="43.85401" lon="1.13164">
        <ele>194.133799</ele>
        <time>2023-01-01T11:44:12.484Z</time>
      </trkpt>
      <trkpt lat="43.85401" lon="1.13149">
        <ele>193.619722</ele>
        <time>2023-01-01T11:44:14.490Z</time>
      </trkpt>
      <trkpt lat="43.85401" lon="1.13135">
        <ele>193.104998</ele>
        <time>2023-01-01T11:44:16.493Z</time>
      </trkpt>
      <trkpt lat="43.85405" lon="1.13119">
        <ele>192.521306</ele>
        <time>2023-01-01T11:44:18.472Z</time>
      </trkpt>
      <trkpt lat="43.85411" lon="1.13103">
        <ele>191.886027</ele>
        <time>2023-01-01T11:44:20.470Z</time>
      </trkpt>
      <trkpt lat="43.85421" lon="1.13089">
        <ele>191.213567</ele>
        <time>2023-01-01T11:44:22.481Z</time>
      </trkpt>
      <trkpt lat="43.85431" lon="1.13076">
        <ele>190.86325</ele>
        <time>2023-01-01T11:44:24.477Z</time>
      </trkpt>
      <trkpt lat="43.85442" lon="1.13064">
        <ele>191.000408</ele>
        <time>2023-01-01T11:44:26.492Z</time>
      </trkpt>
      <trkpt lat="43.85452" lon="1.13053">
        <ele>191.129926</ele>
        <time>2023-01-01T11:44:28.476Z</time>
      </trkpt>
      <trkpt lat="43.85462" lon="1.13042">
        <ele>191.253866</ele>
        <time>2023-01-01T11:44:30.499Z</time>
      </trkpt>
      <trkpt lat="43.85469" lon="1.1303">
        <ele>191.367686</ele>
        <time>2023-01-01T11:44:32.483Z</time>
      </trkpt>
      <trkpt lat="43.85475" lon="1.13019">
        <ele>191.471458</ele>
        <time>2023-01-01T11:44:34.491Z</time>
      </trkpt>
      <trkpt lat="43.85481" lon="1.13008">
        <ele>191.565857</ele>
        <time>2023-01-01T11:44:36.496Z</time>
      </trkpt>
      <trkpt lat="43.85485" lon="1.12997">
        <ele>191.657034</ele>
        <time>2023-01-01T11:44:38.500Z</time>
      </trkpt>
      <trkpt lat="43.85492" lon="1.12981">
        <ele>191.790267</ele>
        <time>2023-01-01T11:44:41.496Z</time>
      </trkpt>
      <trkpt lat="43.85497" lon="1.1297">
        <ele>191.883431</ele>
        <time>2023-01-01T11:44:43.483Z</time>
      </trkpt>
      <trkpt lat="43.85501" lon="1.12959">
        <ele>191.974608</ele>
        <time>2023-01-01T11:44:45.500Z</time>
      </trkpt>
      <trkpt lat="43.85508" lon="1.12944">
        <ele>192.104359</ele>
        <time>2023-01-01T11:44:48.496Z</time>
      </trkpt>
      <trkpt lat="43.85515" lon="1.12928">
        <ele>192.23899</ele>
        <time>2023-01-01T11:44:51.498Z</time>
      </trkpt>
      <trkpt lat="43.85522" lon="1.12912">
        <ele>192.368281</ele>
        <time>2023-01-01T11:44:54.501Z</time>
      </trkpt>
      <trkpt lat="43.85528" lon="1.12897">
        <ele>192.501277</ele>
        <time>2023-01-01T11:44:57.499Z</time>
      </trkpt>
      <trkpt lat="43.85535" lon="1.12881">
        <ele>192.663774</ele>
        <time>2023-01-01T11:45:00.494Z</time>
      </trkpt>
      <trkpt lat="43.85541" lon="1.12867">
        <ele>192.994898</ele>
        <time>2023-01-01T11:45:03.508Z</time>
      </trkpt>
      <trkpt lat="43.85546" lon="1.12854">
        <ele>193.297266</ele>
        <time>2023-01-01T11:45:06.497Z</time>
      </trkpt>
      <trkpt lat="43.85551" lon="1.12842">
        <ele>193.577998</ele>
        <time>2023-01-01T11:45:09.497Z</time>
      </trkpt>
      <trkpt lat="43.85557" lon="1.12831">
        <ele>193.85818</ele>
        <time>2023-01-01T11:45:12.471Z</time>
      </trkpt>
      <trkpt lat="43.85562" lon="1.12819">
        <ele>194.142884</ele>
        <time>2023-01-01T11:45:15.500Z</time>
      </trkpt>
      <trkpt lat="43.85567" lon="1.12807">
        <ele>194.424778</ele>
        <time>2023-01-01T11:45:18.495Z</time>
      </trkpt>
      <trkpt lat="43.85573" lon="1.12795">
        <ele>194.704959</ele>
        <time>2023-01-01T11:45:21.465Z</time>
      </trkpt>
      <trkpt lat="43.85578" lon="1.12783">
        <ele>194.982225</ele>
        <time>2023-01-01T11:45:24.500Z</time>
      </trkpt>
      <trkpt lat="43.85583" lon="1.12772">
        <ele>195.253522</ele>
        <time>2023-01-01T11:45:27.496Z</time>
      </trkpt>
      <trkpt lat="43.85588" lon="1.12761">
        <ele>195.508671</ele>
        <time>2023-01-01T11:45:30.472Z</time>
      </trkpt>
      <trkpt lat="43.85593" lon="1.12748">
        <ele>195.813587</ele>
        <time>2023-01-01T11:45:34.494Z</time>
      </trkpt>
      <trkpt lat="43.85597" lon="1.12735">
        <ele>196.097555</ele>
        <time>2023-01-01T11:45:38.497Z</time>
      </trkpt>
      <trkpt lat="43.85604" lon="1.12724">
        <ele>196.377355</ele>
        <time>2023-01-01T11:45:42.497Z</time>
      </trkpt>
      <trkpt lat="43.85608" lon="1.12712">
        <ele>196.664556</ele>
        <time>2023-01-01T11:45:46.483Z</time>
      </trkpt>
      <trkpt lat="43.85613" lon="1.12699">
        <ele>196.950988</ele>
        <time>2023-01-01T11:45:50.502Z</time>
      </trkpt>
      <trkpt lat="43.85618" lon="1.12686">
        <ele>197.244665</ele>
        <time>2023-01-01T11:45:54.484Z</time>
      </trkpt>
      <trkpt lat="43.85624" lon="1.12674">
        <ele>197.537836</ele>
        <time>2023-01-01T11:45:58.467Z</time>
      </trkpt>
      <trkpt lat="43.8563" lon="1.12662">
        <ele>197.92023</ele>
        <time>2023-01-01T11:46:02.488Z</time>
      </trkpt>
      <trkpt lat="43.85635" lon="1.1265">
        <ele>198.361138</ele>
        <time>2023-01-01T11:46:06.499Z</time>
      </trkpt>
      <trkpt lat="43.8564" lon="1.12637">
        <ele>198.79945</ele>
        <time>2023-01-01T11:46:10.494Z</time>
      </trkpt>
      <trkpt lat="43.85645" lon="1.12626">
        <ele>199.215427</ele>
        <time>2023-01-01T11:46:15.500Z</time>
      </trkpt>
      <trkpt lat="43.8565" lon="1.12614">
        <ele>199.619617</ele>
        <time>2023-01-01T11:46:20.484Z</time>
      </trkpt>
      <trkpt lat="43.85655" lon="1.12601">
        <ele>200.085894</ele>
        <time>2023-01-01T11:46:25.502Z</time>
      </trkpt>
      <trkpt lat="43.85661" lon="1.12588">
        <ele>200.548477</ele>
        <time>2023-01-01T11:46:30.495Z</time>
      </trkpt>
      <trkpt lat="43.85666" lon="1.12576">
        <ele>200.99845</ele>
        <time>2023-01-01T11:46:35.493Z</time>
      </trkpt>
      <trkpt lat="43.85671" lon="1.12562">
        <ele>201.449776</ele>
        <time>2023-01-01T11:46:40.487Z</time>
      </trkpt>
      <trkpt lat="43.85675" lon="1.12548">
        <ele>201.918105</ele>
        <time>2023-01-01T11:46:45.496Z</time>
      </trkpt>
      <trkpt lat="43.85678" lon="1.12534">
        <ele>202.378979</ele>
        <time>2023-01-01T11:46:50.497Z</time>
      </trkpt>
      <trkpt lat="43.85683" lon="1.1252">
        <ele>202.856182</ele>
        <time>2023-01-01T11:46:55.498Z</time>
      </trkpt>
      <trkpt lat="43.85687" lon="1.12505">
        <ele>203.331515</ele>
        <time>2023-01-01T11:47:00.467Z</time>
      </trkpt>
      <trkpt lat="43.85691" lon="1.12491">
        <ele>203.791035</ele>
        <time>2023-01-01T11:47:05.478Z</time>
      </trkpt>
      <trkpt lat="43.85695" lon="1.12477">
        <ele>204.261433</ele>
        <time>2023-01-01T11:47:10.493Z</time>
      </trkpt>
      <trkpt lat="43.85699" lon="1.12464">
        <ele>204.695045</ele>
        <time>2023-01-01T11:47:15.463Z</time>
      </trkpt>
      <trkpt lat="43.85701" lon="1.12452">
        <ele>205.080424</ele>
        <time>2023-01-01T11:47:19.474Z</time>
      </trkpt>
      <trkpt lat="43.85704" lon="1.1244">
        <ele>205.451185</ele>
        <time>2023-01-01T11:47:23.483Z</time>
      </trkpt>
      <trkpt lat="43.85708" lon="1.12425">
        <ele>205.864005</ele>
        <time>2023-01-01T11:47:28.480Z</time>
      </trkpt>
      <trkpt lat="43.85711" lon="1.12413">
        <ele>206.2098</ele>
        <time>2023-01-01T11:47:32.486Z</time>
      </trkpt>
      <trkpt lat="43.85714" lon="1.12398">
        <ele>206.636573</ele>
        <time>2023-01-01T11:47:37.488Z</time>
      </trkpt>
      <trkpt lat="43.85717" lon="1.12384">
        <ele>207.053106</ele>
        <time>2023-01-01T11:47:42.483Z</time>
      </trkpt>
      <trkpt lat="43.8572" lon="1.12371">
        <ele>207.41983</ele>
        <time>2023-01-01T11:47:46.495Z</time>
      </trkpt>
      <trkpt lat="43.85723" lon="1.12359">
        <ele>207.772332</ele>
        <time>2023-01-01T11:47:50.496Z</time>
      </trkpt>
      <trkpt lat="43.85726" lon="1.12346">
        <ele>208.141336</ele>
        <time>2023-01-01T11:47:54.501Z</time>
      </trkpt>
      <trkpt lat="43.85728" lon="1.12332">
        <ele>208.527867</ele>
        <time>2023-01-01T11:47:58.499Z</time>
      </trkpt>
      <trkpt lat="43.85731" lon="1.12318">
        <ele>208.936611</ele>
        <time>2023-01-01T11:48:02.498Z</time>
      </trkpt>
      <trkpt lat="43.85733" lon="1.12304">
        <ele>209.32945</ele>
        <time>2023-01-01T11:48:06.500Z</time>
      </trkpt>
      <trkpt lat="43.85735" lon="1.12291">
        <ele>209.689398</ele>
        <time>2023-01-01T11:48:10.503Z</time>
      </trkpt>
      <trkpt lat="43.85738" lon="1.12279">
        <ele>210.05319</ele>
        <time>2023-01-01T11:48:14.472Z</time>
      </trkpt>
      <trkpt lat="43.85741" lon="1.12266">
        <ele>210.42471</ele>
        <time>2023-01-01T11:48:18.499Z</time>
      </trkpt>
      <trkpt lat="43.85744" lon="1.12251">
        <ele>210.838289</ele>
        <time>2023-01-01T11:48:23.498Z</time>
      </trkpt>
      <trkpt lat="43.85747" lon="1.12236">
        <ele>211.263457</ele>
        <time>2023-01-01T11:48:28.495Z</time>
      </trkpt>
      <trkpt lat="43.85749" lon="1.12224">
        <ele>211.613693</ele>
        <time>2023-01-01T11:48:32.479Z</time>
      </trkpt>
      <trkpt lat="43.85752" lon="1.12209">
        <ele>212.035183</ele>
        <time>2023-01-01T11:48:37.499Z</time>
      </trkpt>
      <trkpt lat="43.85755" lon="1.12195">
        <ele>212.50388</ele>
        <time>2023-01-01T11:48:42.493Z</time>
      </trkpt>
      <trkpt lat="43.85756" lon="1.12183">
        <ele>212.920696</ele>
        <time>2023-01-01T11:48:46.472Z</time>
      </trkpt>
      <trkpt lat="43.8576" lon="1.12168">
        <ele>213.436821</ele>
        <time>2023-01-01T11:48:51.491Z</time>
      </trkpt>
      <trkpt lat="43.85761" lon="1.12155">
        <ele>213.852793</ele>
        <time>2023-01-01T11:48:55.478Z</time>
      </trkpt>
      <trkpt lat="43.85763" lon="1.12143">
        <ele>214.281212</ele>
        <time>2023-01-01T11:48:59.496Z</time>
      </trkpt>
      <trkpt lat="43.85766" lon="1.12128">
        <ele>214.789669</ele>
        <time>2023-01-01T11:49:04.502Z</time>
      </trkpt>
      <trkpt lat="43.85769" lon="1.12114">
        <ele>215.279383</ele>
        <time>2023-01-01T11:49:09.500Z</time>
      </trkpt>
      <trkpt lat="43.85771" lon="1.12102">
        <ele>215.697922</ele>
        <time>2023-01-01T11:49:13.500Z</time>
      </trkpt>
      <trkpt lat="43.85774" lon="1.12087">
        <ele>216.194891</ele>
        <time>2023-01-01T11:49:18.495Z</time>
      </trkpt>
      <trkpt lat="43.85776" lon="1.12075">
        <ele>216.620206</ele>
        <time>2023-01-01T11:49:22.472Z</time>
      </trkpt>
      <trkpt lat="43.8578" lon="1.1206">
        <ele>217.129108</ele>
        <time>2023-01-01T11:49:27.502Z</time>
      </trkpt>
      <trkpt lat="43.85782" lon="1.12045">
        <ele>217.642551</ele>
        <time>2023-01-01T11:49:32.491Z</time>
      </trkpt>
      <trkpt lat="43.85785" lon="1.1203">
        <ele>218.160621</ele>
        <time>2023-01-01T11:49:37.496Z</time>
      </trkpt>
      <trkpt lat="43.85789" lon="1.12016">
        <ele>218.667158</ele>
        <time>2023-01-01T11:49:42.499Z</time>
      </trkpt>
      <trkpt lat="43.85791" lon="1.12003">
        <ele>219.116067</ele>
        <time>2023-01-01T11:49:47.498Z</time>
      </trkpt>
      <trkpt lat="43.85793" lon="1.11989">
        <ele>219.576724</ele>
        <time>2023-01-01T11:49:52.501Z</time>
      </trkpt>
      <trkpt lat="43.85796" lon="1.11975">
        <ele>220.064318</ele>
        <time>2023-01-01T11:49:57.491Z</time>
      </trkpt>
      <trkpt lat="43.85798" lon="1.11961">
        <ele>220.53178</ele>
        <time>2023-01-01T11:50:02.500Z</time>
      </trkpt>
      <trkpt lat="43.85801" lon="1.11949">
        <ele>220.913139</ele>
        <time>2023-01-01T11:50:07.481Z</time>
      </trkpt>
      <trkpt lat="43.85803" lon="1.11936">
        <ele>221.295895</ele>
        <time>2023-01-01T11:50:12.481Z</time>
      </trkpt>
      <trkpt lat="43.85806" lon="1.11923">
        <ele>221.692868</ele>
        <time>2023-01-01T11:50:17.488Z</time>
      </trkpt>
      <trkpt lat="43.85808" lon="1.11909">
        <ele>222.101503</ele>
        <time>2023-01-01T11:50:22.490Z</time>
      </trkpt>
      <trkpt lat="43.85811" lon="1.11895">
        <ele>222.530456</ele>
        <time>2023-01-01T11:50:27.497Z</time>
      </trkpt>
      <trkpt lat="43.85814" lon="1.11882">
        <ele>222.936975</ele>
        <time>2023-01-01T11:50:32.487Z</time>
      </trkpt>
      <trkpt lat="43.85816" lon="1.11869">
        <ele>223.338673</ele>
        <time>2023-01-01T11:50:37.497Z</time>
      </trkpt>
      <trkpt lat="43.85818" lon="1.11855">
        <ele>223.746327</ele>
        <time>2023-01-01T11:50:42.481Z</time>
      </trkpt>
      <trkpt lat="43.85821" lon="1.11843">
        <ele>224.130468</ele>
        <time>2023-01-01T11:50:47.498Z</time>
      </trkpt>
      <trkpt lat="43.85823" lon="1.1183">
        <ele>224.520035</ele>
        <time>2023-01-01T11:50:52.488Z</time>
      </trkpt>
      <trkpt lat="43.85825" lon="1.11818">
        <ele>224.889713</ele>
        <time>2023-01-01T11:50:57.494Z</time>
      </trkpt>
      <trkpt lat="43.85827" lon="1.11804">
        <ele>225.30234</ele>
        <time>2023-01-01T11:51:02.495Z</time>
      </trkpt>
      <trkpt lat="43.85829" lon="1.1179">
        <ele>225.708444</ele>
        <time>2023-01-01T11:51:07.487Z</time>
      </trkpt>
      <trkpt lat="43.85831" lon="1.11776">
        <ele>226.125413</ele>
        <time>2023-01-01T11:51:12.495Z</time>
      </trkpt>
      <trkpt lat="43.85832" lon="1.11763">
        <ele>226.502745</ele>
        <time>2023-01-01T11:51:17.486Z</time>
      </trkpt>
      <trkpt lat="43.85834" lon="1.11749">
        <ele>226.939373</ele>
        <time>2023-01-01T11:51:22.492Z</time>
      </trkpt>
      <trkpt lat="43.85835" lon="1.11734">
        <ele>227.386009</ele>
        <time>2023-01-01T11:51:27.496Z</time>
      </trkpt>
      <trkpt lat="43.85836" lon="1.11721">
        <ele>227.755869</ele>
        <time>2023-01-01T11:51:31.490Z</time>
      </trkpt>
      <trkpt lat="43.85837" lon="1.11706">
        <ele>228.164575</ele>
        <time>2023-01-01T11:51:36.488Z</time>
      </trkpt>
      <trkpt lat="43.85838" lon="1.11693">
        <ele>228.500251</ele>
        <time>2023-01-01T11:51:40.503Z</time>
      </trkpt>
      <trkpt lat="43.85838" lon="1.1168">
        <ele>228.829893</ele>
        <time>2023-01-01T11:51:44.489Z</time>
      </trkpt>
      <trkpt lat="43.85839" lon="1.11667">
        <ele>229.176063</ele>
        <time>2023-01-01T11:51:48.494Z</time>
      </trkpt>
      <trkpt lat="43.85839" lon="1.11654">
        <ele>229.515731</ele>
        <time>2023-01-01T11:51:52.495Z</time>
      </trkpt>
      <trkpt lat="43.85839" lon="1.11642">
        <ele>229.855478</ele>
        <time>2023-01-01T11:51:56.488Z</time>
      </trkpt>
      <trkpt lat="43.8584" lon="1.11628">
        <ele>230.200895</ele>
        <time>2023-01-01T11:52:00.502Z</time>
      </trkpt>
      <trkpt lat="43.8584" lon="1.11615">
        <ele>230.559014</ele>
        <time>2023-01-01T11:52:04.493Z</time>
      </trkpt>
      <trkpt lat="43.8584" lon="1.11602">
        <ele>230.909233</ele>
        <time>2023-01-01T11:52:08.497Z</time>
      </trkpt>
      <trkpt lat="43.85839" lon="1.11588">
        <ele>231.268003</ele>
        <time>2023-01-01T11:52:12.496Z</time>
      </trkpt>
      <trkpt lat="43.85839" lon="1.11575">
        <ele>231.61626</ele>
        <time>2023-01-01T11:52:16.501Z</time>
      </trkpt>
      <trkpt lat="43.85839" lon="1.11559">
        <ele>232.019139</ele>
        <time>2023-01-01T11:52:20.482Z</time>
      </trkpt>
      <trkpt lat="43.85838" lon="1.11543">
        <ele>232.443208</ele>
        <time>2023-01-01T11:52:24.505Z</time>
      </trkpt>
      <trkpt lat="43.85837" lon="1.11527">
        <ele>232.872821</ele>
        <time>2023-01-01T11:52:28.495Z</time>
      </trkpt>
      <trkpt lat="43.85835" lon="1.11512">
        <ele>233.27939</ele>
        <time>2023-01-01T11:52:32.496Z</time>
      </trkpt>
      <trkpt lat="43.85834" lon="1.11497">
        <ele>233.683351</ele>
        <time>2023-01-01T11:52:36.470Z</time>
      </trkpt>
      <trkpt lat="43.85832" lon="1.11482">
        <ele>234.072197</ele>
        <time>2023-01-01T11:52:40.493Z</time>
      </trkpt>
      <trkpt lat="43.85831" lon="1.11468">
        <ele>234.129701</ele>
        <time>2023-01-01T11:52:44.488Z</time>
      </trkpt>
      <trkpt lat="43.85829" lon="1.11455">
        <ele>233.691481</ele>
        <time>2023-01-01T11:52:48.496Z</time>
      </trkpt>
      <trkpt lat="43.85827" lon="1.11439">
        <ele>233.158291</ele>
        <time>2023-01-01T11:52:52.480Z</time>
      </trkpt>
      <trkpt lat="43.85825" lon="1.11426">
        <ele>232.739839</ele>
        <time>2023-01-01T11:52:55.500Z</time>
      </trkpt>
      <trkpt lat="43.85823" lon="1.11413">
        <ele>232.289426</ele>
        <time>2023-01-01T11:52:58.502Z</time>
      </trkpt>
      <trkpt lat="43.85821" lon="1.11399">
        <ele>231.823348</ele>
        <time>2023-01-01T11:53:01.502Z</time>
      </trkpt>
      <trkpt lat="43.85818" lon="1.11383">
        <ele>231.29565</ele>
        <time>2023-01-01T11:53:04.502Z</time>
      </trkpt>
      <trkpt lat="43.85817" lon="1.11366">
        <ele>230.73475</ele>
        <time>2023-01-01T11:53:07.494Z</time>
      </trkpt>
      <trkpt lat="43.85815" lon="1.11349">
        <ele>230.187415</ele>
        <time>2023-01-01T11:53:10.499Z</time>
      </trkpt>
      <trkpt lat="43.85813" lon="1.11332">
        <ele>229.618034</ele>
        <time>2023-01-01T11:53:13.491Z</time>
      </trkpt>
      <trkpt lat="43.85811" lon="1.11314">
        <ele>229.02301</ele>
        <time>2023-01-01T11:53:16.492Z</time>
      </trkpt>
      <trkpt lat="43.85809" lon="1.11301">
        <ele>228.596808</ele>
        <time>2023-01-01T11:53:18.482Z</time>
      </trkpt>
      <trkpt lat="43.85807" lon="1.11289">
        <ele>228.183428</ele>
        <time>2023-01-01T11:53:20.481Z</time>
      </trkpt>
      <trkpt lat="43.85805" lon="1.1127">
        <ele>227.557015</ele>
        <time>2023-01-01T11:53:23.496Z</time>
      </trkpt>
      <trkpt lat="43.85803" lon="1.11257">
        <ele>227.115576</ele>
        <time>2023-01-01T11:53:25.498Z</time>
      </trkpt>
      <trkpt lat="43.85801" lon="1.11244">
        <ele>226.696644</ele>
        <time>2023-01-01T11:53:27.492Z</time>
      </trkpt>
      <trkpt lat="43.85799" lon="1.11232">
        <ele>226.267572</ele>
        <time>2023-01-01T11:53:29.499Z</time>
      </trkpt>
      <trkpt lat="43.85797" lon="1.11218">
        <ele>225.43049</ele>
        <time>2023-01-01T11:53:31.490Z</time>
      </trkpt>
      <trkpt lat="43.85794" lon="1.11205">
        <ele>224.482429</ele>
        <time>2023-01-01T11:53:33.500Z</time>
      </trkpt>
      <trkpt lat="43.85793" lon="1.11192">
        <ele>223.518892</ele>
        <time>2023-01-01T11:53:35.498Z</time>
      </trkpt>
      <trkpt lat="43.85791" lon="1.11177">
        <ele>222.479452</ele>
        <time>2023-01-01T11:53:37.500Z</time>
      </trkpt>
      <trkpt lat="43.85789" lon="1.11162">
        <ele>221.4119</ele>
        <time>2023-01-01T11:53:39.472Z</time>
      </trkpt>
      <trkpt lat="43.85787" lon="1.11147">
        <ele>220.294207</ele>
        <time>2023-01-01T11:53:41.495Z</time>
      </trkpt>
      <trkpt lat="43.85785" lon="1.11131">
        <ele>219.14321</ele>
        <time>2023-01-01T11:53:43.502Z</time>
      </trkpt>
      <trkpt lat="43.85784" lon="1.11115">
        <ele>218.035871</ele>
        <time>2023-01-01T11:53:45.496Z</time>
      </trkpt>
      <trkpt lat="43.85783" lon="1.11099">
        <ele>216.866096</ele>
        <time>2023-01-01T11:53:47.496Z</time>
      </trkpt>
      <trkpt lat="43.85783" lon="1.11083">
        <ele>215.742776</ele>
        <time>2023-01-01T11:53:49.496Z</time>
      </trkpt>
      <trkpt lat="43.85783" lon="1.11067">
        <ele>214.605328</ele>
        <time>2023-01-01T11:53:51.490Z</time>
      </trkpt>
      <trkpt lat="43.85784" lon="1.11051">
        <ele>213.476892</ele>
        <time>2023-01-01T11:53:53.482Z</time>
      </trkpt>
      <trkpt lat="43.85786" lon="1.11036">
        <ele>212.40135</ele>
        <time>2023-01-01T11:53:55.500Z</time>
      </trkpt>
      <trkpt lat="43.85787" lon="1.1102">
        <ele>211.268501</ele>
        <time>2023-01-01T11:53:57.502Z</time>
      </trkpt>
      <trkpt lat="43.85789" lon="1.11004">
        <ele>210.166347</ele>
        <time>2023-01-01T11:53:59.497Z</time>
      </trkpt>
      <trkpt lat="43.85791" lon="1.10988">
        <ele>209.015639</ele>
        <time>2023-01-01T11:54:01.500Z</time>
      </trkpt>
      <trkpt lat="43.85794" lon="1.10972">
        <ele>207.920018</ele>
        <time>2023-01-01T11:54:03.496Z</time>
      </trkpt>
      <trkpt lat="43.85798" lon="1.10955">
        <ele>206.888849</ele>
        <time>2023-01-01T11:54:05.480Z</time>
      </trkpt>
      <trkpt lat="43.85803" lon="1.10938">
        <ele>205.793462</ele>
        <time>2023-01-01T11:54:07.470Z</time>
      </trkpt>
      <trkpt lat="43.85808" lon="1.10922">
        <ele>204.735683</ele>
        <time>2023-01-01T11:54:09.476Z</time>
      </trkpt>
      <trkpt lat="43.85814" lon="1.10905">
        <ele>203.661191</ele>
        <time>2023-01-01T11:54:11.482Z</time>
      </trkpt>
      <trkpt lat="43.85819" lon="1.10888">
        <ele>202.547432</ele>
        <time>2023-01-01T11:54:13.474Z</time>
      </trkpt>
      <trkpt lat="43.85826" lon="1.10872">
        <ele>201.452381</ele>
        <time>2023-01-01T11:54:15.471Z</time>
      </trkpt>
      <trkpt lat="43.85833" lon="1.10857">
        <ele>200.350739</ele>
        <time>2023-01-01T11:54:17.492Z</time>
      </trkpt>
      <trkpt lat="43.8584" lon="1.1084">
        <ele>199.214356</ele>
        <time>2023-01-01T11:54:19.497Z</time>
      </trkpt>
      <trkpt lat="43.85847" lon="1.10824">
        <ele>198.074456</ele>
        <time>2023-01-01T11:54:21.505Z</time>
      </trkpt>
      <trkpt lat="43.85855" lon="1.10807">
        <ele>196.91133</ele>
        <time>2023-01-01T11:54:23.492Z</time>
      </trkpt>
      <trkpt lat="43.85862" lon="1.10791">
        <ele>195.762757</ele>
        <time>2023-01-01T11:54:25.473Z</time>
      </trkpt>
      <trkpt lat="43.85869" lon="1.10774">
        <ele>194.625481</ele>
        <time>2023-01-01T11:54:27.493Z</time>
      </trkpt>
      <trkpt lat="43.85876" lon="1.10756">
        <ele>193.602995</ele>
        <time>2023-01-01T11:54:29.500Z</time>
      </trkpt>
      <trkpt lat="43.85883" lon="1.10739">
        <ele>193.143512</ele>
        <time>2023-01-01T11:54:31.493Z</time>
      </trkpt>
      <trkpt lat="43.85891" lon="1.10721">
        <ele>192.653922</ele>
        <time>2023-01-01T11:54:33.493Z</time>
      </trkpt>
      <trkpt lat="43.859" lon="1.10703">
        <ele>192.140905</ele>
        <time>2023-01-01T11:54:35.491Z</time>
      </trkpt>
      <trkpt lat="43.8591" lon="1.10686">
        <ele>191.621891</ele>
        <time>2023-01-01T11:54:37.482Z</time>
      </trkpt>
      <trkpt lat="43.85922" lon="1.10669">
        <ele>191.086045</ele>
        <time>2023-01-01T11:54:39.473Z</time>
      </trkpt>
      <trkpt lat="43.85932" lon="1.10652">
        <ele>190.565661</ele>
        <time>2023-01-01T11:54:41.493Z</time>
      </trkpt>
      <trkpt lat="43.85942" lon="1.10634">
        <ele>190.046649</ele>
        <time>2023-01-01T11:54:43.493Z</time>
      </trkpt>
      <trkpt lat="43.85951" lon="1.1062">
        <ele>189.6019</ele>
        <time>2023-01-01T11:54:45.497Z</time>
      </trkpt>
      <trkpt lat="43.85959" lon="1.10605">
        <ele>189.1811</ele>
        <time>2023-01-01T11:54:47.508Z</time>
      </trkpt>
      <trkpt lat="43.85967" lon="1.10592">
        <ele>188.803229</ele>
        <time>2023-01-01T11:54:49.501Z</time>
      </trkpt>
      <trkpt lat="43.85973" lon="1.1058">
        <ele>188.461403</ele>
        <time>2023-01-01T11:54:51.496Z</time>
      </trkpt>
      <trkpt lat="43.85979" lon="1.10569">
        <ele>188.134467</ele>
        <time>2023-01-01T11:54:53.497Z</time>
      </trkpt>
      <trkpt lat="43.85985" lon="1.10558">
        <ele>187.988912</ele>
        <time>2023-01-01T11:54:55.501Z</time>
      </trkpt>
      <trkpt lat="43.85991" lon="1.10547">
        <ele>188.102249</ele>
        <time>2023-01-01T11:54:57.496Z</time>
      </trkpt>
      <trkpt lat="43.85996" lon="1.10536">
        <ele>188.209339</ele>
        <time>2023-01-01T11:54:59.490Z</time>
      </trkpt>
      <trkpt lat="43.86003" lon="1.10523">
        <ele>188.350376</ele>
        <time>2023-01-01T11:55:02.487Z</time>
      </trkpt>
      <trkpt lat="43.86011" lon="1.1051">
        <ele>188.497333</ele>
        <time>2023-01-01T11:55:05.489Z</time>
      </trkpt>
      <trkpt lat="43.86019" lon="1.10496">
        <ele>188.643205</ele>
        <time>2023-01-01T11:55:08.493Z</time>
      </trkpt>
      <trkpt lat="43.86026" lon="1.10483">
        <ele>188.786337</ele>
        <time>2023-01-01T11:55:11.493Z</time>
      </trkpt>
      <trkpt lat="43.86035" lon="1.10472">
        <ele>188.932909</ele>
        <time>2023-01-01T11:55:14.496Z</time>
      </trkpt>
      <trkpt lat="43.86046" lon="1.10461">
        <ele>189.0887</ele>
        <time>2023-01-01T11:55:17.491Z</time>
      </trkpt>
      <trkpt lat="43.86055" lon="1.10448">
        <ele>189.243698</ele>
        <time>2023-01-01T11:55:20.478Z</time>
      </trkpt>
      <trkpt lat="43.8606" lon="1.10431">
        <ele>189.398396</ele>
        <time>2023-01-01T11:55:23.475Z</time>
      </trkpt>
      <trkpt lat="43.86067" lon="1.10415">
        <ele>189.555841</ele>
        <time>2023-01-01T11:55:26.499Z</time>
      </trkpt>
      <trkpt lat="43.86074" lon="1.104">
        <ele>189.70997</ele>
        <time>2023-01-01T11:55:29.481Z</time>
      </trkpt>
      <trkpt lat="43.8608" lon="1.10388">
        <ele>189.835764</ele>
        <time>2023-01-01T11:55:32.502Z</time>
      </trkpt>
      <trkpt lat="43.86086" lon="1.10376">
        <ele>189.960221</ele>
        <time>2023-01-01T11:55:36.473Z</time>
      </trkpt>
      <trkpt lat="43.86092" lon="1.10365">
        <ele>190.115387</ele>
        <time>2023-01-01T11:55:40.482Z</time>
      </trkpt>
      <trkpt lat="43.86098" lon="1.10355">
        <ele>190.580056</ele>
        <time>2023-01-01T11:55:44.487Z</time>
      </trkpt>
      <trkpt lat="43.86104" lon="1.10344">
        <ele>191.064032</ele>
        <time>2023-01-01T11:55:48.494Z</time>
      </trkpt>
      <trkpt lat="43.8611" lon="1.10332">
        <ele>191.542289</ele>
        <time>2023-01-01T11:55:52.491Z</time>
      </trkpt>
      <trkpt lat="43.86117" lon="1.10322">
        <ele>192.045132</ele>
        <time>2023-01-01T11:55:57.473Z</time>
      </trkpt>
      <trkpt lat="43.86123" lon="1.10312">
        <ele>192.484454</ele>
        <time>2023-01-01T11:56:02.474Z</time>
      </trkpt>
      <trkpt lat="43.86129" lon="1.10301">
        <ele>192.974055</ele>
        <time>2023-01-01T11:56:07.473Z</time>
      </trkpt>
      <trkpt lat="43.86135" lon="1.10291">
        <ele>193.436004</ele>
        <time>2023-01-01T11:56:12.494Z</time>
      </trkpt>
      <trkpt lat="43.8614" lon="1.1028">
        <ele>193.911417</ele>
        <time>2023-01-01T11:56:17.471Z</time>
      </trkpt>
      <trkpt lat="43.86146" lon="1.10269">
        <ele>194.387059</ele>
        <time>2023-01-01T11:56:22.500Z</time>
      </trkpt>
      <trkpt lat="43.86153" lon="1.10257">
        <ele>194.885379</ele>
        <time>2023-01-01T11:56:27.491Z</time>
      </trkpt>
      <trkpt lat="43.86159" lon="1.10247">
        <ele>195.361248</ele>
        <time>2023-01-01T11:56:32.483Z</time>
      </trkpt>
      <trkpt lat="43.86164" lon="1.10235">
        <ele>195.858144</ele>
        <time>2023-01-01T11:56:37.496Z</time>
      </trkpt>
      <trkpt lat="43.86169" lon="1.10224">
        <ele>196.30853</ele>
        <time>2023-01-01T11:56:42.471Z</time>
      </trkpt>
      <trkpt lat="43.86175" lon="1.10214">
        <ele>196.745077</ele>
        <time>2023-01-01T11:56:47.474Z</time>
      </trkpt>
      <trkpt lat="43.86182" lon="1.10204">
        <ele>197.223868</ele>
        <time>2023-01-01T11:56:52.482Z</time>
      </trkpt>
      <trkpt lat="43.86188" lon="1.10193">
        <ele>197.7031</ele>
        <time>2023-01-01T11:56:57.475Z</time>
      </trkpt>
      <trkpt lat="43.86194" lon="1.10183">
        <ele>198.172796</ele>
        <time>2023-01-01T11:57:02.492Z</time>
      </trkpt>
      <trkpt lat="43.86201" lon="1.10174">
        <ele>198.617237</ele>
        <time>2023-01-01T11:57:07.484Z</time>
      </trkpt>
      <trkpt lat="43.86207" lon="1.10163">
        <ele>199.1891</ele>
        <time>2023-01-01T11:57:13.484Z</time>
      </trkpt>
      <trkpt lat="43.86212" lon="1.1015">
        <ele>199.834969</ele>
        <time>2023-01-01T11:57:19.475Z</time>
      </trkpt>
      <trkpt lat="43.86219" lon="1.10138">
        <ele>200.470633</ele>
        <time>2023-01-01T11:57:25.474Z</time>
      </trkpt>
      <trkpt lat="43.86225" lon="1.10128">
        <ele>201.071879</ele>
        <time>2023-01-01T11:57:31.477Z</time>
      </trkpt>
      <trkpt lat="43.86231" lon="1.10118">
        <ele>201.616863</ele>
        <time>2023-01-01T11:57:36.474Z</time>
      </trkpt>
      <trkpt lat="43.86238" lon="1.10108">
        <ele>202.229</ele>
        <time>2023-01-01T11:57:42.475Z</time>
      </trkpt>
      <trkpt lat="43.86245" lon="1.10098">
        <ele>202.839044</ele>
        <time>2023-01-01T11:57:48.475Z</time>
      </trkpt>
      <trkpt lat="43.86251" lon="1.10086">
        <ele>203.445953</ele>
        <time>2023-01-01T11:57:55.478Z</time>
      </trkpt>
      <trkpt lat="43.86257" lon="1.10076">
        <ele>204.033394</ele>
        <time>2023-01-01T11:58:01.474Z</time>
      </trkpt>
      <trkpt lat="43.86263" lon="1.10065">
        <ele>204.605433</ele>
        <time>2023-01-01T11:58:07.484Z</time>
      </trkpt>
      <trkpt lat="43.86269" lon="1.10054">
        <ele>205.215921</ele>
        <time>2023-01-01T11:58:13.482Z</time>
      </trkpt>
      <trkpt lat="43.86275" lon="1.10043">
        <ele>205.801786</ele>
        <time>2023-01-01T11:58:19.476Z</time>
      </trkpt>
      <trkpt lat="43.8628" lon="1.10032">
        <ele>206.39466</ele>
        <time>2023-01-01T11:58:25.484Z</time>
      </trkpt>
      <trkpt lat="43.86286" lon="1.10022">
        <ele>206.940191</ele>
        <time>2023-01-01T11:58:31.482Z</time>
      </trkpt>
      <trkpt lat="43.86292" lon="1.10011">
        <ele>207.540332</ele>
        <time>2023-01-01T11:58:37.469Z</time>
      </trkpt>
      <trkpt lat="43.86298" lon="1.09999">
        <ele>208.136744</ele>
        <time>2023-01-01T11:58:43.490Z</time>
      </trkpt>
      <trkpt lat="43.86304" lon="1.09988">
        <ele>208.747225</ele>
        <time>2023-01-01T11:58:49.467Z</time>
      </trkpt>
      <trkpt lat="43.8631" lon="1.09977">
        <ele>209.33714</ele>
        <time>2023-01-01T11:58:55.473Z</time>
      </trkpt>
      <trkpt lat="43.86315" lon="1.09966">
        <ele>209.958887</ele>
        <time>2023-01-01T11:59:01.474Z</time>
      </trkpt>
      <trkpt lat="43.86321" lon="1.09956">
        <ele>210.588436</ele>
        <time>2023-01-01T11:59:07.478Z</time>
      </trkpt>
      <trkpt lat="43.86327" lon="1.09944">
        <ele>211.302084</ele>
        <time>2023-01-01T11:59:14.478Z</time>
      </trkpt>
      <trkpt lat="43.86333" lon="1.09934">
        <ele>211.928537</ele>
        <time>2023-01-01T11:59:20.479Z</time>
      </trkpt>
      <trkpt lat="43.86339" lon="1.09924">
        <ele>212.555485</ele>
        <time>2023-01-01T11:59:26.472Z</time>
      </trkpt>
      <trkpt lat="43.86344" lon="1.09913">
        <ele>213.20941</ele>
        <time>2023-01-01T11:59:32.478Z</time>
      </trkpt>
      <trkpt lat="43.86349" lon="1.09902">
        <ele>213.855195</ele>
        <time>2023-01-01T11:59:38.473Z</time>
      </trkpt>
      <trkpt lat="43.86356" lon="1.09891">
        <ele>214.565559</ele>
        <time>2023-01-01T11:59:45.472Z</time>
      </trkpt>
      <trkpt lat="43.86361" lon="1.09879">
        <ele>215.254792</ele>
        <time>2023-01-01T11:59:51.473Z</time>
      </trkpt>
      <trkpt lat="43.86366" lon="1.09868">
        <ele>215.894257</ele>
        <time>2023-01-01T11:59:57.493Z</time>
      </trkpt>
      <trkpt lat="43.86372" lon="1.09856">
        <ele>216.603011</ele>
        <time>2023-01-01T12:00:03.475Z</time>
      </trkpt>
      <trkpt lat="43.86378" lon="1.09844">
        <ele>217.272551</ele>
        <time>2023-01-01T12:00:09.473Z</time>
      </trkpt>
      <trkpt lat="43.86383" lon="1.09833">
        <ele>217.946529</ele>
        <time>2023-01-01T12:00:16.472Z</time>
      </trkpt>
      <trkpt lat="43.86388" lon="1.09823">
        <ele>218.560228</ele>
        <time>2023-01-01T12:00:22.476Z</time>
      </trkpt>
      <trkpt lat="43.86394" lon="1.0981">
        <ele>219.257044</ele>
        <time>2023-01-01T12:00:28.477Z</time>
      </trkpt>
      <trkpt lat="43.86399" lon="1.09798">
        <ele>219.974096</ele>
        <time>2023-01-01T12:00:34.476Z</time>
      </trkpt>
      <trkpt lat="43.86404" lon="1.09786">
        <ele>220.638769</ele>
        <time>2023-01-01T12:00:39.474Z</time>
      </trkpt>
      <trkpt lat="43.8641" lon="1.09774">
        <ele>221.352071</ele>
        <time>2023-01-01T12:00:45.477Z</time>
      </trkpt>
      <trkpt lat="43.86415" lon="1.09763">
        <ele>222.033063</ele>
        <time>2023-01-01T12:00:50.477Z</time>
      </trkpt>
      <trkpt lat="43.8642" lon="1.09752">
        <ele>222.762512</ele>
        <time>2023-01-01T12:00:55.483Z</time>
      </trkpt>
      <trkpt lat="43.86426" lon="1.09741">
        <ele>223.48548</ele>
        <time>2023-01-01T12:01:00.501Z</time>
      </trkpt>
      <trkpt lat="43.86431" lon="1.09731">
        <ele>224.190175</ele>
        <time>2023-01-01T12:01:05.470Z</time>
      </trkpt>
      <trkpt lat="43.86436" lon="1.0972">
        <ele>224.899452</ele>
        <time>2023-01-01T12:01:10.497Z</time>
      </trkpt>
      <trkpt lat="43.86441" lon="1.09708">
        <ele>225.654948</ele>
        <time>2023-01-01T12:01:16.481Z</time>
      </trkpt>
      <trkpt lat="43.86447" lon="1.09697">
        <ele>226.463405</ele>
        <time>2023-01-01T12:01:22.471Z</time>
      </trkpt>
      <trkpt lat="43.86452" lon="1.09685">
        <ele>227.227161</ele>
        <time>2023-01-01T12:01:28.474Z</time>
      </trkpt>
      <trkpt lat="43.86457" lon="1.09674">
        <ele>227.931364</ele>
        <time>2023-01-01T12:01:33.483Z</time>
      </trkpt>
      <trkpt lat="43.86462" lon="1.09664">
        <ele>228.628998</ele>
        <time>2023-01-01T12:01:38.484Z</time>
      </trkpt>
      <trkpt lat="43.86466" lon="1.09653">
        <ele>229.337043</ele>
        <time>2023-01-01T12:01:43.473Z</time>
      </trkpt>
      <trkpt lat="43.86471" lon="1.0964">
        <ele>230.13189</ele>
        <time>2023-01-01T12:01:49.476Z</time>
      </trkpt>
      <trkpt lat="43.86477" lon="1.09629">
        <ele>230.915213</ele>
        <time>2023-01-01T12:01:55.478Z</time>
      </trkpt>
      <trkpt lat="43.86482" lon="1.09618">
        <ele>231.617606</ele>
        <time>2023-01-01T12:02:00.477Z</time>
      </trkpt>
      <trkpt lat="43.86488" lon="1.09607">
        <ele>232.403838</ele>
        <time>2023-01-01T12:02:06.477Z</time>
      </trkpt>
      <trkpt lat="43.86493" lon="1.09595">
        <ele>233.163322</ele>
        <time>2023-01-01T12:02:12.466Z</time>
      </trkpt>
      <trkpt lat="43.86499" lon="1.09583">
        <ele>233.971856</ele>
        <time>2023-01-01T12:02:18.476Z</time>
      </trkpt>
      <trkpt lat="43.86504" lon="1.09572">
        <ele>234.728353</ele>
        <time>2023-01-01T12:02:24.478Z</time>
      </trkpt>
      <trkpt lat="43.8651" lon="1.0956">
        <ele>235.515393</ele>
        <time>2023-01-01T12:02:30.479Z</time>
      </trkpt>
      <trkpt lat="43.86513" lon="1.09547">
        <ele>236.133876</ele>
        <time>2023-01-01T12:02:36.481Z</time>
      </trkpt>
      <trkpt lat="43.86515" lon="1.09535">
        <ele>236.686328</ele>
        <time>2023-01-01T12:02:42.467Z</time>
      </trkpt>
      <trkpt lat="43.86512" lon="1.09523">
        <ele>237.250625</ele>
        <time>2023-01-01T12:02:48.469Z</time>
      </trkpt>
      <trkpt lat="43.86508" lon="1.09511">
        <ele>237.823637</ele>
        <time>2023-01-01T12:02:54.475Z</time>
      </trkpt>
      <trkpt lat="43.865" lon="1.09501">
        <ele>238.461406</ele>
        <time>2023-01-01T12:03:00.474Z</time>
      </trkpt>
      <trkpt lat="43.86492" lon="1.09494">
        <ele>239.033188</ele>
        <time>2023-01-01T12:03:06.476Z</time>
      </trkpt>
      <trkpt lat="43.86484" lon="1.09487">
        <ele>239.612137</ele>
        <time>2023-01-01T12:03:12.479Z</time>
      </trkpt>
      <trkpt lat="43.86478" lon="1.09479">
        <ele>240.164002</ele>
        <time>2023-01-01T12:03:17.482Z</time>
      </trkpt>
      <trkpt lat="43.86474" lon="1.09465">
        <ele>240.806782</ele>
        <time>2023-01-01T12:03:24.473Z</time>
      </trkpt>
      <trkpt lat="43.86473" lon="1.09451">
        <ele>241.431319</ele>
        <time>2023-01-01T12:03:30.471Z</time>
      </trkpt>
      <trkpt lat="43.86473" lon="1.09438">
        <ele>242.031978</ele>
        <time>2023-01-01T12:03:36.487Z</time>
      </trkpt>
      <trkpt lat="43.86475" lon="1.09425">
        <ele>242.613367</ele>
        <time>2023-01-01T12:03:42.478Z</time>
      </trkpt>
      <trkpt lat="43.86476" lon="1.09411">
        <ele>243.218381</ele>
        <time>2023-01-01T12:03:48.479Z</time>
      </trkpt>
      <trkpt lat="43.86478" lon="1.09398">
        <ele>243.817173</ele>
        <time>2023-01-01T12:03:54.476Z</time>
      </trkpt>
      <trkpt lat="43.86479" lon="1.09385">
        <ele>244.394157</ele>
        <time>2023-01-01T12:04:00.476Z</time>
      </trkpt>
      <trkpt lat="43.86481" lon="1.09371">
        <ele>244.998101</ele>
        <time>2023-01-01T12:04:06.484Z</time>
      </trkpt>
      <trkpt lat="43.86484" lon="1.09358">
        <ele>245.623656</ele>
        <time>2023-01-01T12:04:11.476Z</time>
      </trkpt>
      <trkpt lat="43.86488" lon="1.09345">
        <ele>246.226235</ele>
        <time>2023-01-01T12:04:16.480Z</time>
      </trkpt>
      <trkpt lat="43.86491" lon="1.09332">
        <ele>246.799632</ele>
        <time>2023-01-01T12:04:21.483Z</time>
      </trkpt>
      <trkpt lat="43.86493" lon="1.09319">
        <ele>247.269967</ele>
        <time>2023-01-01T12:04:26.472Z</time>
      </trkpt>
      <trkpt lat="43.86496" lon="1.09305">
        <ele>247.799017</ele>
        <time>2023-01-01T12:04:31.481Z</time>
      </trkpt>
      <trkpt lat="43.865" lon="1.09292">
        <ele>248.306039</ele>
        <time>2023-01-01T12:04:36.503Z</time>
      </trkpt>
      <trkpt lat="43.86504" lon="1.0928">
        <ele>248.791636</ele>
        <time>2023-01-01T12:04:41.503Z</time>
      </trkpt>
      <trkpt lat="43.86508" lon="1.09268">
        <ele>249.266493</ele>
        <time>2023-01-01T12:04:46.497Z</time>
      </trkpt>
      <trkpt lat="43.86511" lon="1.09256">
        <ele>249.734778</ele>
        <time>2023-01-01T12:04:52.477Z</time>
      </trkpt>
      <trkpt lat="43.86516" lon="1.09243">
        <ele>250.256249</ele>
        <time>2023-01-01T12:04:58.475Z</time>
      </trkpt>
      <trkpt lat="43.86521" lon="1.09231">
        <ele>250.75167</ele>
        <time>2023-01-01T12:05:03.471Z</time>
      </trkpt>
      <trkpt lat="43.86526" lon="1.0922">
        <ele>251.214929</ele>
        <time>2023-01-01T12:05:08.483Z</time>
      </trkpt>
      <trkpt lat="43.8653" lon="1.09207">
        <ele>251.71931</ele>
        <time>2023-01-01T12:05:13.473Z</time>
      </trkpt>
      <trkpt lat="43.86535" lon="1.09196">
        <ele>252.198592</ele>
        <time>2023-01-01T12:05:18.495Z</time>
      </trkpt>
      <trkpt lat="43.8654" lon="1.09184">
        <ele>252.676529</ele>
        <time>2023-01-01T12:05:24.481Z</time>
      </trkpt>
      <trkpt lat="43.86544" lon="1.09173">
        <ele>253.135469</ele>
        <time>2023-01-01T12:05:29.476Z</time>
      </trkpt>
      <trkpt lat="43.86548" lon="1.09161">
        <ele>253.601715</ele>
        <time>2023-01-01T12:05:34.474Z</time>
      </trkpt>
      <trkpt lat="43.86553" lon="1.0915">
        <ele>254.07021</ele>
        <time>2023-01-01T12:05:39.467Z</time>
      </trkpt>
      <trkpt lat="43.86558" lon="1.09137">
        <ele>254.599262</ele>
        <time>2023-01-01T12:05:44.483Z</time>
      </trkpt>
      <trkpt lat="43.86565" lon="1.09127">
        <ele>255.10427</ele>
        <time>2023-01-01T12:05:49.475Z</time>
      </trkpt>
      <trkpt lat="43.86573" lon="1.09118">
        <ele>255.587903</ele>
        <time>2023-01-01T12:05:54.494Z</time>
      </trkpt>
      <trkpt lat="43.86582" lon="1.09112">
        <ele>255.917076</ele>
        <time>2023-01-01T12:05:59.487Z</time>
      </trkpt>
      <trkpt lat="43.86591" lon="1.09109">
        <ele>256.195272</ele>
        <time>2023-01-01T12:06:03.484Z</time>
      </trkpt>
      <trkpt lat="43.866" lon="1.09107">
        <ele>256.47116</ele>
        <time>2023-01-01T12:06:07.492Z</time>
      </trkpt>
      <trkpt lat="43.8661" lon="1.09105">
        <ele>256.786766</ele>
        <time>2023-01-01T12:06:12.497Z</time>
      </trkpt>
      <trkpt lat="43.86621" lon="1.09102">
        <ele>257.101444</ele>
        <time>2023-01-01T12:06:17.486Z</time>
      </trkpt>
      <trkpt lat="43.86629" lon="1.09097">
        <ele>257.375306</ele>
        <time>2023-01-01T12:06:21.477Z</time>
      </trkpt>
      <trkpt lat="43.86636" lon="1.09089">
        <ele>257.661632</ele>
        <time>2023-01-01T12:06:25.480Z</time>
      </trkpt>
      <trkpt lat="43.86643" lon="1.09079">
        <ele>257.954221</ele>
        <time>2023-01-01T12:06:29.472Z</time>
      </trkpt>
      <trkpt lat="43.86648" lon="1.09066">
        <ele>258.280541</ele>
        <time>2023-01-01T12:06:34.503Z</time>
      </trkpt>
      <trkpt lat="43.8665" lon="1.09053">
        <ele>258.563736</ele>
        <time>2023-01-01T12:06:38.493Z</time>
      </trkpt>
      <trkpt lat="43.86648" lon="1.09038">
        <ele>258.89025</ele>
        <time>2023-01-01T12:06:43.472Z</time>
      </trkpt>
      <trkpt lat="43.86647" lon="1.09024">
        <ele>259.210887</ele>
        <time>2023-01-01T12:06:47.493Z</time>
      </trkpt>
      <trkpt lat="43.86646" lon="1.09009">
        <ele>259.537759</ele>
        <time>2023-01-01T12:06:51.496Z</time>
      </trkpt>
      <trkpt lat="43.86644" lon="1.08996">
        <ele>259.828222</ele>
        <time>2023-01-01T12:06:55.484Z</time>
      </trkpt>
      <trkpt lat="43.86643" lon="1.08982">
        <ele>260.139904</ele>
        <time>2023-01-01T12:06:59.496Z</time>
      </trkpt>
      <trkpt lat="43.86643" lon="1.08969">
        <ele>260.41689</ele>
        <time>2023-01-01T12:07:02.493Z</time>
      </trkpt>
      <trkpt lat="43.86641" lon="1.08956">
        <ele>260.699548</ele>
        <time>2023-01-01T12:07:05.482Z</time>
      </trkpt>
      <trkpt lat="43.86641" lon="1.08942">
        <ele>261.021811</ele>
        <time>2023-01-01T12:07:09.476Z</time>
      </trkpt>
      <trkpt lat="43.8664" lon="1.08928">
        <ele>261.50178</ele>
        <time>2023-01-01T12:07:13.488Z</time>
      </trkpt>
      <trkpt lat="43.86639" lon="1.08915">
        <ele>262.022257</ele>
        <time>2023-01-01T12:07:17.488Z</time>
      </trkpt>
      <trkpt lat="43.86637" lon="1.08901">
        <ele>262.575774</ele>
        <time>2023-01-01T12:07:21.508Z</time>
      </trkpt>
      <trkpt lat="43.86636" lon="1.08885">
        <ele>263.165744</ele>
        <time>2023-01-01T12:07:25.503Z</time>
      </trkpt>
      <trkpt lat="43.86635" lon="1.0887">
        <ele>263.733869</ele>
        <time>2023-01-01T12:07:29.488Z</time>
      </trkpt>
      <trkpt lat="43.86634" lon="1.08855">
        <ele>264.314551</ele>
        <time>2023-01-01T12:07:33.498Z</time>
      </trkpt>
      <trkpt lat="43.86633" lon="1.08841">
        <ele>264.868069</ele>
        <time>2023-01-01T12:07:37.497Z</time>
      </trkpt>
      <trkpt lat="43.86631" lon="1.08826">
        <ele>265.440327</ele>
        <time>2023-01-01T12:07:41.502Z</time>
      </trkpt>
      <trkpt lat="43.8663" lon="1.0881">
        <ele>266.06091</ele>
        <time>2023-01-01T12:07:45.475Z</time>
      </trkpt>
      <trkpt lat="43.86629" lon="1.08794">
        <ele>266.670349</ele>
        <time>2023-01-01T12:07:49.501Z</time>
      </trkpt>
      <trkpt lat="43.86628" lon="1.08779">
        <ele>267.245097</ele>
        <time>2023-01-01T12:07:53.492Z</time>
      </trkpt>
      <trkpt lat="43.86627" lon="1.08764">
        <ele>267.81943</ele>
        <time>2023-01-01T12:07:57.496Z</time>
      </trkpt>
      <trkpt lat="43.86625" lon="1.08751">
        <ele>268.33054</ele>
        <time>2023-01-01T12:08:01.479Z</time>
      </trkpt>
      <trkpt lat="43.86624" lon="1.08736">
        <ele>268.886264</ele>
        <time>2023-01-01T12:08:05.471Z</time>
      </trkpt>
      <trkpt lat="43.86623" lon="1.0872">
        <ele>269.519705</ele>
        <time>2023-01-01T12:08:09.497Z</time>
      </trkpt>
      <trkpt lat="43.86621" lon="1.08707">
        <ele>270.005732</ele>
        <time>2023-01-01T12:08:12.492Z</time>
      </trkpt>
      <trkpt lat="43.8662" lon="1.08694">
        <ele>270.537159</ele>
        <time>2023-01-01T12:08:15.490Z</time>
      </trkpt>
      <trkpt lat="43.86619" lon="1.08681">
        <ele>270.667675</ele>
        <time>2023-01-01T12:08:18.495Z</time>
      </trkpt>
      <trkpt lat="43.86618" lon="1.08667">
        <ele>270.760536</ele>
        <time>2023-01-01T12:08:21.496Z</time>
      </trkpt>
      <trkpt lat="43.86617" lon="1.08653">
        <ele>270.862004</ele>
        <time>2023-01-01T12:08:24.498Z</time>
      </trkpt>
      <trkpt lat="43.86616" lon="1.08637">
        <ele>270.973127</ele>
        <time>2023-01-01T12:08:27.502Z</time>
      </trkpt>
      <trkpt lat="43.86614" lon="1.08621">
        <ele>271.085861</ele>
        <time>2023-01-01T12:08:30.502Z</time>
      </trkpt>
      <trkpt lat="43.86613" lon="1.08605">
        <ele>271.196407</ele>
        <time>2023-01-01T12:08:33.501Z</time>
      </trkpt>
      <trkpt lat="43.86611" lon="1.0859">
        <ele>271.300633</ele>
        <time>2023-01-01T12:08:36.496Z</time>
      </trkpt>
      <trkpt lat="43.8661" lon="1.08576">
        <ele>271.402913</ele>
        <time>2023-01-01T12:08:39.505Z</time>
      </trkpt>
      <trkpt lat="43.86609" lon="1.08561">
        <ele>271.506013</ele>
        <time>2023-01-01T12:08:42.491Z</time>
      </trkpt>
      <trkpt lat="43.86607" lon="1.08546">
        <ele>271.610406</ele>
        <time>2023-01-01T12:08:45.497Z</time>
      </trkpt>
      <trkpt lat="43.86605" lon="1.08531">
        <ele>271.718321</ele>
        <time>2023-01-01T12:08:48.479Z</time>
      </trkpt>
      <trkpt lat="43.86604" lon="1.08516">
        <ele>271.823125</ele>
        <time>2023-01-01T12:08:51.494Z</time>
      </trkpt>
      <trkpt lat="43.86603" lon="1.08501">
        <ele>271.925065</ele>
        <time>2023-01-01T12:08:54.499Z</time>
      </trkpt>
      <trkpt lat="43.86601" lon="1.08488">
        <ele>272.018702</ele>
        <time>2023-01-01T12:08:57.475Z</time>
      </trkpt>
      <trkpt lat="43.866" lon="1.08473">
        <ele>272.121437</ele>
        <time>2023-01-01T12:09:00.493Z</time>
      </trkpt>
      <trkpt lat="43.86599" lon="1.08458">
        <ele>272.227622</ele>
        <time>2023-01-01T12:09:03.479Z</time>
      </trkpt>
      <trkpt lat="43.86597" lon="1.08443">
        <ele>272.344984</ele>
        <time>2023-01-01T12:09:06.503Z</time>
      </trkpt>
      <trkpt lat="43.86596" lon="1.08429">
        <ele>272.623777</ele>
        <time>2023-01-01T12:09:09.498Z</time>
      </trkpt>
      <trkpt lat="43.86595" lon="1.08415">
        <ele>272.898255</ele>
        <time>2023-01-01T12:09:12.503Z</time>
      </trkpt>
      <trkpt lat="43.86594" lon="1.084">
        <ele>273.180852</ele>
        <time>2023-01-01T12:09:15.493Z</time>
      </trkpt>
      <trkpt lat="43.86593" lon="1.08385">
        <ele>273.459935</ele>
        <time>2023-01-01T12:09:18.480Z</time>
      </trkpt>
      <trkpt lat="43.86591" lon="1.08371">
        <ele>273.742727</ele>
        <time>2023-01-01T12:09:21.496Z</time>
      </trkpt>
      <trkpt lat="43.8659" lon="1.08356">
        <ele>274.02889</ele>
        <time>2023-01-01T12:09:24.495Z</time>
      </trkpt>
      <trkpt lat="43.86589" lon="1.08341">
        <ele>274.323792</ele>
        <time>2023-01-01T12:09:27.504Z</time>
      </trkpt>
      <trkpt lat="43.86588" lon="1.08326">
        <ele>274.614579</ele>
        <time>2023-01-01T12:09:30.469Z</time>
      </trkpt>
      <trkpt lat="43.86587" lon="1.08311">
        <ele>274.90098</ele>
        <time>2023-01-01T12:09:33.501Z</time>
      </trkpt>
      <trkpt lat="43.86585" lon="1.08295">
        <ele>275.195523</ele>
        <time>2023-01-01T12:09:36.494Z</time>
      </trkpt>
      <trkpt lat="43.86584" lon="1.0828">
        <ele>275.498585</ele>
        <time>2023-01-01T12:09:39.496Z</time>
      </trkpt>
      <trkpt lat="43.86583" lon="1.08264">
        <ele>275.794499</ele>
        <time>2023-01-01T12:09:42.496Z</time>
      </trkpt>
      <trkpt lat="43.86582" lon="1.08249">
        <ele>276.081489</ele>
        <time>2023-01-01T12:09:45.502Z</time>
      </trkpt>
      <trkpt lat="43.8658" lon="1.08234">
        <ele>276.376397</ele>
        <time>2023-01-01T12:09:48.503Z</time>
      </trkpt>
      <trkpt lat="43.86579" lon="1.08219">
        <ele>276.672311</ele>
        <time>2023-01-01T12:09:51.502Z</time>
      </trkpt>
      <trkpt lat="43.86578" lon="1.08203">
        <ele>276.97728</ele>
        <time>2023-01-01T12:09:54.497Z</time>
      </trkpt>
      <trkpt lat="43.86577" lon="1.08187">
        <ele>277.09961</ele>
        <time>2023-01-01T12:09:57.500Z</time>
      </trkpt>
      <trkpt lat="43.86575" lon="1.0817">
        <ele>277.115141</ele>
        <time>2023-01-01T12:10:00.500Z</time>
      </trkpt>
      <trkpt lat="43.86574" lon="1.08155">
        <ele>277.129981</ele>
        <time>2023-01-01T12:10:03.501Z</time>
      </trkpt>
      <trkpt lat="43.86573" lon="1.0814">
        <ele>277.144243</ele>
        <time>2023-01-01T12:10:06.498Z</time>
      </trkpt>
      <trkpt lat="43.86572" lon="1.08125">
        <ele>277.158153</ele>
        <time>2023-01-01T12:10:09.494Z</time>
      </trkpt>
      <trkpt lat="43.86571" lon="1.0811">
        <ele>277.172143</ele>
        <time>2023-01-01T12:10:12.494Z</time>
      </trkpt>
      <trkpt lat="43.8657" lon="1.08095">
        <ele>277.186512</ele>
        <time>2023-01-01T12:10:15.503Z</time>
      </trkpt>
      <trkpt lat="43.86568" lon="1.08082">
        <ele>277.199638</ele>
        <time>2023-01-01T12:10:18.478Z</time>
      </trkpt>
      <trkpt lat="43.86567" lon="1.08065">
        <ele>277.215163</ele>
        <time>2023-01-01T12:10:22.474Z</time>
      </trkpt>
      <trkpt lat="43.86565" lon="1.08052">
        <ele>277.228501</ele>
        <time>2023-01-01T12:10:25.497Z</time>
      </trkpt>
      <trkpt lat="43.86563" lon="1.08037">
        <ele>277.242838</ele>
        <time>2023-01-01T12:10:28.472Z</time>
      </trkpt>
      <trkpt lat="43.86562" lon="1.08021">
        <ele>277.257892</ele>
        <time>2023-01-01T12:10:31.490Z</time>
      </trkpt>
      <trkpt lat="43.86561" lon="1.08004">
        <ele>277.274293</ele>
        <time>2023-01-01T12:10:34.492Z</time>
      </trkpt>
      <trkpt lat="43.86559" lon="1.07986">
        <ele>277.291231</ele>
        <time>2023-01-01T12:10:37.489Z</time>
      </trkpt>
      <trkpt lat="43.86558" lon="1.07973">
        <ele>277.303405</ele>
        <time>2023-01-01T12:10:39.501Z</time>
      </trkpt>
      <trkpt lat="43.86557" lon="1.07961">
        <ele>277.31539</ele>
        <time>2023-01-01T12:10:41.492Z</time>
      </trkpt>
      <trkpt lat="43.86556" lon="1.07947">
        <ele>277.327435</ele>
        <time>2023-01-01T12:10:43.495Z</time>
      </trkpt>
      <trkpt lat="43.86555" lon="1.07933">
        <ele>277.334698</ele>
        <time>2023-01-01T12:10:45.500Z</time>
      </trkpt>
      <trkpt lat="43.86554" lon="1.0792">
        <ele>277.34133</ele>
        <time>2023-01-01T12:10:47.494Z</time>
      </trkpt>
      <trkpt lat="43.86552" lon="1.07906">
        <ele>277.348292</ele>
        <time>2023-01-01T12:10:49.504Z</time>
      </trkpt>
      <trkpt lat="43.86551" lon="1.07893">
        <ele>277.355025</ele>
        <time>2023-01-01T12:10:51.498Z</time>
      </trkpt>
      <trkpt lat="43.8655" lon="1.07879">
        <ele>277.361967</ele>
        <time>2023-01-01T12:10:53.499Z</time>
      </trkpt>
      <trkpt lat="43.86549" lon="1.07866">
        <ele>277.368872</ele>
        <time>2023-01-01T12:10:55.501Z</time>
      </trkpt>
      <trkpt lat="43.86548" lon="1.07853">
        <ele>277.375489</ele>
        <time>2023-01-01T12:10:57.490Z</time>
      </trkpt>
      <trkpt lat="43.86547" lon="1.07839">
        <ele>277.382482</ele>
        <time>2023-01-01T12:10:59.504Z</time>
      </trkpt>
      <trkpt lat="43.86546" lon="1.07825">
        <ele>277.389352</ele>
        <time>2023-01-01T12:11:01.478Z</time>
      </trkpt>
      <trkpt lat="43.86545" lon="1.07806">
        <ele>277.399297</ele>
        <time>2023-01-01T12:11:04.504Z</time>
      </trkpt>
      <trkpt lat="43.86543" lon="1.07787">
        <ele>277.409007</ele>
        <time>2023-01-01T12:11:07.497Z</time>
      </trkpt>
      <trkpt lat="43.86541" lon="1.07774">
        <ele>277.415729</ele>
        <time>2023-01-01T12:11:09.495Z</time>
      </trkpt>
      <trkpt lat="43.8654" lon="1.07756">
        <ele>277.424953</ele>
        <time>2023-01-01T12:11:12.498Z</time>
      </trkpt>
      <trkpt lat="43.86539" lon="1.0774">
        <ele>277.433091</ele>
        <time>2023-01-01T12:11:15.500Z</time>
      </trkpt>
      <trkpt lat="43.86538" lon="1.07725">
        <ele>277.440731</ele>
        <time>2023-01-01T12:11:18.496Z</time>
      </trkpt>
      <trkpt lat="43.86536" lon="1.07708">
        <ele>277.449198</ele>
        <time>2023-01-01T12:11:21.491Z</time>
      </trkpt>
      <trkpt lat="43.86534" lon="1.07691">
        <ele>277.411213</ele>
        <time>2023-01-01T12:11:24.494Z</time>
      </trkpt>
      <trkpt lat="43.86533" lon="1.07673">
        <ele>277.344454</ele>
        <time>2023-01-01T12:11:27.473Z</time>
      </trkpt>
      <trkpt lat="43.86531" lon="1.07655">
        <ele>277.27519</ele>
        <time>2023-01-01T12:11:30.487Z</time>
      </trkpt>
      <trkpt lat="43.8653" lon="1.07643">
        <ele>277.22764</ele>
        <time>2023-01-01T12:11:32.473Z</time>
      </trkpt>
      <trkpt lat="43.86528" lon="1.07631">
        <ele>277.179838</ele>
        <time>2023-01-01T12:11:34.495Z</time>
      </trkpt>
      <trkpt lat="43.86527" lon="1.07612">
        <ele>277.108496</ele>
        <time>2023-01-01T12:11:37.504Z</time>
      </trkpt>
      <trkpt lat="43.86526" lon="1.07599">
        <ele>277.058129</ele>
        <time>2023-01-01T12:11:39.502Z</time>
      </trkpt>
      <trkpt lat="43.86524" lon="1.07586">
        <ele>277.009901</ele>
        <time>2023-01-01T12:11:41.493Z</time>
      </trkpt>
      <trkpt lat="43.86523" lon="1.07573">
        <ele>276.960397</ele>
        <time>2023-01-01T12:11:43.497Z</time>
      </trkpt>
      <trkpt lat="43.86522" lon="1.0756">
        <ele>276.911972</ele>
        <time>2023-01-01T12:11:45.488Z</time>
      </trkpt>
      <trkpt lat="43.86521" lon="1.07547">
        <ele>276.861793</ele>
        <time>2023-01-01T12:11:47.502Z</time>
      </trkpt>
      <trkpt lat="43.86519" lon="1.07529">
        <ele>276.792528</ele>
        <time>2023-01-01T12:11:50.500Z</time>
      </trkpt>
      <trkpt lat="43.86518" lon="1.07512">
        <ele>276.726146</ele>
        <time>2023-01-01T12:11:53.500Z</time>
      </trkpt>
      <trkpt lat="43.86516" lon="1.07495">
        <ele>276.661155</ele>
        <time>2023-01-01T12:11:56.502Z</time>
      </trkpt>
      <trkpt lat="43.86515" lon="1.07478">
        <ele>276.595952</ele>
        <time>2023-01-01T12:11:59.493Z</time>
      </trkpt>
      <trkpt lat="43.86513" lon="1.0746">
        <ele>276.52767</ele>
        <time>2023-01-01T12:12:02.507Z</time>
      </trkpt>
      <trkpt lat="43.86512" lon="1.07448">
        <ele>276.580929</ele>
        <time>2023-01-01T12:12:04.496Z</time>
      </trkpt>
      <trkpt lat="43.8651" lon="1.07435">
        <ele>276.721774</ele>
        <time>2023-01-01T12:12:06.480Z</time>
      </trkpt>
      <trkpt lat="43.86509" lon="1.07421">
        <ele>276.874164</ele>
        <time>2023-01-01T12:12:08.487Z</time>
      </trkpt>
      <trkpt lat="43.86508" lon="1.07409">
        <ele>277.013283</ele>
        <time>2023-01-01T12:12:10.477Z</time>
      </trkpt>
      <trkpt lat="43.86507" lon="1.0739">
        <ele>277.214388</ele>
        <time>2023-01-01T12:12:13.486Z</time>
      </trkpt>
      <trkpt lat="43.86505" lon="1.07373">
        <ele>277.404749</ele>
        <time>2023-01-01T12:12:16.472Z</time>
      </trkpt>
      <trkpt lat="43.86504" lon="1.07359">
        <ele>277.563853</ele>
        <time>2023-01-01T12:12:19.494Z</time>
      </trkpt>
      <trkpt lat="43.86503" lon="1.07346">
        <ele>277.701124</ele>
        <time>2023-01-01T12:12:22.496Z</time>
      </trkpt>
      <trkpt lat="43.86503" lon="1.07333">
        <ele>277.851659</ele>
        <time>2023-01-01T12:12:25.510Z</time>
      </trkpt>
      <trkpt lat="43.86502" lon="1.07318">
        <ele>278.016566</ele>
        <time>2023-01-01T12:12:28.476Z</time>
      </trkpt>
      <trkpt lat="43.865" lon="1.07302">
        <ele>278.186221</ele>
        <time>2023-01-01T12:12:31.499Z</time>
      </trkpt>
      <trkpt lat="43.86499" lon="1.07286">
        <ele>278.364868</ele>
        <time>2023-01-01T12:12:34.498Z</time>
      </trkpt>
      <trkpt lat="43.86498" lon="1.07269">
        <ele>278.553442</ele>
        <time>2023-01-01T12:12:37.475Z</time>
      </trkpt>
      <trkpt lat="43.86496" lon="1.07251">
        <ele>278.75202</ele>
        <time>2023-01-01T12:12:40.488Z</time>
      </trkpt>
      <trkpt lat="43.86495" lon="1.07239">
        <ele>278.889292</ele>
        <time>2023-01-01T12:12:42.504Z</time>
      </trkpt>
      <trkpt lat="43.86494" lon="1.07225">
        <ele>279.038005</ele>
        <time>2023-01-01T12:12:44.496Z</time>
      </trkpt>
      <trkpt lat="43.86493" lon="1.07212">
        <ele>279.191125</ele>
        <time>2023-01-01T12:12:46.499Z</time>
      </trkpt>
      <trkpt lat="43.86491" lon="1.07197">
        <ele>279.185465</ele>
        <time>2023-01-01T12:12:48.499Z</time>
      </trkpt>
      <trkpt lat="43.8649" lon="1.07184">
        <ele>279.096703</ele>
        <time>2023-01-01T12:12:50.497Z</time>
      </trkpt>
      <trkpt lat="43.86489" lon="1.07169">
        <ele>279.00268</ele>
        <time>2023-01-01T12:12:52.504Z</time>
      </trkpt>
      <trkpt lat="43.86488" lon="1.07154">
        <ele>278.904602</ele>
        <time>2023-01-01T12:12:54.499Z</time>
      </trkpt>
      <trkpt lat="43.86488" lon="1.07139">
        <ele>278.807526</ele>
        <time>2023-01-01T12:12:56.491Z</time>
      </trkpt>
      <trkpt lat="43.86486" lon="1.07125">
        <ele>278.711462</ele>
        <time>2023-01-01T12:12:58.502Z</time>
      </trkpt>
      <trkpt lat="43.86485" lon="1.07111">
        <ele>278.619521</ele>
        <time>2023-01-01T12:13:00.504Z</time>
      </trkpt>
      <trkpt lat="43.86484" lon="1.07097">
        <ele>278.526517</ele>
        <time>2023-01-01T12:13:02.503Z</time>
      </trkpt>
      <trkpt lat="43.86482" lon="1.07083">
        <ele>278.436377</ele>
        <time>2023-01-01T12:13:04.504Z</time>
      </trkpt>
      <trkpt lat="43.86482" lon="1.0707">
        <ele>278.350393</ele>
        <time>2023-01-01T12:13:06.499Z</time>
      </trkpt>
      <trkpt lat="43.8648" lon="1.07056">
        <ele>278.258681</ele>
        <time>2023-01-01T12:13:08.502Z</time>
      </trkpt>
      <trkpt lat="43.86479" lon="1.07041">
        <ele>278.165569</ele>
        <time>2023-01-01T12:13:10.505Z</time>
      </trkpt>
      <trkpt lat="43.86478" lon="1.07027">
        <ele>278.069874</ele>
        <time>2023-01-01T12:13:12.492Z</time>
      </trkpt>
      <trkpt lat="43.86476" lon="1.07012">
        <ele>277.97342</ele>
        <time>2023-01-01T12:13:14.493Z</time>
      </trkpt>
      <trkpt lat="43.86475" lon="1.06998">
        <ele>277.879224</ele>
        <time>2023-01-01T12:13:16.501Z</time>
      </trkpt>
      <trkpt lat="43.86474" lon="1.06983">
        <ele>277.780714</ele>
        <time>2023-01-01T12:13:18.500Z</time>
      </trkpt>
      <trkpt lat="43.86473" lon="1.06969">
        <ele>277.689649</ele>
        <time>2023-01-01T12:13:20.491Z</time>
      </trkpt>
      <trkpt lat="43.86471" lon="1.06955">
        <ele>277.553335</ele>
        <time>2023-01-01T12:13:22.497Z</time>
      </trkpt>
      <trkpt lat="43.8647" lon="1.06941">
        <ele>277.302355</ele>
        <time>2023-01-01T12:13:24.501Z</time>
      </trkpt>
      <trkpt lat="43.86469" lon="1.06927">
        <ele>277.060985</ele>
        <time>2023-01-01T12:13:26.500Z</time>
      </trkpt>
      <trkpt lat="43.86468" lon="1.06913">
        <ele>276.812588</ele>
        <time>2023-01-01T12:13:28.501Z</time>
      </trkpt>
      <trkpt lat="43.86467" lon="1.06899">
        <ele>276.561286</ele>
        <time>2023-01-01T12:13:30.465Z</time>
      </trkpt>
      <trkpt lat="43.86466" lon="1.06884">
        <ele>276.300345</ele>
        <time>2023-01-01T12:13:32.496Z</time>
      </trkpt>
      <trkpt lat="43.86464" lon="1.06869">
        <ele>276.025969</ele>
        <time>2023-01-01T12:13:34.501Z</time>
      </trkpt>
      <trkpt lat="43.86463" lon="1.06852">
        <ele>275.723056</ele>
        <time>2023-01-01T12:13:36.497Z</time>
      </trkpt>
      <trkpt lat="43.86462" lon="1.06834">
        <ele>275.411526</ele>
        <time>2023-01-01T12:13:38.477Z</time>
      </trkpt>
      <trkpt lat="43.86461" lon="1.06816">
        <ele>275.085325</ele>
        <time>2023-01-01T12:13:40.490Z</time>
      </trkpt>
      <trkpt lat="43.86459" lon="1.06797">
        <ele>274.745558</ele>
        <time>2023-01-01T12:13:42.497Z</time>
      </trkpt>
      <trkpt lat="43.86457" lon="1.06778">
        <ele>274.411773</ele>
        <time>2023-01-01T12:13:44.491Z</time>
      </trkpt>
      <trkpt lat="43.86455" lon="1.06759">
        <ele>274.07227</ele>
        <time>2023-01-01T12:13:46.473Z</time>
      </trkpt>
      <trkpt lat="43.86453" lon="1.06741">
        <ele>273.758409</ele>
        <time>2023-01-01T12:13:48.492Z</time>
      </trkpt>
      <trkpt lat="43.86452" lon="1.06724">
        <ele>273.449002</ele>
        <time>2023-01-01T12:13:50.491Z</time>
      </trkpt>
      <trkpt lat="43.86451" lon="1.06707">
        <ele>273.246745</ele>
        <time>2023-01-01T12:13:52.501Z</time>
      </trkpt>
      <trkpt lat="43.8645" lon="1.06691">
        <ele>273.358729</ele>
        <time>2023-01-01T12:13:54.498Z</time>
      </trkpt>
      <trkpt lat="43.8645" lon="1.06675">
        <ele>273.464359</ele>
        <time>2023-01-01T12:13:56.483Z</time>
      </trkpt>
      <trkpt lat="43.86451" lon="1.06661">
        <ele>273.561047</ele>
        <time>2023-01-01T12:13:58.476Z</time>
      </trkpt>
      <trkpt lat="43.86453" lon="1.06648">
        <ele>273.657299</ele>
        <time>2023-01-01T12:14:00.498Z</time>
      </trkpt>
      <trkpt lat="43.86457" lon="1.06635">
        <ele>273.750849</ele>
        <time>2023-01-01T12:14:02.475Z</time>
      </trkpt>
      <trkpt lat="43.86462" lon="1.06622">
        <ele>273.849795</ele>
        <time>2023-01-01T12:14:04.493Z</time>
      </trkpt>
      <trkpt lat="43.86467" lon="1.06609">
        <ele>273.953878</ele>
        <time>2023-01-01T12:14:06.481Z</time>
      </trkpt>
      <trkpt lat="43.86473" lon="1.06595">
        <ele>274.065316</ele>
        <time>2023-01-01T12:14:08.500Z</time>
      </trkpt>
      <trkpt lat="43.86479" lon="1.06581">
        <ele>274.175714</ele>
        <time>2023-01-01T12:14:10.502Z</time>
      </trkpt>
      <trkpt lat="43.86486" lon="1.06568">
        <ele>274.292562</ele>
        <time>2023-01-01T12:14:12.496Z</time>
      </trkpt>
      <trkpt lat="43.86493" lon="1.06554">
        <ele>274.40717</ele>
        <time>2023-01-01T12:14:14.489Z</time>
      </trkpt>
      <trkpt lat="43.86501" lon="1.06539">
        <ele>274.531789</ele>
        <time>2023-01-01T12:14:16.505Z</time>
      </trkpt>
      <trkpt lat="43.86508" lon="1.06524">
        <ele>274.65824</ele>
        <time>2023-01-01T12:14:18.500Z</time>
      </trkpt>
      <trkpt lat="43.86516" lon="1.06509">
        <ele>274.786747</ele>
        <time>2023-01-01T12:14:20.499Z</time>
      </trkpt>
      <trkpt lat="43.86524" lon="1.06494">
        <ele>274.90913</ele>
        <time>2023-01-01T12:14:22.502Z</time>
      </trkpt>
      <trkpt lat="43.86531" lon="1.06479">
        <ele>274.943504</ele>
        <time>2023-01-01T12:14:24.498Z</time>
      </trkpt>
      <trkpt lat="43.86538" lon="1.06465">
        <ele>274.958638</ele>
        <time>2023-01-01T12:14:26.498Z</time>
      </trkpt>
      <trkpt lat="43.86544" lon="1.06452">
        <ele>274.972677</ele>
        <time>2023-01-01T12:14:28.475Z</time>
      </trkpt>
      <trkpt lat="43.86551" lon="1.06439">
        <ele>274.986572</ele>
        <time>2023-01-01T12:14:30.504Z</time>
      </trkpt>
      <trkpt lat="43.86556" lon="1.06426">
        <ele>274.999935</ele>
        <time>2023-01-01T12:14:32.488Z</time>
      </trkpt>
      <trkpt lat="43.86563" lon="1.06415">
        <ele>275.01232</ele>
        <time>2023-01-01T12:14:34.485Z</time>
      </trkpt>
      <trkpt lat="43.86568" lon="1.06404">
        <ele>275.02485</ele>
        <time>2023-01-01T12:14:36.501Z</time>
      </trkpt>
      <trkpt lat="43.86574" lon="1.06392">
        <ele>275.037522</ele>
        <time>2023-01-01T12:14:38.500Z</time>
      </trkpt>
      <trkpt lat="43.8658" lon="1.06381">
        <ele>275.050119</ele>
        <time>2023-01-01T12:14:40.485Z</time>
      </trkpt>
      <trkpt lat="43.86586" lon="1.06369">
        <ele>275.062649</ele>
        <time>2023-01-01T12:14:42.497Z</time>
      </trkpt>
      <trkpt lat="43.86592" lon="1.06356">
        <ele>275.075709</ele>
        <time>2023-01-01T12:14:44.499Z</time>
      </trkpt>
      <trkpt lat="43.86597" lon="1.06345">
        <ele>275.088029</ele>
        <time>2023-01-01T12:14:46.503Z</time>
      </trkpt>
      <trkpt lat="43.86602" lon="1.06333">
        <ele>275.100075</ele>
        <time>2023-01-01T12:14:48.501Z</time>
      </trkpt>
      <trkpt lat="43.86608" lon="1.06321">
        <ele>275.112768</ele>
        <time>2023-01-01T12:14:50.500Z</time>
      </trkpt>
      <trkpt lat="43.86613" lon="1.0631">
        <ele>275.124559</ele>
        <time>2023-01-01T12:14:52.497Z</time>
      </trkpt>
      <trkpt lat="43.8662" lon="1.06295">
        <ele>275.140684</ele>
        <time>2023-01-01T12:14:55.503Z</time>
      </trkpt>
      <trkpt lat="43.86628" lon="1.06281">
        <ele>274.950032</ele>
        <time>2023-01-01T12:14:58.499Z</time>
      </trkpt>
      <trkpt lat="43.86634" lon="1.06267">
        <ele>274.36452</ele>
        <time>2023-01-01T12:15:01.500Z</time>
      </trkpt>
      <trkpt lat="43.8664" lon="1.06255">
        <ele>273.810094</ele>
        <time>2023-01-01T12:15:04.497Z</time>
      </trkpt>
      <trkpt lat="43.86645" lon="1.06241">
        <ele>273.221815</ele>
        <time>2023-01-01T12:15:07.472Z</time>
      </trkpt>
      <trkpt lat="43.8665" lon="1.06225">
        <ele>272.565841</ele>
        <time>2023-01-01T12:15:10.492Z</time>
      </trkpt>
      <trkpt lat="43.86652" lon="1.06211">
        <ele>272.054803</ele>
        <time>2023-01-01T12:15:12.480Z</time>
      </trkpt>
      <trkpt lat="43.86653" lon="1.06196">
        <ele>271.481267</ele>
        <time>2023-01-01T12:15:14.478Z</time>
      </trkpt>
      <trkpt lat="43.86653" lon="1.0618">
        <ele>270.879443</ele>
        <time>2023-01-01T12:15:16.497Z</time>
      </trkpt>
      <trkpt lat="43.86652" lon="1.06163">
        <ele>270.239594</ele>
        <time>2023-01-01T12:15:18.497Z</time>
      </trkpt>
      <trkpt lat="43.86648" lon="1.06145">
        <ele>269.564283</ele>
        <time>2023-01-01T12:15:20.486Z</time>
      </trkpt>
      <trkpt lat="43.86643" lon="1.06129">
        <ele>268.893326</ele>
        <time>2023-01-01T12:15:22.474Z</time>
      </trkpt>
      <trkpt lat="43.86637" lon="1.06115">
        <ele>268.297383</ele>
        <time>2023-01-01T12:15:24.481Z</time>
      </trkpt>
      <trkpt lat="43.86629" lon="1.06103">
        <ele>267.699996</ele>
        <time>2023-01-01T12:15:26.472Z</time>
      </trkpt>
      <trkpt lat="43.86621" lon="1.06092">
        <ele>267.113661</ele>
        <time>2023-01-01T12:15:28.477Z</time>
      </trkpt>
      <trkpt lat="43.86612" lon="1.06083">
        <ele>266.535066</ele>
        <time>2023-01-01T12:15:30.472Z</time>
      </trkpt>
      <trkpt lat="43.86602" lon="1.06076">
        <ele>265.994443</ele>
        <time>2023-01-01T12:15:32.483Z</time>
      </trkpt>
      <trkpt lat="43.86592" lon="1.0607">
        <ele>265.277471</ele>
        <time>2023-01-01T12:15:34.481Z</time>
      </trkpt>
      <trkpt lat="43.86581" lon="1.06066">
        <ele>264.519747</ele>
        <time>2023-01-01T12:15:36.477Z</time>
      </trkpt>
      <trkpt lat="43.86569" lon="1.06062">
        <ele>263.718292</ele>
        <time>2023-01-01T12:15:38.472Z</time>
      </trkpt>
      <trkpt lat="43.86558" lon="1.06059">
        <ele>262.956467</ele>
        <time>2023-01-01T12:15:40.492Z</time>
      </trkpt>
      <trkpt lat="43.86545" lon="1.06056">
        <ele>262.118319</ele>
        <time>2023-01-01T12:15:42.495Z</time>
      </trkpt>
      <trkpt lat="43.86533" lon="1.06052">
        <ele>261.295756</ele>
        <time>2023-01-01T12:15:44.475Z</time>
      </trkpt>
      <trkpt lat="43.86522" lon="1.06046">
        <ele>260.499845</ele>
        <time>2023-01-01T12:15:46.495Z</time>
      </trkpt>
      <trkpt lat="43.86511" lon="1.0604">
        <ele>259.718896</ele>
        <time>2023-01-01T12:15:48.497Z</time>
      </trkpt>
      <trkpt lat="43.86501" lon="1.06032">
        <ele>258.922118</ele>
        <time>2023-01-01T12:15:50.480Z</time>
      </trkpt>
      <trkpt lat="43.86491" lon="1.0602">
        <ele>258.101425</ele>
        <time>2023-01-01T12:15:52.480Z</time>
      </trkpt>
      <trkpt lat="43.86482" lon="1.06008">
        <ele>257.259994</ele>
        <time>2023-01-01T12:15:54.474Z</time>
      </trkpt>
      <trkpt lat="43.86476" lon="1.05992">
        <ele>256.427166</ele>
        <time>2023-01-01T12:15:56.485Z</time>
      </trkpt>
      <trkpt lat="43.86471" lon="1.05975">
        <ele>255.548608</ele>
        <time>2023-01-01T12:15:58.485Z</time>
      </trkpt>
      <trkpt lat="43.86469" lon="1.05955">
        <ele>254.562816</ele>
        <time>2023-01-01T12:16:00.475Z</time>
      </trkpt>
      <trkpt lat="43.86467" lon="1.05932">
        <ele>254.13323</ele>
        <time>2023-01-01T12:16:02.471Z</time>
      </trkpt>
      <trkpt lat="43.86469" lon="1.05908">
        <ele>254.402891</ele>
        <time>2023-01-01T12:16:04.487Z</time>
      </trkpt>
      <trkpt lat="43.86471" lon="1.05886">
        <ele>254.663603</ele>
        <time>2023-01-01T12:16:06.485Z</time>
      </trkpt>
      <trkpt lat="43.86474" lon="1.05864">
        <ele>254.918234</ele>
        <time>2023-01-01T12:16:08.498Z</time>
      </trkpt>
      <trkpt lat="43.86476" lon="1.05843">
        <ele>255.159857</ele>
        <time>2023-01-01T12:16:10.494Z</time>
      </trkpt>
      <trkpt lat="43.86479" lon="1.05824">
        <ele>255.376635</ele>
        <time>2023-01-01T12:16:12.500Z</time>
      </trkpt>
      <trkpt lat="43.86481" lon="1.0581">
        <ele>255.549098</ele>
        <time>2023-01-01T12:16:14.473Z</time>
      </trkpt>
      <trkpt lat="43.86482" lon="1.05793">
        <ele>255.747134</ele>
        <time>2023-01-01T12:16:17.495Z</time>
      </trkpt>
      <trkpt lat="43.86485" lon="1.05777">
        <ele>255.926437</ele>
        <time>2023-01-01T12:16:21.488Z</time>
      </trkpt>
      <trkpt lat="43.86486" lon="1.05763">
        <ele>256.09541</ele>
        <time>2023-01-01T12:16:25.506Z</time>
      </trkpt>
      <trkpt lat="43.86488" lon="1.05748">
        <ele>256.263945</ele>
        <time>2023-01-01T12:16:29.480Z</time>
      </trkpt>
      <trkpt lat="43.8649" lon="1.05734">
        <ele>256.429451</ele>
        <time>2023-01-01T12:16:33.476Z</time>
      </trkpt>
      <trkpt lat="43.86492" lon="1.0572">
        <ele>256.593729</ele>
        <time>2023-01-01T12:16:37.476Z</time>
      </trkpt>
      <trkpt lat="43.86492" lon="1.05707">
        <ele>256.745574</ele>
        <time>2023-01-01T12:16:41.496Z</time>
      </trkpt>
      <trkpt lat="43.86495" lon="1.05692">
        <ele>257.061996</ele>
        <time>2023-01-01T12:16:46.481Z</time>
      </trkpt>
      <trkpt lat="43.86497" lon="1.05677">
        <ele>257.616043</ele>
        <time>2023-01-01T12:16:51.496Z</time>
      </trkpt>
      <trkpt lat="43.86498" lon="1.05665">
        <ele>258.119978</ele>
        <time>2023-01-01T12:16:56.491Z</time>
      </trkpt>
      <trkpt lat="43.86499" lon="1.05651">
        <ele>258.63824</ele>
        <time>2023-01-01T12:17:01.497Z</time>
      </trkpt>
      <trkpt lat="43.86501" lon="1.05638">
        <ele>259.141243</ele>
        <time>2023-01-01T12:17:06.497Z</time>
      </trkpt>
      <trkpt lat="43.86503" lon="1.05626">
        <ele>259.641949</ele>
        <time>2023-01-01T12:17:11.492Z</time>
      </trkpt>
      <trkpt lat="43.86504" lon="1.05613">
        <ele>260.123468</ele>
        <time>2023-01-01T12:17:16.490Z</time>
      </trkpt>
      <trkpt lat="43.86506" lon="1.05599">
        <ele>260.653802</ele>
        <time>2023-01-01T12:17:21.481Z</time>
      </trkpt>
      <trkpt lat="43.86507" lon="1.05585">
        <ele>261.211486</ele>
        <time>2023-01-01T12:17:26.494Z</time>
      </trkpt>
      <trkpt lat="43.86508" lon="1.05572">
        <ele>261.702234</ele>
        <time>2023-01-01T12:17:30.500Z</time>
      </trkpt>
      <trkpt lat="43.86509" lon="1.05559">
        <ele>262.207021</ele>
        <time>2023-01-01T12:17:34.500Z</time>
      </trkpt>
      <trkpt lat="43.8651" lon="1.05547">
        <ele>262.700311</ele>
        <time>2023-01-01T12:17:38.497Z</time>
      </trkpt>
      <trkpt lat="43.8651" lon="1.05533">
        <ele>263.211653</ele>
        <time>2023-01-01T12:17:42.494Z</time>
      </trkpt>
      <trkpt lat="43.8651" lon="1.0552">
        <ele>263.711244</ele>
        <time>2023-01-01T12:17:46.499Z</time>
      </trkpt>
      <trkpt lat="43.86509" lon="1.05507">
        <ele>264.238678</ele>
        <time>2023-01-01T12:17:50.481Z</time>
      </trkpt>
      <trkpt lat="43.86509" lon="1.05494">
        <ele>264.738497</ele>
        <time>2023-01-01T12:17:54.495Z</time>
      </trkpt>
      <trkpt lat="43.86509" lon="1.0548">
        <ele>265.268909</ele>
        <time>2023-01-01T12:17:58.496Z</time>
      </trkpt>
      <trkpt lat="43.86508" lon="1.05466">
        <ele>265.803483</ele>
        <time>2023-01-01T12:18:02.480Z</time>
      </trkpt>
      <trkpt lat="43.86508" lon="1.05453">
        <ele>266.315574</ele>
        <time>2023-01-01T12:18:06.499Z</time>
      </trkpt>
      <trkpt lat="43.86507" lon="1.05439">
        <ele>266.781055</ele>
        <time>2023-01-01T12:18:10.491Z</time>
      </trkpt>
      <trkpt lat="43.86507" lon="1.05425">
        <ele>267.274123</ele>
        <time>2023-01-01T12:18:15.500Z</time>
      </trkpt>
      <trkpt lat="43.86507" lon="1.05412">
        <ele>267.70632</ele>
        <time>2023-01-01T12:18:19.497Z</time>
      </trkpt>
      <trkpt lat="43.86505" lon="1.05396">
        <ele>268.231719</ele>
        <time>2023-01-01T12:18:24.498Z</time>
      </trkpt>
      <trkpt lat="43.86504" lon="1.05383">
        <ele>268.687825</ele>
        <time>2023-01-01T12:18:28.496Z</time>
      </trkpt>
      <trkpt lat="43.86503" lon="1.0537">
        <ele>269.113218</ele>
        <time>2023-01-01T12:18:32.497Z</time>
      </trkpt>
      <trkpt lat="43.86501" lon="1.05357">
        <ele>269.588055</ele>
        <time>2023-01-01T12:18:37.499Z</time>
      </trkpt>
      <trkpt lat="43.865" lon="1.05344">
        <ele>270.015668</ele>
        <time>2023-01-01T12:18:42.474Z</time>
      </trkpt>
      <trkpt lat="43.86498" lon="1.0533">
        <ele>270.500046</ele>
        <time>2023-01-01T12:18:46.472Z</time>
      </trkpt>
      <trkpt lat="43.86496" lon="1.05316">
        <ele>270.991432</ele>
        <time>2023-01-01T12:18:50.495Z</time>
      </trkpt>
      <trkpt lat="43.86495" lon="1.05303">
        <ele>271.434836</ele>
        <time>2023-01-01T12:18:54.475Z</time>
      </trkpt>
      <trkpt lat="43.86493" lon="1.05289">
        <ele>271.913005</ele>
        <time>2023-01-01T12:18:58.501Z</time>
      </trkpt>
      <trkpt lat="43.86491" lon="1.05274">
        <ele>272.420959</ele>
        <time>2023-01-01T12:19:02.483Z</time>
      </trkpt>
      <trkpt lat="43.86489" lon="1.0526">
        <ele>272.904229</ele>
        <time>2023-01-01T12:19:06.483Z</time>
      </trkpt>
      <trkpt lat="43.86487" lon="1.05246">
        <ele>273.372592</ele>
        <time>2023-01-01T12:19:10.498Z</time>
      </trkpt>
      <trkpt lat="43.86487" lon="1.05231">
        <ele>273.887072</ele>
        <time>2023-01-01T12:19:14.482Z</time>
      </trkpt>
      <trkpt lat="43.86486" lon="1.05216">
        <ele>274.404238</ele>
        <time>2023-01-01T12:19:18.503Z</time>
      </trkpt>
      <trkpt lat="43.86484" lon="1.052">
        <ele>274.907696</ele>
        <time>2023-01-01T12:19:22.472Z</time>
      </trkpt>
      <trkpt lat="43.86483" lon="1.05186">
        <ele>275.205977</ele>
        <time>2023-01-01T12:19:26.490Z</time>
      </trkpt>
      <trkpt lat="43.86482" lon="1.05172">
        <ele>275.511887</ele>
        <time>2023-01-01T12:19:30.479Z</time>
      </trkpt>
      <trkpt lat="43.86481" lon="1.05158">
        <ele>275.816605</ele>
        <time>2023-01-01T12:19:34.481Z</time>
      </trkpt>
      <trkpt lat="43.86479" lon="1.05144">
        <ele>276.130351</ele>
        <time>2023-01-01T12:19:38.497Z</time>
      </trkpt>
      <trkpt lat="43.86477" lon="1.05129">
        <ele>276.455114</ele>
        <time>2023-01-01T12:19:42.492Z</time>
      </trkpt>
      <trkpt lat="43.86476" lon="1.05114">
        <ele>276.783774</ele>
        <time>2023-01-01T12:19:46.497Z</time>
      </trkpt>
      <trkpt lat="43.86474" lon="1.051">
        <ele>277.09965</ele>
        <time>2023-01-01T12:19:50.478Z</time>
      </trkpt>
      <trkpt lat="43.86472" lon="1.05084">
        <ele>277.438074</ele>
        <time>2023-01-01T12:19:54.508Z</time>
      </trkpt>
      <trkpt lat="43.8647" lon="1.0507">
        <ele>277.751319</ele>
        <time>2023-01-01T12:19:58.495Z</time>
      </trkpt>
      <trkpt lat="43.86469" lon="1.05055">
        <ele>278.071455</ele>
        <time>2023-01-01T12:20:02.493Z</time>
      </trkpt>
      <trkpt lat="43.86467" lon="1.0504">
        <ele>278.404429</ele>
        <time>2023-01-01T12:20:06.495Z</time>
      </trkpt>
      <trkpt lat="43.86466" lon="1.05028">
        <ele>278.676981</ele>
        <time>2023-01-01T12:20:09.497Z</time>
      </trkpt>
      <trkpt lat="43.86465" lon="1.05012">
        <ele>279.014994</ele>
        <time>2023-01-01T12:20:13.500Z</time>
      </trkpt>
      <trkpt lat="43.86463" lon="1.04999">
        <ele>279.292674</ele>
        <time>2023-01-01T12:20:17.485Z</time>
      </trkpt>
      <trkpt lat="43.86461" lon="1.04985">
        <ele>279.605387</ele>
        <time>2023-01-01T12:20:21.497Z</time>
      </trkpt>
      <trkpt lat="43.86459" lon="1.0497">
        <ele>279.946825</ele>
        <time>2023-01-01T12:20:25.497Z</time>
      </trkpt>
      <trkpt lat="43.86457" lon="1.04954">
        <ele>280.155021</ele>
        <time>2023-01-01T12:20:29.493Z</time>
      </trkpt>
      <trkpt lat="43.86456" lon="1.04941">
        <ele>279.430169</ele>
        <time>2023-01-01T12:20:32.480Z</time>
      </trkpt>
      <trkpt lat="43.86456" lon="1.04928">
        <ele>278.706045</ele>
        <time>2023-01-01T12:20:35.473Z</time>
      </trkpt>
      <trkpt lat="43.86455" lon="1.04912">
        <ele>277.750614</ele>
        <time>2023-01-01T12:20:39.495Z</time>
      </trkpt>
      <trkpt lat="43.86456" lon="1.04896">
        <ele>276.883649</ele>
        <time>2023-01-01T12:20:42.486Z</time>
      </trkpt>
      <trkpt lat="43.86457" lon="1.0488">
        <ele>275.936021</ele>
        <time>2023-01-01T12:20:45.496Z</time>
      </trkpt>
      <trkpt lat="43.86459" lon="1.04862">
        <ele>274.903258</ele>
        <time>2023-01-01T12:20:48.499Z</time>
      </trkpt>
      <trkpt lat="43.86462" lon="1.04844">
        <ele>273.848339</ele>
        <time>2023-01-01T12:20:51.495Z</time>
      </trkpt>
      <trkpt lat="43.86464" lon="1.04831">
        <ele>273.114637</ele>
        <time>2023-01-01T12:20:53.470Z</time>
      </trkpt>
      <trkpt lat="43.86467" lon="1.04813">
        <ele>272.081849</ele>
        <time>2023-01-01T12:20:56.496Z</time>
      </trkpt>
      <trkpt lat="43.86469" lon="1.04801">
        <ele>271.36767</ele>
        <time>2023-01-01T12:20:58.496Z</time>
      </trkpt>
      <trkpt lat="43.8647" lon="1.04788">
        <ele>270.604603</ele>
        <time>2023-01-01T12:21:00.500Z</time>
      </trkpt>
      <trkpt lat="43.86473" lon="1.04774">
        <ele>269.785167</ele>
        <time>2023-01-01T12:21:02.497Z</time>
      </trkpt>
      <trkpt lat="43.86473" lon="1.04759">
        <ele>268.925159</ele>
        <time>2023-01-01T12:21:04.470Z</time>
      </trkpt>
      <trkpt lat="43.86474" lon="1.04742">
        <ele>268.007917</ele>
        <time>2023-01-01T12:21:06.496Z</time>
      </trkpt>
      <trkpt lat="43.86474" lon="1.04727">
        <ele>267.133145</ele>
        <time>2023-01-01T12:21:08.485Z</time>
      </trkpt>
      <trkpt lat="43.86474" lon="1.04712">
        <ele>266.281129</ele>
        <time>2023-01-01T12:21:10.498Z</time>
      </trkpt>
      <trkpt lat="43.86474" lon="1.04698">
        <ele>265.503462</ele>
        <time>2023-01-01T12:21:12.495Z</time>
      </trkpt>
      <trkpt lat="43.86473" lon="1.04684">
        <ele>264.75434</ele>
        <time>2023-01-01T12:21:14.479Z</time>
      </trkpt>
      <trkpt lat="43.86471" lon="1.04671">
        <ele>264.061533</ele>
        <time>2023-01-01T12:21:16.474Z</time>
      </trkpt>
      <trkpt lat="43.86468" lon="1.04658">
        <ele>263.353003</ele>
        <time>2023-01-01T12:21:18.491Z</time>
      </trkpt>
      <trkpt lat="43.86465" lon="1.04645">
        <ele>262.596784</ele>
        <time>2023-01-01T12:21:20.499Z</time>
      </trkpt>
      <trkpt lat="43.86462" lon="1.04631">
        <ele>261.820652</ele>
        <time>2023-01-01T12:21:22.504Z</time>
      </trkpt>
      <trkpt lat="43.86459" lon="1.04618">
        <ele>261.053609</ele>
        <time>2023-01-01T12:21:24.500Z</time>
      </trkpt>
      <trkpt lat="43.86455" lon="1.04604">
        <ele>260.267269</ele>
        <time>2023-01-01T12:21:26.478Z</time>
      </trkpt>
      <trkpt lat="43.86452" lon="1.0459">
        <ele>259.505962</ele>
        <time>2023-01-01T12:21:28.495Z</time>
      </trkpt>
      <trkpt lat="43.86449" lon="1.04576">
        <ele>258.724269</ele>
        <time>2023-01-01T12:21:30.501Z</time>
      </trkpt>
      <trkpt lat="43.86446" lon="1.04563">
        <ele>257.957225</ele>
        <time>2023-01-01T12:21:32.497Z</time>
      </trkpt>
      <trkpt lat="43.86443" lon="1.04549">
        <ele>257.184552</ele>
        <time>2023-01-01T12:21:34.502Z</time>
      </trkpt>
      <trkpt lat="43.86442" lon="1.04535">
        <ele>256.441046</ele>
        <time>2023-01-01T12:21:36.500Z</time>
      </trkpt>
      <trkpt lat="43.86441" lon="1.04521">
        <ele>255.666036</ele>
        <time>2023-01-01T12:21:38.493Z</time>
      </trkpt>
      <trkpt lat="43.86441" lon="1.04506">
        <ele>254.889204</ele>
        <time>2023-01-01T12:21:40.504Z</time>
      </trkpt>
      <trkpt lat="43.86441" lon="1.04491">
        <ele>254.100816</ele>
        <time>2023-01-01T12:21:42.496Z</time>
      </trkpt>
      <trkpt lat="43.86442" lon="1.04476">
        <ele>253.25502</ele>
        <time>2023-01-01T12:21:44.490Z</time>
      </trkpt>
      <trkpt lat="43.86444" lon="1.0446">
        <ele>252.401433</ele>
        <time>2023-01-01T12:21:46.496Z</time>
      </trkpt>
      <trkpt lat="43.86447" lon="1.04444">
        <ele>251.558424</ele>
        <time>2023-01-01T12:21:48.498Z</time>
      </trkpt>
      <trkpt lat="43.86449" lon="1.04428">
        <ele>250.724009</ele>
        <time>2023-01-01T12:21:50.489Z</time>
      </trkpt>
      <trkpt lat="43.86452" lon="1.04412">
        <ele>249.889594</ele>
        <time>2023-01-01T12:21:52.500Z</time>
      </trkpt>
      <trkpt lat="43.86455" lon="1.04397">
        <ele>249.085336</ele>
        <time>2023-01-01T12:21:54.501Z</time>
      </trkpt>
      <trkpt lat="43.86457" lon="1.04383">
        <ele>248.311269</ele>
        <time>2023-01-01T12:21:56.491Z</time>
      </trkpt>
      <trkpt lat="43.86459" lon="1.04368">
        <ele>247.553426</ele>
        <time>2023-01-01T12:21:58.492Z</time>
      </trkpt>
      <trkpt lat="43.86462" lon="1.04354">
        <ele>246.77412</ele>
        <time>2023-01-01T12:22:00.501Z</time>
      </trkpt>
      <trkpt lat="43.86464" lon="1.04338">
        <ele>245.983439</ele>
        <time>2023-01-01T12:22:02.489Z</time>
      </trkpt>
      <trkpt lat="43.86466" lon="1.04325">
        <ele>245.253658</ele>
        <time>2023-01-01T12:22:04.499Z</time>
      </trkpt>
      <trkpt lat="43.86467" lon="1.04309">
        <ele>244.461811</ele>
        <time>2023-01-01T12:22:06.497Z</time>
      </trkpt>
      <trkpt lat="43.86467" lon="1.04294">
        <ele>243.692687</ele>
        <time>2023-01-01T12:22:08.493Z</time>
      </trkpt>
      <trkpt lat="43.86466" lon="1.04279">
        <ele>242.909814</ele>
        <time>2023-01-01T12:22:10.480Z</time>
      </trkpt>
      <trkpt lat="43.86464" lon="1.04265">
        <ele>242.149603</ele>
        <time>2023-01-01T12:22:12.480Z</time>
      </trkpt>
      <trkpt lat="43.86461" lon="1.04251">
        <ele>241.380008</ele>
        <time>2023-01-01T12:22:14.475Z</time>
      </trkpt>
      <trkpt lat="43.86457" lon="1.04236">
        <ele>240.576862</ele>
        <time>2023-01-01T12:22:16.495Z</time>
      </trkpt>
      <trkpt lat="43.86452" lon="1.04222">
        <ele>239.795822</ele>
        <time>2023-01-01T12:22:18.486Z</time>
      </trkpt>
      <trkpt lat="43.86444" lon="1.04208">
        <ele>239.246198</ele>
        <time>2023-01-01T12:22:20.488Z</time>
      </trkpt>
      <trkpt lat="43.86434" lon="1.04197">
        <ele>238.713307</ele>
        <time>2023-01-01T12:22:22.497Z</time>
      </trkpt>
      <trkpt lat="43.86424" lon="1.04186">
        <ele>238.138692</ele>
        <time>2023-01-01T12:22:24.496Z</time>
      </trkpt>
      <trkpt lat="43.86413" lon="1.04174">
        <ele>237.554351</ele>
        <time>2023-01-01T12:22:26.484Z</time>
      </trkpt>
      <trkpt lat="43.86401" lon="1.04163">
        <ele>236.925851</ele>
        <time>2023-01-01T12:22:28.496Z</time>
      </trkpt>
      <trkpt lat="43.86389" lon="1.04153">
        <ele>236.309352</ele>
        <time>2023-01-01T12:22:30.492Z</time>
      </trkpt>
      <trkpt lat="43.86378" lon="1.04144">
        <ele>235.755119</ele>
        <time>2023-01-01T12:22:32.501Z</time>
      </trkpt>
      <trkpt lat="43.86368" lon="1.04134">
        <ele>235.237276</ele>
        <time>2023-01-01T12:22:34.502Z</time>
      </trkpt>
      <trkpt lat="43.86359" lon="1.04125">
        <ele>234.750896</ele>
        <time>2023-01-01T12:22:36.504Z</time>
      </trkpt>
      <trkpt lat="43.86351" lon="1.04115">
        <ele>234.280067</ele>
        <time>2023-01-01T12:22:38.485Z</time>
      </trkpt>
      <trkpt lat="43.86344" lon="1.04104">
        <ele>233.811059</ele>
        <time>2023-01-01T12:22:40.495Z</time>
      </trkpt>
      <trkpt lat="43.86337" lon="1.04093">
        <ele>233.362113</ele>
        <time>2023-01-01T12:22:42.480Z</time>
      </trkpt>
      <trkpt lat="43.86332" lon="1.0408">
        <ele>232.899927</ele>
        <time>2023-01-01T12:22:44.484Z</time>
      </trkpt>
      <trkpt lat="43.86327" lon="1.04068">
        <ele>232.450153</ele>
        <time>2023-01-01T12:22:46.491Z</time>
      </trkpt>
      <trkpt lat="43.86323" lon="1.04055">
        <ele>232.007859</ele>
        <time>2023-01-01T12:22:48.494Z</time>
      </trkpt>
      <trkpt lat="43.86319" lon="1.04042">
        <ele>231.444477</ele>
        <time>2023-01-01T12:22:50.494Z</time>
      </trkpt>
      <trkpt lat="43.86318" lon="1.04028">
        <ele>230.87123</ele>
        <time>2023-01-01T12:22:52.502Z</time>
      </trkpt>
      <trkpt lat="43.86317" lon="1.04014">
        <ele>230.297729</ele>
        <time>2023-01-01T12:22:54.493Z</time>
      </trkpt>
      <trkpt lat="43.86316" lon="1.04">
        <ele>229.723438</ele>
        <time>2023-01-01T12:22:56.478Z</time>
      </trkpt>
      <trkpt lat="43.86317" lon="1.03986">
        <ele>229.136267</ele>
        <time>2023-01-01T12:22:58.492Z</time>
      </trkpt>
      <trkpt lat="43.86318" lon="1.03973">
        <ele>228.584164</ele>
        <time>2023-01-01T12:23:00.495Z</time>
      </trkpt>
      <trkpt lat="43.8632" lon="1.0396">
        <ele>228.030972</ele>
        <time>2023-01-01T12:23:02.500Z</time>
      </trkpt>
      <trkpt lat="43.86324" lon="1.03946">
        <ele>227.442076</ele>
        <time>2023-01-01T12:23:04.496Z</time>
      </trkpt>
      <trkpt lat="43.86327" lon="1.03933">
        <ele>226.86081</ele>
        <time>2023-01-01T12:23:06.498Z</time>
      </trkpt>
      <trkpt lat="43.86333" lon="1.0392">
        <ele>226.241934</ele>
        <time>2023-01-01T12:23:08.500Z</time>
      </trkpt>
      <trkpt lat="43.86338" lon="1.03908">
        <ele>225.668275</ele>
        <time>2023-01-01T12:23:10.481Z</time>
      </trkpt>
      <trkpt lat="43.86344" lon="1.03897">
        <ele>225.129252</ele>
        <time>2023-01-01T12:23:12.478Z</time>
      </trkpt>
      <trkpt lat="43.8635" lon="1.03886">
        <ele>224.556621</ele>
        <time>2023-01-01T12:23:14.493Z</time>
      </trkpt>
      <trkpt lat="43.86356" lon="1.03874">
        <ele>223.947594</ele>
        <time>2023-01-01T12:23:16.504Z</time>
      </trkpt>
      <trkpt lat="43.86363" lon="1.03862">
        <ele>223.335097</ele>
        <time>2023-01-01T12:23:18.503Z</time>
      </trkpt>
      <trkpt lat="43.8637" lon="1.03851">
        <ele>222.730907</ele>
        <time>2023-01-01T12:23:20.480Z</time>
      </trkpt>
      <trkpt lat="43.86376" lon="1.03839">
        <ele>222.112059</ele>
        <time>2023-01-01T12:23:22.472Z</time>
      </trkpt>
      <trkpt lat="43.86383" lon="1.03827">
        <ele>221.38986</ele>
        <time>2023-01-01T12:23:24.492Z</time>
      </trkpt>
      <trkpt lat="43.8639" lon="1.03816">
        <ele>220.627211</ele>
        <time>2023-01-01T12:23:26.493Z</time>
      </trkpt>
      <trkpt lat="43.86396" lon="1.03804">
        <ele>219.868719</ele>
        <time>2023-01-01T12:23:28.498Z</time>
      </trkpt>
      <trkpt lat="43.86402" lon="1.03792">
        <ele>219.126732</ele>
        <time>2023-01-01T12:23:30.501Z</time>
      </trkpt>
      <trkpt lat="43.86408" lon="1.03781">
        <ele>218.38922</ele>
        <time>2023-01-01T12:23:32.496Z</time>
      </trkpt>
      <trkpt lat="43.86414" lon="1.03769">
        <ele>217.646895</ele>
        <time>2023-01-01T12:23:34.500Z</time>
      </trkpt>
      <trkpt lat="43.8642" lon="1.03756">
        <ele>216.85934</ele>
        <time>2023-01-01T12:23:36.495Z</time>
      </trkpt>
      <trkpt lat="43.86425" lon="1.03742">
        <ele>216.06613</ele>
        <time>2023-01-01T12:23:38.500Z</time>
      </trkpt>
      <trkpt lat="43.86429" lon="1.03729">
        <ele>215.32427</ele>
        <time>2023-01-01T12:23:40.507Z</time>
      </trkpt>
      <trkpt lat="43.86434" lon="1.03716">
        <ele>214.580844</ele>
        <time>2023-01-01T12:23:42.499Z</time>
      </trkpt>
      <trkpt lat="43.86439" lon="1.03702">
        <ele>213.784374</ele>
        <time>2023-01-01T12:23:44.497Z</time>
      </trkpt>
      <trkpt lat="43.86443" lon="1.03688">
        <ele>212.990712</ele>
        <time>2023-01-01T12:23:46.499Z</time>
      </trkpt>
      <trkpt lat="43.86448" lon="1.03674">
        <ele>212.157105</ele>
        <time>2023-01-01T12:23:48.504Z</time>
      </trkpt>
      <trkpt lat="43.86453" lon="1.03658">
        <ele>211.27228</ele>
        <time>2023-01-01T12:23:50.493Z</time>
      </trkpt>
      <trkpt lat="43.86458" lon="1.03643">
        <ele>210.406232</ele>
        <time>2023-01-01T12:23:52.495Z</time>
      </trkpt>
      <trkpt lat="43.86463" lon="1.03627">
        <ele>209.507272</ele>
        <time>2023-01-01T12:23:54.476Z</time>
      </trkpt>
      <trkpt lat="43.86469" lon="1.03611">
        <ele>208.590044</ele>
        <time>2023-01-01T12:23:56.497Z</time>
      </trkpt>
      <trkpt lat="43.86474" lon="1.03596">
        <ele>207.636632</ele>
        <time>2023-01-01T12:23:58.500Z</time>
      </trkpt>
      <trkpt lat="43.86479" lon="1.03581">
        <ele>206.673031</ele>
        <time>2023-01-01T12:24:00.491Z</time>
      </trkpt>
      <trkpt lat="43.86485" lon="1.03565">
        <ele>205.675308</ele>
        <time>2023-01-01T12:24:02.493Z</time>
      </trkpt>
      <trkpt lat="43.8649" lon="1.03549">
        <ele>204.675297</ele>
        <time>2023-01-01T12:24:04.496Z</time>
      </trkpt>
      <trkpt lat="43.86495" lon="1.03535">
        <ele>203.742183</ele>
        <time>2023-01-01T12:24:06.495Z</time>
      </trkpt>
      <trkpt lat="43.86501" lon="1.03519">
        <ele>202.733783</ele>
        <time>2023-01-01T12:24:08.496Z</time>
      </trkpt>
      <trkpt lat="43.86506" lon="1.03502">
        <ele>201.700071</ele>
        <time>2023-01-01T12:24:10.490Z</time>
      </trkpt>
      <trkpt lat="43.86512" lon="1.03486">
        <ele>200.681819</ele>
        <time>2023-01-01T12:24:12.491Z</time>
      </trkpt>
      <trkpt lat="43.86517" lon="1.03469">
        <ele>199.653534</ele>
        <time>2023-01-01T12:24:14.495Z</time>
      </trkpt>
      <trkpt lat="43.86522" lon="1.03452">
        <ele>198.595961</ele>
        <time>2023-01-01T12:24:16.502Z</time>
      </trkpt>
      <trkpt lat="43.86527" lon="1.03436">
        <ele>197.573964</ele>
        <time>2023-01-01T12:24:18.500Z</time>
      </trkpt>
      <trkpt lat="43.86533" lon="1.03418">
        <ele>196.497502</ele>
        <time>2023-01-01T12:24:20.482Z</time>
      </trkpt>
      <trkpt lat="43.86539" lon="1.034">
        <ele>195.371632</ele>
        <time>2023-01-01T12:24:22.491Z</time>
      </trkpt>
      <trkpt lat="43.86545" lon="1.03383">
        <ele>194.440459</ele>
        <time>2023-01-01T12:24:24.490Z</time>
      </trkpt>
      <trkpt lat="43.86551" lon="1.03366">
        <ele>193.702184</ele>
        <time>2023-01-01T12:24:26.493Z</time>
      </trkpt>
      <trkpt lat="43.86557" lon="1.03347">
        <ele>192.93832</ele>
        <time>2023-01-01T12:24:28.494Z</time>
      </trkpt>
      <trkpt lat="43.86563" lon="1.03329">
        <ele>192.176279</ele>
        <time>2023-01-01T12:24:30.501Z</time>
      </trkpt>
      <trkpt lat="43.86569" lon="1.03312">
        <ele>191.435892</ele>
        <time>2023-01-01T12:24:32.498Z</time>
      </trkpt>
      <trkpt lat="43.86575" lon="1.03294">
        <ele>190.68532</ele>
        <time>2023-01-01T12:24:34.490Z</time>
      </trkpt>
      <trkpt lat="43.86582" lon="1.03276">
        <ele>189.92562</ele>
        <time>2023-01-01T12:24:36.475Z</time>
      </trkpt>
      <trkpt lat="43.86588" lon="1.03257">
        <ele>189.147588</ele>
        <time>2023-01-01T12:24:38.500Z</time>
      </trkpt>
      <trkpt lat="43.86594" lon="1.03239">
        <ele>188.385123</ele>
        <time>2023-01-01T12:24:40.497Z</time>
      </trkpt>
      <trkpt lat="43.866" lon="1.0322">
        <ele>187.581995</ele>
        <time>2023-01-01T12:24:42.501Z</time>
      </trkpt>
      <trkpt lat="43.86606" lon="1.03199">
        <ele>186.744253</ele>
        <time>2023-01-01T12:24:44.487Z</time>
      </trkpt>
      <trkpt lat="43.86613" lon="1.0318">
        <ele>185.941126</ele>
        <time>2023-01-01T12:24:46.490Z</time>
      </trkpt>
      <trkpt lat="43.86619" lon="1.0316">
        <ele>185.260202</ele>
        <time>2023-01-01T12:24:48.497Z</time>
      </trkpt>
      <trkpt lat="43.86625" lon="1.03139">
        <ele>185.136706</ele>
        <time>2023-01-01T12:24:50.501Z</time>
      </trkpt>
      <trkpt lat="43.86632" lon="1.03118">
        <ele>185.007458</ele>
        <time>2023-01-01T12:24:52.508Z</time>
      </trkpt>
      <trkpt lat="43.8664" lon="1.03096">
        <ele>184.877111</ele>
        <time>2023-01-01T12:24:54.499Z</time>
      </trkpt>
      <trkpt lat="43.86646" lon="1.03076">
        <ele>184.753679</ele>
        <time>2023-01-01T12:24:56.498Z</time>
      </trkpt>
      <trkpt lat="43.86654" lon="1.03056">
        <ele>184.633009</ele>
        <time>2023-01-01T12:24:58.496Z</time>
      </trkpt>
      <trkpt lat="43.8666" lon="1.03037">
        <ele>184.516517</ele>
        <time>2023-01-01T12:25:00.500Z</time>
      </trkpt>
      <trkpt lat="43.86667" lon="1.03018">
        <ele>184.401835</ele>
        <time>2023-01-01T12:25:02.497Z</time>
      </trkpt>
      <trkpt lat="43.86674" lon="1.03">
        <ele>184.287983</ele>
        <time>2023-01-01T12:25:04.492Z</time>
      </trkpt>
      <trkpt lat="43.8668" lon="1.02982">
        <ele>184.179415</ele>
        <time>2023-01-01T12:25:06.498Z</time>
      </trkpt>
      <trkpt lat="43.86686" lon="1.02964">
        <ele>184.072496</ele>
        <time>2023-01-01T12:25:08.496Z</time>
      </trkpt>
      <trkpt lat="43.86692" lon="1.02948">
        <ele>183.970854</ele>
        <time>2023-01-01T12:25:10.498Z</time>
      </trkpt>
      <trkpt lat="43.86697" lon="1.02931">
        <ele>183.818623</ele>
        <time>2023-01-01T12:25:12.481Z</time>
      </trkpt>
      <trkpt lat="43.86702" lon="1.02914">
        <ele>183.602984</ele>
        <time>2023-01-01T12:25:14.493Z</time>
      </trkpt>
      <trkpt lat="43.86709" lon="1.02895">
        <ele>183.373187</ele>
        <time>2023-01-01T12:25:16.498Z</time>
      </trkpt>
      <trkpt lat="43.86715" lon="1.02877">
        <ele>183.135164</ele>
        <time>2023-01-01T12:25:18.497Z</time>
      </trkpt>
      <trkpt lat="43.86722" lon="1.02858">
        <ele>182.896452</ele>
        <time>2023-01-01T12:25:20.487Z</time>
      </trkpt>
      <trkpt lat="43.86728" lon="1.02838">
        <ele>182.64639</ele>
        <time>2023-01-01T12:25:22.497Z</time>
      </trkpt>
      <trkpt lat="43.86734" lon="1.02818">
        <ele>182.401632</ele>
        <time>2023-01-01T12:25:24.492Z</time>
      </trkpt>
      <trkpt lat="43.86741" lon="1.02798">
        <ele>182.145973</ele>
        <time>2023-01-01T12:25:26.488Z</time>
      </trkpt>
      <trkpt lat="43.86747" lon="1.02778">
        <ele>181.898904</ele>
        <time>2023-01-01T12:25:28.493Z</time>
      </trkpt>
      <trkpt lat="43.86754" lon="1.02757">
        <ele>181.63375</ele>
        <time>2023-01-01T12:25:30.499Z</time>
      </trkpt>
      <trkpt lat="43.86762" lon="1.02735">
        <ele>181.358671</ele>
        <time>2023-01-01T12:25:32.500Z</time>
      </trkpt>
      <trkpt lat="43.86766" lon="1.02723">
        <ele>181.212821</ele>
        <time>2023-01-01T12:25:33.500Z</time>
      </trkpt>
      <trkpt lat="43.86769" lon="1.02712">
        <ele>181.068657</ele>
        <time>2023-01-01T12:25:34.502Z</time>
      </trkpt>
      <trkpt lat="43.86776" lon="1.02689">
        <ele>180.675344</ele>
        <time>2023-01-01T12:25:36.492Z</time>
      </trkpt>
      <trkpt lat="43.8678" lon="1.02677">
        <ele>180.47218</ele>
        <time>2023-01-01T12:25:37.492Z</time>
      </trkpt>
      <trkpt lat="43.86784" lon="1.02665">
        <ele>180.268102</ele>
        <time>2023-01-01T12:25:38.497Z</time>
      </trkpt>
      <trkpt lat="43.86788" lon="1.02654">
        <ele>180.069672</ele>
        <time>2023-01-01T12:25:39.491Z</time>
      </trkpt>
      <trkpt lat="43.86796" lon="1.02632">
        <ele>179.685967</ele>
        <time>2023-01-01T12:25:41.494Z</time>
      </trkpt>
      <trkpt lat="43.86803" lon="1.0261">
        <ele>179.310741</ele>
        <time>2023-01-01T12:25:43.496Z</time>
      </trkpt>
      <trkpt lat="43.8681" lon="1.02589">
        <ele>178.946154</ele>
        <time>2023-01-01T12:25:45.502Z</time>
      </trkpt>
      <trkpt lat="43.86817" lon="1.02568">
        <ele>178.588796</ele>
        <time>2023-01-01T12:25:47.501Z</time>
      </trkpt>
      <trkpt lat="43.86825" lon="1.02548">
        <ele>178.239343</ele>
        <time>2023-01-01T12:25:49.501Z</time>
      </trkpt>
      <trkpt lat="43.86832" lon="1.02528">
        <ele>177.881496</ele>
        <time>2023-01-01T12:25:51.498Z</time>
      </trkpt>
      <trkpt lat="43.86839" lon="1.02508">
        <ele>177.531658</ele>
        <time>2023-01-01T12:25:53.491Z</time>
      </trkpt>
      <trkpt lat="43.86846" lon="1.02488">
        <ele>177.185555</ele>
        <time>2023-01-01T12:25:55.500Z</time>
      </trkpt>
      <trkpt lat="43.86852" lon="1.02469">
        <ele>177.018931</ele>
        <time>2023-01-01T12:25:57.501Z</time>
      </trkpt>
      <trkpt lat="43.86859" lon="1.02451">
        <ele>176.874264</ele>
        <time>2023-01-01T12:25:59.498Z</time>
      </trkpt>
      <trkpt lat="43.86865" lon="1.02435">
        <ele>176.737168</ele>
        <time>2023-01-01T12:26:01.499Z</time>
      </trkpt>
      <trkpt lat="43.8687" lon="1.02418">
        <ele>176.603571</ele>
        <time>2023-01-01T12:26:03.490Z</time>
      </trkpt>
      <trkpt lat="43.86874" lon="1.02403">
        <ele>176.481743</ele>
        <time>2023-01-01T12:26:05.497Z</time>
      </trkpt>
      <trkpt lat="43.86879" lon="1.02388">
        <ele>176.364837</ele>
        <time>2023-01-01T12:26:07.498Z</time>
      </trkpt>
      <trkpt lat="43.86883" lon="1.02376">
        <ele>176.264848</ele>
        <time>2023-01-01T12:26:09.496Z</time>
      </trkpt>
      <trkpt lat="43.86887" lon="1.02364">
        <ele>176.16707</ele>
        <time>2023-01-01T12:26:11.499Z</time>
      </trkpt>
      <trkpt lat="43.86891" lon="1.02352">
        <ele>176.067816</ele>
        <time>2023-01-01T12:26:13.500Z</time>
      </trkpt>
      <trkpt lat="43.86895" lon="1.02339">
        <ele>175.965317</ele>
        <time>2023-01-01T12:26:15.498Z</time>
      </trkpt>
      <trkpt lat="43.86899" lon="1.02326">
        <ele>175.862139</ele>
        <time>2023-01-01T12:26:17.503Z</time>
      </trkpt>
      <trkpt lat="43.86903" lon="1.02314">
        <ele>175.758549</ele>
        <time>2023-01-01T12:26:19.490Z</time>
      </trkpt>
      <trkpt lat="43.86906" lon="1.023">
        <ele>175.654149</ele>
        <time>2023-01-01T12:26:21.501Z</time>
      </trkpt>
      <trkpt lat="43.8691" lon="1.02288">
        <ele>175.554597</ele>
        <time>2023-01-01T12:26:23.493Z</time>
      </trkpt>
      <trkpt lat="43.86914" lon="1.02275">
        <ele>175.44683</ele>
        <time>2023-01-01T12:26:25.500Z</time>
      </trkpt>
      <trkpt lat="43.86919" lon="1.02262">
        <ele>175.343286</ele>
        <time>2023-01-01T12:26:27.497Z</time>
      </trkpt>
      <trkpt lat="43.86923" lon="1.0225">
        <ele>175.236209</ele>
        <time>2023-01-01T12:26:29.504Z</time>
      </trkpt>
      <trkpt lat="43.86927" lon="1.02239">
        <ele>175.127832</ele>
        <time>2023-01-01T12:26:31.502Z</time>
      </trkpt>
      <trkpt lat="43.86932" lon="1.02222">
        <ele>174.975674</ele>
        <time>2023-01-01T12:26:34.499Z</time>
      </trkpt>
      <trkpt lat="43.86938" lon="1.02205">
        <ele>174.820252</ele>
        <time>2023-01-01T12:26:37.502Z</time>
      </trkpt>
      <trkpt lat="43.86942" lon="1.02193">
        <ele>174.70534</ele>
        <time>2023-01-01T12:26:39.501Z</time>
      </trkpt>
      <trkpt lat="43.86946" lon="1.02179">
        <ele>174.580713</ele>
        <time>2023-01-01T12:26:41.498Z</time>
      </trkpt>
      <trkpt lat="43.86951" lon="1.02165">
        <ele>174.442267</ele>
        <time>2023-01-01T12:26:43.500Z</time>
      </trkpt>
      <trkpt lat="43.86956" lon="1.02149">
        <ele>174.295964</ele>
        <time>2023-01-01T12:26:45.500Z</time>
      </trkpt>
      <trkpt lat="43.86962" lon="1.02133">
        <ele>174.150676</ele>
        <time>2023-01-01T12:26:47.496Z</time>
      </trkpt>
      <trkpt lat="43.86967" lon="1.02118">
        <ele>174.008112</ele>
        <time>2023-01-01T12:26:49.497Z</time>
      </trkpt>
      <trkpt lat="43.86973" lon="1.02102">
        <ele>173.858762</ele>
        <time>2023-01-01T12:26:51.502Z</time>
      </trkpt>
      <trkpt lat="43.86978" lon="1.02085">
        <ele>173.703521</ele>
        <time>2023-01-01T12:26:53.500Z</time>
      </trkpt>
      <trkpt lat="43.86984" lon="1.02067">
        <ele>173.541168</ele>
        <time>2023-01-01T12:26:55.504Z</time>
      </trkpt>
      <trkpt lat="43.86989" lon="1.0205">
        <ele>173.379198</ele>
        <time>2023-01-01T12:26:57.500Z</time>
      </trkpt>
      <trkpt lat="43.86995" lon="1.02032">
        <ele>173.222884</ele>
        <time>2023-01-01T12:26:59.500Z</time>
      </trkpt>
      <trkpt lat="43.87001" lon="1.02015">
        <ele>173.410596</ele>
        <time>2023-01-01T12:27:01.501Z</time>
      </trkpt>
      <trkpt lat="43.87007" lon="1.01997">
        <ele>173.602424</ele>
        <time>2023-01-01T12:27:03.490Z</time>
      </trkpt>
      <trkpt lat="43.87013" lon="1.0198">
        <ele>173.790103</ele>
        <time>2023-01-01T12:27:05.495Z</time>
      </trkpt>
      <trkpt lat="43.87019" lon="1.01964">
        <ele>173.968286</ele>
        <time>2023-01-01T12:27:07.501Z</time>
      </trkpt>
      <trkpt lat="43.87026" lon="1.0195">
        <ele>174.136682</ele>
        <time>2023-01-01T12:27:09.503Z</time>
      </trkpt>
      <trkpt lat="43.87031" lon="1.01934">
        <ele>174.309143</ele>
        <time>2023-01-01T12:27:11.502Z</time>
      </trkpt>
      <trkpt lat="43.87036" lon="1.01918">
        <ele>174.482292</ele>
        <time>2023-01-01T12:27:13.502Z</time>
      </trkpt>
      <trkpt lat="43.87042" lon="1.01904">
        <ele>174.642112</ele>
        <time>2023-01-01T12:27:15.503Z</time>
      </trkpt>
      <trkpt lat="43.87046" lon="1.01889">
        <ele>174.798105</ele>
        <time>2023-01-01T12:27:17.481Z</time>
      </trkpt>
      <trkpt lat="43.87051" lon="1.01877">
        <ele>174.93538</ele>
        <time>2023-01-01T12:27:19.492Z</time>
      </trkpt>
      <trkpt lat="43.87056" lon="1.01859">
        <ele>175.119234</ele>
        <time>2023-01-01T12:27:22.505Z</time>
      </trkpt>
      <trkpt lat="43.8706" lon="1.01845">
        <ele>175.278488</ele>
        <time>2023-01-01T12:27:25.494Z</time>
      </trkpt>
      <trkpt lat="43.87065" lon="1.01831">
        <ele>175.424952</ele>
        <time>2023-01-01T12:27:28.475Z</time>
      </trkpt>
      <trkpt lat="43.8707" lon="1.01818">
        <ele>175.568846</ele>
        <time>2023-01-01T12:27:31.481Z</time>
      </trkpt>
      <trkpt lat="43.87074" lon="1.01806">
        <ele>175.727577</ele>
        <time>2023-01-01T12:27:34.500Z</time>
      </trkpt>
      <trkpt lat="43.87078" lon="1.01794">
        <ele>176.03001</ele>
        <time>2023-01-01T12:27:37.503Z</time>
      </trkpt>
      <trkpt lat="43.87082" lon="1.01782">
        <ele>176.317092</ele>
        <time>2023-01-01T12:27:40.498Z</time>
      </trkpt>
      <trkpt lat="43.87086" lon="1.0177">
        <ele>176.603492</ele>
        <time>2023-01-01T12:27:43.497Z</time>
      </trkpt>
      <trkpt lat="43.8709" lon="1.01758">
        <ele>176.911461</ele>
        <time>2023-01-01T12:27:46.512Z</time>
      </trkpt>
      <trkpt lat="43.87094" lon="1.01744">
        <ele>177.240603</ele>
        <time>2023-01-01T12:27:49.482Z</time>
      </trkpt>
      <trkpt lat="43.871" lon="1.01731">
        <ele>177.574004</ele>
        <time>2023-01-01T12:27:52.502Z</time>
      </trkpt>
      <trkpt lat="43.87104" lon="1.01716">
        <ele>177.947662</ele>
        <time>2023-01-01T12:27:55.501Z</time>
      </trkpt>
      <trkpt lat="43.8711" lon="1.017">
        <ele>178.335638</ele>
        <time>2023-01-01T12:27:58.500Z</time>
      </trkpt>
      <trkpt lat="43.87115" lon="1.01684">
        <ele>178.728212</ele>
        <time>2023-01-01T12:28:01.498Z</time>
      </trkpt>
      <trkpt lat="43.8712" lon="1.01668">
        <ele>179.118212</ele>
        <time>2023-01-01T12:28:04.498Z</time>
      </trkpt>
      <trkpt lat="43.87124" lon="1.01657">
        <ele>179.397303</ele>
        <time>2023-01-01T12:28:06.500Z</time>
      </trkpt>
      <trkpt lat="43.87131" lon="1.01641">
        <ele>179.80541</ele>
        <time>2023-01-01T12:28:09.474Z</time>
      </trkpt>
      <trkpt lat="43.87137" lon="1.01625">
        <ele>180.205148</ele>
        <time>2023-01-01T12:28:12.499Z</time>
      </trkpt>
      <trkpt lat="43.87143" lon="1.01608">
        <ele>180.614678</ele>
        <time>2023-01-01T12:28:15.502Z</time>
      </trkpt>
      <trkpt lat="43.87147" lon="1.01597">
        <ele>180.897186</ele>
        <time>2023-01-01T12:28:17.503Z</time>
      </trkpt>
      <trkpt lat="43.87151" lon="1.01585">
        <ele>181.192984</ele>
        <time>2023-01-01T12:28:19.493Z</time>
      </trkpt>
      <trkpt lat="43.87156" lon="1.01569">
        <ele>181.117068</ele>
        <time>2023-01-01T12:28:22.503Z</time>
      </trkpt>
      <trkpt lat="43.87162" lon="1.01552">
        <ele>181.001841</ele>
        <time>2023-01-01T12:28:25.498Z</time>
      </trkpt>
      <trkpt lat="43.87168" lon="1.01535">
        <ele>180.879814</ele>
        <time>2023-01-01T12:28:28.492Z</time>
      </trkpt>
      <trkpt lat="43.87171" lon="1.01524">
        <ele>180.796348</ele>
        <time>2023-01-01T12:28:30.496Z</time>
      </trkpt>
      <trkpt lat="43.87175" lon="1.01512">
        <ele>180.7149</ele>
        <time>2023-01-01T12:28:32.476Z</time>
      </trkpt>
      <trkpt lat="43.87179" lon="1.015">
        <ele>180.627506</ele>
        <time>2023-01-01T12:28:34.493Z</time>
      </trkpt>
      <trkpt lat="43.87183" lon="1.01487">
        <ele>180.53676</ele>
        <time>2023-01-01T12:28:36.501Z</time>
      </trkpt>
      <trkpt lat="43.87187" lon="1.01474">
        <ele>180.446392</ele>
        <time>2023-01-01T12:28:38.499Z</time>
      </trkpt>
      <trkpt lat="43.87191" lon="1.01462">
        <ele>180.36207</ele>
        <time>2023-01-01T12:28:40.500Z</time>
      </trkpt>
      <trkpt lat="43.87195" lon="1.01449">
        <ele>180.270739</ele>
        <time>2023-01-01T12:28:42.473Z</time>
      </trkpt>
      <trkpt lat="43.87199" lon="1.01437">
        <ele>180.184853</ele>
        <time>2023-01-01T12:28:44.497Z</time>
      </trkpt>
      <trkpt lat="43.87203" lon="1.01425">
        <ele>180.098579</ele>
        <time>2023-01-01T12:28:46.493Z</time>
      </trkpt>
      <trkpt lat="43.87207" lon="1.01413">
        <ele>180.012887</ele>
        <time>2023-01-01T12:28:48.475Z</time>
      </trkpt>
      <trkpt lat="43.87211" lon="1.01401">
        <ele>179.926794</ele>
        <time>2023-01-01T12:28:50.502Z</time>
      </trkpt>
      <trkpt lat="43.87215" lon="1.01389">
        <ele>179.842618</ele>
        <time>2023-01-01T12:28:52.504Z</time>
      </trkpt>
      <trkpt lat="43.87219" lon="1.01378">
        <ele>179.761032</ele>
        <time>2023-01-01T12:28:54.498Z</time>
      </trkpt>
      <trkpt lat="43.87224" lon="1.01362">
        <ele>179.645026</ele>
        <time>2023-01-01T12:28:57.499Z</time>
      </trkpt>
      <trkpt lat="43.8723" lon="1.01346">
        <ele>179.568949</ele>
        <time>2023-01-01T12:29:00.501Z</time>
      </trkpt>
      <trkpt lat="43.87234" lon="1.01332">
        <ele>179.514724</ele>
        <time>2023-01-01T12:29:03.498Z</time>
      </trkpt>
      <trkpt lat="43.87239" lon="1.01317">
        <ele>179.459983</ele>
        <time>2023-01-01T12:29:06.493Z</time>
      </trkpt>
      <trkpt lat="43.87243" lon="1.01303">
        <ele>179.407249</ele>
        <time>2023-01-01T12:29:09.474Z</time>
      </trkpt>
      <trkpt lat="43.87249" lon="1.01288">
        <ele>179.348405</ele>
        <time>2023-01-01T12:29:12.490Z</time>
      </trkpt>
      <trkpt lat="43.87253" lon="1.01277">
        <ele>179.303781</ele>
        <time>2023-01-01T12:29:14.488Z</time>
      </trkpt>
      <trkpt lat="43.87257" lon="1.01265">
        <ele>179.258732</ele>
        <time>2023-01-01T12:29:16.482Z</time>
      </trkpt>
      <trkpt lat="43.87261" lon="1.01253">
        <ele>179.213684</ele>
        <time>2023-01-01T12:29:18.497Z</time>
      </trkpt>
      <trkpt lat="43.87265" lon="1.01241">
        <ele>179.165906</ele>
        <time>2023-01-01T12:29:20.490Z</time>
      </trkpt>
      <trkpt lat="43.87269" lon="1.01228">
        <ele>179.117101</ele>
        <time>2023-01-01T12:29:22.498Z</time>
      </trkpt>
      <trkpt lat="43.87273" lon="1.01215">
        <ele>179.070087</ele>
        <time>2023-01-01T12:29:24.497Z</time>
      </trkpt>
      <trkpt lat="43.87277" lon="1.01204">
        <ele>179.023671</ele>
        <time>2023-01-01T12:29:26.482Z</time>
      </trkpt>
      <trkpt lat="43.87282" lon="1.01193">
        <ele>178.980474</ele>
        <time>2023-01-01T12:29:28.481Z</time>
      </trkpt>
      <trkpt lat="43.87287" lon="1.01176">
        <ele>178.916666</ele>
        <time>2023-01-01T12:29:31.500Z</time>
      </trkpt>
      <trkpt lat="43.87291" lon="1.01165">
        <ele>178.872765</ele>
        <time>2023-01-01T12:29:33.502Z</time>
      </trkpt>
      <trkpt lat="43.87297" lon="1.01149">
        <ele>178.81269</ele>
        <time>2023-01-01T12:29:36.500Z</time>
      </trkpt>
      <trkpt lat="43.87303" lon="1.01133">
        <ele>178.749297</ele>
        <time>2023-01-01T12:29:39.501Z</time>
      </trkpt>
      <trkpt lat="43.87307" lon="1.01122">
        <ele>178.51522</ele>
        <time>2023-01-01T12:29:41.492Z</time>
      </trkpt>
      <trkpt lat="43.8731" lon="1.0111">
        <ele>178.256668</ele>
        <time>2023-01-01T12:29:43.501Z</time>
      </trkpt>
      <trkpt lat="43.87316" lon="1.01093">
        <ele>177.883927</ele>
        <time>2023-01-01T12:29:46.503Z</time>
      </trkpt>
      <trkpt lat="43.8732" lon="1.01082">
        <ele>177.622334</ele>
        <time>2023-01-01T12:29:48.505Z</time>
      </trkpt>
      <trkpt lat="43.87323" lon="1.0107">
        <ele>177.363783</ele>
        <time>2023-01-01T12:29:50.492Z</time>
      </trkpt>
      <trkpt lat="43.87327" lon="1.01058">
        <ele>177.095825</ele>
        <time>2023-01-01T12:29:52.493Z</time>
      </trkpt>
      <trkpt lat="43.8733" lon="1.01045">
        <ele>176.811671</ele>
        <time>2023-01-01T12:29:54.500Z</time>
      </trkpt>
      <trkpt lat="43.87334" lon="1.01032">
        <ele>176.51428</ele>
        <time>2023-01-01T12:29:56.485Z</time>
      </trkpt>
      <trkpt lat="43.87339" lon="1.01018">
        <ele>176.202134</ele>
        <time>2023-01-01T12:29:58.499Z</time>
      </trkpt>
      <trkpt lat="43.87344" lon="1.01005">
        <ele>175.883365</ele>
        <time>2023-01-01T12:30:00.501Z</time>
      </trkpt>
      <trkpt lat="43.87349" lon="1.00991">
        <ele>175.563849</ele>
        <time>2023-01-01T12:30:02.495Z</time>
      </trkpt>
      <trkpt lat="43.87354" lon="1.00976">
        <ele>175.238135</ele>
        <time>2023-01-01T12:30:04.496Z</time>
      </trkpt>
      <trkpt lat="43.87359" lon="1.00961">
        <ele>174.884591</ele>
        <time>2023-01-01T12:30:06.497Z</time>
      </trkpt>
      <trkpt lat="43.87364" lon="1.00945">
        <ele>174.536653</ele>
        <time>2023-01-01T12:30:08.487Z</time>
      </trkpt>
      <trkpt lat="43.8737" lon="1.00928">
        <ele>174.155252</ele>
        <time>2023-01-01T12:30:10.484Z</time>
      </trkpt>
      <trkpt lat="43.87375" lon="1.00911">
        <ele>173.778756</ele>
        <time>2023-01-01T12:30:12.495Z</time>
      </trkpt>
      <trkpt lat="43.87381" lon="1.00896">
        <ele>173.479265</ele>
        <time>2023-01-01T12:30:14.498Z</time>
      </trkpt>
      <trkpt lat="43.87386" lon="1.0088">
        <ele>173.223216</ele>
        <time>2023-01-01T12:30:16.486Z</time>
      </trkpt>
      <trkpt lat="43.87391" lon="1.00864">
        <ele>172.969894</ele>
        <time>2023-01-01T12:30:18.501Z</time>
      </trkpt>
      <trkpt lat="43.87396" lon="1.00848">
        <ele>172.712302</ele>
        <time>2023-01-01T12:30:20.475Z</time>
      </trkpt>
      <trkpt lat="43.87401" lon="1.00833">
        <ele>172.474709</ele>
        <time>2023-01-01T12:30:22.498Z</time>
      </trkpt>
      <trkpt lat="43.87407" lon="1.00818">
        <ele>172.221751</ele>
        <time>2023-01-01T12:30:24.490Z</time>
      </trkpt>
      <trkpt lat="43.87413" lon="1.00802">
        <ele>171.966828</ele>
        <time>2023-01-01T12:30:26.502Z</time>
      </trkpt>
      <trkpt lat="43.87419" lon="1.00786">
        <ele>171.70259</ele>
        <time>2023-01-01T12:30:28.494Z</time>
      </trkpt>
      <trkpt lat="43.87424" lon="1.00771">
        <ele>171.443919</ele>
        <time>2023-01-01T12:30:30.502Z</time>
      </trkpt>
      <trkpt lat="43.87431" lon="1.00754">
        <ele>171.166736</ele>
        <time>2023-01-01T12:30:32.496Z</time>
      </trkpt>
      <trkpt lat="43.87436" lon="1.00738">
        <ele>170.907172</ele>
        <time>2023-01-01T12:30:34.485Z</time>
      </trkpt>
      <trkpt lat="43.87441" lon="1.00721">
        <ele>170.638795</ele>
        <time>2023-01-01T12:30:36.486Z</time>
      </trkpt>
      <trkpt lat="43.87447" lon="1.00703">
        <ele>170.359425</ele>
        <time>2023-01-01T12:30:38.499Z</time>
      </trkpt>
      <trkpt lat="43.87453" lon="1.00686">
        <ele>170.083185</ele>
        <time>2023-01-01T12:30:40.502Z</time>
      </trkpt>
      <trkpt lat="43.87459" lon="1.00669">
        <ele>169.779825</ele>
        <time>2023-01-01T12:30:42.499Z</time>
      </trkpt>
      <trkpt lat="43.87464" lon="1.00651">
        <ele>169.461742</ele>
        <time>2023-01-01T12:30:44.487Z</time>
      </trkpt>
      <trkpt lat="43.87471" lon="1.00634">
        <ele>169.146323</ele>
        <time>2023-01-01T12:30:46.492Z</time>
      </trkpt>
      <trkpt lat="43.87476" lon="1.00616">
        <ele>168.822226</ele>
        <time>2023-01-01T12:30:48.501Z</time>
      </trkpt>
      <trkpt lat="43.87482" lon="1.00598">
        <ele>168.495497</ele>
        <time>2023-01-01T12:30:50.495Z</time>
      </trkpt>
      <trkpt lat="43.87489" lon="1.00579">
        <ele>168.164833</ele>
        <time>2023-01-01T12:30:52.496Z</time>
      </trkpt>
      <trkpt lat="43.87495" lon="1.00562">
        <ele>167.848411</ele>
        <time>2023-01-01T12:30:54.499Z</time>
      </trkpt>
      <trkpt lat="43.87501" lon="1.00544">
        <ele>167.529414</ele>
        <time>2023-01-01T12:30:56.469Z</time>
      </trkpt>
      <trkpt lat="43.87507" lon="1.00526">
        <ele>167.203659</ele>
        <time>2023-01-01T12:30:58.499Z</time>
      </trkpt>
      <trkpt lat="43.87513" lon="1.00508">
        <ele>166.875889</ele>
        <time>2023-01-01T12:31:00.501Z</time>
      </trkpt>
      <trkpt lat="43.87519" lon="1.00491">
        <ele>166.555523</ele>
        <time>2023-01-01T12:31:02.492Z</time>
      </trkpt>
      <trkpt lat="43.87525" lon="1.00472">
        <ele>166.229026</ele>
        <time>2023-01-01T12:31:04.481Z</time>
      </trkpt>
      <trkpt lat="43.8753" lon="1.00455">
        <ele>165.918986</ele>
        <time>2023-01-01T12:31:06.485Z</time>
      </trkpt>
      <trkpt lat="43.87536" lon="1.00438">
        <ele>165.494658</ele>
        <time>2023-01-01T12:31:08.496Z</time>
      </trkpt>
      <trkpt lat="43.87542" lon="1.00422">
        <ele>165.0574</ele>
        <time>2023-01-01T12:31:10.498Z</time>
      </trkpt>
      <trkpt lat="43.87547" lon="1.00405">
        <ele>164.621657</ele>
        <time>2023-01-01T12:31:12.503Z</time>
      </trkpt>
      <trkpt lat="43.87552" lon="1.00388">
        <ele>164.197677</ele>
        <time>2023-01-01T12:31:14.501Z</time>
      </trkpt>
      <trkpt lat="43.87557" lon="1.00372">
        <ele>163.783683</ele>
        <time>2023-01-01T12:31:16.500Z</time>
      </trkpt>
      <trkpt lat="43.87563" lon="1.00357">
        <ele>163.368473</ele>
        <time>2023-01-01T12:31:18.500Z</time>
      </trkpt>
      <trkpt lat="43.87569" lon="1.00341">
        <ele>162.965112</ele>
        <time>2023-01-01T12:31:20.495Z</time>
      </trkpt>
      <trkpt lat="43.87574" lon="1.00326">
        <ele>162.559654</ele>
        <time>2023-01-01T12:31:22.500Z</time>
      </trkpt>
      <trkpt lat="43.8758" lon="1.00309">
        <ele>162.124362</ele>
        <time>2023-01-01T12:31:24.479Z</time>
      </trkpt>
      <trkpt lat="43.87585" lon="1.00293">
        <ele>161.699849</ele>
        <time>2023-01-01T12:31:26.497Z</time>
      </trkpt>
      <trkpt lat="43.87591" lon="1.00276">
        <ele>161.245538</ele>
        <time>2023-01-01T12:31:28.500Z</time>
      </trkpt>
      <trkpt lat="43.87597" lon="1.00259">
        <ele>160.813205</ele>
        <time>2023-01-01T12:31:30.495Z</time>
      </trkpt>
      <trkpt lat="43.87603" lon="1.00241">
        <ele>160.328972</ele>
        <time>2023-01-01T12:31:32.490Z</time>
      </trkpt>
      <trkpt lat="43.8761" lon="1.0022">
        <ele>159.802055</ele>
        <time>2023-01-01T12:31:34.501Z</time>
      </trkpt>
      <trkpt lat="43.87617" lon="1.00199">
        <ele>159.26975</ele>
        <time>2023-01-01T12:31:36.498Z</time>
      </trkpt>
      <trkpt lat="43.87621" lon="1.00187">
        <ele>158.987517</ele>
        <time>2023-01-01T12:31:37.503Z</time>
      </trkpt>
      <trkpt lat="43.87624" lon="1.00175">
        <ele>158.69459</ele>
        <time>2023-01-01T12:31:38.494Z</time>
      </trkpt>
      <trkpt lat="43.87628" lon="1.00164">
        <ele>158.412048</ele>
        <time>2023-01-01T12:31:39.503Z</time>
      </trkpt>
      <trkpt lat="43.87636" lon="1.00143">
        <ele>157.89283</ele>
        <time>2023-01-01T12:31:41.497Z</time>
      </trkpt>
      <trkpt lat="43.87643" lon="1.00123">
        <ele>157.39449</ele>
        <time>2023-01-01T12:31:43.503Z</time>
      </trkpt>
      <trkpt lat="43.8765" lon="1.00104">
        <ele>156.904939</ele>
        <time>2023-01-01T12:31:45.499Z</time>
      </trkpt>
      <trkpt lat="43.87656" lon="1.00084">
        <ele>156.418747</ele>
        <time>2023-01-01T12:31:47.495Z</time>
      </trkpt>
      <trkpt lat="43.87662" lon="1.00064">
        <ele>155.93787</ele>
        <time>2023-01-01T12:31:49.500Z</time>
      </trkpt>
      <trkpt lat="43.87668" lon="1.00045">
        <ele>155.474601</ele>
        <time>2023-01-01T12:31:51.484Z</time>
      </trkpt>
      <trkpt lat="43.87675" lon="1.00028">
        <ele>155.02677</ele>
        <time>2023-01-01T12:31:53.500Z</time>
      </trkpt>
      <trkpt lat="43.8768" lon="1.00009">
        <ele>154.585926</ele>
        <time>2023-01-01T12:31:55.499Z</time>
      </trkpt>
      <trkpt lat="43.87686" lon="0.99992">
        <ele>154.328704</ele>
        <time>2023-01-01T12:31:57.477Z</time>
      </trkpt>
      <trkpt lat="43.87691" lon="0.99975">
        <ele>154.230833</ele>
        <time>2023-01-01T12:31:59.499Z</time>
      </trkpt>
      <trkpt lat="43.87697" lon="0.99958">
        <ele>154.132141</ele>
        <time>2023-01-01T12:32:01.480Z</time>
      </trkpt>
      <trkpt lat="43.87702" lon="0.99943">
        <ele>154.042804</ele>
        <time>2023-01-01T12:32:03.486Z</time>
      </trkpt>
      <trkpt lat="43.87707" lon="0.99929">
        <ele>153.956121</ele>
        <time>2023-01-01T12:32:05.497Z</time>
      </trkpt>
      <trkpt lat="43.87712" lon="0.99915">
        <ele>153.871896</ele>
        <time>2023-01-01T12:32:07.487Z</time>
      </trkpt>
      <trkpt lat="43.87716" lon="0.99901">
        <ele>153.792664</ele>
        <time>2023-01-01T12:32:09.498Z</time>
      </trkpt>
      <trkpt lat="43.87721" lon="0.99888">
        <ele>153.715375</ele>
        <time>2023-01-01T12:32:11.476Z</time>
      </trkpt>
      <trkpt lat="43.87725" lon="0.99874">
        <ele>153.637598</ele>
        <time>2023-01-01T12:32:13.491Z</time>
      </trkpt>
      <trkpt lat="43.87729" lon="0.99862">
        <ele>153.562243</ele>
        <time>2023-01-01T12:32:15.498Z</time>
      </trkpt>
      <trkpt lat="43.87734" lon="0.99848">
        <ele>153.479495</ele>
        <time>2023-01-01T12:32:17.509Z</time>
      </trkpt>
      <trkpt lat="43.8774" lon="0.99833">
        <ele>153.389154</ele>
        <time>2023-01-01T12:32:19.497Z</time>
      </trkpt>
      <trkpt lat="43.87745" lon="0.99818">
        <ele>153.297893</ele>
        <time>2023-01-01T12:32:21.502Z</time>
      </trkpt>
      <trkpt lat="43.8775" lon="0.99805">
        <ele>153.221252</ele>
        <time>2023-01-01T12:32:23.496Z</time>
      </trkpt>
      <trkpt lat="43.87755" lon="0.9979">
        <ele>153.132809</ele>
        <time>2023-01-01T12:32:25.480Z</time>
      </trkpt>
      <trkpt lat="43.8776" lon="0.99775">
        <ele>153.046014</ele>
        <time>2023-01-01T12:32:27.498Z</time>
      </trkpt>
      <trkpt lat="43.87764" lon="0.9976">
        <ele>152.950679</ele>
        <time>2023-01-01T12:32:29.505Z</time>
      </trkpt>
      <trkpt lat="43.87768" lon="0.99744">
        <ele>152.853779</ele>
        <time>2023-01-01T12:32:31.493Z</time>
      </trkpt>
      <trkpt lat="43.87774" lon="0.99728">
        <ele>152.749444</ele>
        <time>2023-01-01T12:32:33.498Z</time>
      </trkpt>
      <trkpt lat="43.8778" lon="0.99713">
        <ele>152.648075</ele>
        <time>2023-01-01T12:32:35.502Z</time>
      </trkpt>
      <trkpt lat="43.87784" lon="0.99696">
        <ele>152.546999</ele>
        <time>2023-01-01T12:32:37.502Z</time>
      </trkpt>
      <trkpt lat="43.87789" lon="0.99678">
        <ele>152.433637</ele>
        <time>2023-01-01T12:32:39.502Z</time>
      </trkpt>
      <trkpt lat="43.87795" lon="0.9966">
        <ele>152.317751</ele>
        <time>2023-01-01T12:32:41.488Z</time>
      </trkpt>
      <trkpt lat="43.87801" lon="0.99642">
        <ele>152.200839</ele>
        <time>2023-01-01T12:32:43.488Z</time>
      </trkpt>
      <trkpt lat="43.87807" lon="0.99625">
        <ele>152.090919</ele>
        <time>2023-01-01T12:32:45.501Z</time>
      </trkpt>
      <trkpt lat="43.87813" lon="0.99608">
        <ele>151.98448</ele>
        <time>2023-01-01T12:32:47.498Z</time>
      </trkpt>
      <trkpt lat="43.87819" lon="0.99592">
        <ele>151.878857</ele>
        <time>2023-01-01T12:32:49.503Z</time>
      </trkpt>
      <trkpt lat="43.87824" lon="0.99576">
        <ele>151.779288</ele>
        <time>2023-01-01T12:32:51.501Z</time>
      </trkpt>
      <trkpt lat="43.87829" lon="0.99562">
        <ele>151.683478</ele>
        <time>2023-01-01T12:32:53.490Z</time>
      </trkpt>
      <trkpt lat="43.87834" lon="0.99547">
        <ele>151.639582</ele>
        <time>2023-01-01T12:32:55.502Z</time>
      </trkpt>
      <trkpt lat="43.87839" lon="0.99532">
        <ele>152.016129</ele>
        <time>2023-01-01T12:32:57.499Z</time>
      </trkpt>
      <trkpt lat="43.87844" lon="0.99518">
        <ele>152.37045</ele>
        <time>2023-01-01T12:32:59.495Z</time>
      </trkpt>
      <trkpt lat="43.87849" lon="0.99505">
        <ele>152.695931</ele>
        <time>2023-01-01T12:33:01.498Z</time>
      </trkpt>
      <trkpt lat="43.87854" lon="0.99491">
        <ele>153.024025</ele>
        <time>2023-01-01T12:33:03.502Z</time>
      </trkpt>
      <trkpt lat="43.87858" lon="0.99479">
        <ele>153.326486</ele>
        <time>2023-01-01T12:33:05.472Z</time>
      </trkpt>
      <trkpt lat="43.87862" lon="0.99467">
        <ele>153.62902</ele>
        <time>2023-01-01T12:33:07.499Z</time>
      </trkpt>
      <trkpt lat="43.87867" lon="0.99454">
        <ele>153.965326</ele>
        <time>2023-01-01T12:33:09.500Z</time>
      </trkpt>
      <trkpt lat="43.87871" lon="0.9944">
        <ele>154.304124</ele>
        <time>2023-01-01T12:33:11.503Z</time>
      </trkpt>
      <trkpt lat="43.87875" lon="0.99427">
        <ele>154.629473</ele>
        <time>2023-01-01T12:33:13.505Z</time>
      </trkpt>
      <trkpt lat="43.8788" lon="0.99413">
        <ele>154.958189</ele>
        <time>2023-01-01T12:33:15.499Z</time>
      </trkpt>
      <trkpt lat="43.87885" lon="0.994">
        <ele>155.292297</ele>
        <time>2023-01-01T12:33:17.493Z</time>
      </trkpt>
      <trkpt lat="43.87889" lon="0.99388">
        <ele>155.602825</ele>
        <time>2023-01-01T12:33:19.499Z</time>
      </trkpt>
      <trkpt lat="43.87894" lon="0.99375">
        <ele>155.926151</ele>
        <time>2023-01-01T12:33:21.503Z</time>
      </trkpt>
      <trkpt lat="43.87897" lon="0.99362">
        <ele>156.225367</ele>
        <time>2023-01-01T12:33:23.502Z</time>
      </trkpt>
      <trkpt lat="43.87902" lon="0.9935">
        <ele>156.539467</ele>
        <time>2023-01-01T12:33:25.503Z</time>
      </trkpt>
      <trkpt lat="43.87908" lon="0.99333">
        <ele>156.956434</ele>
        <time>2023-01-01T12:33:28.485Z</time>
      </trkpt>
      <trkpt lat="43.87912" lon="0.99321">
        <ele>157.166907</ele>
        <time>2023-01-01T12:33:30.496Z</time>
      </trkpt>
      <trkpt lat="43.87916" lon="0.9931">
        <ele>157.011472</ele>
        <time>2023-01-01T12:33:32.476Z</time>
      </trkpt>
      <trkpt lat="43.87922" lon="0.99293">
        <ele>156.788369</ele>
        <time>2023-01-01T12:33:35.472Z</time>
      </trkpt>
      <trkpt lat="43.87928" lon="0.99277">
        <ele>156.567689</ele>
        <time>2023-01-01T12:33:38.503Z</time>
      </trkpt>
      <trkpt lat="43.87933" lon="0.99262">
        <ele>156.368721</ele>
        <time>2023-01-01T12:33:41.490Z</time>
      </trkpt>
      <trkpt lat="43.87937" lon="0.99246">
        <ele>156.164833</ele>
        <time>2023-01-01T12:33:44.493Z</time>
      </trkpt>
      <trkpt lat="43.87942" lon="0.99232">
        <ele>155.978825</ele>
        <time>2023-01-01T12:33:47.501Z</time>
      </trkpt>
      <trkpt lat="43.87946" lon="0.99219">
        <ele>155.817025</ele>
        <time>2023-01-01T12:33:50.493Z</time>
      </trkpt>
      <trkpt lat="43.8795" lon="0.99208">
        <ele>155.663493</ele>
        <time>2023-01-01T12:33:53.496Z</time>
      </trkpt>
      <trkpt lat="43.87955" lon="0.99197">
        <ele>155.510945</ele>
        <time>2023-01-01T12:33:56.502Z</time>
      </trkpt>
      <trkpt lat="43.87959" lon="0.99185">
        <ele>155.356886</ele>
        <time>2023-01-01T12:33:59.501Z</time>
      </trkpt>
      <trkpt lat="43.87963" lon="0.99172">
        <ele>155.18849</ele>
        <time>2023-01-01T12:34:02.496Z</time>
      </trkpt>
      <trkpt lat="43.87967" lon="0.9916">
        <ele>155.02869</ele>
        <time>2023-01-01T12:34:05.504Z</time>
      </trkpt>
      <trkpt lat="43.87973" lon="0.99148">
        <ele>154.851448</ele>
        <time>2023-01-01T12:34:09.480Z</time>
      </trkpt>
      <trkpt lat="43.8798" lon="0.99137">
        <ele>154.671533</ele>
        <time>2023-01-01T12:34:14.482Z</time>
      </trkpt>
      <trkpt lat="43.87987" lon="0.99126">
        <ele>154.497393</ele>
        <time>2023-01-01T12:34:18.502Z</time>
      </trkpt>
      <trkpt lat="43.87992" lon="0.99113">
        <ele>154.321839</ele>
        <time>2023-01-01T12:34:21.486Z</time>
      </trkpt>
      <trkpt lat="43.87992" lon="0.99099">
        <ele>154.284844</ele>
        <time>2023-01-01T12:34:24.482Z</time>
      </trkpt>
      <trkpt lat="43.87994" lon="0.99085">
        <ele>154.519518</ele>
        <time>2023-01-01T12:34:28.475Z</time>
      </trkpt>
      <trkpt lat="43.87999" lon="0.99074">
        <ele>154.757662</ele>
        <time>2023-01-01T12:34:32.502Z</time>
      </trkpt>
      <trkpt lat="43.88004" lon="0.99063">
        <ele>154.978563</ele>
        <time>2023-01-01T12:34:36.475Z</time>
      </trkpt>
      <trkpt lat="43.8801" lon="0.99053">
        <ele>155.203861</ele>
        <time>2023-01-01T12:34:39.500Z</time>
      </trkpt>
      <trkpt lat="43.88018" lon="0.9904">
        <ele>155.510788</ele>
        <time>2023-01-01T12:34:42.492Z</time>
      </trkpt>
      <trkpt lat="43.88025" lon="0.99031">
        <ele>155.733068</ele>
        <time>2023-01-01T12:34:44.485Z</time>
      </trkpt>
      <trkpt lat="43.88035" lon="0.99019">
        <ele>156.048986</ele>
        <time>2023-01-01T12:34:47.495Z</time>
      </trkpt>
      <trkpt lat="43.88046" lon="0.9901">
        <ele>156.356008</ele>
        <time>2023-01-01T12:34:50.482Z</time>
      </trkpt>
      <trkpt lat="43.88056" lon="0.99005">
        <ele>156.626458</ele>
        <time>2023-01-01T12:34:53.475Z</time>
      </trkpt>
      <trkpt lat="43.88066" lon="0.98997">
        <ele>156.89752</ele>
        <time>2023-01-01T12:34:57.492Z</time>
      </trkpt>
      <trkpt lat="43.88075" lon="0.9899">
        <ele>157.151954</ele>
        <time>2023-01-01T12:35:02.487Z</time>
      </trkpt>
      <trkpt lat="43.88084" lon="0.98984">
        <ele>157.385572</ele>
        <time>2023-01-01T12:35:06.497Z</time>
      </trkpt>
      <trkpt lat="43.88093" lon="0.98979">
        <ele>157.618338</ele>
        <time>2023-01-01T12:35:10.501Z</time>
      </trkpt>
      <trkpt lat="43.88102" lon="0.98975">
        <ele>157.847625</ele>
        <time>2023-01-01T12:35:14.489Z</time>
      </trkpt>
      <trkpt lat="43.88112" lon="0.98971">
        <ele>158.100521</ele>
        <time>2023-01-01T12:35:18.494Z</time>
      </trkpt>
      <trkpt lat="43.88121" lon="0.98966">
        <ele>158.34465</ele>
        <time>2023-01-01T12:35:23.491Z</time>
      </trkpt>
      <trkpt lat="43.8813" lon="0.98961">
        <ele>158.580329</ele>
        <time>2023-01-01T12:35:28.468Z</time>
      </trkpt>
      <trkpt lat="43.88139" lon="0.98955">
        <ele>158.893978</ele>
        <time>2023-01-01T12:35:33.493Z</time>
      </trkpt>
      <trkpt lat="43.88149" lon="0.9895">
        <ele>159.226417</ele>
        <time>2023-01-01T12:35:38.485Z</time>
      </trkpt>
      <trkpt lat="43.88159" lon="0.98945">
        <ele>159.538349</ele>
        <time>2023-01-01T12:35:44.476Z</time>
      </trkpt>
      <trkpt lat="43.88168" lon="0.98939">
        <ele>159.837973</ele>
        <time>2023-01-01T12:35:49.472Z</time>
      </trkpt>
      <trkpt lat="43.88176" lon="0.98933">
        <ele>160.135043</ele>
        <time>2023-01-01T12:35:54.495Z</time>
      </trkpt>
      <trkpt lat="43.88184" lon="0.98928">
        <ele>160.411922</ele>
        <time>2023-01-01T12:35:59.472Z</time>
      </trkpt>
      <trkpt lat="43.88193" lon="0.98925">
        <ele>160.696237</ele>
        <time>2023-01-01T12:36:05.484Z</time>
      </trkpt>
      <trkpt lat="43.88203" lon="0.98922">
        <ele>161.002982</ele>
        <time>2023-01-01T12:36:10.479Z</time>
      </trkpt>
      <trkpt lat="43.88213" lon="0.98918">
        <ele>161.310304</ele>
        <time>2023-01-01T12:36:15.478Z</time>
      </trkpt>
      <trkpt lat="43.88223" lon="0.98915">
        <ele>161.635986</ele>
        <time>2023-01-01T12:36:20.472Z</time>
      </trkpt>
      <trkpt lat="43.88232" lon="0.98911">
        <ele>161.926111</ele>
        <time>2023-01-01T12:36:26.475Z</time>
      </trkpt>
      <trkpt lat="43.88241" lon="0.98907">
        <ele>162.204208</ele>
        <time>2023-01-01T12:36:32.479Z</time>
      </trkpt>
      <trkpt lat="43.88248" lon="0.98899">
        <ele>162.491588</ele>
        <time>2023-01-01T12:36:38.478Z</time>
      </trkpt>
      <trkpt lat="43.88251" lon="0.98887">
        <ele>162.778742</ele>
        <time>2023-01-01T12:36:44.480Z</time>
      </trkpt>
      <trkpt lat="43.88253" lon="0.98872">
        <ele>163.106414</ele>
        <time>2023-01-01T12:36:50.482Z</time>
      </trkpt>
      <trkpt lat="43.88254" lon="0.9886">
        <ele>163.388104</ele>
        <time>2023-01-01T12:36:56.478Z</time>
      </trkpt>
      <trkpt lat="43.88254" lon="0.98858">
        <ele>163.429729</ele>
        <time>2023-01-01T12:37:07.208Z</time>
      </trkpt>
      <trkpt lat="43.88234" lon="0.98706">
        <ele>162.698804</ele>
        <time>2023-01-01T12:43:47.495Z</time>
      </trkpt>
      <trkpt lat="43.88237" lon="0.98694">
        <ele>162.559365</ele>
        <time>2023-01-01T12:44:00.475Z</time>
      </trkpt>
      <trkpt lat="43.88237" lon="0.9868">
        <ele>162.404385</ele>
        <time>2023-01-01T12:44:05.484Z</time>
      </trkpt>
      <trkpt lat="43.88236" lon="0.98666">
        <ele>162.241173</ele>
        <time>2023-01-01T12:44:09.496Z</time>
      </trkpt>
      <trkpt lat="43.88235" lon="0.98651">
        <ele>162.081117</ele>
        <time>2023-01-01T12:44:13.473Z</time>
      </trkpt>
      <trkpt lat="43.88232" lon="0.98637">
        <ele>161.915619</ele>
        <time>2023-01-01T12:44:18.495Z</time>
      </trkpt>
      <trkpt lat="43.88231" lon="0.98624">
        <ele>161.776502</ele>
        <time>2023-01-01T12:44:23.479Z</time>
      </trkpt>
      <trkpt lat="43.88231" lon="0.9861">
        <ele>161.618394</ele>
        <time>2023-01-01T12:44:27.476Z</time>
      </trkpt>
      <trkpt lat="43.88231" lon="0.98596">
        <ele>161.46121</ele>
        <time>2023-01-01T12:44:32.485Z</time>
      </trkpt>
      <trkpt lat="43.8823" lon="0.98581">
        <ele>161.305552</ele>
        <time>2023-01-01T12:44:37.501Z</time>
      </trkpt>
      <trkpt lat="43.8823" lon="0.98566">
        <ele>161.203168</ele>
        <time>2023-01-01T12:44:41.493Z</time>
      </trkpt>
      <trkpt lat="43.88229" lon="0.9855">
        <ele>161.090314</ele>
        <time>2023-01-01T12:44:45.473Z</time>
      </trkpt>
      <trkpt lat="43.88227" lon="0.98534">
        <ele>160.974066</ele>
        <time>2023-01-01T12:44:49.496Z</time>
      </trkpt>
      <trkpt lat="43.88227" lon="0.98521">
        <ele>160.884132</ele>
        <time>2023-01-01T12:44:52.497Z</time>
      </trkpt>
      <trkpt lat="43.88227" lon="0.98506">
        <ele>160.78318</ele>
        <time>2023-01-01T12:44:56.499Z</time>
      </trkpt>
      <trkpt lat="43.88227" lon="0.98491">
        <ele>160.676697</ele>
        <time>2023-01-01T12:45:00.500Z</time>
      </trkpt>
      <trkpt lat="43.88226" lon="0.98474">
        <ele>160.560369</ele>
        <time>2023-01-01T12:45:04.502Z</time>
      </trkpt>
      <trkpt lat="43.88226" lon="0.98461">
        <ele>160.471297</ele>
        <time>2023-01-01T12:45:07.511Z</time>
      </trkpt>
      <trkpt lat="43.88224" lon="0.98446">
        <ele>160.360377</ele>
        <time>2023-01-01T12:45:11.475Z</time>
      </trkpt>
      <trkpt lat="43.88224" lon="0.98431">
        <ele>160.258067</ele>
        <time>2023-01-01T12:45:15.478Z</time>
      </trkpt>
      <trkpt lat="43.88224" lon="0.98415">
        <ele>160.150231</ele>
        <time>2023-01-01T12:45:20.473Z</time>
      </trkpt>
      <trkpt lat="43.88224" lon="0.98402">
        <ele>160.056986</ele>
        <time>2023-01-01T12:45:24.488Z</time>
      </trkpt>
      <trkpt lat="43.88233" lon="0.98394">
        <ele>159.960222</ele>
        <time>2023-01-01T12:45:30.476Z</time>
      </trkpt>
      <trkpt lat="43.8824" lon="0.98385">
        <ele>159.868575</ele>
        <time>2023-01-01T12:45:37.478Z</time>
      </trkpt>
      <trkpt lat="43.88237" lon="0.98381">
        <ele>159.830104</ele>
        <time>2023-01-01T12:45:54.504Z</time>
      </trkpt>
      <trkpt lat="43.88196" lon="0.98376">
        <ele>160.060129</ele>
        <time>2023-01-01T13:16:31.493Z</time>
      </trkpt>
      <trkpt lat="43.88187" lon="0.98378">
        <ele>160.330403</ele>
        <time>2023-01-01T13:16:36.482Z</time>
      </trkpt>
      <trkpt lat="43.88177" lon="0.9838">
        <ele>160.625096</ele>
        <time>2023-01-01T13:16:41.499Z</time>
      </trkpt>
      <trkpt lat="43.88168" lon="0.98383">
        <ele>160.902773</ele>
        <time>2023-01-01T13:16:46.487Z</time>
      </trkpt>
      <trkpt lat="43.88158" lon="0.98386">
        <ele>161.212021</ele>
        <time>2023-01-01T13:16:51.498Z</time>
      </trkpt>
      <trkpt lat="43.88147" lon="0.98391">
        <ele>161.552913</ele>
        <time>2023-01-01T13:16:56.478Z</time>
      </trkpt>
      <trkpt lat="43.88137" lon="0.98393">
        <ele>161.833918</ele>
        <time>2023-01-01T13:17:00.491Z</time>
      </trkpt>
      <trkpt lat="43.88128" lon="0.98396">
        <ele>162.127836</ele>
        <time>2023-01-01T13:17:04.507Z</time>
      </trkpt>
      <trkpt lat="43.88117" lon="0.984">
        <ele>162.439108</ele>
        <time>2023-01-01T13:17:09.503Z</time>
      </trkpt>
      <trkpt lat="43.88107" lon="0.98402">
        <ele>162.765182</ele>
        <time>2023-01-01T13:17:13.487Z</time>
      </trkpt>
      <trkpt lat="43.88097" lon="0.98403">
        <ele>163.061423</ele>
        <time>2023-01-01T13:17:17.500Z</time>
      </trkpt>
      <trkpt lat="43.88086" lon="0.98402">
        <ele>163.366648</ele>
        <time>2023-01-01T13:17:22.497Z</time>
      </trkpt>
      <trkpt lat="43.88077" lon="0.98402">
        <ele>163.648006</ele>
        <time>2023-01-01T13:17:29.479Z</time>
      </trkpt>
      <trkpt lat="43.88066" lon="0.98397">
        <ele>163.974305</ele>
        <time>2023-01-01T13:17:34.491Z</time>
      </trkpt>
      <trkpt lat="43.88056" lon="0.98389">
        <ele>164.322942</ele>
        <time>2023-01-01T13:17:38.498Z</time>
      </trkpt>
      <trkpt lat="43.88047" lon="0.98382">
        <ele>164.616755</ele>
        <time>2023-01-01T13:17:41.499Z</time>
      </trkpt>
      <trkpt lat="43.88039" lon="0.98374">
        <ele>164.891612</ele>
        <time>2023-01-01T13:17:44.481Z</time>
      </trkpt>
      <trkpt lat="43.88031" lon="0.98365">
        <ele>164.676696</ele>
        <time>2023-01-01T13:17:47.503Z</time>
      </trkpt>
      <trkpt lat="43.88024" lon="0.98356">
        <ele>164.476412</ele>
        <time>2023-01-01T13:17:50.500Z</time>
      </trkpt>
      <trkpt lat="43.88016" lon="0.98346">
        <ele>164.236201</ele>
        <time>2023-01-01T13:17:54.500Z</time>
      </trkpt>
      <trkpt lat="43.88008" lon="0.98334">
        <ele>163.995905</ele>
        <time>2023-01-01T13:17:58.495Z</time>
      </trkpt>
      <trkpt lat="43.88" lon="0.98323">
        <ele>163.759897</ele>
        <time>2023-01-01T13:18:01.478Z</time>
      </trkpt>
      <trkpt lat="43.87992" lon="0.98311">
        <ele>163.50566</ele>
        <time>2023-01-01T13:18:04.497Z</time>
      </trkpt>
      <trkpt lat="43.87987" lon="0.983">
        <ele>163.307617</ele>
        <time>2023-01-01T13:18:06.500Z</time>
      </trkpt>
      <trkpt lat="43.8798" lon="0.98291">
        <ele>163.113118</ele>
        <time>2023-01-01T13:18:08.483Z</time>
      </trkpt>
      <trkpt lat="43.87973" lon="0.98282">
        <ele>162.910294</ele>
        <time>2023-01-01T13:18:10.500Z</time>
      </trkpt>
      <trkpt lat="43.87967" lon="0.98271">
        <ele>162.695438</ele>
        <time>2023-01-01T13:18:12.503Z</time>
      </trkpt>
      <trkpt lat="43.8796" lon="0.98259">
        <ele>162.469107</ele>
        <time>2023-01-01T13:18:14.498Z</time>
      </trkpt>
      <trkpt lat="43.87954" lon="0.98249">
        <ele>162.265766</ele>
        <time>2023-01-01T13:18:16.497Z</time>
      </trkpt>
      <trkpt lat="43.87947" lon="0.98238">
        <ele>162.037056</ele>
        <time>2023-01-01T13:18:18.501Z</time>
      </trkpt>
      <trkpt lat="43.8794" lon="0.98228">
        <ele>161.823067</ele>
        <time>2023-01-01T13:18:20.488Z</time>
      </trkpt>
      <trkpt lat="43.87933" lon="0.98216">
        <ele>161.597369</ele>
        <time>2023-01-01T13:18:22.501Z</time>
      </trkpt>
      <trkpt lat="43.87926" lon="0.98205">
        <ele>161.379053</ele>
        <time>2023-01-01T13:18:24.485Z</time>
      </trkpt>
      <trkpt lat="43.87919" lon="0.98194">
        <ele>161.144275</ele>
        <time>2023-01-01T13:18:26.504Z</time>
      </trkpt>
      <trkpt lat="43.87912" lon="0.98183">
        <ele>160.825387</ele>
        <time>2023-01-01T13:18:28.498Z</time>
      </trkpt>
      <trkpt lat="43.87904" lon="0.98171">
        <ele>160.477016</ele>
        <time>2023-01-01T13:18:30.502Z</time>
      </trkpt>
      <trkpt lat="43.87896" lon="0.98159">
        <ele>160.102832</ele>
        <time>2023-01-01T13:18:32.498Z</time>
      </trkpt>
      <trkpt lat="43.87888" lon="0.98147">
        <ele>159.738213</ele>
        <time>2023-01-01T13:18:34.479Z</time>
      </trkpt>
      <trkpt lat="43.87882" lon="0.98136">
        <ele>159.418569</ele>
        <time>2023-01-01T13:18:36.490Z</time>
      </trkpt>
      <trkpt lat="43.87875" lon="0.98125">
        <ele>159.092954</ele>
        <time>2023-01-01T13:18:38.482Z</time>
      </trkpt>
      <trkpt lat="43.8787" lon="0.98115">
        <ele>158.807926</ele>
        <time>2023-01-01T13:18:40.498Z</time>
      </trkpt>
      <trkpt lat="43.87862" lon="0.98102">
        <ele>158.43664</ele>
        <time>2023-01-01T13:18:43.502Z</time>
      </trkpt>
      <trkpt lat="43.87855" lon="0.98092">
        <ele>158.119641</ele>
        <time>2023-01-01T13:18:46.508Z</time>
      </trkpt>
      <trkpt lat="43.87847" lon="0.98078">
        <ele>157.724997</ele>
        <time>2023-01-01T13:18:49.503Z</time>
      </trkpt>
      <trkpt lat="43.87839" lon="0.98064">
        <ele>157.313994</ele>
        <time>2023-01-01T13:18:52.502Z</time>
      </trkpt>
      <trkpt lat="43.8783" lon="0.98049">
        <ele>156.877414</ele>
        <time>2023-01-01T13:18:55.501Z</time>
      </trkpt>
      <trkpt lat="43.87825" lon="0.98038">
        <ele>156.581443</ele>
        <time>2023-01-01T13:18:57.502Z</time>
      </trkpt>
      <trkpt lat="43.87818" lon="0.98028">
        <ele>156.287556</ele>
        <time>2023-01-01T13:18:59.502Z</time>
      </trkpt>
      <trkpt lat="43.87812" lon="0.98019">
        <ele>155.998143</ele>
        <time>2023-01-01T13:19:01.502Z</time>
      </trkpt>
      <trkpt lat="43.87805" lon="0.98007">
        <ele>155.657626</ele>
        <time>2023-01-01T13:19:03.501Z</time>
      </trkpt>
      <trkpt lat="43.87798" lon="0.97995">
        <ele>155.382105</ele>
        <time>2023-01-01T13:19:05.502Z</time>
      </trkpt>
      <trkpt lat="43.8779" lon="0.97982">
        <ele>155.170362</ele>
        <time>2023-01-01T13:19:07.499Z</time>
      </trkpt>
      <trkpt lat="43.87781" lon="0.97968">
        <ele>154.94182</ele>
        <time>2023-01-01T13:19:09.503Z</time>
      </trkpt>
      <trkpt lat="43.87772" lon="0.97952">
        <ele>154.698593</ele>
        <time>2023-01-01T13:19:11.498Z</time>
      </trkpt>
      <trkpt lat="43.87764" lon="0.97938">
        <ele>154.4669</ele>
        <time>2023-01-01T13:19:13.504Z</time>
      </trkpt>
      <trkpt lat="43.87755" lon="0.97925">
        <ele>154.243526</ele>
        <time>2023-01-01T13:19:15.496Z</time>
      </trkpt>
      <trkpt lat="43.87746" lon="0.97911">
        <ele>154.024032</ele>
        <time>2023-01-01T13:19:17.503Z</time>
      </trkpt>
      <trkpt lat="43.87739" lon="0.979">
        <ele>153.834465</ele>
        <time>2023-01-01T13:19:19.503Z</time>
      </trkpt>
      <trkpt lat="43.87731" lon="0.97887">
        <ele>153.627105</ele>
        <time>2023-01-01T13:19:21.502Z</time>
      </trkpt>
      <trkpt lat="43.87723" lon="0.97877">
        <ele>153.444664</ele>
        <time>2023-01-01T13:19:23.479Z</time>
      </trkpt>
      <trkpt lat="43.87717" lon="0.97866">
        <ele>153.279307</ele>
        <time>2023-01-01T13:19:25.499Z</time>
      </trkpt>
      <trkpt lat="43.87709" lon="0.97852">
        <ele>153.051302</ele>
        <time>2023-01-01T13:19:28.498Z</time>
      </trkpt>
      <trkpt lat="43.87702" lon="0.97841">
        <ele>152.876218</ele>
        <time>2023-01-01T13:19:31.502Z</time>
      </trkpt>
      <trkpt lat="43.87696" lon="0.97832">
        <ele>152.720579</ele>
        <time>2023-01-01T13:19:35.500Z</time>
      </trkpt>
      <trkpt lat="43.87688" lon="0.97822">
        <ele>152.53895</ele>
        <time>2023-01-01T13:19:39.476Z</time>
      </trkpt>
      <trkpt lat="43.87682" lon="0.9781">
        <ele>152.508218</ele>
        <time>2023-01-01T13:19:43.491Z</time>
      </trkpt>
      <trkpt lat="43.87674" lon="0.97799">
        <ele>152.861944</ele>
        <time>2023-01-01T13:19:47.490Z</time>
      </trkpt>
      <trkpt lat="43.87668" lon="0.97787">
        <ele>153.22427</ele>
        <time>2023-01-01T13:19:51.478Z</time>
      </trkpt>
      <trkpt lat="43.87661" lon="0.97775">
        <ele>153.577485</ele>
        <time>2023-01-01T13:19:55.501Z</time>
      </trkpt>
      <trkpt lat="43.87654" lon="0.97764">
        <ele>153.932777</ele>
        <time>2023-01-01T13:19:59.501Z</time>
      </trkpt>
      <trkpt lat="43.87647" lon="0.97751">
        <ele>154.309449</ele>
        <time>2023-01-01T13:20:03.498Z</time>
      </trkpt>
      <trkpt lat="43.87639" lon="0.9774">
        <ele>154.676798</ele>
        <time>2023-01-01T13:20:07.491Z</time>
      </trkpt>
      <trkpt lat="43.87632" lon="0.97727">
        <ele>155.047018</ele>
        <time>2023-01-01T13:20:11.497Z</time>
      </trkpt>
      <trkpt lat="43.87625" lon="0.97715">
        <ele>155.435809</ele>
        <time>2023-01-01T13:20:15.505Z</time>
      </trkpt>
      <trkpt lat="43.87617" lon="0.97703">
        <ele>155.812806</ele>
        <time>2023-01-01T13:20:19.497Z</time>
      </trkpt>
      <trkpt lat="43.8761" lon="0.97692">
        <ele>156.154165</ele>
        <time>2023-01-01T13:20:23.499Z</time>
      </trkpt>
      <trkpt lat="43.87603" lon="0.9768">
        <ele>156.527593</ele>
        <time>2023-01-01T13:20:27.500Z</time>
      </trkpt>
      <trkpt lat="43.87595" lon="0.97668">
        <ele>156.907645</ele>
        <time>2023-01-01T13:20:31.503Z</time>
      </trkpt>
      <trkpt lat="43.87587" lon="0.97656">
        <ele>157.297749</ele>
        <time>2023-01-01T13:20:35.497Z</time>
      </trkpt>
      <trkpt lat="43.8758" lon="0.97642">
        <ele>157.688917</ele>
        <time>2023-01-01T13:20:39.502Z</time>
      </trkpt>
      <trkpt lat="43.87574" lon="0.97633">
        <ele>157.986949</ele>
        <time>2023-01-01T13:20:42.500Z</time>
      </trkpt>
      <trkpt lat="43.87566" lon="0.97621">
        <ele>158.313919</ele>
        <time>2023-01-01T13:20:46.501Z</time>
      </trkpt>
      <trkpt lat="43.87558" lon="0.9761">
        <ele>158.380754</ele>
        <time>2023-01-01T13:20:50.499Z</time>
      </trkpt>
      <trkpt lat="43.87551" lon="0.97598">
        <ele>158.446782</ele>
        <time>2023-01-01T13:20:54.504Z</time>
      </trkpt>
      <trkpt lat="43.87544" lon="0.97586">
        <ele>158.512293</ele>
        <time>2023-01-01T13:20:58.502Z</time>
      </trkpt>
      <trkpt lat="43.87536" lon="0.97575">
        <ele>158.576574</ele>
        <time>2023-01-01T13:21:02.500Z</time>
      </trkpt>
      <trkpt lat="43.87528" lon="0.97563">
        <ele>158.648772</ele>
        <time>2023-01-01T13:21:06.498Z</time>
      </trkpt>
      <trkpt lat="43.87521" lon="0.97553">
        <ele>158.706333</ele>
        <time>2023-01-01T13:21:09.499Z</time>
      </trkpt>
      <trkpt lat="43.87514" lon="0.97544">
        <ele>158.762889</ele>
        <time>2023-01-01T13:21:12.496Z</time>
      </trkpt>
      <trkpt lat="43.87507" lon="0.97533">
        <ele>158.824257</ele>
        <time>2023-01-01T13:21:15.506Z</time>
      </trkpt>
      <trkpt lat="43.875" lon="0.97521">
        <ele>158.890816</ele>
        <time>2023-01-01T13:21:18.500Z</time>
      </trkpt>
      <trkpt lat="43.87493" lon="0.9751">
        <ele>158.952697</ele>
        <time>2023-01-01T13:21:21.499Z</time>
      </trkpt>
      <trkpt lat="43.87486" lon="0.97498">
        <ele>159.018096</ele>
        <time>2023-01-01T13:21:24.498Z</time>
      </trkpt>
      <trkpt lat="43.87479" lon="0.97486">
        <ele>159.084604</ele>
        <time>2023-01-01T13:21:27.478Z</time>
      </trkpt>
      <trkpt lat="43.87471" lon="0.97473">
        <ele>159.154301</ele>
        <time>2023-01-01T13:21:30.500Z</time>
      </trkpt>
      <trkpt lat="43.87464" lon="0.97461">
        <ele>159.223677</ele>
        <time>2023-01-01T13:21:33.505Z</time>
      </trkpt>
      <trkpt lat="43.87456" lon="0.97447">
        <ele>159.296244</ele>
        <time>2023-01-01T13:21:36.500Z</time>
      </trkpt>
      <trkpt lat="43.87448" lon="0.97433">
        <ele>159.347426</ele>
        <time>2023-01-01T13:21:39.503Z</time>
      </trkpt>
      <trkpt lat="43.87441" lon="0.9742">
        <ele>159.257178</ele>
        <time>2023-01-01T13:21:42.499Z</time>
      </trkpt>
      <trkpt lat="43.87434" lon="0.97407">
        <ele>159.164515</ele>
        <time>2023-01-01T13:21:45.501Z</time>
      </trkpt>
      <trkpt lat="43.87426" lon="0.97394">
        <ele>159.070089</ele>
        <time>2023-01-01T13:21:48.498Z</time>
      </trkpt>
      <trkpt lat="43.87418" lon="0.9738">
        <ele>158.975754</ele>
        <time>2023-01-01T13:21:51.500Z</time>
      </trkpt>
      <trkpt lat="43.87412" lon="0.97366">
        <ele>158.884862</ele>
        <time>2023-01-01T13:21:54.480Z</time>
      </trkpt>
      <trkpt lat="43.87406" lon="0.97352">
        <ele>158.794372</ele>
        <time>2023-01-01T13:21:57.500Z</time>
      </trkpt>
      <trkpt lat="43.87399" lon="0.9734">
        <ele>158.710825</ele>
        <time>2023-01-01T13:22:00.499Z</time>
      </trkpt>
      <trkpt lat="43.87392" lon="0.97329">
        <ele>158.626776</ele>
        <time>2023-01-01T13:22:03.503Z</time>
      </trkpt>
      <trkpt lat="43.87385" lon="0.97315">
        <ele>158.535528</ele>
        <time>2023-01-01T13:22:06.487Z</time>
      </trkpt>
      <trkpt lat="43.87379" lon="0.97303">
        <ele>158.452821</ele>
        <time>2023-01-01T13:22:09.501Z</time>
      </trkpt>
      <trkpt lat="43.87375" lon="0.97291">
        <ele>158.379655</ele>
        <time>2023-01-01T13:22:12.491Z</time>
      </trkpt>
      <trkpt lat="43.87369" lon="0.97276">
        <ele>158.28688</ele>
        <time>2023-01-01T13:22:16.501Z</time>
      </trkpt>
      <trkpt lat="43.87365" lon="0.97263">
        <ele>158.208423</ele>
        <time>2023-01-01T13:22:19.492Z</time>
      </trkpt>
      <trkpt lat="43.87361" lon="0.97249">
        <ele>158.127745</ele>
        <time>2023-01-01T13:22:22.502Z</time>
      </trkpt>
      <trkpt lat="43.87357" lon="0.97236">
        <ele>158.049597</ele>
        <time>2023-01-01T13:22:25.501Z</time>
      </trkpt>
      <trkpt lat="43.87353" lon="0.97223">
        <ele>157.99781</ele>
        <time>2023-01-01T13:22:28.501Z</time>
      </trkpt>
      <trkpt lat="43.87348" lon="0.9721">
        <ele>158.057135</ele>
        <time>2023-01-01T13:22:31.503Z</time>
      </trkpt>
      <trkpt lat="43.87344" lon="0.97196">
        <ele>158.11607</ele>
        <time>2023-01-01T13:22:34.503Z</time>
      </trkpt>
      <trkpt lat="43.87341" lon="0.97181">
        <ele>158.177055</ele>
        <time>2023-01-01T13:22:37.502Z</time>
      </trkpt>
      <trkpt lat="43.87336" lon="0.97166">
        <ele>158.24142</ele>
        <time>2023-01-01T13:22:40.500Z</time>
      </trkpt>
      <trkpt lat="43.87331" lon="0.97151">
        <ele>158.307079</ele>
        <time>2023-01-01T13:22:43.477Z</time>
      </trkpt>
      <trkpt lat="43.87325" lon="0.97137">
        <ele>158.371861</ele>
        <time>2023-01-01T13:22:46.505Z</time>
      </trkpt>
      <trkpt lat="43.8732" lon="0.97122">
        <ele>158.438932</ele>
        <time>2023-01-01T13:22:49.499Z</time>
      </trkpt>
      <trkpt lat="43.87314" lon="0.97107">
        <ele>158.508422</ele>
        <time>2023-01-01T13:22:52.500Z</time>
      </trkpt>
      <trkpt lat="43.87308" lon="0.97091">
        <ele>158.576513</ele>
        <time>2023-01-01T13:22:55.507Z</time>
      </trkpt>
      <trkpt lat="43.87302" lon="0.97076">
        <ele>158.646453</ele>
        <time>2023-01-01T13:22:58.479Z</time>
      </trkpt>
      <trkpt lat="43.87296" lon="0.97059">
        <ele>158.719968</ele>
        <time>2023-01-01T13:23:01.502Z</time>
      </trkpt>
      <trkpt lat="43.87291" lon="0.97047">
        <ele>158.773414</ele>
        <time>2023-01-01T13:23:03.502Z</time>
      </trkpt>
      <trkpt lat="43.87287" lon="0.97036">
        <ele>158.826598</ele>
        <time>2023-01-01T13:23:05.487Z</time>
      </trkpt>
      <trkpt lat="43.87282" lon="0.97024">
        <ele>158.88074</ele>
        <time>2023-01-01T13:23:07.498Z</time>
      </trkpt>
      <trkpt lat="43.87277" lon="0.97011">
        <ele>158.936454</ele>
        <time>2023-01-01T13:23:09.500Z</time>
      </trkpt>
      <trkpt lat="43.87272" lon="0.96999">
        <ele>158.979297</ele>
        <time>2023-01-01T13:23:11.499Z</time>
      </trkpt>
      <trkpt lat="43.87267" lon="0.96987">
        <ele>158.993223</ele>
        <time>2023-01-01T13:23:13.497Z</time>
      </trkpt>
      <trkpt lat="43.87261" lon="0.96974">
        <ele>159.007091</ele>
        <time>2023-01-01T13:23:15.476Z</time>
      </trkpt>
      <trkpt lat="43.87256" lon="0.96961">
        <ele>159.021177</ele>
        <time>2023-01-01T13:23:17.500Z</time>
      </trkpt>
      <trkpt lat="43.87252" lon="0.96948">
        <ele>159.034816</ele>
        <time>2023-01-01T13:23:19.500Z</time>
      </trkpt>
      <trkpt lat="43.87246" lon="0.96935">
        <ele>159.049135</ele>
        <time>2023-01-01T13:23:21.506Z</time>
      </trkpt>
      <trkpt lat="43.87241" lon="0.96923">
        <ele>159.063074</ele>
        <time>2023-01-01T13:23:23.517Z</time>
      </trkpt>
      <trkpt lat="43.87236" lon="0.96909">
        <ele>159.077767</ele>
        <time>2023-01-01T13:23:25.508Z</time>
      </trkpt>
      <trkpt lat="43.8723" lon="0.96895">
        <ele>159.093485</ele>
        <time>2023-01-01T13:23:27.502Z</time>
      </trkpt>
      <trkpt lat="43.87225" lon="0.9688">
        <ele>159.108499</ele>
        <time>2023-01-01T13:23:29.505Z</time>
      </trkpt>
      <trkpt lat="43.8722" lon="0.96866">
        <ele>159.123854</ele>
        <time>2023-01-01T13:23:31.501Z</time>
      </trkpt>
      <trkpt lat="43.87215" lon="0.96851">
        <ele>159.139367</ele>
        <time>2023-01-01T13:23:33.499Z</time>
      </trkpt>
      <trkpt lat="43.87211" lon="0.96837">
        <ele>159.153485</ele>
        <time>2023-01-01T13:23:35.504Z</time>
      </trkpt>
      <trkpt lat="43.87207" lon="0.96823">
        <ele>159.167829</ele>
        <time>2023-01-01T13:23:37.490Z</time>
      </trkpt>
      <trkpt lat="43.87203" lon="0.9681">
        <ele>159.18177</ele>
        <time>2023-01-01T13:23:39.480Z</time>
      </trkpt>
      <trkpt lat="43.872" lon="0.96796">
        <ele>159.195255</ele>
        <time>2023-01-01T13:23:41.499Z</time>
      </trkpt>
      <trkpt lat="43.87196" lon="0.96784">
        <ele>159.208553</ele>
        <time>2023-01-01T13:23:43.478Z</time>
      </trkpt>
      <trkpt lat="43.87191" lon="0.96771">
        <ele>158.974299</ele>
        <time>2023-01-01T13:23:45.504Z</time>
      </trkpt>
      <trkpt lat="43.87188" lon="0.96758">
        <ele>158.628957</ele>
        <time>2023-01-01T13:23:47.505Z</time>
      </trkpt>
      <trkpt lat="43.87184" lon="0.96744">
        <ele>158.252651</ele>
        <time>2023-01-01T13:23:49.499Z</time>
      </trkpt>
      <trkpt lat="43.8718" lon="0.9673">
        <ele>157.875021</ele>
        <time>2023-01-01T13:23:51.501Z</time>
      </trkpt>
      <trkpt lat="43.87176" lon="0.96716">
        <ele>157.485351</ele>
        <time>2023-01-01T13:23:53.474Z</time>
      </trkpt>
      <trkpt lat="43.87172" lon="0.96701">
        <ele>157.067634</ele>
        <time>2023-01-01T13:23:55.477Z</time>
      </trkpt>
      <trkpt lat="43.87167" lon="0.96685">
        <ele>156.652165</ele>
        <time>2023-01-01T13:23:57.497Z</time>
      </trkpt>
      <trkpt lat="43.87162" lon="0.9667">
        <ele>156.22485</ele>
        <time>2023-01-01T13:23:59.496Z</time>
      </trkpt>
      <trkpt lat="43.87158" lon="0.96654">
        <ele>155.796397</ele>
        <time>2023-01-01T13:24:01.478Z</time>
      </trkpt>
      <trkpt lat="43.87154" lon="0.96638">
        <ele>155.352239</ele>
        <time>2023-01-01T13:24:03.497Z</time>
      </trkpt>
      <trkpt lat="43.87149" lon="0.96621">
        <ele>154.894735</ele>
        <time>2023-01-01T13:24:05.500Z</time>
      </trkpt>
      <trkpt lat="43.87144" lon="0.96604">
        <ele>154.427515</ele>
        <time>2023-01-01T13:24:07.495Z</time>
      </trkpt>
      <trkpt lat="43.87138" lon="0.96587">
        <ele>153.956589</ele>
        <time>2023-01-01T13:24:09.500Z</time>
      </trkpt>
      <trkpt lat="43.87133" lon="0.96569">
        <ele>153.479627</ele>
        <time>2023-01-01T13:24:11.500Z</time>
      </trkpt>
      <trkpt lat="43.87127" lon="0.96553">
        <ele>153.001452</ele>
        <time>2023-01-01T13:24:13.490Z</time>
      </trkpt>
      <trkpt lat="43.8712" lon="0.96535">
        <ele>152.779975</ele>
        <time>2023-01-01T13:24:15.512Z</time>
      </trkpt>
      <trkpt lat="43.87113" lon="0.96518">
        <ele>152.621816</ele>
        <time>2023-01-01T13:24:17.504Z</time>
      </trkpt>
      <trkpt lat="43.87106" lon="0.96501">
        <ele>152.468249</ele>
        <time>2023-01-01T13:24:19.507Z</time>
      </trkpt>
      <trkpt lat="43.87098" lon="0.96483">
        <ele>152.308955</ele>
        <time>2023-01-01T13:24:21.502Z</time>
      </trkpt>
      <trkpt lat="43.8709" lon="0.96467">
        <ele>152.157298</ele>
        <time>2023-01-01T13:24:23.506Z</time>
      </trkpt>
      <trkpt lat="43.87083" lon="0.96451">
        <ele>152.010774</ele>
        <time>2023-01-01T13:24:25.506Z</time>
      </trkpt>
      <trkpt lat="43.87076" lon="0.96437">
        <ele>151.874681</ele>
        <time>2023-01-01T13:24:27.502Z</time>
      </trkpt>
      <trkpt lat="43.87069" lon="0.96423">
        <ele>151.745802</ele>
        <time>2023-01-01T13:24:29.511Z</time>
      </trkpt>
      <trkpt lat="43.87063" lon="0.9641">
        <ele>151.625831</ele>
        <time>2023-01-01T13:24:31.501Z</time>
      </trkpt>
      <trkpt lat="43.87057" lon="0.96398">
        <ele>151.512827</ele>
        <time>2023-01-01T13:24:33.504Z</time>
      </trkpt>
      <trkpt lat="43.87051" lon="0.96387">
        <ele>151.406769</ele>
        <time>2023-01-01T13:24:35.494Z</time>
      </trkpt>
      <trkpt lat="43.87045" lon="0.96376">
        <ele>151.299446</ele>
        <time>2023-01-01T13:24:37.504Z</time>
      </trkpt>
      <trkpt lat="43.8704" lon="0.96366">
        <ele>151.199056</ele>
        <time>2023-01-01T13:24:39.501Z</time>
      </trkpt>
      <trkpt lat="43.87032" lon="0.96351">
        <ele>151.056858</ele>
        <time>2023-01-01T13:24:42.497Z</time>
      </trkpt>
      <trkpt lat="43.87023" lon="0.96339">
        <ele>151.004064</ele>
        <time>2023-01-01T13:24:45.489Z</time>
      </trkpt>
      <trkpt lat="43.87014" lon="0.96327">
        <ele>151.175344</ele>
        <time>2023-01-01T13:24:48.501Z</time>
      </trkpt>
      <trkpt lat="43.87005" lon="0.96315">
        <ele>151.341355</ele>
        <time>2023-01-01T13:24:51.500Z</time>
      </trkpt>
      <trkpt lat="43.86995" lon="0.96304">
        <ele>151.508921</ele>
        <time>2023-01-01T13:24:54.505Z</time>
      </trkpt>
      <trkpt lat="43.86985" lon="0.96293">
        <ele>151.678571</ele>
        <time>2023-01-01T13:24:57.499Z</time>
      </trkpt>
      <trkpt lat="43.86975" lon="0.96282">
        <ele>151.851533</ele>
        <time>2023-01-01T13:25:00.500Z</time>
      </trkpt>
      <trkpt lat="43.86965" lon="0.96271">
        <ele>152.025288</ele>
        <time>2023-01-01T13:25:03.505Z</time>
      </trkpt>
      <trkpt lat="43.86955" lon="0.96261">
        <ele>152.19433</ele>
        <time>2023-01-01T13:25:06.496Z</time>
      </trkpt>
      <trkpt lat="43.86948" lon="0.96253">
        <ele>152.317744</ele>
        <time>2023-01-01T13:25:08.506Z</time>
      </trkpt>
      <trkpt lat="43.8694" lon="0.96245">
        <ele>152.441748</ele>
        <time>2023-01-01T13:25:10.500Z</time>
      </trkpt>
      <trkpt lat="43.86933" lon="0.96237">
        <ele>152.575113</ele>
        <time>2023-01-01T13:25:12.501Z</time>
      </trkpt>
      <trkpt lat="43.86925" lon="0.96229">
        <ele>152.697601</ele>
        <time>2023-01-01T13:25:14.501Z</time>
      </trkpt>
      <trkpt lat="43.86918" lon="0.96222">
        <ele>152.82315</ele>
        <time>2023-01-01T13:25:16.505Z</time>
      </trkpt>
      <trkpt lat="43.8691" lon="0.96214">
        <ele>152.950608</ele>
        <time>2023-01-01T13:25:18.487Z</time>
      </trkpt>
      <trkpt lat="43.86902" lon="0.96205">
        <ele>153.08847</ele>
        <time>2023-01-01T13:25:20.501Z</time>
      </trkpt>
      <trkpt lat="43.86894" lon="0.96197">
        <ele>153.225039</ele>
        <time>2023-01-01T13:25:22.498Z</time>
      </trkpt>
      <trkpt lat="43.86886" lon="0.96188">
        <ele>153.366217</ele>
        <time>2023-01-01T13:25:24.500Z</time>
      </trkpt>
      <trkpt lat="43.86877" lon="0.96179">
        <ele>153.523285</ele>
        <time>2023-01-01T13:25:26.500Z</time>
      </trkpt>
      <trkpt lat="43.86869" lon="0.96171">
        <ele>153.687461</ele>
        <time>2023-01-01T13:25:28.492Z</time>
      </trkpt>
      <trkpt lat="43.8686" lon="0.96162">
        <ele>153.857365</ele>
        <time>2023-01-01T13:25:30.504Z</time>
      </trkpt>
      <trkpt lat="43.86852" lon="0.96153">
        <ele>154.023158</ele>
        <time>2023-01-01T13:25:32.504Z</time>
      </trkpt>
      <trkpt lat="43.86844" lon="0.96143">
        <ele>154.18724</ele>
        <time>2023-01-01T13:25:34.502Z</time>
      </trkpt>
      <trkpt lat="43.86835" lon="0.96135">
        <ele>154.352752</ele>
        <time>2023-01-01T13:25:36.480Z</time>
      </trkpt>
      <trkpt lat="43.86827" lon="0.96126">
        <ele>154.512278</ele>
        <time>2023-01-01T13:25:38.498Z</time>
      </trkpt>
      <trkpt lat="43.86819" lon="0.96117">
        <ele>154.668988</ele>
        <time>2023-01-01T13:25:40.497Z</time>
      </trkpt>
      <trkpt lat="43.86811" lon="0.96109">
        <ele>154.819013</ele>
        <time>2023-01-01T13:25:42.504Z</time>
      </trkpt>
      <trkpt lat="43.86801" lon="0.96098">
        <ele>155.024839</ele>
        <time>2023-01-01T13:25:45.502Z</time>
      </trkpt>
      <trkpt lat="43.86791" lon="0.96087">
        <ele>155.229069</ele>
        <time>2023-01-01T13:25:48.502Z</time>
      </trkpt>
      <trkpt lat="43.86783" lon="0.96079">
        <ele>155.375247</ele>
        <time>2023-01-01T13:25:50.500Z</time>
      </trkpt>
      <trkpt lat="43.86776" lon="0.9607">
        <ele>155.52691</ele>
        <time>2023-01-01T13:25:52.500Z</time>
      </trkpt>
      <trkpt lat="43.86769" lon="0.96061">
        <ele>155.681204</ele>
        <time>2023-01-01T13:25:54.474Z</time>
      </trkpt>
      <trkpt lat="43.86761" lon="0.96051">
        <ele>155.843999</ele>
        <time>2023-01-01T13:25:56.501Z</time>
      </trkpt>
      <trkpt lat="43.86754" lon="0.96039">
        <ele>156.013479</ele>
        <time>2023-01-01T13:25:58.501Z</time>
      </trkpt>
      <trkpt lat="43.86747" lon="0.96028">
        <ele>156.179389</ele>
        <time>2023-01-01T13:26:00.502Z</time>
      </trkpt>
      <trkpt lat="43.86741" lon="0.96017">
        <ele>156.148073</ele>
        <time>2023-01-01T13:26:02.480Z</time>
      </trkpt>
      <trkpt lat="43.86734" lon="0.96006">
        <ele>156.107635</ele>
        <time>2023-01-01T13:26:04.498Z</time>
      </trkpt>
      <trkpt lat="43.86728" lon="0.95995">
        <ele>156.06698</ele>
        <time>2023-01-01T13:26:06.501Z</time>
      </trkpt>
      <trkpt lat="43.86721" lon="0.95984">
        <ele>156.026758</ele>
        <time>2023-01-01T13:26:08.483Z</time>
      </trkpt>
      <trkpt lat="43.86715" lon="0.95973">
        <ele>155.987677</ele>
        <time>2023-01-01T13:26:10.497Z</time>
      </trkpt>
      <trkpt lat="43.86709" lon="0.95962">
        <ele>155.948673</ele>
        <time>2023-01-01T13:26:12.500Z</time>
      </trkpt>
      <trkpt lat="43.86702" lon="0.95951">
        <ele>155.909401</ele>
        <time>2023-01-01T13:26:14.475Z</time>
      </trkpt>
      <trkpt lat="43.86696" lon="0.95941">
        <ele>155.873031</ele>
        <time>2023-01-01T13:26:16.501Z</time>
      </trkpt>
      <trkpt lat="43.86692" lon="0.95929">
        <ele>155.835641</ele>
        <time>2023-01-01T13:26:18.481Z</time>
      </trkpt>
      <trkpt lat="43.86686" lon="0.95918">
        <ele>155.800016</ele>
        <time>2023-01-01T13:26:20.482Z</time>
      </trkpt>
      <trkpt lat="43.86681" lon="0.95903">
        <ele>155.751374</ele>
        <time>2023-01-01T13:26:23.501Z</time>
      </trkpt>
      <trkpt lat="43.86676" lon="0.95889">
        <ele>155.707365</ele>
        <time>2023-01-01T13:26:26.514Z</time>
      </trkpt>
      <trkpt lat="43.86671" lon="0.95875">
        <ele>155.665433</ele>
        <time>2023-01-01T13:26:29.501Z</time>
      </trkpt>
      <trkpt lat="43.86666" lon="0.95862">
        <ele>155.624615</ele>
        <time>2023-01-01T13:26:32.500Z</time>
      </trkpt>
      <trkpt lat="43.86661" lon="0.95849">
        <ele>155.581601</ele>
        <time>2023-01-01T13:26:35.501Z</time>
      </trkpt>
      <trkpt lat="43.86654" lon="0.95835">
        <ele>155.534786</ele>
        <time>2023-01-01T13:26:38.499Z</time>
      </trkpt>
      <trkpt lat="43.86648" lon="0.95819">
        <ele>155.474364</ele>
        <time>2023-01-01T13:26:41.501Z</time>
      </trkpt>
      <trkpt lat="43.86642" lon="0.95808">
        <ele>155.382452</ele>
        <time>2023-01-01T13:26:43.510Z</time>
      </trkpt>
      <trkpt lat="43.86636" lon="0.95797">
        <ele>155.283248</ele>
        <time>2023-01-01T13:26:45.503Z</time>
      </trkpt>
      <trkpt lat="43.86629" lon="0.95785">
        <ele>155.180583</ele>
        <time>2023-01-01T13:26:47.503Z</time>
      </trkpt>
      <trkpt lat="43.86622" lon="0.95774">
        <ele>155.075762</ele>
        <time>2023-01-01T13:26:49.500Z</time>
      </trkpt>
      <trkpt lat="43.86615" lon="0.95763">
        <ele>154.967645</ele>
        <time>2023-01-01T13:26:51.486Z</time>
      </trkpt>
      <trkpt lat="43.86608" lon="0.95751">
        <ele>154.858131</ele>
        <time>2023-01-01T13:26:53.505Z</time>
      </trkpt>
      <trkpt lat="43.86601" lon="0.95739">
        <ele>154.75127</ele>
        <time>2023-01-01T13:26:55.490Z</time>
      </trkpt>
      <trkpt lat="43.86594" lon="0.95728">
        <ele>154.650685</ele>
        <time>2023-01-01T13:26:57.498Z</time>
      </trkpt>
      <trkpt lat="43.86587" lon="0.95717">
        <ele>154.546605</ele>
        <time>2023-01-01T13:26:59.502Z</time>
      </trkpt>
      <trkpt lat="43.8658" lon="0.95706">
        <ele>154.444124</ele>
        <time>2023-01-01T13:27:01.504Z</time>
      </trkpt>
      <trkpt lat="43.86573" lon="0.95695">
        <ele>154.344922</ele>
        <time>2023-01-01T13:27:03.499Z</time>
      </trkpt>
      <trkpt lat="43.86566" lon="0.95686">
        <ele>154.2502</ele>
        <time>2023-01-01T13:27:05.499Z</time>
      </trkpt>
      <trkpt lat="43.86557" lon="0.95672">
        <ele>154.115721</ele>
        <time>2023-01-01T13:27:08.509Z</time>
      </trkpt>
      <trkpt lat="43.86548" lon="0.95658">
        <ele>153.985583</ele>
        <time>2023-01-01T13:27:11.501Z</time>
      </trkpt>
      <trkpt lat="43.86542" lon="0.95648">
        <ele>153.895217</ele>
        <time>2023-01-01T13:27:13.503Z</time>
      </trkpt>
      <trkpt lat="43.86536" lon="0.95638">
        <ele>153.799113</ele>
        <time>2023-01-01T13:27:15.505Z</time>
      </trkpt>
      <trkpt lat="43.86529" lon="0.95627">
        <ele>153.711856</ele>
        <time>2023-01-01T13:27:17.501Z</time>
      </trkpt>
      <trkpt lat="43.86523" lon="0.95617">
        <ele>153.650676</ele>
        <time>2023-01-01T13:27:19.503Z</time>
      </trkpt>
      <trkpt lat="43.86516" lon="0.95607">
        <ele>153.590322</ele>
        <time>2023-01-01T13:27:21.499Z</time>
      </trkpt>
      <trkpt lat="43.8651" lon="0.95597">
        <ele>153.529969</ele>
        <time>2023-01-01T13:27:23.500Z</time>
      </trkpt>
      <trkpt lat="43.86503" lon="0.95587">
        <ele>153.469036</ele>
        <time>2023-01-01T13:27:25.504Z</time>
      </trkpt>
      <trkpt lat="43.86497" lon="0.95576">
        <ele>153.407651</ele>
        <time>2023-01-01T13:27:27.504Z</time>
      </trkpt>
      <trkpt lat="43.86491" lon="0.95567">
        <ele>153.350499</ele>
        <time>2023-01-01T13:27:29.504Z</time>
      </trkpt>
      <trkpt lat="43.86485" lon="0.95557">
        <ele>153.289114</ele>
        <time>2023-01-01T13:27:31.502Z</time>
      </trkpt>
      <trkpt lat="43.86479" lon="0.95546">
        <ele>153.227898</ele>
        <time>2023-01-01T13:27:33.486Z</time>
      </trkpt>
      <trkpt lat="43.86473" lon="0.95535">
        <ele>153.165818</ele>
        <time>2023-01-01T13:27:35.499Z</time>
      </trkpt>
      <trkpt lat="43.86467" lon="0.95524">
        <ele>153.102746</ele>
        <time>2023-01-01T13:27:37.504Z</time>
      </trkpt>
      <trkpt lat="43.8646" lon="0.95512">
        <ele>153.034514</ele>
        <time>2023-01-01T13:27:39.509Z</time>
      </trkpt>
      <trkpt lat="43.86453" lon="0.955">
        <ele>152.964443</ele>
        <time>2023-01-01T13:27:41.502Z</time>
      </trkpt>
      <trkpt lat="43.86446" lon="0.95487">
        <ele>152.888494</ele>
        <time>2023-01-01T13:27:43.503Z</time>
      </trkpt>
      <trkpt lat="43.86439" lon="0.95473">
        <ele>152.81298</ele>
        <time>2023-01-01T13:27:45.503Z</time>
      </trkpt>
      <trkpt lat="43.86431" lon="0.95459">
        <ele>152.734901</ele>
        <time>2023-01-01T13:27:47.510Z</time>
      </trkpt>
      <trkpt lat="43.86424" lon="0.95445">
        <ele>152.658241</ele>
        <time>2023-01-01T13:27:49.505Z</time>
      </trkpt>
      <trkpt lat="43.86417" lon="0.95432">
        <ele>152.628073</ele>
        <time>2023-01-01T13:27:51.497Z</time>
      </trkpt>
      <trkpt lat="43.8641" lon="0.95419">
        <ele>152.693303</ele>
        <time>2023-01-01T13:27:53.503Z</time>
      </trkpt>
      <trkpt lat="43.86403" lon="0.95407">
        <ele>152.754575</ele>
        <time>2023-01-01T13:27:55.498Z</time>
      </trkpt>
      <trkpt lat="43.86396" lon="0.95395">
        <ele>152.814714</ele>
        <time>2023-01-01T13:27:57.498Z</time>
      </trkpt>
      <trkpt lat="43.86389" lon="0.95385">
        <ele>152.868378</ele>
        <time>2023-01-01T13:27:59.503Z</time>
      </trkpt>
      <trkpt lat="43.86382" lon="0.95375">
        <ele>152.921795</ele>
        <time>2023-01-01T13:28:01.488Z</time>
      </trkpt>
      <trkpt lat="43.86375" lon="0.95365">
        <ele>152.977273</ele>
        <time>2023-01-01T13:28:03.501Z</time>
      </trkpt>
      <trkpt lat="43.86367" lon="0.95355">
        <ele>153.036274</ele>
        <time>2023-01-01T13:28:05.498Z</time>
      </trkpt>
      <trkpt lat="43.86359" lon="0.95346">
        <ele>153.090999</ele>
        <time>2023-01-01T13:28:07.504Z</time>
      </trkpt>
      <trkpt lat="43.86351" lon="0.95336">
        <ele>153.149045</ele>
        <time>2023-01-01T13:28:09.493Z</time>
      </trkpt>
      <trkpt lat="43.86344" lon="0.95326">
        <ele>153.204967</ele>
        <time>2023-01-01T13:28:11.503Z</time>
      </trkpt>
      <trkpt lat="43.86336" lon="0.95316">
        <ele>153.26102</ele>
        <time>2023-01-01T13:28:13.505Z</time>
      </trkpt>
      <trkpt lat="43.86328" lon="0.95307">
        <ele>153.319727</ele>
        <time>2023-01-01T13:28:15.499Z</time>
      </trkpt>
      <trkpt lat="43.8632" lon="0.95298">
        <ele>153.374451</ele>
        <time>2023-01-01T13:28:17.484Z</time>
      </trkpt>
      <trkpt lat="43.86312" lon="0.95288">
        <ele>153.431197</ele>
        <time>2023-01-01T13:28:19.498Z</time>
      </trkpt>
      <trkpt lat="43.86305" lon="0.95279">
        <ele>153.485346</ele>
        <time>2023-01-01T13:28:21.506Z</time>
      </trkpt>
      <trkpt lat="43.86296" lon="0.9527">
        <ele>153.54301</ele>
        <time>2023-01-01T13:28:23.501Z</time>
      </trkpt>
      <trkpt lat="43.86288" lon="0.95262">
        <ele>153.625515</ele>
        <time>2023-01-01T13:28:25.470Z</time>
      </trkpt>
      <trkpt lat="43.8628" lon="0.95255">
        <ele>153.79763</ele>
        <time>2023-01-01T13:28:27.487Z</time>
      </trkpt>
      <trkpt lat="43.86272" lon="0.95247">
        <ele>153.966256</ele>
        <time>2023-01-01T13:28:29.494Z</time>
      </trkpt>
      <trkpt lat="43.86263" lon="0.9524">
        <ele>154.141192</ele>
        <time>2023-01-01T13:28:31.485Z</time>
      </trkpt>
      <trkpt lat="43.86254" lon="0.95233">
        <ele>154.307281</ele>
        <time>2023-01-01T13:28:33.502Z</time>
      </trkpt>
      <trkpt lat="43.86246" lon="0.95226">
        <ele>154.476302</ele>
        <time>2023-01-01T13:28:35.489Z</time>
      </trkpt>
      <trkpt lat="43.86237" lon="0.9522">
        <ele>154.637291</ele>
        <time>2023-01-01T13:28:37.505Z</time>
      </trkpt>
      <trkpt lat="43.86225" lon="0.95211">
        <ele>154.871726</ele>
        <time>2023-01-01T13:28:40.497Z</time>
      </trkpt>
      <trkpt lat="43.86217" lon="0.95204">
        <ele>155.035592</ele>
        <time>2023-01-01T13:28:42.486Z</time>
      </trkpt>
      <trkpt lat="43.86209" lon="0.95198">
        <ele>155.195276</ele>
        <time>2023-01-01T13:28:44.498Z</time>
      </trkpt>
      <trkpt lat="43.86201" lon="0.95192">
        <ele>155.349619</ele>
        <time>2023-01-01T13:28:46.504Z</time>
      </trkpt>
      <trkpt lat="43.8619" lon="0.95184">
        <ele>155.562227</ele>
        <time>2023-01-01T13:28:49.481Z</time>
      </trkpt>
      <trkpt lat="43.8618" lon="0.95177">
        <ele>155.759439</ele>
        <time>2023-01-01T13:28:52.490Z</time>
      </trkpt>
      <trkpt lat="43.86169" lon="0.95169">
        <ele>155.972381</ele>
        <time>2023-01-01T13:28:55.472Z</time>
      </trkpt>
      <trkpt lat="43.86157" lon="0.95161">
        <ele>156.191951</ele>
        <time>2023-01-01T13:28:58.499Z</time>
      </trkpt>
      <trkpt lat="43.86145" lon="0.95152">
        <ele>156.422335</ele>
        <time>2023-01-01T13:29:01.500Z</time>
      </trkpt>
      <trkpt lat="43.86137" lon="0.95146">
        <ele>156.579928</ele>
        <time>2023-01-01T13:29:03.503Z</time>
      </trkpt>
      <trkpt lat="43.86129" lon="0.9514">
        <ele>156.594821</ele>
        <time>2023-01-01T13:29:05.483Z</time>
      </trkpt>
      <trkpt lat="43.86121" lon="0.95134">
        <ele>156.45652</ele>
        <time>2023-01-01T13:29:07.471Z</time>
      </trkpt>
      <trkpt lat="43.86113" lon="0.95128">
        <ele>156.317986</ele>
        <time>2023-01-01T13:29:09.512Z</time>
      </trkpt>
      <trkpt lat="43.861" lon="0.9512">
        <ele>156.118403</ele>
        <time>2023-01-01T13:29:12.506Z</time>
      </trkpt>
      <trkpt lat="43.86093" lon="0.95113">
        <ele>155.984984</ele>
        <time>2023-01-01T13:29:14.507Z</time>
      </trkpt>
      <trkpt lat="43.8608" lon="0.95105">
        <ele>155.784935</ele>
        <time>2023-01-01T13:29:17.500Z</time>
      </trkpt>
      <trkpt lat="43.86072" lon="0.95099">
        <ele>155.652042</ele>
        <time>2023-01-01T13:29:19.503Z</time>
      </trkpt>
      <trkpt lat="43.8606" lon="0.95091">
        <ele>155.454632</ele>
        <time>2023-01-01T13:29:22.477Z</time>
      </trkpt>
      <trkpt lat="43.86052" lon="0.95085">
        <ele>155.318671</ele>
        <time>2023-01-01T13:29:24.501Z</time>
      </trkpt>
      <trkpt lat="43.86044" lon="0.95079">
        <ele>155.179677</ele>
        <time>2023-01-01T13:29:26.502Z</time>
      </trkpt>
      <trkpt lat="43.86035" lon="0.95072">
        <ele>155.034464</ele>
        <time>2023-01-01T13:29:28.498Z</time>
      </trkpt>
      <trkpt lat="43.86027" lon="0.95066">
        <ele>154.895944</ele>
        <time>2023-01-01T13:29:30.504Z</time>
      </trkpt>
      <trkpt lat="43.86019" lon="0.9506">
        <ele>154.756652</ele>
        <time>2023-01-01T13:29:32.513Z</time>
      </trkpt>
      <trkpt lat="43.8601" lon="0.95052">
        <ele>154.611835</ele>
        <time>2023-01-01T13:29:34.500Z</time>
      </trkpt>
      <trkpt lat="43.86001" lon="0.95046">
        <ele>154.463421</ele>
        <time>2023-01-01T13:29:36.499Z</time>
      </trkpt>
      <trkpt lat="43.85993" lon="0.9504">
        <ele>154.326704</ele>
        <time>2023-01-01T13:29:38.505Z</time>
      </trkpt>
      <trkpt lat="43.85985" lon="0.95032">
        <ele>154.177148</ele>
        <time>2023-01-01T13:29:40.494Z</time>
      </trkpt>
      <trkpt lat="43.85976" lon="0.95026">
        <ele>154.034763</ele>
        <time>2023-01-01T13:29:42.503Z</time>
      </trkpt>
      <trkpt lat="43.85968" lon="0.95019">
        <ele>154.039786</ele>
        <time>2023-01-01T13:29:44.511Z</time>
      </trkpt>
      <trkpt lat="43.8596" lon="0.95012">
        <ele>154.076257</ele>
        <time>2023-01-01T13:29:46.501Z</time>
      </trkpt>
      <trkpt lat="43.85952" lon="0.95004">
        <ele>154.113483</ele>
        <time>2023-01-01T13:29:48.499Z</time>
      </trkpt>
      <trkpt lat="43.85944" lon="0.94995">
        <ele>154.149999</ele>
        <time>2023-01-01T13:29:50.478Z</time>
      </trkpt>
      <trkpt lat="43.85937" lon="0.94987">
        <ele>154.18708</ele>
        <time>2023-01-01T13:29:52.504Z</time>
      </trkpt>
      <trkpt lat="43.85929" lon="0.94978">
        <ele>154.222684</ele>
        <time>2023-01-01T13:29:54.503Z</time>
      </trkpt>
      <trkpt lat="43.85921" lon="0.94969">
        <ele>154.261314</ele>
        <time>2023-01-01T13:29:56.499Z</time>
      </trkpt>
      <trkpt lat="43.85914" lon="0.9496">
        <ele>154.299486</ele>
        <time>2023-01-01T13:29:58.502Z</time>
      </trkpt>
      <trkpt lat="43.85906" lon="0.9495">
        <ele>154.338173</ele>
        <time>2023-01-01T13:30:00.499Z</time>
      </trkpt>
      <trkpt lat="43.85898" lon="0.94941">
        <ele>154.376315</ele>
        <time>2023-01-01T13:30:02.500Z</time>
      </trkpt>
      <trkpt lat="43.85891" lon="0.94931">
        <ele>154.413658</ele>
        <time>2023-01-01T13:30:04.506Z</time>
      </trkpt>
      <trkpt lat="43.85885" lon="0.9492">
        <ele>154.450899</ele>
        <time>2023-01-01T13:30:06.511Z</time>
      </trkpt>
      <trkpt lat="43.85878" lon="0.94909">
        <ele>154.490177</ele>
        <time>2023-01-01T13:30:08.493Z</time>
      </trkpt>
      <trkpt lat="43.85872" lon="0.94898">
        <ele>154.526613</ele>
        <time>2023-01-01T13:30:10.506Z</time>
      </trkpt>
      <trkpt lat="43.85866" lon="0.94887">
        <ele>154.565663</ele>
        <time>2023-01-01T13:30:12.492Z</time>
      </trkpt>
      <trkpt lat="43.85859" lon="0.94876">
        <ele>154.603424</ele>
        <time>2023-01-01T13:30:14.477Z</time>
      </trkpt>
      <trkpt lat="43.85853" lon="0.94864">
        <ele>154.642246</ele>
        <time>2023-01-01T13:30:16.479Z</time>
      </trkpt>
      <trkpt lat="43.85847" lon="0.94854">
        <ele>154.678259</ele>
        <time>2023-01-01T13:30:18.477Z</time>
      </trkpt>
      <trkpt lat="43.85841" lon="0.94843">
        <ele>154.646461</ele>
        <time>2023-01-01T13:30:20.496Z</time>
      </trkpt>
      <trkpt lat="43.85835" lon="0.94831">
        <ele>154.604975</ele>
        <time>2023-01-01T13:30:22.501Z</time>
      </trkpt>
      <trkpt lat="43.85829" lon="0.94819">
        <ele>154.56374</ele>
        <time>2023-01-01T13:30:24.500Z</time>
      </trkpt>
      <trkpt lat="43.85823" lon="0.94807">
        <ele>154.521752</ele>
        <time>2023-01-01T13:30:26.485Z</time>
      </trkpt>
      <trkpt lat="43.85817" lon="0.94795">
        <ele>154.480291</ele>
        <time>2023-01-01T13:30:28.503Z</time>
      </trkpt>
      <trkpt lat="43.85811" lon="0.94784">
        <ele>154.439518</ele>
        <time>2023-01-01T13:30:30.499Z</time>
      </trkpt>
      <trkpt lat="43.85805" lon="0.94772">
        <ele>154.39759</ele>
        <time>2023-01-01T13:30:32.500Z</time>
      </trkpt>
      <trkpt lat="43.85799" lon="0.94761">
        <ele>154.357512</ele>
        <time>2023-01-01T13:30:34.495Z</time>
      </trkpt>
      <trkpt lat="43.85792" lon="0.94749">
        <ele>154.314156</ele>
        <time>2023-01-01T13:30:36.481Z</time>
      </trkpt>
      <trkpt lat="43.85785" lon="0.94737">
        <ele>154.27068</ele>
        <time>2023-01-01T13:30:38.497Z</time>
      </trkpt>
      <trkpt lat="43.85778" lon="0.94726">
        <ele>154.226546</ele>
        <time>2023-01-01T13:30:40.499Z</time>
      </trkpt>
      <trkpt lat="43.85771" lon="0.94714">
        <ele>154.180844</ele>
        <time>2023-01-01T13:30:42.502Z</time>
      </trkpt>
      <trkpt lat="43.85763" lon="0.94703">
        <ele>154.137433</ele>
        <time>2023-01-01T13:30:44.512Z</time>
      </trkpt>
      <trkpt lat="43.85755" lon="0.94692">
        <ele>154.09091</ele>
        <time>2023-01-01T13:30:46.501Z</time>
      </trkpt>
      <trkpt lat="43.85746" lon="0.94681">
        <ele>154.044188</ele>
        <time>2023-01-01T13:30:48.501Z</time>
      </trkpt>
      <trkpt lat="43.85737" lon="0.9467">
        <ele>153.995937</ele>
        <time>2023-01-01T13:30:50.501Z</time>
      </trkpt>
      <trkpt lat="43.85728" lon="0.94659">
        <ele>153.939848</ele>
        <time>2023-01-01T13:30:52.498Z</time>
      </trkpt>
      <trkpt lat="43.85719" lon="0.94649">
        <ele>153.866758</ele>
        <time>2023-01-01T13:30:54.500Z</time>
      </trkpt>
      <trkpt lat="43.85708" lon="0.9464">
        <ele>153.788496</ele>
        <time>2023-01-01T13:30:56.479Z</time>
      </trkpt>
      <trkpt lat="43.85698" lon="0.94631">
        <ele>153.710481</ele>
        <time>2023-01-01T13:30:58.503Z</time>
      </trkpt>
      <trkpt lat="43.85687" lon="0.94623">
        <ele>153.634492</ele>
        <time>2023-01-01T13:31:00.481Z</time>
      </trkpt>
      <trkpt lat="43.85677" lon="0.94614">
        <ele>153.558146</ele>
        <time>2023-01-01T13:31:02.502Z</time>
      </trkpt>
      <trkpt lat="43.85667" lon="0.94606">
        <ele>153.48677</ele>
        <time>2023-01-01T13:31:04.502Z</time>
      </trkpt>
      <trkpt lat="43.85657" lon="0.94599">
        <ele>153.415156</ele>
        <time>2023-01-01T13:31:06.499Z</time>
      </trkpt>
      <trkpt lat="43.85648" lon="0.94592">
        <ele>153.346688</ele>
        <time>2023-01-01T13:31:08.492Z</time>
      </trkpt>
      <trkpt lat="43.85639" lon="0.94584">
        <ele>153.280881</ele>
        <time>2023-01-01T13:31:10.507Z</time>
      </trkpt>
      <trkpt lat="43.8563" lon="0.94577">
        <ele>153.214621</ele>
        <time>2023-01-01T13:31:12.501Z</time>
      </trkpt>
      <trkpt lat="43.8562" lon="0.9457">
        <ele>153.144824</ele>
        <time>2023-01-01T13:31:14.504Z</time>
      </trkpt>
      <trkpt lat="43.85611" lon="0.94561">
        <ele>153.073568</ele>
        <time>2023-01-01T13:31:16.500Z</time>
      </trkpt>
      <trkpt lat="43.85602" lon="0.94554">
        <ele>153.007163</ele>
        <time>2023-01-01T13:31:18.480Z</time>
      </trkpt>
      <trkpt lat="43.85593" lon="0.94546">
        <ele>152.940333</ele>
        <time>2023-01-01T13:31:20.498Z</time>
      </trkpt>
      <trkpt lat="43.85583" lon="0.94538">
        <ele>152.867659</ele>
        <time>2023-01-01T13:31:22.510Z</time>
      </trkpt>
      <trkpt lat="43.85573" lon="0.94532">
        <ele>152.849929</ele>
        <time>2023-01-01T13:31:24.507Z</time>
      </trkpt>
      <trkpt lat="43.85563" lon="0.94525">
        <ele>152.908271</ele>
        <time>2023-01-01T13:31:26.502Z</time>
      </trkpt>
      <trkpt lat="43.85554" lon="0.94519">
        <ele>152.958526</ele>
        <time>2023-01-01T13:31:28.502Z</time>
      </trkpt>
      <trkpt lat="43.85544" lon="0.94511">
        <ele>153.012633</ele>
        <time>2023-01-01T13:31:30.500Z</time>
      </trkpt>
      <trkpt lat="43.85535" lon="0.94504">
        <ele>153.068075</ele>
        <time>2023-01-01T13:31:32.500Z</time>
      </trkpt>
      <trkpt lat="43.85526" lon="0.94497">
        <ele>153.117083</ele>
        <time>2023-01-01T13:31:34.501Z</time>
      </trkpt>
      <trkpt lat="43.85517" lon="0.94489">
        <ele>153.170573</ele>
        <time>2023-01-01T13:31:36.497Z</time>
      </trkpt>
      <trkpt lat="43.85508" lon="0.94481">
        <ele>153.227631</ele>
        <time>2023-01-01T13:31:38.502Z</time>
      </trkpt>
      <trkpt lat="43.85499" lon="0.94474">
        <ele>153.27956</ele>
        <time>2023-01-01T13:31:40.508Z</time>
      </trkpt>
      <trkpt lat="43.8549" lon="0.94467">
        <ele>153.332183</ele>
        <time>2023-01-01T13:31:42.497Z</time>
      </trkpt>
      <trkpt lat="43.8548" lon="0.94459">
        <ele>153.386605</ele>
        <time>2023-01-01T13:31:44.500Z</time>
      </trkpt>
      <trkpt lat="43.85472" lon="0.94452">
        <ele>153.437317</ele>
        <time>2023-01-01T13:31:46.499Z</time>
      </trkpt>
      <trkpt lat="43.85463" lon="0.94444">
        <ele>153.489756</ele>
        <time>2023-01-01T13:31:48.504Z</time>
      </trkpt>
      <trkpt lat="43.85453" lon="0.94437">
        <ele>153.548164</ele>
        <time>2023-01-01T13:31:50.501Z</time>
      </trkpt>
      <trkpt lat="43.85443" lon="0.94428">
        <ele>153.605448</ele>
        <time>2023-01-01T13:31:52.502Z</time>
      </trkpt>
      <trkpt lat="43.85433" lon="0.94421">
        <ele>153.661338</ele>
        <time>2023-01-01T13:31:54.504Z</time>
      </trkpt>
      <trkpt lat="43.85424" lon="0.94414">
        <ele>153.713776</ele>
        <time>2023-01-01T13:31:56.503Z</time>
      </trkpt>
      <trkpt lat="43.85416" lon="0.94408">
        <ele>153.751799</ele>
        <time>2023-01-01T13:31:58.501Z</time>
      </trkpt>
      <trkpt lat="43.85406" lon="0.94399">
        <ele>153.788158</ele>
        <time>2023-01-01T13:32:00.503Z</time>
      </trkpt>
      <trkpt lat="43.85397" lon="0.94391">
        <ele>153.824517</ele>
        <time>2023-01-01T13:32:02.499Z</time>
      </trkpt>
      <trkpt lat="43.85388" lon="0.94383">
        <ele>153.859379</ele>
        <time>2023-01-01T13:32:04.502Z</time>
      </trkpt>
      <trkpt lat="43.85378" lon="0.94375">
        <ele>153.89414</ele>
        <time>2023-01-01T13:32:06.479Z</time>
      </trkpt>
      <trkpt lat="43.85369" lon="0.94368">
        <ele>153.928125</ele>
        <time>2023-01-01T13:32:08.504Z</time>
      </trkpt>
      <trkpt lat="43.85361" lon="0.94362">
        <ele>153.960125</ele>
        <time>2023-01-01T13:32:10.500Z</time>
      </trkpt>
      <trkpt lat="43.85352" lon="0.94355">
        <ele>153.993371</ele>
        <time>2023-01-01T13:32:12.501Z</time>
      </trkpt>
      <trkpt lat="43.85343" lon="0.94349">
        <ele>154.023607</ele>
        <time>2023-01-01T13:32:14.513Z</time>
      </trkpt>
      <trkpt lat="43.85336" lon="0.94342">
        <ele>154.053454</ele>
        <time>2023-01-01T13:32:16.503Z</time>
      </trkpt>
      <trkpt lat="43.85325" lon="0.94333">
        <ele>154.095315</ele>
        <time>2023-01-01T13:32:19.501Z</time>
      </trkpt>
      <trkpt lat="43.85314" lon="0.94324">
        <ele>154.135899</ele>
        <time>2023-01-01T13:32:22.507Z</time>
      </trkpt>
      <trkpt lat="43.85303" lon="0.94317">
        <ele>154.175069</ele>
        <time>2023-01-01T13:32:25.503Z</time>
      </trkpt>
      <trkpt lat="43.85292" lon="0.94307">
        <ele>154.217052</ele>
        <time>2023-01-01T13:32:28.498Z</time>
      </trkpt>
      <trkpt lat="43.8528" lon="0.94298">
        <ele>154.261153</ele>
        <time>2023-01-01T13:32:31.503Z</time>
      </trkpt>
      <trkpt lat="43.85272" lon="0.94292">
        <ele>154.29247</ele>
        <time>2023-01-01T13:32:33.501Z</time>
      </trkpt>
      <trkpt lat="43.85264" lon="0.94285">
        <ele>154.328196</ele>
        <time>2023-01-01T13:32:35.502Z</time>
      </trkpt>
      <trkpt lat="43.85252" lon="0.94275">
        <ele>154.404541</ele>
        <time>2023-01-01T13:32:38.503Z</time>
      </trkpt>
      <trkpt lat="43.85241" lon="0.94265">
        <ele>154.478593</ele>
        <time>2023-01-01T13:32:41.500Z</time>
      </trkpt>
      <trkpt lat="43.85233" lon="0.9426">
        <ele>154.530512</ele>
        <time>2023-01-01T13:32:43.500Z</time>
      </trkpt>
      <trkpt lat="43.85221" lon="0.9425">
        <ele>154.605902</ele>
        <time>2023-01-01T13:32:46.499Z</time>
      </trkpt>
      <trkpt lat="43.85211" lon="0.94241">
        <ele>154.674274</ele>
        <time>2023-01-01T13:32:49.506Z</time>
      </trkpt>
      <trkpt lat="43.85201" lon="0.94234">
        <ele>154.736952</ele>
        <time>2023-01-01T13:32:52.500Z</time>
      </trkpt>
      <trkpt lat="43.85192" lon="0.94227">
        <ele>154.797429</ele>
        <time>2023-01-01T13:32:55.484Z</time>
      </trkpt>
      <trkpt lat="43.85182" lon="0.94219">
        <ele>154.862263</ele>
        <time>2023-01-01T13:32:58.503Z</time>
      </trkpt>
      <trkpt lat="43.85171" lon="0.94211">
        <ele>154.929741</ele>
        <time>2023-01-01T13:33:01.503Z</time>
      </trkpt>
      <trkpt lat="43.85161" lon="0.94202">
        <ele>154.997345</ele>
        <time>2023-01-01T13:33:04.498Z</time>
      </trkpt>
      <trkpt lat="43.85151" lon="0.94194">
        <ele>155.064425</ele>
        <time>2023-01-01T13:33:07.477Z</time>
      </trkpt>
      <trkpt lat="43.8514" lon="0.94186">
        <ele>155.131755</ele>
        <time>2023-01-01T13:33:10.503Z</time>
      </trkpt>
      <trkpt lat="43.85131" lon="0.94177">
        <ele>155.194871</ele>
        <time>2023-01-01T13:33:13.496Z</time>
      </trkpt>
      <trkpt lat="43.85121" lon="0.94169">
        <ele>155.258202</ele>
        <time>2023-01-01T13:33:16.502Z</time>
      </trkpt>
      <trkpt lat="43.85111" lon="0.94161">
        <ele>155.32252</ele>
        <time>2023-01-01T13:33:19.504Z</time>
      </trkpt>
      <trkpt lat="43.85101" lon="0.94152">
        <ele>155.448431</ele>
        <time>2023-01-01T13:33:22.473Z</time>
      </trkpt>
      <trkpt lat="43.8509" lon="0.94144">
        <ele>155.581233</ele>
        <time>2023-01-01T13:33:25.472Z</time>
      </trkpt>
      <trkpt lat="43.85079" lon="0.94136">
        <ele>155.71814</ele>
        <time>2023-01-01T13:33:28.504Z</time>
      </trkpt>
      <trkpt lat="43.85068" lon="0.94127">
        <ele>155.857506</ele>
        <time>2023-01-01T13:33:31.498Z</time>
      </trkpt>
      <trkpt lat="43.85058" lon="0.94118">
        <ele>155.989126</ele>
        <time>2023-01-01T13:33:34.504Z</time>
      </trkpt>
      <trkpt lat="43.8505" lon="0.94111">
        <ele>156.093576</ele>
        <time>2023-01-01T13:33:37.499Z</time>
      </trkpt>
      <trkpt lat="43.85047" lon="0.94108">
        <ele>156.127502</ele>
        <time>2023-01-01T13:33:46.304Z</time>
      </trkpt>
      <trkpt lat="43.85036" lon="0.94101">
        <ele>156.259555</ele>
        <time>2023-01-01T13:35:54.490Z</time>
      </trkpt>
      <trkpt lat="43.85025" lon="0.94094">
        <ele>156.394579</ele>
        <time>2023-01-01T13:35:58.483Z</time>
      </trkpt>
      <trkpt lat="43.85015" lon="0.94087">
        <ele>156.514517</ele>
        <time>2023-01-01T13:36:01.507Z</time>
      </trkpt>
      <trkpt lat="43.85004" lon="0.94079">
        <ele>156.647444</ele>
        <time>2023-01-01T13:36:04.478Z</time>
      </trkpt>
      <trkpt lat="43.84993" lon="0.94071">
        <ele>156.781493</ele>
        <time>2023-01-01T13:36:07.505Z</time>
      </trkpt>
      <trkpt lat="43.84983" lon="0.94062">
        <ele>156.907219</ele>
        <time>2023-01-01T13:36:10.484Z</time>
      </trkpt>
      <trkpt lat="43.84973" lon="0.94054">
        <ele>157.037099</ele>
        <time>2023-01-01T13:36:13.493Z</time>
      </trkpt>
      <trkpt lat="43.84962" lon="0.94046">
        <ele>157.172694</ele>
        <time>2023-01-01T13:36:16.482Z</time>
      </trkpt>
      <trkpt lat="43.84953" lon="0.94037">
        <ele>157.296555</ele>
        <time>2023-01-01T13:36:19.507Z</time>
      </trkpt>
      <trkpt lat="43.84944" lon="0.94026">
        <ele>157.445218</ele>
        <time>2023-01-01T13:36:22.481Z</time>
      </trkpt>
      <trkpt lat="43.84935" lon="0.94015">
        <ele>157.596015</ele>
        <time>2023-01-01T13:36:25.497Z</time>
      </trkpt>
      <trkpt lat="43.84926" lon="0.94002">
        <ele>157.762227</ele>
        <time>2023-01-01T13:36:28.489Z</time>
      </trkpt>
      <trkpt lat="43.84917" lon="0.93988">
        <ele>157.929904</ele>
        <time>2023-01-01T13:36:31.480Z</time>
      </trkpt>
      <trkpt lat="43.84908" lon="0.93974">
        <ele>158.095047</ele>
        <time>2023-01-01T13:36:34.480Z</time>
      </trkpt>
      <trkpt lat="43.849" lon="0.93962">
        <ele>158.246283</ele>
        <time>2023-01-01T13:36:37.499Z</time>
      </trkpt>
      <trkpt lat="43.84893" lon="0.93952">
        <ele>158.365653</ele>
        <time>2023-01-01T13:36:39.491Z</time>
      </trkpt>
      <trkpt lat="43.84888" lon="0.93942">
        <ele>158.478485</ele>
        <time>2023-01-01T13:36:41.494Z</time>
      </trkpt>
      <trkpt lat="43.8488" lon="0.93929">
        <ele>158.634598</ele>
        <time>2023-01-01T13:36:44.495Z</time>
      </trkpt>
      <trkpt lat="43.84874" lon="0.93915">
        <ele>158.782603</ele>
        <time>2023-01-01T13:36:47.488Z</time>
      </trkpt>
      <trkpt lat="43.84867" lon="0.93901">
        <ele>158.937416</ele>
        <time>2023-01-01T13:36:50.505Z</time>
      </trkpt>
      <trkpt lat="43.8486" lon="0.93887">
        <ele>159.089748</ele>
        <time>2023-01-01T13:36:53.504Z</time>
      </trkpt>
      <trkpt lat="43.84853" lon="0.93873">
        <ele>159.238567</ele>
        <time>2023-01-01T13:36:56.506Z</time>
      </trkpt>
      <trkpt lat="43.84847" lon="0.93863">
        <ele>159.359136</ele>
        <time>2023-01-01T13:36:58.499Z</time>
      </trkpt>
      <trkpt lat="43.84841" lon="0.93852">
        <ele>159.484076</ele>
        <time>2023-01-01T13:37:00.491Z</time>
      </trkpt>
      <trkpt lat="43.84835" lon="0.93841">
        <ele>159.573593</ele>
        <time>2023-01-01T13:37:02.494Z</time>
      </trkpt>
      <trkpt lat="43.8483" lon="0.93831">
        <ele>159.638142</ele>
        <time>2023-01-01T13:37:04.484Z</time>
      </trkpt>
      <trkpt lat="43.84824" lon="0.93819">
        <ele>159.711793</ele>
        <time>2023-01-01T13:37:06.491Z</time>
      </trkpt>
      <trkpt lat="43.84819" lon="0.93809">
        <ele>159.779202</ele>
        <time>2023-01-01T13:37:08.504Z</time>
      </trkpt>
      <trkpt lat="43.84813" lon="0.93798">
        <ele>159.848709</ele>
        <time>2023-01-01T13:37:10.501Z</time>
      </trkpt>
      <trkpt lat="43.84807" lon="0.93787">
        <ele>159.916131</ele>
        <time>2023-01-01T13:37:12.509Z</time>
      </trkpt>
      <trkpt lat="43.84802" lon="0.93777">
        <ele>159.983552</ele>
        <time>2023-01-01T13:37:14.501Z</time>
      </trkpt>
      <trkpt lat="43.84796" lon="0.93766">
        <ele>160.051027</ele>
        <time>2023-01-01T13:37:16.493Z</time>
      </trkpt>
      <trkpt lat="43.84789" lon="0.93751">
        <ele>160.144233</ele>
        <time>2023-01-01T13:37:19.489Z</time>
      </trkpt>
      <trkpt lat="43.84781" lon="0.93737">
        <ele>160.235374</ele>
        <time>2023-01-01T13:37:22.507Z</time>
      </trkpt>
      <trkpt lat="43.84774" lon="0.93724">
        <ele>160.316247</ele>
        <time>2023-01-01T13:37:25.488Z</time>
      </trkpt>
      <trkpt lat="43.84768" lon="0.93712">
        <ele>160.3945</ele>
        <time>2023-01-01T13:37:28.510Z</time>
      </trkpt>
      <trkpt lat="43.84762" lon="0.93698">
        <ele>160.476176</ele>
        <time>2023-01-01T13:37:31.487Z</time>
      </trkpt>
      <trkpt lat="43.84754" lon="0.93684">
        <ele>160.569384</ele>
        <time>2023-01-01T13:37:34.490Z</time>
      </trkpt>
      <trkpt lat="43.84749" lon="0.93673">
        <ele>160.636825</ele>
        <time>2023-01-01T13:37:36.481Z</time>
      </trkpt>
      <trkpt lat="43.84743" lon="0.93663">
        <ele>160.701326</ele>
        <time>2023-01-01T13:37:38.479Z</time>
      </trkpt>
      <trkpt lat="43.84738" lon="0.93652">
        <ele>160.767501</ele>
        <time>2023-01-01T13:37:40.489Z</time>
      </trkpt>
      <trkpt lat="43.84732" lon="0.93642">
        <ele>160.771375</ele>
        <time>2023-01-01T13:37:42.507Z</time>
      </trkpt>
      <trkpt lat="43.84725" lon="0.93628">
        <ele>160.554903</ele>
        <time>2023-01-01T13:37:45.506Z</time>
      </trkpt>
      <trkpt lat="43.84718" lon="0.93616">
        <ele>160.358084</ele>
        <time>2023-01-01T13:37:48.484Z</time>
      </trkpt>
      <trkpt lat="43.84711" lon="0.93604">
        <ele>160.151421</ele>
        <time>2023-01-01T13:37:51.499Z</time>
      </trkpt>
      <trkpt lat="43.84704" lon="0.9359">
        <ele>159.937893</ele>
        <time>2023-01-01T13:37:54.498Z</time>
      </trkpt>
      <trkpt lat="43.84697" lon="0.93575">
        <ele>159.708931</ele>
        <time>2023-01-01T13:37:57.484Z</time>
      </trkpt>
      <trkpt lat="43.84689" lon="0.93561">
        <ele>159.471408</ele>
        <time>2023-01-01T13:38:00.490Z</time>
      </trkpt>
      <trkpt lat="43.84683" lon="0.9355">
        <ele>159.302737</ele>
        <time>2023-01-01T13:38:02.487Z</time>
      </trkpt>
      <trkpt lat="43.84677" lon="0.93539">
        <ele>159.12992</ele>
        <time>2023-01-01T13:38:04.487Z</time>
      </trkpt>
      <trkpt lat="43.84672" lon="0.93529">
        <ele>158.962362</ele>
        <time>2023-01-01T13:38:06.490Z</time>
      </trkpt>
      <trkpt lat="43.84666" lon="0.93517">
        <ele>158.783259</ele>
        <time>2023-01-01T13:38:08.482Z</time>
      </trkpt>
      <trkpt lat="43.8466" lon="0.93506">
        <ele>158.606301</ele>
        <time>2023-01-01T13:38:10.505Z</time>
      </trkpt>
      <trkpt lat="43.84655" lon="0.93496">
        <ele>158.444764</ele>
        <time>2023-01-01T13:38:12.489Z</time>
      </trkpt>
      <trkpt lat="43.84649" lon="0.93486">
        <ele>158.280322</ele>
        <time>2023-01-01T13:38:14.487Z</time>
      </trkpt>
      <trkpt lat="43.84644" lon="0.93475">
        <ele>158.117951</ele>
        <time>2023-01-01T13:38:16.505Z</time>
      </trkpt>
      <trkpt lat="43.84639" lon="0.93464">
        <ele>157.944096</ele>
        <time>2023-01-01T13:38:18.489Z</time>
      </trkpt>
      <trkpt lat="43.84633" lon="0.93453">
        <ele>157.770295</ele>
        <time>2023-01-01T13:38:20.486Z</time>
      </trkpt>
      <trkpt lat="43.84627" lon="0.93441">
        <ele>157.591686</ele>
        <time>2023-01-01T13:38:22.511Z</time>
      </trkpt>
      <trkpt lat="43.8462" lon="0.93429">
        <ele>157.431565</ele>
        <time>2023-01-01T13:38:24.506Z</time>
      </trkpt>
      <trkpt lat="43.84613" lon="0.93416">
        <ele>157.259908</ele>
        <time>2023-01-01T13:38:26.483Z</time>
      </trkpt>
      <trkpt lat="43.84606" lon="0.93403">
        <ele>157.092417</ele>
        <time>2023-01-01T13:38:28.489Z</time>
      </trkpt>
      <trkpt lat="43.84599" lon="0.93389">
        <ele>156.915705</ele>
        <time>2023-01-01T13:38:30.508Z</time>
      </trkpt>
      <trkpt lat="43.84592" lon="0.93375">
        <ele>156.7432</ele>
        <time>2023-01-01T13:38:32.491Z</time>
      </trkpt>
      <trkpt lat="43.84585" lon="0.93363">
        <ele>156.578849</ele>
        <time>2023-01-01T13:38:34.505Z</time>
      </trkpt>
      <trkpt lat="43.84578" lon="0.9335">
        <ele>156.406349</ele>
        <time>2023-01-01T13:38:36.499Z</time>
      </trkpt>
      <trkpt lat="43.84571" lon="0.93337">
        <ele>156.241388</ele>
        <time>2023-01-01T13:38:38.495Z</time>
      </trkpt>
      <trkpt lat="43.84565" lon="0.93325">
        <ele>156.089921</ele>
        <time>2023-01-01T13:38:40.488Z</time>
      </trkpt>
      <trkpt lat="43.84559" lon="0.93313">
        <ele>155.935004</ele>
        <time>2023-01-01T13:38:42.489Z</time>
      </trkpt>
      <trkpt lat="43.84554" lon="0.93302">
        <ele>155.797758</ele>
        <time>2023-01-01T13:38:44.486Z</time>
      </trkpt>
      <trkpt lat="43.84548" lon="0.93292">
        <ele>155.662913</ele>
        <time>2023-01-01T13:38:46.490Z</time>
      </trkpt>
      <trkpt lat="43.84542" lon="0.93281">
        <ele>155.533326</ele>
        <time>2023-01-01T13:38:48.502Z</time>
      </trkpt>
      <trkpt lat="43.84536" lon="0.93272">
        <ele>155.398857</ele>
        <time>2023-01-01T13:38:50.493Z</time>
      </trkpt>
      <trkpt lat="43.8453" lon="0.93261">
        <ele>155.260586</ele>
        <time>2023-01-01T13:38:52.497Z</time>
      </trkpt>
      <trkpt lat="43.84524" lon="0.9325">
        <ele>155.110705</ele>
        <time>2023-01-01T13:38:54.491Z</time>
      </trkpt>
      <trkpt lat="43.84517" lon="0.93239">
        <ele>155.084065</ele>
        <time>2023-01-01T13:38:56.517Z</time>
      </trkpt>
      <trkpt lat="43.8451" lon="0.9323">
        <ele>155.202657</ele>
        <time>2023-01-01T13:38:58.509Z</time>
      </trkpt>
      <trkpt lat="43.84502" lon="0.93219">
        <ele>155.327624</ele>
        <time>2023-01-01T13:39:00.506Z</time>
      </trkpt>
      <trkpt lat="43.84495" lon="0.9321">
        <ele>155.443557</ele>
        <time>2023-01-01T13:39:02.487Z</time>
      </trkpt>
      <trkpt lat="43.84487" lon="0.932">
        <ele>155.567376</ele>
        <time>2023-01-01T13:39:04.483Z</time>
      </trkpt>
      <trkpt lat="43.8448" lon="0.93191">
        <ele>155.680599</ele>
        <time>2023-01-01T13:39:06.506Z</time>
      </trkpt>
      <trkpt lat="43.84472" lon="0.93182">
        <ele>155.800787</ele>
        <time>2023-01-01T13:39:08.484Z</time>
      </trkpt>
      <trkpt lat="43.84465" lon="0.93174">
        <ele>155.914599</ele>
        <time>2023-01-01T13:39:10.507Z</time>
      </trkpt>
      <trkpt lat="43.84455" lon="0.93164">
        <ele>156.066733</ele>
        <time>2023-01-01T13:39:13.486Z</time>
      </trkpt>
      <trkpt lat="43.84445" lon="0.93153">
        <ele>156.208439</ele>
        <time>2023-01-01T13:39:16.501Z</time>
      </trkpt>
      <trkpt lat="43.84437" lon="0.93142">
        <ele>156.350113</ele>
        <time>2023-01-01T13:39:19.498Z</time>
      </trkpt>
      <trkpt lat="43.84427" lon="0.93132">
        <ele>156.48998</ele>
        <time>2023-01-01T13:39:22.494Z</time>
      </trkpt>
      <trkpt lat="43.8442" lon="0.93123">
        <ele>156.607417</ele>
        <time>2023-01-01T13:39:25.506Z</time>
      </trkpt>
      <trkpt lat="43.84413" lon="0.93115">
        <ele>156.715553</ele>
        <time>2023-01-01T13:39:28.491Z</time>
      </trkpt>
      <trkpt lat="43.84406" lon="0.93107">
        <ele>156.823398</ele>
        <time>2023-01-01T13:39:31.502Z</time>
      </trkpt>
      <trkpt lat="43.84399" lon="0.93098">
        <ele>156.935465</ele>
        <time>2023-01-01T13:39:34.486Z</time>
      </trkpt>
      <trkpt lat="43.84391" lon="0.9309">
        <ele>157.054485</ele>
        <time>2023-01-01T13:39:37.502Z</time>
      </trkpt>
      <trkpt lat="43.84382" lon="0.9308">
        <ele>157.19716</ele>
        <time>2023-01-01T13:39:40.481Z</time>
      </trkpt>
      <trkpt lat="43.84373" lon="0.9307">
        <ele>157.447125</ele>
        <time>2023-01-01T13:39:43.475Z</time>
      </trkpt>
      <trkpt lat="43.84365" lon="0.9306">
        <ele>157.692763</ele>
        <time>2023-01-01T13:39:46.506Z</time>
      </trkpt>
      <trkpt lat="43.84356" lon="0.9305">
        <ele>157.943162</ele>
        <time>2023-01-01T13:39:49.494Z</time>
      </trkpt>
      <trkpt lat="43.84346" lon="0.93041">
        <ele>158.200311</ele>
        <time>2023-01-01T13:39:52.489Z</time>
      </trkpt>
      <trkpt lat="43.84336" lon="0.93031">
        <ele>158.456515</ele>
        <time>2023-01-01T13:39:55.487Z</time>
      </trkpt>
      <trkpt lat="43.84326" lon="0.93022">
        <ele>158.726122</ele>
        <time>2023-01-01T13:39:58.480Z</time>
      </trkpt>
      <trkpt lat="43.84316" lon="0.93013">
        <ele>158.988029</ele>
        <time>2023-01-01T13:40:01.498Z</time>
      </trkpt>
      <trkpt lat="43.84306" lon="0.93005">
        <ele>159.226247</ele>
        <time>2023-01-01T13:40:04.484Z</time>
      </trkpt>
      <trkpt lat="43.84298" lon="0.92998">
        <ele>159.441067</ele>
        <time>2023-01-01T13:40:07.492Z</time>
      </trkpt>
      <trkpt lat="43.84289" lon="0.92992">
        <ele>159.646341</ele>
        <time>2023-01-01T13:40:10.482Z</time>
      </trkpt>
      <trkpt lat="43.84281" lon="0.92987">
        <ele>159.844159</ele>
        <time>2023-01-01T13:40:13.506Z</time>
      </trkpt>
      <trkpt lat="43.8427" lon="0.9298">
        <ele>160.090477</ele>
        <time>2023-01-01T13:40:17.486Z</time>
      </trkpt>
      <trkpt lat="43.8426" lon="0.92975">
        <ele>160.327735</ele>
        <time>2023-01-01T13:40:21.490Z</time>
      </trkpt>
      <trkpt lat="43.8425" lon="0.92967">
        <ele>160.586348</ele>
        <time>2023-01-01T13:40:25.478Z</time>
      </trkpt>
      <trkpt lat="43.84241" lon="0.9296">
        <ele>160.802197</ele>
        <time>2023-01-01T13:40:28.482Z</time>
      </trkpt>
      <trkpt lat="43.84231" lon="0.92952">
        <ele>161.04629</ele>
        <time>2023-01-01T13:40:31.486Z</time>
      </trkpt>
      <trkpt lat="43.84221" lon="0.92944">
        <ele>161.150573</ele>
        <time>2023-01-01T13:40:34.508Z</time>
      </trkpt>
      <trkpt lat="43.8421" lon="0.92936">
        <ele>161.252534</ele>
        <time>2023-01-01T13:40:37.501Z</time>
      </trkpt>
      <trkpt lat="43.84198" lon="0.92929">
        <ele>161.360415</ele>
        <time>2023-01-01T13:40:40.505Z</time>
      </trkpt>
      <trkpt lat="43.8419" lon="0.92923">
        <ele>161.435649</ele>
        <time>2023-01-01T13:40:42.505Z</time>
      </trkpt>
      <trkpt lat="43.84182" lon="0.92917">
        <ele>161.512446</ele>
        <time>2023-01-01T13:40:44.484Z</time>
      </trkpt>
      <trkpt lat="43.84173" lon="0.92911">
        <ele>161.589606</ele>
        <time>2023-01-01T13:40:46.505Z</time>
      </trkpt>
      <trkpt lat="43.84164" lon="0.92905">
        <ele>161.672278</ele>
        <time>2023-01-01T13:40:48.493Z</time>
      </trkpt>
      <trkpt lat="43.84155" lon="0.929">
        <ele>161.753183</ele>
        <time>2023-01-01T13:40:50.486Z</time>
      </trkpt>
      <trkpt lat="43.84146" lon="0.92894">
        <ele>161.836087</ele>
        <time>2023-01-01T13:40:52.502Z</time>
      </trkpt>
      <trkpt lat="43.84137" lon="0.92888">
        <ele>161.919491</ele>
        <time>2023-01-01T13:40:54.490Z</time>
      </trkpt>
      <trkpt lat="43.84128" lon="0.92881">
        <ele>162.004829</ele>
        <time>2023-01-01T13:40:56.490Z</time>
      </trkpt>
      <trkpt lat="43.84118" lon="0.92874">
        <ele>162.095227</ele>
        <time>2023-01-01T13:40:58.488Z</time>
      </trkpt>
      <trkpt lat="43.84109" lon="0.92867">
        <ele>162.184863</ele>
        <time>2023-01-01T13:41:00.508Z</time>
      </trkpt>
      <trkpt lat="43.841" lon="0.92861">
        <ele>162.26655</ele>
        <time>2023-01-01T13:41:02.490Z</time>
      </trkpt>
      <trkpt lat="43.8409" lon="0.92855">
        <ele>162.354202</ele>
        <time>2023-01-01T13:41:04.509Z</time>
      </trkpt>
      <trkpt lat="43.8408" lon="0.92849">
        <ele>162.443367</ele>
        <time>2023-01-01T13:41:06.504Z</time>
      </trkpt>
      <trkpt lat="43.84071" lon="0.92843">
        <ele>162.526285</ele>
        <time>2023-01-01T13:41:08.487Z</time>
      </trkpt>
      <trkpt lat="43.84062" lon="0.92836">
        <ele>162.40277</ele>
        <time>2023-01-01T13:41:10.504Z</time>
      </trkpt>
      <trkpt lat="43.84053" lon="0.92829">
        <ele>162.240252</ele>
        <time>2023-01-01T13:41:12.518Z</time>
      </trkpt>
      <trkpt lat="43.84044" lon="0.92823">
        <ele>162.084988</ele>
        <time>2023-01-01T13:41:14.508Z</time>
      </trkpt>
      <trkpt lat="43.84035" lon="0.92816">
        <ele>161.927075</ele>
        <time>2023-01-01T13:41:16.478Z</time>
      </trkpt>
      <trkpt lat="43.84025" lon="0.9281">
        <ele>161.764899</ele>
        <time>2023-01-01T13:41:18.486Z</time>
      </trkpt>
      <trkpt lat="43.84016" lon="0.92803">
        <ele>161.602295</ele>
        <time>2023-01-01T13:41:20.508Z</time>
      </trkpt>
      <trkpt lat="43.84006" lon="0.92797">
        <ele>161.436726</ele>
        <time>2023-01-01T13:41:22.505Z</time>
      </trkpt>
      <trkpt lat="43.83997" lon="0.92789">
        <ele>161.269547</ele>
        <time>2023-01-01T13:41:24.506Z</time>
      </trkpt>
      <trkpt lat="43.83988" lon="0.92783">
        <ele>161.109641</ele>
        <time>2023-01-01T13:41:26.516Z</time>
      </trkpt>
      <trkpt lat="43.83978" lon="0.92776">
        <ele>160.942182</ele>
        <time>2023-01-01T13:41:28.506Z</time>
      </trkpt>
      <trkpt lat="43.83968" lon="0.9277">
        <ele>160.77486</ele>
        <time>2023-01-01T13:41:30.495Z</time>
      </trkpt>
      <trkpt lat="43.83958" lon="0.92762">
        <ele>160.595719</ele>
        <time>2023-01-01T13:41:32.490Z</time>
      </trkpt>
      <trkpt lat="43.83947" lon="0.92755">
        <ele>160.404002</ele>
        <time>2023-01-01T13:41:34.512Z</time>
      </trkpt>
      <trkpt lat="43.83936" lon="0.92748">
        <ele>160.221694</ele>
        <time>2023-01-01T13:41:36.489Z</time>
      </trkpt>
      <trkpt lat="43.83926" lon="0.9274">
        <ele>160.037015</ele>
        <time>2023-01-01T13:41:38.516Z</time>
      </trkpt>
      <trkpt lat="43.83916" lon="0.92733">
        <ele>159.862149</ele>
        <time>2023-01-01T13:41:40.505Z</time>
      </trkpt>
      <trkpt lat="43.83906" lon="0.92726">
        <ele>159.695615</ele>
        <time>2023-01-01T13:41:42.485Z</time>
      </trkpt>
      <trkpt lat="43.83897" lon="0.92719">
        <ele>159.536675</ele>
        <time>2023-01-01T13:41:44.495Z</time>
      </trkpt>
      <trkpt lat="43.83887" lon="0.92712">
        <ele>159.374572</ele>
        <time>2023-01-01T13:41:46.485Z</time>
      </trkpt>
      <trkpt lat="43.83877" lon="0.92705">
        <ele>159.207758</ele>
        <time>2023-01-01T13:41:48.508Z</time>
      </trkpt>
      <trkpt lat="43.83867" lon="0.92698">
        <ele>159.039123</ele>
        <time>2023-01-01T13:41:50.509Z</time>
      </trkpt>
      <trkpt lat="43.83857" lon="0.9269">
        <ele>158.870785</ele>
        <time>2023-01-01T13:41:52.487Z</time>
      </trkpt>
      <trkpt lat="43.83847" lon="0.92684">
        <ele>158.707334</ele>
        <time>2023-01-01T13:41:54.494Z</time>
      </trkpt>
      <trkpt lat="43.83838" lon="0.92677">
        <ele>158.546803</ele>
        <time>2023-01-01T13:41:56.510Z</time>
      </trkpt>
      <trkpt lat="43.83829" lon="0.9267">
        <ele>158.391756</ele>
        <time>2023-01-01T13:41:58.509Z</time>
      </trkpt>
      <trkpt lat="43.8382" lon="0.92663">
        <ele>158.239601</ele>
        <time>2023-01-01T13:42:00.508Z</time>
      </trkpt>
      <trkpt lat="43.83811" lon="0.92657">
        <ele>158.098281</ele>
        <time>2023-01-01T13:42:02.485Z</time>
      </trkpt>
      <trkpt lat="43.83799" lon="0.92648">
        <ele>157.895495</ele>
        <time>2023-01-01T13:42:05.490Z</time>
      </trkpt>
      <trkpt lat="43.83787" lon="0.9264">
        <ele>157.693575</ele>
        <time>2023-01-01T13:42:08.503Z</time>
      </trkpt>
      <trkpt lat="43.83779" lon="0.92634">
        <ele>157.553143</ele>
        <time>2023-01-01T13:42:10.486Z</time>
      </trkpt>
      <trkpt lat="43.83766" lon="0.92626">
        <ele>157.34721</ele>
        <time>2023-01-01T13:42:13.509Z</time>
      </trkpt>
      <trkpt lat="43.83758" lon="0.9262">
        <ele>157.202073</ele>
        <time>2023-01-01T13:42:15.490Z</time>
      </trkpt>
      <trkpt lat="43.83749" lon="0.92614">
        <ele>157.062975</ele>
        <time>2023-01-01T13:42:17.487Z</time>
      </trkpt>
      <trkpt lat="43.83739" lon="0.92606">
        <ele>156.991628</ele>
        <time>2023-01-01T13:42:19.504Z</time>
      </trkpt>
      <trkpt lat="43.8373" lon="0.926">
        <ele>156.925503</ele>
        <time>2023-01-01T13:42:21.508Z</time>
      </trkpt>
      <trkpt lat="43.8372" lon="0.92593">
        <ele>156.853922</ele>
        <time>2023-01-01T13:42:23.502Z</time>
      </trkpt>
      <trkpt lat="43.83711" lon="0.92587">
        <ele>156.784255</ele>
        <time>2023-01-01T13:42:25.488Z</time>
      </trkpt>
      <trkpt lat="43.83701" lon="0.92579">
        <ele>156.70892</ele>
        <time>2023-01-01T13:42:27.507Z</time>
      </trkpt>
      <trkpt lat="43.8369" lon="0.92572">
        <ele>156.634192</ele>
        <time>2023-01-01T13:42:29.490Z</time>
      </trkpt>
      <trkpt lat="43.8368" lon="0.92565">
        <ele>156.556691</ele>
        <time>2023-01-01T13:42:31.507Z</time>
      </trkpt>
      <trkpt lat="43.83669" lon="0.92557">
        <ele>156.476761</ele>
        <time>2023-01-01T13:42:33.490Z</time>
      </trkpt>
      <trkpt lat="43.83658" lon="0.92549">
        <ele>156.398205</ele>
        <time>2023-01-01T13:42:35.491Z</time>
      </trkpt>
      <trkpt lat="43.83647" lon="0.92542">
        <ele>156.316744</ele>
        <time>2023-01-01T13:42:37.495Z</time>
      </trkpt>
      <trkpt lat="43.83635" lon="0.92534">
        <ele>156.233905</ele>
        <time>2023-01-01T13:42:39.512Z</time>
      </trkpt>
      <trkpt lat="43.83624" lon="0.92526">
        <ele>156.149059</ele>
        <time>2023-01-01T13:42:41.508Z</time>
      </trkpt>
      <trkpt lat="43.83612" lon="0.92518">
        <ele>156.065219</ele>
        <time>2023-01-01T13:42:43.503Z</time>
      </trkpt>
      <trkpt lat="43.83601" lon="0.9251">
        <ele>155.98713</ele>
        <time>2023-01-01T13:42:45.505Z</time>
      </trkpt>
      <trkpt lat="43.83591" lon="0.92503">
        <ele>155.909583</ele>
        <time>2023-01-01T13:42:47.492Z</time>
      </trkpt>
      <trkpt lat="43.8358" lon="0.92495">
        <ele>155.944923</ele>
        <time>2023-01-01T13:42:49.510Z</time>
      </trkpt>
      <trkpt lat="43.83569" lon="0.92488">
        <ele>155.99891</ele>
        <time>2023-01-01T13:42:51.489Z</time>
      </trkpt>
      <trkpt lat="43.83559" lon="0.92481">
        <ele>156.050849</ele>
        <time>2023-01-01T13:42:53.485Z</time>
      </trkpt>
      <trkpt lat="43.83549" lon="0.92474">
        <ele>156.10328</ele>
        <time>2023-01-01T13:42:55.490Z</time>
      </trkpt>
      <trkpt lat="43.83538" lon="0.92466">
        <ele>156.157064</ele>
        <time>2023-01-01T13:42:57.508Z</time>
      </trkpt>
      <trkpt lat="43.83528" lon="0.92459">
        <ele>156.210917</ele>
        <time>2023-01-01T13:42:59.509Z</time>
      </trkpt>
      <trkpt lat="43.83518" lon="0.92451">
        <ele>156.262796</ele>
        <time>2023-01-01T13:43:01.504Z</time>
      </trkpt>
      <trkpt lat="43.83508" lon="0.92443">
        <ele>156.315401</ele>
        <time>2023-01-01T13:43:03.493Z</time>
      </trkpt>
      <trkpt lat="43.83497" lon="0.92436">
        <ele>156.368232</ele>
        <time>2023-01-01T13:43:05.507Z</time>
      </trkpt>
      <trkpt lat="43.83487" lon="0.92429">
        <ele>156.418</ele>
        <time>2023-01-01T13:43:07.504Z</time>
      </trkpt>
      <trkpt lat="43.83478" lon="0.92422">
        <ele>156.467331</ele>
        <time>2023-01-01T13:43:09.490Z</time>
      </trkpt>
      <trkpt lat="43.83468" lon="0.92416">
        <ele>156.514343</ele>
        <time>2023-01-01T13:43:11.487Z</time>
      </trkpt>
      <trkpt lat="43.83459" lon="0.92409">
        <ele>156.561617</ele>
        <time>2023-01-01T13:43:13.503Z</time>
      </trkpt>
      <trkpt lat="43.8345" lon="0.92403">
        <ele>156.608371</ele>
        <time>2023-01-01T13:43:15.492Z</time>
      </trkpt>
      <trkpt lat="43.83441" lon="0.92396">
        <ele>156.654573</ele>
        <time>2023-01-01T13:43:17.489Z</time>
      </trkpt>
      <trkpt lat="43.83432" lon="0.9239">
        <ele>156.700224</ele>
        <time>2023-01-01T13:43:19.490Z</time>
      </trkpt>
      <trkpt lat="43.83422" lon="0.92384">
        <ele>156.826448</ele>
        <time>2023-01-01T13:43:21.508Z</time>
      </trkpt>
      <trkpt lat="43.83414" lon="0.92379">
        <ele>156.971053</ele>
        <time>2023-01-01T13:43:23.485Z</time>
      </trkpt>
      <trkpt lat="43.83405" lon="0.92372">
        <ele>157.123392</ele>
        <time>2023-01-01T13:43:25.506Z</time>
      </trkpt>
      <trkpt lat="43.83396" lon="0.92366">
        <ele>157.281569</ele>
        <time>2023-01-01T13:43:27.486Z</time>
      </trkpt>
      <trkpt lat="43.83388" lon="0.92359">
        <ele>157.432406</ele>
        <time>2023-01-01T13:43:29.488Z</time>
      </trkpt>
      <trkpt lat="43.83379" lon="0.92353">
        <ele>157.577541</ele>
        <time>2023-01-01T13:43:31.511Z</time>
      </trkpt>
      <trkpt lat="43.83371" lon="0.92347">
        <ele>157.726086</ele>
        <time>2023-01-01T13:43:33.513Z</time>
      </trkpt>
      <trkpt lat="43.83363" lon="0.92342">
        <ele>157.865544</ele>
        <time>2023-01-01T13:43:35.507Z</time>
      </trkpt>
      <trkpt lat="43.83351" lon="0.92333">
        <ele>158.075841</ele>
        <time>2023-01-01T13:43:38.509Z</time>
      </trkpt>
      <trkpt lat="43.83342" lon="0.92327">
        <ele>158.221477</ele>
        <time>2023-01-01T13:43:40.507Z</time>
      </trkpt>
      <trkpt lat="43.83334" lon="0.92321">
        <ele>158.37226</ele>
        <time>2023-01-01T13:43:42.510Z</time>
      </trkpt>
      <trkpt lat="43.83321" lon="0.92313">
        <ele>158.581466</ele>
        <time>2023-01-01T13:43:45.508Z</time>
      </trkpt>
      <trkpt lat="43.83313" lon="0.92307">
        <ele>158.726601</ele>
        <time>2023-01-01T13:43:47.487Z</time>
      </trkpt>
      <trkpt lat="43.83304" lon="0.92301">
        <ele>158.873618</ele>
        <time>2023-01-01T13:43:49.487Z</time>
      </trkpt>
      <trkpt lat="43.83296" lon="0.92295">
        <ele>159.025107</ele>
        <time>2023-01-01T13:43:51.509Z</time>
      </trkpt>
      <trkpt lat="43.83287" lon="0.92288">
        <ele>159.174435</ele>
        <time>2023-01-01T13:43:53.492Z</time>
      </trkpt>
      <trkpt lat="43.83279" lon="0.92283">
        <ele>159.321383</ele>
        <time>2023-01-01T13:43:55.497Z</time>
      </trkpt>
      <trkpt lat="43.8327" lon="0.92277">
        <ele>159.465058</ele>
        <time>2023-01-01T13:43:57.492Z</time>
      </trkpt>
      <trkpt lat="43.83262" lon="0.92272">
        <ele>159.488432</ele>
        <time>2023-01-01T13:43:59.486Z</time>
      </trkpt>
      <trkpt lat="43.83254" lon="0.92266">
        <ele>159.480339</ele>
        <time>2023-01-01T13:44:01.510Z</time>
      </trkpt>
      <trkpt lat="43.83245" lon="0.92259">
        <ele>159.472166</ele>
        <time>2023-01-01T13:44:03.494Z</time>
      </trkpt>
      <trkpt lat="43.83236" lon="0.92253">
        <ele>159.463949</ele>
        <time>2023-01-01T13:44:05.526Z</time>
      </trkpt>
      <trkpt lat="43.83228" lon="0.92247">
        <ele>159.455984</ele>
        <time>2023-01-01T13:44:07.512Z</time>
      </trkpt>
      <trkpt lat="43.83219" lon="0.92242">
        <ele>159.447863</ele>
        <time>2023-01-01T13:44:09.510Z</time>
      </trkpt>
      <trkpt lat="43.8321" lon="0.92236">
        <ele>159.439909</ele>
        <time>2023-01-01T13:44:11.511Z</time>
      </trkpt>
      <trkpt lat="43.83202" lon="0.9223">
        <ele>159.43214</ele>
        <time>2023-01-01T13:44:13.493Z</time>
      </trkpt>
      <trkpt lat="43.83193" lon="0.92224">
        <ele>159.423937</ele>
        <time>2023-01-01T13:44:15.521Z</time>
      </trkpt>
      <trkpt lat="43.83184" lon="0.92218">
        <ele>159.415544</ele>
        <time>2023-01-01T13:44:17.482Z</time>
      </trkpt>
      <trkpt lat="43.83176" lon="0.92212">
        <ele>159.407833</ele>
        <time>2023-01-01T13:44:19.488Z</time>
      </trkpt>
      <trkpt lat="43.83167" lon="0.92206">
        <ele>159.400043</ele>
        <time>2023-01-01T13:44:21.487Z</time>
      </trkpt>
      <trkpt lat="43.83159" lon="0.92201">
        <ele>159.392381</ele>
        <time>2023-01-01T13:44:23.514Z</time>
      </trkpt>
      <trkpt lat="43.83151" lon="0.92195">
        <ele>159.384592</ele>
        <time>2023-01-01T13:44:25.505Z</time>
      </trkpt>
      <trkpt lat="43.83142" lon="0.9219">
        <ele>159.376906</ele>
        <time>2023-01-01T13:44:27.500Z</time>
      </trkpt>
      <trkpt lat="43.83134" lon="0.92183">
        <ele>159.369008</ele>
        <time>2023-01-01T13:44:29.510Z</time>
      </trkpt>
      <trkpt lat="43.83125" lon="0.92177">
        <ele>159.360814</ele>
        <time>2023-01-01T13:44:31.491Z</time>
      </trkpt>
      <trkpt lat="43.83117" lon="0.92171">
        <ele>159.35274</ele>
        <time>2023-01-01T13:44:33.511Z</time>
      </trkpt>
      <trkpt lat="43.83108" lon="0.92165">
        <ele>159.344713</ele>
        <time>2023-01-01T13:44:35.487Z</time>
      </trkpt>
      <trkpt lat="43.83099" lon="0.92158">
        <ele>159.34244</ele>
        <time>2023-01-01T13:44:37.491Z</time>
      </trkpt>
      <trkpt lat="43.83091" lon="0.92152">
        <ele>159.34038</ele>
        <time>2023-01-01T13:44:39.506Z</time>
      </trkpt>
      <trkpt lat="43.83082" lon="0.92146">
        <ele>159.338382</ele>
        <time>2023-01-01T13:44:41.489Z</time>
      </trkpt>
      <trkpt lat="43.83071" lon="0.92139">
        <ele>159.335688</ele>
        <time>2023-01-01T13:44:44.485Z</time>
      </trkpt>
      <trkpt lat="43.8306" lon="0.92131">
        <ele>159.333066</ele>
        <time>2023-01-01T13:44:47.488Z</time>
      </trkpt>
      <trkpt lat="43.83051" lon="0.92125">
        <ele>159.330786</ele>
        <time>2023-01-01T13:44:50.508Z</time>
      </trkpt>
      <trkpt lat="43.83042" lon="0.92115">
        <ele>159.328276</ele>
        <time>2023-01-01T13:44:53.492Z</time>
      </trkpt>
      <trkpt lat="43.83031" lon="0.92106">
        <ele>159.325597</ele>
        <time>2023-01-01T13:44:56.506Z</time>
      </trkpt>
      <trkpt lat="43.83021" lon="0.92096">
        <ele>159.322883</ele>
        <time>2023-01-01T13:44:59.484Z</time>
      </trkpt>
      <trkpt lat="43.8301" lon="0.92087">
        <ele>159.320087</ele>
        <time>2023-01-01T13:45:02.503Z</time>
      </trkpt>
      <trkpt lat="43.83003" lon="0.92079">
        <ele>159.318082</ele>
        <time>2023-01-01T13:45:04.505Z</time>
      </trkpt>
      <trkpt lat="43.82995" lon="0.92071">
        <ele>159.316005</ele>
        <time>2023-01-01T13:45:06.521Z</time>
      </trkpt>
      <trkpt lat="43.82987" lon="0.92062">
        <ele>159.313893</ele>
        <time>2023-01-01T13:45:08.491Z</time>
      </trkpt>
      <trkpt lat="43.8298" lon="0.92055">
        <ele>159.311874</ele>
        <time>2023-01-01T13:45:10.511Z</time>
      </trkpt>
      <trkpt lat="43.82972" lon="0.92047">
        <ele>159.309747</ele>
        <time>2023-01-01T13:45:12.502Z</time>
      </trkpt>
      <trkpt lat="43.82964" lon="0.92038">
        <ele>159.307593</ele>
        <time>2023-01-01T13:45:14.512Z</time>
      </trkpt>
      <trkpt lat="43.82957" lon="0.9203">
        <ele>159.307949</ele>
        <time>2023-01-01T13:45:16.507Z</time>
      </trkpt>
      <trkpt lat="43.82947" lon="0.92021">
        <ele>159.45978</ele>
        <time>2023-01-01T13:45:19.481Z</time>
      </trkpt>
      <trkpt lat="43.82938" lon="0.92011">
        <ele>159.601869</ele>
        <time>2023-01-01T13:45:22.489Z</time>
      </trkpt>
      <trkpt lat="43.82931" lon="0.92002">
        <ele>159.730771</ele>
        <time>2023-01-01T13:45:25.482Z</time>
      </trkpt>
      <trkpt lat="43.82922" lon="0.91994">
        <ele>159.861146</ele>
        <time>2023-01-01T13:45:28.495Z</time>
      </trkpt>
      <trkpt lat="43.82914" lon="0.91985">
        <ele>159.990566</ele>
        <time>2023-01-01T13:45:31.501Z</time>
      </trkpt>
      <trkpt lat="43.82906" lon="0.91977">
        <ele>160.122673</ele>
        <time>2023-01-01T13:45:34.501Z</time>
      </trkpt>
      <trkpt lat="43.82898" lon="0.91968">
        <ele>160.256251</ele>
        <time>2023-01-01T13:45:37.486Z</time>
      </trkpt>
      <trkpt lat="43.82889" lon="0.91959">
        <ele>160.396039</ele>
        <time>2023-01-01T13:45:40.490Z</time>
      </trkpt>
      <trkpt lat="43.8288" lon="0.9195">
        <ele>160.536559</ele>
        <time>2023-01-01T13:45:43.520Z</time>
      </trkpt>
      <trkpt lat="43.82871" lon="0.9194">
        <ele>160.685066</ele>
        <time>2023-01-01T13:45:46.488Z</time>
      </trkpt>
      <trkpt lat="43.82861" lon="0.91929">
        <ele>160.840278</ele>
        <time>2023-01-01T13:45:49.496Z</time>
      </trkpt>
      <trkpt lat="43.82851" lon="0.91919">
        <ele>161.000558</ele>
        <time>2023-01-01T13:45:52.486Z</time>
      </trkpt>
      <trkpt lat="43.82841" lon="0.91908">
        <ele>161.161616</ele>
        <time>2023-01-01T13:45:55.506Z</time>
      </trkpt>
      <trkpt lat="43.82831" lon="0.91896">
        <ele>161.330274</ele>
        <time>2023-01-01T13:45:58.501Z</time>
      </trkpt>
      <trkpt lat="43.8282" lon="0.91885">
        <ele>161.499509</ele>
        <time>2023-01-01T13:46:01.491Z</time>
      </trkpt>
      <trkpt lat="43.8281" lon="0.91874">
        <ele>161.633802</ele>
        <time>2023-01-01T13:46:04.493Z</time>
      </trkpt>
      <trkpt lat="43.82799" lon="0.91863">
        <ele>161.718638</ele>
        <time>2023-01-01T13:46:07.490Z</time>
      </trkpt>
      <trkpt lat="43.82789" lon="0.91853">
        <ele>161.798148</ele>
        <time>2023-01-01T13:46:10.482Z</time>
      </trkpt>
      <trkpt lat="43.8278" lon="0.91843">
        <ele>161.876627</ele>
        <time>2023-01-01T13:46:13.489Z</time>
      </trkpt>
      <trkpt lat="43.8277" lon="0.91833">
        <ele>161.955567</ele>
        <time>2023-01-01T13:46:16.499Z</time>
      </trkpt>
      <trkpt lat="43.8276" lon="0.91822">
        <ele>162.037061</ele>
        <time>2023-01-01T13:46:19.490Z</time>
      </trkpt>
      <trkpt lat="43.8275" lon="0.91811">
        <ele>162.116967</ele>
        <time>2023-01-01T13:46:22.487Z</time>
      </trkpt>
      <trkpt lat="43.8274" lon="0.91801">
        <ele>162.196478</ele>
        <time>2023-01-01T13:46:25.485Z</time>
      </trkpt>
      <trkpt lat="43.8273" lon="0.9179">
        <ele>162.27776</ele>
        <time>2023-01-01T13:46:28.501Z</time>
      </trkpt>
      <trkpt lat="43.8272" lon="0.9178">
        <ele>162.358583</ele>
        <time>2023-01-01T13:46:31.485Z</time>
      </trkpt>
      <trkpt lat="43.8271" lon="0.91769">
        <ele>162.441517</ele>
        <time>2023-01-01T13:46:34.504Z</time>
      </trkpt>
      <trkpt lat="43.827" lon="0.91758">
        <ele>162.525613</ele>
        <time>2023-01-01T13:46:37.497Z</time>
      </trkpt>
      <trkpt lat="43.82689" lon="0.91747">
        <ele>162.610964</ele>
        <time>2023-01-01T13:46:40.515Z</time>
      </trkpt>
      <trkpt lat="43.82678" lon="0.91737">
        <ele>162.695244</ele>
        <time>2023-01-01T13:46:43.498Z</time>
      </trkpt>
      <trkpt lat="43.82668" lon="0.91726">
        <ele>162.767399</ele>
        <time>2023-01-01T13:46:46.497Z</time>
      </trkpt>
      <trkpt lat="43.82658" lon="0.91715">
        <ele>162.808947</ele>
        <time>2023-01-01T13:46:49.503Z</time>
      </trkpt>
      <trkpt lat="43.82647" lon="0.91704">
        <ele>162.850215</ele>
        <time>2023-01-01T13:46:52.502Z</time>
      </trkpt>
      <trkpt lat="43.82637" lon="0.91693">
        <ele>162.89276</ele>
        <time>2023-01-01T13:46:55.485Z</time>
      </trkpt>
      <trkpt lat="43.8263" lon="0.91685">
        <ele>162.92161</ele>
        <time>2023-01-01T13:46:57.489Z</time>
      </trkpt>
      <trkpt lat="43.82622" lon="0.91678">
        <ele>162.951713</ele>
        <time>2023-01-01T13:46:59.483Z</time>
      </trkpt>
      <trkpt lat="43.82614" lon="0.9167">
        <ele>162.980636</ele>
        <time>2023-01-01T13:47:01.504Z</time>
      </trkpt>
      <trkpt lat="43.82607" lon="0.91663">
        <ele>163.010889</ele>
        <time>2023-01-01T13:47:03.489Z</time>
      </trkpt>
      <trkpt lat="43.82599" lon="0.91655">
        <ele>163.040611</ele>
        <time>2023-01-01T13:47:05.492Z</time>
      </trkpt>
      <trkpt lat="43.82592" lon="0.91647">
        <ele>163.070609</ele>
        <time>2023-01-01T13:47:07.501Z</time>
      </trkpt>
      <trkpt lat="43.82584" lon="0.91639">
        <ele>163.101254</ele>
        <time>2023-01-01T13:47:09.488Z</time>
      </trkpt>
      <trkpt lat="43.82576" lon="0.91631">
        <ele>163.133448</ele>
        <time>2023-01-01T13:47:11.525Z</time>
      </trkpt>
      <trkpt lat="43.82568" lon="0.91622">
        <ele>163.166124</ele>
        <time>2023-01-01T13:47:13.504Z</time>
      </trkpt>
      <trkpt lat="43.8256" lon="0.91613">
        <ele>163.197693</ele>
        <time>2023-01-01T13:47:15.511Z</time>
      </trkpt>
      <trkpt lat="43.82552" lon="0.91605">
        <ele>163.229759</ele>
        <time>2023-01-01T13:47:17.488Z</time>
      </trkpt>
      <trkpt lat="43.82544" lon="0.91597">
        <ele>163.262085</ele>
        <time>2023-01-01T13:47:19.506Z</time>
      </trkpt>
      <trkpt lat="43.82535" lon="0.91589">
        <ele>163.294151</ele>
        <time>2023-01-01T13:47:21.508Z</time>
      </trkpt>
      <trkpt lat="43.82527" lon="0.9158">
        <ele>163.326819</ele>
        <time>2023-01-01T13:47:23.488Z</time>
      </trkpt>
      <trkpt lat="43.82519" lon="0.91572">
        <ele>163.255252</ele>
        <time>2023-01-01T13:47:25.516Z</time>
      </trkpt>
      <trkpt lat="43.82512" lon="0.91562">
        <ele>163.178118</ele>
        <time>2023-01-01T13:47:27.504Z</time>
      </trkpt>
      <trkpt lat="43.82503" lon="0.91555">
        <ele>163.1002</ele>
        <time>2023-01-01T13:47:29.489Z</time>
      </trkpt>
      <trkpt lat="43.82495" lon="0.91547">
        <ele>163.024788</ele>
        <time>2023-01-01T13:47:31.509Z</time>
      </trkpt>
      <trkpt lat="43.82487" lon="0.91538">
        <ele>162.943679</ele>
        <time>2023-01-01T13:47:33.509Z</time>
      </trkpt>
      <trkpt lat="43.82479" lon="0.91528">
        <ele>162.860996</ele>
        <time>2023-01-01T13:47:35.509Z</time>
      </trkpt>
      <trkpt lat="43.82471" lon="0.91518">
        <ele>162.777264</ele>
        <time>2023-01-01T13:47:37.490Z</time>
      </trkpt>
      <trkpt lat="43.82461" lon="0.91509">
        <ele>162.690208</ele>
        <time>2023-01-01T13:47:39.495Z</time>
      </trkpt>
      <trkpt lat="43.82453" lon="0.915">
        <ele>162.605669</ele>
        <time>2023-01-01T13:47:41.501Z</time>
      </trkpt>
      <trkpt lat="43.82444" lon="0.91492">
        <ele>162.52493</ele>
        <time>2023-01-01T13:47:43.487Z</time>
      </trkpt>
      <trkpt lat="43.82436" lon="0.91482">
        <ele>162.4413</ele>
        <time>2023-01-01T13:47:45.509Z</time>
      </trkpt>
      <trkpt lat="43.82426" lon="0.91473">
        <ele>162.350445</ele>
        <time>2023-01-01T13:47:47.487Z</time>
      </trkpt>
      <trkpt lat="43.82417" lon="0.91463">
        <ele>162.261481</ele>
        <time>2023-01-01T13:47:49.505Z</time>
      </trkpt>
      <trkpt lat="43.82407" lon="0.91454">
        <ele>162.173159</ele>
        <time>2023-01-01T13:47:51.505Z</time>
      </trkpt>
      <trkpt lat="43.82398" lon="0.91446">
        <ele>162.089577</ele>
        <time>2023-01-01T13:47:53.486Z</time>
      </trkpt>
      <trkpt lat="43.8239" lon="0.91436">
        <ele>162.004763</ele>
        <time>2023-01-01T13:47:55.505Z</time>
      </trkpt>
      <trkpt lat="43.82381" lon="0.91427">
        <ele>161.979322</ele>
        <time>2023-01-01T13:47:57.488Z</time>
      </trkpt>
      <trkpt lat="43.82373" lon="0.91417">
        <ele>162.117927</ele>
        <time>2023-01-01T13:47:59.510Z</time>
      </trkpt>
      <trkpt lat="43.82363" lon="0.91408">
        <ele>162.256662</ele>
        <time>2023-01-01T13:48:01.503Z</time>
      </trkpt>
      <trkpt lat="43.82354" lon="0.91399">
        <ele>162.397445</ele>
        <time>2023-01-01T13:48:03.488Z</time>
      </trkpt>
      <trkpt lat="43.82345" lon="0.91389">
        <ele>162.539287</ele>
        <time>2023-01-01T13:48:05.506Z</time>
      </trkpt>
      <trkpt lat="43.82335" lon="0.91379">
        <ele>162.694318</ele>
        <time>2023-01-01T13:48:07.499Z</time>
      </trkpt>
      <trkpt lat="43.82326" lon="0.91369">
        <ele>162.837684</ele>
        <time>2023-01-01T13:48:09.502Z</time>
      </trkpt>
      <trkpt lat="43.82316" lon="0.9136">
        <ele>162.987578</ele>
        <time>2023-01-01T13:48:11.490Z</time>
      </trkpt>
      <trkpt lat="43.82306" lon="0.9135">
        <ele>163.132559</ele>
        <time>2023-01-01T13:48:13.509Z</time>
      </trkpt>
      <trkpt lat="43.82297" lon="0.9134">
        <ele>163.276695</ele>
        <time>2023-01-01T13:48:15.487Z</time>
      </trkpt>
      <trkpt lat="43.82287" lon="0.9133">
        <ele>163.428631</ele>
        <time>2023-01-01T13:48:17.494Z</time>
      </trkpt>
      <trkpt lat="43.82278" lon="0.9132">
        <ele>163.574594</ele>
        <time>2023-01-01T13:48:19.490Z</time>
      </trkpt>
      <trkpt lat="43.82269" lon="0.91311">
        <ele>163.714334</ele>
        <time>2023-01-01T13:48:21.492Z</time>
      </trkpt>
      <trkpt lat="43.82261" lon="0.91302">
        <ele>163.83221</ele>
        <time>2023-01-01T13:48:23.495Z</time>
      </trkpt>
      <trkpt lat="43.82254" lon="0.91293">
        <ele>163.959211</ele>
        <time>2023-01-01T13:48:25.508Z</time>
      </trkpt>
      <trkpt lat="43.82245" lon="0.91285">
        <ele>164.084822</ele>
        <time>2023-01-01T13:48:27.508Z</time>
      </trkpt>
      <trkpt lat="43.82237" lon="0.91277">
        <ele>164.15266</ele>
        <time>2023-01-01T13:48:29.493Z</time>
      </trkpt>
      <trkpt lat="43.8223" lon="0.91269">
        <ele>164.108693</ele>
        <time>2023-01-01T13:48:31.512Z</time>
      </trkpt>
      <trkpt lat="43.82222" lon="0.91261">
        <ele>164.064046</ele>
        <time>2023-01-01T13:48:33.511Z</time>
      </trkpt>
      <trkpt lat="43.82215" lon="0.91253">
        <ele>164.02271</ele>
        <time>2023-01-01T13:48:35.491Z</time>
      </trkpt>
      <trkpt lat="43.82207" lon="0.91244">
        <ele>163.977088</ele>
        <time>2023-01-01T13:48:37.511Z</time>
      </trkpt>
      <trkpt lat="43.822" lon="0.91237">
        <ele>163.933804</ele>
        <time>2023-01-01T13:48:39.490Z</time>
      </trkpt>
      <trkpt lat="43.82192" lon="0.91229">
        <ele>163.888699</ele>
        <time>2023-01-01T13:48:41.506Z</time>
      </trkpt>
      <trkpt lat="43.82184" lon="0.91219">
        <ele>163.842094</ele>
        <time>2023-01-01T13:48:43.501Z</time>
      </trkpt>
      <trkpt lat="43.82177" lon="0.91211">
        <ele>163.797447</ele>
        <time>2023-01-01T13:48:45.513Z</time>
      </trkpt>
      <trkpt lat="43.82168" lon="0.91203">
        <ele>163.750754</ele>
        <time>2023-01-01T13:48:47.487Z</time>
      </trkpt>
      <trkpt lat="43.8216" lon="0.91195">
        <ele>163.703424</ele>
        <time>2023-01-01T13:48:49.490Z</time>
      </trkpt>
      <trkpt lat="43.82152" lon="0.91186">
        <ele>163.655014</ele>
        <time>2023-01-01T13:48:51.491Z</time>
      </trkpt>
      <trkpt lat="43.82143" lon="0.91178">
        <ele>163.607176</ele>
        <time>2023-01-01T13:48:53.505Z</time>
      </trkpt>
      <trkpt lat="43.82135" lon="0.9117">
        <ele>163.559722</ele>
        <time>2023-01-01T13:48:55.509Z</time>
      </trkpt>
      <trkpt lat="43.82127" lon="0.91163">
        <ele>163.515495</ele>
        <time>2023-01-01T13:48:57.503Z</time>
      </trkpt>
      <trkpt lat="43.82119" lon="0.91155">
        <ele>163.471618</ele>
        <time>2023-01-01T13:48:59.506Z</time>
      </trkpt>
      <trkpt lat="43.82109" lon="0.91144">
        <ele>163.411994</ele>
        <time>2023-01-01T13:49:02.507Z</time>
      </trkpt>
      <trkpt lat="43.82099" lon="0.91133">
        <ele>163.355245</ele>
        <time>2023-01-01T13:49:05.491Z</time>
      </trkpt>
      <trkpt lat="43.8209" lon="0.91123">
        <ele>163.215127</ele>
        <time>2023-01-01T13:49:08.489Z</time>
      </trkpt>
      <trkpt lat="43.82081" lon="0.91112">
        <ele>163.019342</ele>
        <time>2023-01-01T13:49:11.487Z</time>
      </trkpt>
      <trkpt lat="43.82071" lon="0.91102">
        <ele>162.821261</ele>
        <time>2023-01-01T13:49:14.490Z</time>
      </trkpt>
      <trkpt lat="43.82061" lon="0.91091">
        <ele>162.622823</ele>
        <time>2023-01-01T13:49:17.484Z</time>
      </trkpt>
      <trkpt lat="43.82051" lon="0.91079">
        <ele>162.41158</ele>
        <time>2023-01-01T13:49:20.479Z</time>
      </trkpt>
      <trkpt lat="43.82043" lon="0.91072">
        <ele>162.264251</ele>
        <time>2023-01-01T13:49:22.489Z</time>
      </trkpt>
      <trkpt lat="43.82035" lon="0.91064">
        <ele>162.108376</ele>
        <time>2023-01-01T13:49:24.514Z</time>
      </trkpt>
      <trkpt lat="43.82027" lon="0.91057">
        <ele>161.953058</ele>
        <time>2023-01-01T13:49:26.503Z</time>
      </trkpt>
      <trkpt lat="43.82019" lon="0.91048">
        <ele>161.797183</ele>
        <time>2023-01-01T13:49:28.505Z</time>
      </trkpt>
      <trkpt lat="43.82011" lon="0.9104">
        <ele>161.632908</ele>
        <time>2023-01-01T13:49:30.511Z</time>
      </trkpt>
      <trkpt lat="43.82002" lon="0.91032">
        <ele>161.471239</ele>
        <time>2023-01-01T13:49:32.490Z</time>
      </trkpt>
      <trkpt lat="43.81994" lon="0.91023">
        <ele>161.302946</ele>
        <time>2023-01-01T13:49:34.501Z</time>
      </trkpt>
      <trkpt lat="43.81985" lon="0.91015">
        <ele>161.134055</ele>
        <time>2023-01-01T13:49:36.509Z</time>
      </trkpt>
      <trkpt lat="43.81977" lon="0.91007">
        <ele>160.970801</ele>
        <time>2023-01-01T13:49:38.498Z</time>
      </trkpt>
      <trkpt lat="43.81969" lon="0.90998">
        <ele>160.810032</ele>
        <time>2023-01-01T13:49:40.509Z</time>
      </trkpt>
      <trkpt lat="43.81961" lon="0.90989">
        <ele>160.648967</ele>
        <time>2023-01-01T13:49:42.507Z</time>
      </trkpt>
      <trkpt lat="43.81952" lon="0.9098">
        <ele>160.491368</ele>
        <time>2023-01-01T13:49:44.483Z</time>
      </trkpt>
      <trkpt lat="43.81944" lon="0.90972">
        <ele>160.774622</ele>
        <time>2023-01-01T13:49:46.490Z</time>
      </trkpt>
      <trkpt lat="43.81936" lon="0.90964">
        <ele>161.066197</ele>
        <time>2023-01-01T13:49:48.494Z</time>
      </trkpt>
      <trkpt lat="43.81928" lon="0.90954">
        <ele>161.369886</ele>
        <time>2023-01-01T13:49:50.485Z</time>
      </trkpt>
      <trkpt lat="43.8192" lon="0.90945">
        <ele>161.667353</ele>
        <time>2023-01-01T13:49:52.507Z</time>
      </trkpt>
      <trkpt lat="43.81912" lon="0.90937">
        <ele>161.94353</ele>
        <time>2023-01-01T13:49:54.485Z</time>
      </trkpt>
      <trkpt lat="43.81902" lon="0.90925">
        <ele>162.316447</ele>
        <time>2023-01-01T13:49:57.493Z</time>
      </trkpt>
      <trkpt lat="43.81892" lon="0.90914">
        <ele>162.699866</ele>
        <time>2023-01-01T13:50:00.488Z</time>
      </trkpt>
      <trkpt lat="43.81882" lon="0.90903">
        <ele>163.056462</ele>
        <time>2023-01-01T13:50:03.509Z</time>
      </trkpt>
      <trkpt lat="43.81872" lon="0.90893">
        <ele>163.414025</ele>
        <time>2023-01-01T13:50:06.506Z</time>
      </trkpt>
      <trkpt lat="43.81863" lon="0.90883">
        <ele>163.749308</ele>
        <time>2023-01-01T13:50:09.510Z</time>
      </trkpt>
      <trkpt lat="43.81853" lon="0.90874">
        <ele>164.081928</ele>
        <time>2023-01-01T13:50:12.506Z</time>
      </trkpt>
      <trkpt lat="43.81844" lon="0.90865">
        <ele>164.425204</ele>
        <time>2023-01-01T13:50:15.484Z</time>
      </trkpt>
      <trkpt lat="43.81834" lon="0.90854">
        <ele>164.763319</ele>
        <time>2023-01-01T13:50:18.484Z</time>
      </trkpt>
      <trkpt lat="43.81825" lon="0.90845">
        <ele>165.101849</ele>
        <time>2023-01-01T13:50:21.501Z</time>
      </trkpt>
      <trkpt lat="43.81815" lon="0.90835">
        <ele>165.443499</ele>
        <time>2023-01-01T13:50:24.484Z</time>
      </trkpt>
      <trkpt lat="43.81805" lon="0.90824">
        <ele>165.660721</ele>
        <time>2023-01-01T13:50:27.488Z</time>
      </trkpt>
      <trkpt lat="43.81795" lon="0.90813">
        <ele>165.694999</ele>
        <time>2023-01-01T13:50:30.509Z</time>
      </trkpt>
      <trkpt lat="43.81784" lon="0.90803">
        <ele>165.729995</ele>
        <time>2023-01-01T13:50:33.483Z</time>
      </trkpt>
      <trkpt lat="43.81774" lon="0.90794">
        <ele>165.763879</ele>
        <time>2023-01-01T13:50:36.500Z</time>
      </trkpt>
      <trkpt lat="43.81767" lon="0.90786">
        <ele>165.788248</ele>
        <time>2023-01-01T13:50:38.479Z</time>
      </trkpt>
      <trkpt lat="43.81759" lon="0.90778">
        <ele>165.814626</ele>
        <time>2023-01-01T13:50:40.485Z</time>
      </trkpt>
      <trkpt lat="43.81751" lon="0.9077">
        <ele>165.840655</ele>
        <time>2023-01-01T13:50:42.501Z</time>
      </trkpt>
      <trkpt lat="43.81742" lon="0.90761">
        <ele>165.86978</ele>
        <time>2023-01-01T13:50:44.491Z</time>
      </trkpt>
      <trkpt lat="43.81733" lon="0.90753">
        <ele>165.899124</ele>
        <time>2023-01-01T13:50:46.505Z</time>
      </trkpt>
      <trkpt lat="43.81723" lon="0.90745">
        <ele>165.930234</ele>
        <time>2023-01-01T13:50:48.512Z</time>
      </trkpt>
      <trkpt lat="43.81714" lon="0.90736">
        <ele>165.961803</ele>
        <time>2023-01-01T13:50:50.506Z</time>
      </trkpt>
      <trkpt lat="43.81704" lon="0.90726">
        <ele>165.993804</ele>
        <time>2023-01-01T13:50:52.490Z</time>
      </trkpt>
      <trkpt lat="43.81694" lon="0.90717">
        <ele>166.026037</ele>
        <time>2023-01-01T13:50:54.490Z</time>
      </trkpt>
      <trkpt lat="43.81683" lon="0.90707">
        <ele>166.059809</ele>
        <time>2023-01-01T13:50:56.506Z</time>
      </trkpt>
      <trkpt lat="43.81674" lon="0.90698">
        <ele>166.092702</ele>
        <time>2023-01-01T13:50:58.492Z</time>
      </trkpt>
      <trkpt lat="43.81664" lon="0.90689">
        <ele>166.123707</ele>
        <time>2023-01-01T13:51:00.509Z</time>
      </trkpt>
      <trkpt lat="43.81655" lon="0.9068">
        <ele>166.116658</ele>
        <time>2023-01-01T13:51:02.492Z</time>
      </trkpt>
      <trkpt lat="43.81646" lon="0.90672">
        <ele>166.100934</ele>
        <time>2023-01-01T13:51:04.507Z</time>
      </trkpt>
      <trkpt lat="43.81638" lon="0.90663">
        <ele>166.086071</ele>
        <time>2023-01-01T13:51:06.490Z</time>
      </trkpt>
      <trkpt lat="43.8163" lon="0.90656">
        <ele>166.071517</ele>
        <time>2023-01-01T13:51:08.490Z</time>
      </trkpt>
      <trkpt lat="43.81622" lon="0.90649">
        <ele>166.057152</ele>
        <time>2023-01-01T13:51:10.491Z</time>
      </trkpt>
      <trkpt lat="43.81614" lon="0.90641">
        <ele>166.04259</ele>
        <time>2023-01-01T13:51:12.491Z</time>
      </trkpt>
      <trkpt lat="43.81606" lon="0.90634">
        <ele>166.027667</ele>
        <time>2023-01-01T13:51:14.489Z</time>
      </trkpt>
      <trkpt lat="43.81598" lon="0.90626">
        <ele>166.013363</ele>
        <time>2023-01-01T13:51:16.481Z</time>
      </trkpt>
      <trkpt lat="43.8159" lon="0.90619">
        <ele>165.999244</ele>
        <time>2023-01-01T13:51:18.490Z</time>
      </trkpt>
      <trkpt lat="43.81582" lon="0.90611">
        <ele>165.984631</ele>
        <time>2023-01-01T13:51:20.492Z</time>
      </trkpt>
      <trkpt lat="43.81574" lon="0.90604">
        <ele>165.97068</ele>
        <time>2023-01-01T13:51:22.490Z</time>
      </trkpt>
      <trkpt lat="43.81566" lon="0.90597">
        <ele>165.956671</ele>
        <time>2023-01-01T13:51:24.520Z</time>
      </trkpt>
      <trkpt lat="43.81558" lon="0.90591">
        <ele>165.942475</ele>
        <time>2023-01-01T13:51:26.509Z</time>
      </trkpt>
      <trkpt lat="43.8155" lon="0.90584">
        <ele>165.92891</ele>
        <time>2023-01-01T13:51:28.492Z</time>
      </trkpt>
      <trkpt lat="43.81539" lon="0.90574">
        <ele>165.908554</ele>
        <time>2023-01-01T13:51:31.509Z</time>
      </trkpt>
      <trkpt lat="43.81531" lon="0.90567">
        <ele>165.894546</ele>
        <time>2023-01-01T13:51:33.503Z</time>
      </trkpt>
      <trkpt lat="43.81523" lon="0.9056">
        <ele>165.879867</ele>
        <time>2023-01-01T13:51:35.509Z</time>
      </trkpt>
      <trkpt lat="43.81515" lon="0.90553">
        <ele>165.866052</ele>
        <time>2023-01-01T13:51:37.498Z</time>
      </trkpt>
      <trkpt lat="43.81507" lon="0.90546">
        <ele>165.871036</ele>
        <time>2023-01-01T13:51:39.506Z</time>
      </trkpt>
      <trkpt lat="43.81496" lon="0.90535">
        <ele>165.89795</ele>
        <time>2023-01-01T13:51:42.684Z</time>
      </trkpt>
      <trkpt lat="43.81488" lon="0.90527">
        <ele>165.916095</ele>
        <time>2023-01-01T13:51:44.490Z</time>
      </trkpt>
      <trkpt lat="43.81481" lon="0.90519">
        <ele>165.934587</ele>
        <time>2023-01-01T13:51:46.491Z</time>
      </trkpt>
      <trkpt lat="43.81474" lon="0.9051">
        <ele>165.952721</ele>
        <time>2023-01-01T13:51:48.506Z</time>
      </trkpt>
      <trkpt lat="43.81464" lon="0.905">
        <ele>165.977656</ele>
        <time>2023-01-01T13:51:51.485Z</time>
      </trkpt>
      <trkpt lat="43.81454" lon="0.9049">
        <ele>166.000761</ele>
        <time>2023-01-01T13:51:54.479Z</time>
      </trkpt>
      <trkpt lat="43.81445" lon="0.90479">
        <ele>166.024364</ele>
        <time>2023-01-01T13:51:57.492Z</time>
      </trkpt>
      <trkpt lat="43.81435" lon="0.90468">
        <ele>166.049032</ele>
        <time>2023-01-01T13:52:00.481Z</time>
      </trkpt>
      <trkpt lat="43.81425" lon="0.90458">
        <ele>166.072291</ele>
        <time>2023-01-01T13:52:03.492Z</time>
      </trkpt>
      <trkpt lat="43.81415" lon="0.90447">
        <ele>166.096399</ele>
        <time>2023-01-01T13:52:06.497Z</time>
      </trkpt>
      <trkpt lat="43.81404" lon="0.90437">
        <ele>166.122108</ele>
        <time>2023-01-01T13:52:09.495Z</time>
      </trkpt>
      <trkpt lat="43.81393" lon="0.90426">
        <ele>166.148933</ele>
        <time>2023-01-01T13:52:12.510Z</time>
      </trkpt>
      <trkpt lat="43.81385" lon="0.90418">
        <ele>166.168261</ele>
        <time>2023-01-01T13:52:14.497Z</time>
      </trkpt>
      <trkpt lat="43.81377" lon="0.9041">
        <ele>166.186788</ele>
        <time>2023-01-01T13:52:16.488Z</time>
      </trkpt>
      <trkpt lat="43.81369" lon="0.90403">
        <ele>166.206498</ele>
        <time>2023-01-01T13:52:18.484Z</time>
      </trkpt>
      <trkpt lat="43.81359" lon="0.90397">
        <ele>165.986295</ele>
        <time>2023-01-01T13:52:20.490Z</time>
      </trkpt>
      <trkpt lat="43.81349" lon="0.9039">
        <ele>165.722576</ele>
        <time>2023-01-01T13:52:22.494Z</time>
      </trkpt>
      <trkpt lat="43.81339" lon="0.90382">
        <ele>165.452833</ele>
        <time>2023-01-01T13:52:24.506Z</time>
      </trkpt>
      <trkpt lat="43.8133" lon="0.90374">
        <ele>165.186296</ele>
        <time>2023-01-01T13:52:26.509Z</time>
      </trkpt>
      <trkpt lat="43.8132" lon="0.90366">
        <ele>164.910418</ele>
        <time>2023-01-01T13:52:28.513Z</time>
      </trkpt>
      <trkpt lat="43.81309" lon="0.90358">
        <ele>164.628375</ele>
        <time>2023-01-01T13:52:30.485Z</time>
      </trkpt>
      <trkpt lat="43.81298" lon="0.90349">
        <ele>164.327498</ele>
        <time>2023-01-01T13:52:32.484Z</time>
      </trkpt>
      <trkpt lat="43.81286" lon="0.9034">
        <ele>163.988125</ele>
        <time>2023-01-01T13:52:34.506Z</time>
      </trkpt>
      <trkpt lat="43.81274" lon="0.9033">
        <ele>163.656322</ele>
        <time>2023-01-01T13:52:36.488Z</time>
      </trkpt>
      <trkpt lat="43.81262" lon="0.90321">
        <ele>163.333686</ele>
        <time>2023-01-01T13:52:38.505Z</time>
      </trkpt>
      <trkpt lat="43.81251" lon="0.90313">
        <ele>163.017362</ele>
        <time>2023-01-01T13:52:40.520Z</time>
      </trkpt>
      <trkpt lat="43.81239" lon="0.90303">
        <ele>162.704745</ele>
        <time>2023-01-01T13:52:42.492Z</time>
      </trkpt>
      <trkpt lat="43.81228" lon="0.90295">
        <ele>162.4068</ele>
        <time>2023-01-01T13:52:44.502Z</time>
      </trkpt>
      <trkpt lat="43.81218" lon="0.90286">
        <ele>162.107121</ele>
        <time>2023-01-01T13:52:46.491Z</time>
      </trkpt>
      <trkpt lat="43.81207" lon="0.90278">
        <ele>162.042544</ele>
        <time>2023-01-01T13:52:48.523Z</time>
      </trkpt>
      <trkpt lat="43.81198" lon="0.90271">
        <ele>162.475621</ele>
        <time>2023-01-01T13:52:50.490Z</time>
      </trkpt>
      <trkpt lat="43.8119" lon="0.90264">
        <ele>162.885171</ele>
        <time>2023-01-01T13:52:52.493Z</time>
      </trkpt>
      <trkpt lat="43.81181" lon="0.90257">
        <ele>163.274685</ele>
        <time>2023-01-01T13:52:54.492Z</time>
      </trkpt>
      <trkpt lat="43.81173" lon="0.9025">
        <ele>163.673279</ele>
        <time>2023-01-01T13:52:56.509Z</time>
      </trkpt>
      <trkpt lat="43.81162" lon="0.9024">
        <ele>164.21319</ele>
        <time>2023-01-01T13:52:59.509Z</time>
      </trkpt>
      <trkpt lat="43.81154" lon="0.90234">
        <ele>164.589714</ele>
        <time>2023-01-01T13:53:01.493Z</time>
      </trkpt>
      <trkpt lat="43.81143" lon="0.90225">
        <ele>165.114511</ele>
        <time>2023-01-01T13:53:04.515Z</time>
      </trkpt>
      <trkpt lat="43.81131" lon="0.90217">
        <ele>165.648001</ele>
        <time>2023-01-01T13:53:07.510Z</time>
      </trkpt>
      <trkpt lat="43.8112" lon="0.90209">
        <ele>166.150762</ele>
        <time>2023-01-01T13:53:10.490Z</time>
      </trkpt>
      <trkpt lat="43.8111" lon="0.90201">
        <ele>166.622322</ele>
        <time>2023-01-01T13:53:13.509Z</time>
      </trkpt>
      <trkpt lat="43.811" lon="0.90193">
        <ele>167.089452</ele>
        <time>2023-01-01T13:53:16.499Z</time>
      </trkpt>
      <trkpt lat="43.8109" lon="0.90186">
        <ele>167.529407</ele>
        <time>2023-01-01T13:53:19.507Z</time>
      </trkpt>
      <trkpt lat="43.81081" lon="0.9018">
        <ele>167.955302</ele>
        <time>2023-01-01T13:53:22.485Z</time>
      </trkpt>
      <trkpt lat="43.81071" lon="0.90172">
        <ele>168.425959</ele>
        <time>2023-01-01T13:53:25.493Z</time>
      </trkpt>
      <trkpt lat="43.8106" lon="0.90164">
        <ele>168.939559</ele>
        <time>2023-01-01T13:53:28.501Z</time>
      </trkpt>
      <trkpt lat="43.81048" lon="0.90155">
        <ele>169.104718</ele>
        <time>2023-01-01T13:53:31.495Z</time>
      </trkpt>
      <trkpt lat="43.81037" lon="0.90146">
        <ele>168.798261</ele>
        <time>2023-01-01T13:53:34.507Z</time>
      </trkpt>
      <trkpt lat="43.81026" lon="0.90137">
        <ele>168.497612</ele>
        <time>2023-01-01T13:53:37.508Z</time>
      </trkpt>
      <trkpt lat="43.81015" lon="0.90127">
        <ele>168.192034</ele>
        <time>2023-01-01T13:53:40.483Z</time>
      </trkpt>
      <trkpt lat="43.81007" lon="0.9012">
        <ele>167.962858</ele>
        <time>2023-01-01T13:53:42.510Z</time>
      </trkpt>
      <trkpt lat="43.80999" lon="0.90112">
        <ele>167.731508</ele>
        <time>2023-01-01T13:53:44.511Z</time>
      </trkpt>
      <trkpt lat="43.80991" lon="0.90105">
        <ele>167.501949</ele>
        <time>2023-01-01T13:53:46.489Z</time>
      </trkpt>
      <trkpt lat="43.80983" lon="0.90098">
        <ele>167.290265</ele>
        <time>2023-01-01T13:53:48.500Z</time>
      </trkpt>
      <trkpt lat="43.80975" lon="0.90091">
        <ele>167.060706</ele>
        <time>2023-01-01T13:53:50.515Z</time>
      </trkpt>
      <trkpt lat="43.80963" lon="0.90082">
        <ele>166.732483</ele>
        <time>2023-01-01T13:53:53.508Z</time>
      </trkpt>
      <trkpt lat="43.80955" lon="0.90076">
        <ele>166.50971</ele>
        <time>2023-01-01T13:53:55.514Z</time>
      </trkpt>
      <trkpt lat="43.80946" lon="0.90068">
        <ele>166.265625</ele>
        <time>2023-01-01T13:53:57.491Z</time>
      </trkpt>
      <trkpt lat="43.80938" lon="0.90061">
        <ele>166.029537</ele>
        <time>2023-01-01T13:53:59.506Z</time>
      </trkpt>
      <trkpt lat="43.80929" lon="0.90053">
        <ele>165.791263</ele>
        <time>2023-01-01T13:54:01.494Z</time>
      </trkpt>
      <trkpt lat="43.8092" lon="0.90047">
        <ele>165.546691</ele>
        <time>2023-01-01T13:54:03.498Z</time>
      </trkpt>
      <trkpt lat="43.80911" lon="0.90041">
        <ele>165.326299</ele>
        <time>2023-01-01T13:54:05.498Z</time>
      </trkpt>
      <trkpt lat="43.80904" lon="0.90033">
        <ele>165.100035</ele>
        <time>2023-01-01T13:54:07.491Z</time>
      </trkpt>
      <trkpt lat="43.80894" lon="0.90028">
        <ele>164.957658</ele>
        <time>2023-01-01T13:54:09.522Z</time>
      </trkpt>
      <trkpt lat="43.80886" lon="0.90021">
        <ele>164.89925</ele>
        <time>2023-01-01T13:54:11.492Z</time>
      </trkpt>
      <trkpt lat="43.80875" lon="0.90012">
        <ele>164.822562</ele>
        <time>2023-01-01T13:54:14.492Z</time>
      </trkpt>
      <trkpt lat="43.80864" lon="0.90004">
        <ele>164.745186</ele>
        <time>2023-01-01T13:54:17.487Z</time>
      </trkpt>
      <trkpt lat="43.80854" lon="0.89996">
        <ele>164.673816</ele>
        <time>2023-01-01T13:54:20.507Z</time>
      </trkpt>
      <trkpt lat="43.80845" lon="0.89989">
        <ele>164.611831</ele>
        <time>2023-01-01T13:54:23.505Z</time>
      </trkpt>
      <trkpt lat="43.80835" lon="0.89983">
        <ele>164.548915</ele>
        <time>2023-01-01T13:54:26.515Z</time>
      </trkpt>
      <trkpt lat="43.80822" lon="0.89975">
        <ele>164.464995</ele>
        <time>2023-01-01T13:54:29.490Z</time>
      </trkpt>
      <trkpt lat="43.80813" lon="0.89969">
        <ele>164.404425</ele>
        <time>2023-01-01T13:54:31.489Z</time>
      </trkpt>
      <trkpt lat="43.80804" lon="0.89961">
        <ele>164.33901</ele>
        <time>2023-01-01T13:54:33.492Z</time>
      </trkpt>
      <trkpt lat="43.80796" lon="0.89952">
        <ele>164.277516</ele>
        <time>2023-01-01T13:54:35.496Z</time>
      </trkpt>
      <trkpt lat="43.80787" lon="0.89944">
        <ele>164.212291</ele>
        <time>2023-01-01T13:54:37.491Z</time>
      </trkpt>
      <trkpt lat="43.80778" lon="0.89936">
        <ele>164.147808</ele>
        <time>2023-01-01T13:54:39.509Z</time>
      </trkpt>
      <trkpt lat="43.80768" lon="0.89928">
        <ele>164.076863</ele>
        <time>2023-01-01T13:54:41.495Z</time>
      </trkpt>
      <trkpt lat="43.80757" lon="0.8992">
        <ele>164.005579</ele>
        <time>2023-01-01T13:54:43.506Z</time>
      </trkpt>
      <trkpt lat="43.80747" lon="0.89913">
        <ele>163.934589</ele>
        <time>2023-01-01T13:54:45.500Z</time>
      </trkpt>
      <trkpt lat="43.80738" lon="0.89906">
        <ele>163.962789</ele>
        <time>2023-01-01T13:54:47.486Z</time>
      </trkpt>
      <trkpt lat="43.80729" lon="0.899">
        <ele>164.067985</ele>
        <time>2023-01-01T13:54:49.502Z</time>
      </trkpt>
      <trkpt lat="43.80718" lon="0.8989">
        <ele>164.202119</ele>
        <time>2023-01-01T13:54:52.482Z</time>
      </trkpt>
      <trkpt lat="43.80709" lon="0.89882">
        <ele>164.321729</ele>
        <time>2023-01-01T13:54:55.509Z</time>
      </trkpt>
      <trkpt lat="43.807" lon="0.89875">
        <ele>164.429345</ele>
        <time>2023-01-01T13:54:58.504Z</time>
      </trkpt>
      <trkpt lat="43.80692" lon="0.89868">
        <ele>164.535162</ele>
        <time>2023-01-01T13:55:01.490Z</time>
      </trkpt>
      <trkpt lat="43.80683" lon="0.89861">
        <ele>164.641536</ele>
        <time>2023-01-01T13:55:04.490Z</time>
      </trkpt>
      <trkpt lat="43.80674" lon="0.89854">
        <ele>164.751083</ele>
        <time>2023-01-01T13:55:07.489Z</time>
      </trkpt>
      <trkpt lat="43.80665" lon="0.89847">
        <ele>164.862292</ele>
        <time>2023-01-01T13:55:10.510Z</time>
      </trkpt>
      <trkpt lat="43.80655" lon="0.8984">
        <ele>164.984108</ele>
        <time>2023-01-01T13:55:13.484Z</time>
      </trkpt>
      <trkpt lat="43.80644" lon="0.89833">
        <ele>165.104504</ele>
        <time>2023-01-01T13:55:16.493Z</time>
      </trkpt>
      <trkpt lat="43.80635" lon="0.89826">
        <ele>165.222785</ele>
        <time>2023-01-01T13:55:19.511Z</time>
      </trkpt>
      <trkpt lat="43.80625" lon="0.89818">
        <ele>165.336964</ele>
        <time>2023-01-01T13:55:22.501Z</time>
      </trkpt>
      <trkpt lat="43.80616" lon="0.8981">
        <ele>165.452928</ele>
        <time>2023-01-01T13:55:25.505Z</time>
      </trkpt>
      <trkpt lat="43.80605" lon="0.89803">
        <ele>165.586113</ele>
        <time>2023-01-01T13:55:28.484Z</time>
      </trkpt>
      <trkpt lat="43.80593" lon="0.89796">
        <ele>165.721591</ele>
        <time>2023-01-01T13:55:31.495Z</time>
      </trkpt>
      <trkpt lat="43.80581" lon="0.89789">
        <ele>165.840021</ele>
        <time>2023-01-01T13:55:34.484Z</time>
      </trkpt>
      <trkpt lat="43.8057" lon="0.89784">
        <ele>165.90795</ele>
        <time>2023-01-01T13:55:37.486Z</time>
      </trkpt>
      <trkpt lat="43.80561" lon="0.89777">
        <ele>165.969925</ele>
        <time>2023-01-01T13:55:40.489Z</time>
      </trkpt>
      <trkpt lat="43.8055" lon="0.89771">
        <ele>166.035961</ele>
        <time>2023-01-01T13:55:44.494Z</time>
      </trkpt>
      <trkpt lat="43.8054" lon="0.89766">
        <ele>166.097115</ele>
        <time>2023-01-01T13:55:48.505Z</time>
      </trkpt>
      <trkpt lat="43.80529" lon="0.8976">
        <ele>166.169921</ele>
        <time>2023-01-01T13:55:52.476Z</time>
      </trkpt>
      <trkpt lat="43.80519" lon="0.89755">
        <ele>166.23383</ele>
        <time>2023-01-01T13:55:55.475Z</time>
      </trkpt>
      <trkpt lat="43.80508" lon="0.89749">
        <ele>166.301745</ele>
        <time>2023-01-01T13:55:58.489Z</time>
      </trkpt>
      <trkpt lat="43.80497" lon="0.89743">
        <ele>166.370971</ele>
        <time>2023-01-01T13:56:01.492Z</time>
      </trkpt>
      <trkpt lat="43.80486" lon="0.89738">
        <ele>166.438895</ele>
        <time>2023-01-01T13:56:04.489Z</time>
      </trkpt>
      <trkpt lat="43.80474" lon="0.89732">
        <ele>166.513317</ele>
        <time>2023-01-01T13:56:07.509Z</time>
      </trkpt>
      <trkpt lat="43.80462" lon="0.89727">
        <ele>166.585531</ele>
        <time>2023-01-01T13:56:10.503Z</time>
      </trkpt>
      <trkpt lat="43.80453" lon="0.8972">
        <ele>166.647376</ele>
        <time>2023-01-01T13:56:13.501Z</time>
      </trkpt>
      <trkpt lat="43.80444" lon="0.89713">
        <ele>166.705278</ele>
        <time>2023-01-01T13:56:16.502Z</time>
      </trkpt>
      <trkpt lat="43.80435" lon="0.89708">
        <ele>166.764787</ele>
        <time>2023-01-01T13:56:20.491Z</time>
      </trkpt>
      <trkpt lat="43.80424" lon="0.89702">
        <ele>166.832479</ele>
        <time>2023-01-01T13:56:24.485Z</time>
      </trkpt>
      <trkpt lat="43.80413" lon="0.89693">
        <ele>166.957832</ele>
        <time>2023-01-01T13:56:28.510Z</time>
      </trkpt>
      <trkpt lat="43.80402" lon="0.89688">
        <ele>167.138077</ele>
        <time>2023-01-01T13:56:31.495Z</time>
      </trkpt>
      <trkpt lat="43.80391" lon="0.89683">
        <ele>167.306041</ele>
        <time>2023-01-01T13:56:34.511Z</time>
      </trkpt>
      <trkpt lat="43.80381" lon="0.89677">
        <ele>167.468539</ele>
        <time>2023-01-01T13:56:37.488Z</time>
      </trkpt>
      <trkpt lat="43.80372" lon="0.89672">
        <ele>167.612352</ele>
        <time>2023-01-01T13:56:40.487Z</time>
      </trkpt>
      <trkpt lat="43.80363" lon="0.89667">
        <ele>167.754783</ele>
        <time>2023-01-01T13:56:43.493Z</time>
      </trkpt>
      <trkpt lat="43.80355" lon="0.89662">
        <ele>167.891884</ele>
        <time>2023-01-01T13:56:46.487Z</time>
      </trkpt>
      <trkpt lat="43.80346" lon="0.89657">
        <ele>168.031434</ele>
        <time>2023-01-01T13:56:49.493Z</time>
      </trkpt>
      <trkpt lat="43.80336" lon="0.89651">
        <ele>168.189922</ele>
        <time>2023-01-01T13:56:52.484Z</time>
      </trkpt>
      <trkpt lat="43.80327" lon="0.89646">
        <ele>168.338674</ele>
        <time>2023-01-01T13:56:55.491Z</time>
      </trkpt>
      <trkpt lat="43.80318" lon="0.89642">
        <ele>168.473252</ele>
        <time>2023-01-01T13:56:58.484Z</time>
      </trkpt>
      <trkpt lat="43.80309" lon="0.89637">
        <ele>168.617066</ele>
        <time>2023-01-01T13:57:02.499Z</time>
      </trkpt>
      <trkpt lat="43.80299" lon="0.89632">
        <ele>168.787556</ele>
        <time>2023-01-01T13:57:06.489Z</time>
      </trkpt>
      <trkpt lat="43.8029" lon="0.89627">
        <ele>168.931991</ele>
        <time>2023-01-01T13:57:09.483Z</time>
      </trkpt>
      <trkpt lat="43.8028" lon="0.89622">
        <ele>169.085913</ele>
        <time>2023-01-01T13:57:12.496Z</time>
      </trkpt>
      <trkpt lat="43.80269" lon="0.89617">
        <ele>169.253149</ele>
        <time>2023-01-01T13:57:15.485Z</time>
      </trkpt>
      <trkpt lat="43.80259" lon="0.89612">
        <ele>169.411259</ele>
        <time>2023-01-01T13:57:18.490Z</time>
      </trkpt>
      <trkpt lat="43.80249" lon="0.89605">
        <ele>169.56489</ele>
        <time>2023-01-01T13:57:21.493Z</time>
      </trkpt>
      <trkpt lat="43.80239" lon="0.89599">
        <ele>169.685199</ele>
        <time>2023-01-01T13:57:24.486Z</time>
      </trkpt>
      <trkpt lat="43.80228" lon="0.89593">
        <ele>169.811358</ele>
        <time>2023-01-01T13:57:27.489Z</time>
      </trkpt>
      <trkpt lat="43.80217" lon="0.89587">
        <ele>169.938098</ele>
        <time>2023-01-01T13:57:30.486Z</time>
      </trkpt>
      <trkpt lat="43.80205" lon="0.89581">
        <ele>170.064392</ele>
        <time>2023-01-01T13:57:33.511Z</time>
      </trkpt>
      <trkpt lat="43.80194" lon="0.89574">
        <ele>170.196412</ele>
        <time>2023-01-01T13:57:36.492Z</time>
      </trkpt>
      <trkpt lat="43.80182" lon="0.89569">
        <ele>170.326375</ele>
        <time>2023-01-01T13:57:39.483Z</time>
      </trkpt>
      <trkpt lat="43.80171" lon="0.89562">
        <ele>170.4503</ele>
        <time>2023-01-01T13:57:42.495Z</time>
      </trkpt>
      <trkpt lat="43.8016" lon="0.89557">
        <ele>170.57185</ele>
        <time>2023-01-01T13:57:45.484Z</time>
      </trkpt>
      <trkpt lat="43.80149" lon="0.89551">
        <ele>170.694589</ele>
        <time>2023-01-01T13:57:48.492Z</time>
      </trkpt>
      <trkpt lat="43.80139" lon="0.89546">
        <ele>170.81614</ele>
        <time>2023-01-01T13:57:51.490Z</time>
      </trkpt>
      <trkpt lat="43.80129" lon="0.8954">
        <ele>170.927254</ele>
        <time>2023-01-01T13:57:54.495Z</time>
      </trkpt>
      <trkpt lat="43.80119" lon="0.89534">
        <ele>171.037061</ele>
        <time>2023-01-01T13:57:57.484Z</time>
      </trkpt>
      <trkpt lat="43.80109" lon="0.89528">
        <ele>171.153312</ele>
        <time>2023-01-01T13:58:00.485Z</time>
      </trkpt>
      <trkpt lat="43.80098" lon="0.89522">
        <ele>171.275976</ele>
        <time>2023-01-01T13:58:03.503Z</time>
      </trkpt>
      <trkpt lat="43.80087" lon="0.89516">
        <ele>171.399615</ele>
        <time>2023-01-01T13:58:06.510Z</time>
      </trkpt>
      <trkpt lat="43.80076" lon="0.8951">
        <ele>171.365185</ele>
        <time>2023-01-01T13:58:09.487Z</time>
      </trkpt>
      <trkpt lat="43.80065" lon="0.89504">
        <ele>171.26537</ele>
        <time>2023-01-01T13:58:12.500Z</time>
      </trkpt>
      <trkpt lat="43.80053" lon="0.89498">
        <ele>171.164027</ele>
        <time>2023-01-01T13:58:15.503Z</time>
      </trkpt>
      <trkpt lat="43.80041" lon="0.89493">
        <ele>171.060535</ele>
        <time>2023-01-01T13:58:18.490Z</time>
      </trkpt>
      <trkpt lat="43.80029" lon="0.89488">
        <ele>170.955679</ele>
        <time>2023-01-01T13:58:21.487Z</time>
      </trkpt>
      <trkpt lat="43.80016" lon="0.89484">
        <ele>170.849258</ele>
        <time>2023-01-01T13:58:24.490Z</time>
      </trkpt>
      <trkpt lat="43.80004" lon="0.89479">
        <ele>170.742354</ele>
        <time>2023-01-01T13:58:27.509Z</time>
      </trkpt>
      <trkpt lat="43.79992" lon="0.89474">
        <ele>170.64119</ele>
        <time>2023-01-01T13:58:30.490Z</time>
      </trkpt>
      <trkpt lat="43.79979" lon="0.8947">
        <ele>170.530852</ele>
        <time>2023-01-01T13:58:33.483Z</time>
      </trkpt>
      <trkpt lat="43.7997" lon="0.89468">
        <ele>170.453119</ele>
        <time>2023-01-01T13:58:35.509Z</time>
      </trkpt>
      <trkpt lat="43.7996" lon="0.89464">
        <ele>170.370114</ele>
        <time>2023-01-01T13:58:37.496Z</time>
      </trkpt>
      <trkpt lat="43.79951" lon="0.89461">
        <ele>170.288449</ele>
        <time>2023-01-01T13:58:39.511Z</time>
      </trkpt>
      <trkpt lat="43.7994" lon="0.89458">
        <ele>170.202941</ele>
        <time>2023-01-01T13:58:41.509Z</time>
      </trkpt>
      <trkpt lat="43.7993" lon="0.89455">
        <ele>170.117166</ele>
        <time>2023-01-01T13:58:43.512Z</time>
      </trkpt>
      <trkpt lat="43.79921" lon="0.89451">
        <ele>170.040695</ele>
        <time>2023-01-01T13:58:45.510Z</time>
      </trkpt>
      <trkpt lat="43.79912" lon="0.89448">
        <ele>169.963741</ele>
        <time>2023-01-01T13:58:47.508Z</time>
      </trkpt>
      <trkpt lat="43.799" lon="0.89444">
        <ele>169.680697</ele>
        <time>2023-01-01T13:58:50.484Z</time>
      </trkpt>
      <trkpt lat="43.79891" lon="0.89441">
        <ele>169.461442</ele>
        <time>2023-01-01T13:58:52.504Z</time>
      </trkpt>
      <trkpt lat="43.79878" lon="0.89438">
        <ele>169.144432</ele>
        <time>2023-01-01T13:58:55.486Z</time>
      </trkpt>
      <trkpt lat="43.79865" lon="0.89433">
        <ele>168.827864</ele>
        <time>2023-01-01T13:58:58.498Z</time>
      </trkpt>
      <trkpt lat="43.79855" lon="0.89432">
        <ele>168.605678</ele>
        <time>2023-01-01T13:59:00.505Z</time>
      </trkpt>
      <trkpt lat="43.79846" lon="0.89429">
        <ele>168.381612</ele>
        <time>2023-01-01T13:59:02.508Z</time>
      </trkpt>
      <trkpt lat="43.79837" lon="0.89427">
        <ele>168.160481</ele>
        <time>2023-01-01T13:59:04.504Z</time>
      </trkpt>
      <trkpt lat="43.79825" lon="0.89423">
        <ele>167.875046</ele>
        <time>2023-01-01T13:59:07.508Z</time>
      </trkpt>
      <trkpt lat="43.79815" lon="0.89419">
        <ele>167.623489</ele>
        <time>2023-01-01T13:59:10.489Z</time>
      </trkpt>
      <trkpt lat="43.79805" lon="0.89413">
        <ele>167.371177</ele>
        <time>2023-01-01T13:59:14.500Z</time>
      </trkpt>
      <trkpt lat="43.79797" lon="0.89409">
        <ele>167.157428</ele>
        <time>2023-01-01T13:59:18.491Z</time>
      </trkpt>
      <trkpt lat="43.79785" lon="0.89403">
        <ele>166.873743</ele>
        <time>2023-01-01T13:59:22.487Z</time>
      </trkpt>
      <trkpt lat="43.79775" lon="0.89398">
        <ele>166.618269</ele>
        <time>2023-01-01T13:59:25.494Z</time>
      </trkpt>
      <trkpt lat="43.79765" lon="0.89393">
        <ele>166.355678</ele>
        <time>2023-01-01T13:59:28.496Z</time>
      </trkpt>
      <trkpt lat="43.79755" lon="0.89391">
        <ele>166.128967</ele>
        <time>2023-01-01T13:59:31.500Z</time>
      </trkpt>
      <trkpt lat="43.79746" lon="0.89391">
        <ele>165.915686</ele>
        <time>2023-01-01T13:59:37.492Z</time>
      </trkpt>
      <trkpt lat="43.79747" lon="0.8939">
        <ele>165.901805</ele>
        <time>2023-01-01T13:59:49.018Z</time>
      </trkpt>
      <trkpt lat="43.79736" lon="0.89398">
        <ele>165.633054</ele>
        <time>2023-01-01T14:08:14.484Z</time>
      </trkpt>
      <trkpt lat="43.79729" lon="0.89406">
        <ele>165.425612</ele>
        <time>2023-01-01T14:08:18.492Z</time>
      </trkpt>
      <trkpt lat="43.79723" lon="0.89415">
        <ele>165.230683</ele>
        <time>2023-01-01T14:08:22.491Z</time>
      </trkpt>
      <trkpt lat="43.79716" lon="0.89425">
        <ele>165.020153</ele>
        <time>2023-01-01T14:08:28.490Z</time>
      </trkpt>
      <trkpt lat="43.79707" lon="0.89428">
        <ele>164.827092</ele>
        <time>2023-01-01T14:08:32.487Z</time>
      </trkpt>
      <trkpt lat="43.79697" lon="0.89429">
        <ele>164.603297</ele>
        <time>2023-01-01T14:08:36.495Z</time>
      </trkpt>
      <trkpt lat="43.79687" lon="0.8943">
        <ele>164.394704</ele>
        <time>2023-01-01T14:08:39.488Z</time>
      </trkpt>
      <trkpt lat="43.79676" lon="0.89431">
        <ele>164.170353</ele>
        <time>2023-01-01T14:08:42.491Z</time>
      </trkpt>
      <trkpt lat="43.79666" lon="0.89432">
        <ele>163.940436</ele>
        <time>2023-01-01T14:08:45.487Z</time>
      </trkpt>
      <trkpt lat="43.79654" lon="0.89433">
        <ele>163.693513</ele>
        <time>2023-01-01T14:08:48.495Z</time>
      </trkpt>
      <trkpt lat="43.79641" lon="0.89434">
        <ele>163.398519</ele>
        <time>2023-01-01T14:08:51.491Z</time>
      </trkpt>
      <trkpt lat="43.79631" lon="0.89434">
        <ele>163.198969</ele>
        <time>2023-01-01T14:08:53.498Z</time>
      </trkpt>
      <trkpt lat="43.79622" lon="0.89435">
        <ele>163.001547</ele>
        <time>2023-01-01T14:08:55.492Z</time>
      </trkpt>
      <trkpt lat="43.79612" lon="0.89435">
        <ele>162.795281</ele>
        <time>2023-01-01T14:08:57.498Z</time>
      </trkpt>
      <trkpt lat="43.79603" lon="0.89435">
        <ele>162.582773</ele>
        <time>2023-01-01T14:08:59.493Z</time>
      </trkpt>
      <trkpt lat="43.79592" lon="0.89434">
        <ele>162.359193</ele>
        <time>2023-01-01T14:09:01.507Z</time>
      </trkpt>
      <trkpt lat="43.79581" lon="0.89434">
        <ele>162.120947</ele>
        <time>2023-01-01T14:09:03.495Z</time>
      </trkpt>
      <trkpt lat="43.7957" lon="0.89434">
        <ele>161.876105</ele>
        <time>2023-01-01T14:09:05.492Z</time>
      </trkpt>
      <trkpt lat="43.79557" lon="0.89433">
        <ele>161.706191</ele>
        <time>2023-01-01T14:09:07.514Z</time>
      </trkpt>
      <trkpt lat="43.79545" lon="0.89432">
        <ele>161.565795</ele>
        <time>2023-01-01T14:09:09.510Z</time>
      </trkpt>
      <trkpt lat="43.79533" lon="0.89432">
        <ele>161.419729</ele>
        <time>2023-01-01T14:09:11.499Z</time>
      </trkpt>
      <trkpt lat="43.7952" lon="0.89431">
        <ele>161.270131</ele>
        <time>2023-01-01T14:09:13.510Z</time>
      </trkpt>
      <trkpt lat="43.79508" lon="0.89431">
        <ele>161.125272</ele>
        <time>2023-01-01T14:09:15.507Z</time>
      </trkpt>
      <trkpt lat="43.79496" lon="0.8943">
        <ele>160.984925</ele>
        <time>2023-01-01T14:09:17.500Z</time>
      </trkpt>
      <trkpt lat="43.79484" lon="0.8943">
        <ele>160.847118</ele>
        <time>2023-01-01T14:09:19.490Z</time>
      </trkpt>
      <trkpt lat="43.79473" lon="0.8943">
        <ele>160.719862</ele>
        <time>2023-01-01T14:09:21.491Z</time>
      </trkpt>
      <trkpt lat="43.79463" lon="0.89429">
        <ele>160.603026</ele>
        <time>2023-01-01T14:09:23.500Z</time>
      </trkpt>
      <trkpt lat="43.79453" lon="0.89428">
        <ele>160.485213</ele>
        <time>2023-01-01T14:09:25.505Z</time>
      </trkpt>
      <trkpt lat="43.79444" lon="0.89429">
        <ele>160.374503</ele>
        <time>2023-01-01T14:09:27.494Z</time>
      </trkpt>
      <trkpt lat="43.79435" lon="0.89429">
        <ele>160.263805</ele>
        <time>2023-01-01T14:09:29.511Z</time>
      </trkpt>
      <trkpt lat="43.79425" lon="0.89429">
        <ele>160.149571</ele>
        <time>2023-01-01T14:09:31.500Z</time>
      </trkpt>
      <trkpt lat="43.79415" lon="0.89428">
        <ele>160.031698</ele>
        <time>2023-01-01T14:09:33.506Z</time>
      </trkpt>
      <trkpt lat="43.79405" lon="0.89428">
        <ele>159.918565</ele>
        <time>2023-01-01T14:09:35.505Z</time>
      </trkpt>
      <trkpt lat="43.79396" lon="0.89427">
        <ele>159.804179</ele>
        <time>2023-01-01T14:09:37.499Z</time>
      </trkpt>
      <trkpt lat="43.79386" lon="0.89427">
        <ele>159.75799</ele>
        <time>2023-01-01T14:09:39.495Z</time>
      </trkpt>
      <trkpt lat="43.79376" lon="0.89427">
        <ele>159.970925</ele>
        <time>2023-01-01T14:09:41.492Z</time>
      </trkpt>
      <trkpt lat="43.79366" lon="0.89427">
        <ele>160.183821</ele>
        <time>2023-01-01T14:09:43.502Z</time>
      </trkpt>
      <trkpt lat="43.79356" lon="0.89426">
        <ele>160.394778</ele>
        <time>2023-01-01T14:09:45.488Z</time>
      </trkpt>
      <trkpt lat="43.79347" lon="0.89426">
        <ele>160.609845</ele>
        <time>2023-01-01T14:09:47.492Z</time>
      </trkpt>
      <trkpt lat="43.79337" lon="0.89426">
        <ele>160.814006</ele>
        <time>2023-01-01T14:09:49.497Z</time>
      </trkpt>
      <trkpt lat="43.79328" lon="0.89425">
        <ele>161.020626</ele>
        <time>2023-01-01T14:09:51.500Z</time>
      </trkpt>
      <trkpt lat="43.79318" lon="0.89426">
        <ele>161.222908</ele>
        <time>2023-01-01T14:09:53.508Z</time>
      </trkpt>
      <trkpt lat="43.79309" lon="0.89425">
        <ele>161.42728</ele>
        <time>2023-01-01T14:09:55.510Z</time>
      </trkpt>
      <trkpt lat="43.79296" lon="0.89424">
        <ele>161.716751</ele>
        <time>2023-01-01T14:09:58.509Z</time>
      </trkpt>
      <trkpt lat="43.79282" lon="0.89423">
        <ele>162.005955</ele>
        <time>2023-01-01T14:10:01.490Z</time>
      </trkpt>
      <trkpt lat="43.79269" lon="0.89423">
        <ele>162.288315</ele>
        <time>2023-01-01T14:10:04.493Z</time>
      </trkpt>
      <trkpt lat="43.79257" lon="0.89422">
        <ele>162.564361</ele>
        <time>2023-01-01T14:10:07.520Z</time>
      </trkpt>
      <trkpt lat="43.79245" lon="0.89422">
        <ele>162.810028</ele>
        <time>2023-01-01T14:10:10.485Z</time>
      </trkpt>
      <trkpt lat="43.79234" lon="0.89422">
        <ele>163.051111</ele>
        <time>2023-01-01T14:10:13.502Z</time>
      </trkpt>
      <trkpt lat="43.79223" lon="0.89421">
        <ele>163.305263</ele>
        <time>2023-01-01T14:10:16.507Z</time>
      </trkpt>
      <trkpt lat="43.7921" lon="0.89421">
        <ele>163.57025</ele>
        <time>2023-01-01T14:10:19.503Z</time>
      </trkpt>
      <trkpt lat="43.79198" lon="0.89421">
        <ele>163.363207</ele>
        <time>2023-01-01T14:10:22.489Z</time>
      </trkpt>
      <trkpt lat="43.79185" lon="0.89421">
        <ele>163.024374</ele>
        <time>2023-01-01T14:10:25.486Z</time>
      </trkpt>
      <trkpt lat="43.79176" lon="0.89421">
        <ele>162.771529</ele>
        <time>2023-01-01T14:10:27.508Z</time>
      </trkpt>
      <trkpt lat="43.79165" lon="0.8942">
        <ele>162.508178</ele>
        <time>2023-01-01T14:10:29.500Z</time>
      </trkpt>
      <trkpt lat="43.79156" lon="0.8942">
        <ele>162.250141</ele>
        <time>2023-01-01T14:10:31.522Z</time>
      </trkpt>
      <trkpt lat="43.79145" lon="0.8942">
        <ele>161.981679</ele>
        <time>2023-01-01T14:10:33.490Z</time>
      </trkpt>
      <trkpt lat="43.79135" lon="0.8942">
        <ele>161.721043</ele>
        <time>2023-01-01T14:10:35.506Z</time>
      </trkpt>
      <trkpt lat="43.79125" lon="0.8942">
        <ele>161.457739</ele>
        <time>2023-01-01T14:10:37.508Z</time>
      </trkpt>
      <trkpt lat="43.79115" lon="0.89419">
        <ele>161.193952</ele>
        <time>2023-01-01T14:10:39.510Z</time>
      </trkpt>
      <trkpt lat="43.79103" lon="0.89419">
        <ele>160.870741</ele>
        <time>2023-01-01T14:10:42.499Z</time>
      </trkpt>
      <trkpt lat="43.79092" lon="0.89418">
        <ele>160.588626</ele>
        <time>2023-01-01T14:10:44.510Z</time>
      </trkpt>
      <trkpt lat="43.79083" lon="0.89418">
        <ele>160.346227</ele>
        <time>2023-01-01T14:10:46.508Z</time>
      </trkpt>
      <trkpt lat="43.79073" lon="0.89418">
        <ele>160.098365</ele>
        <time>2023-01-01T14:10:48.504Z</time>
      </trkpt>
      <trkpt lat="43.79061" lon="0.89417">
        <ele>159.777511</ele>
        <time>2023-01-01T14:10:51.491Z</time>
      </trkpt>
      <trkpt lat="43.79049" lon="0.89416">
        <ele>159.482896</ele>
        <time>2023-01-01T14:10:54.491Z</time>
      </trkpt>
      <trkpt lat="43.79039" lon="0.89416">
        <ele>159.22209</ele>
        <time>2023-01-01T14:10:57.486Z</time>
      </trkpt>
      <trkpt lat="43.79029" lon="0.89415">
        <ele>158.953311</ele>
        <time>2023-01-01T14:11:00.512Z</time>
      </trkpt>
      <trkpt lat="43.79018" lon="0.89414">
        <ele>159.040144</ele>
        <time>2023-01-01T14:11:03.489Z</time>
      </trkpt>
      <trkpt lat="43.79007" lon="0.89411">
        <ele>159.16866</ele>
        <time>2023-01-01T14:11:06.490Z</time>
      </trkpt>
      <trkpt lat="43.78995" lon="0.89409">
        <ele>159.303519</ele>
        <time>2023-01-01T14:11:09.499Z</time>
      </trkpt>
      <trkpt lat="43.78983" lon="0.89405">
        <ele>159.43126</ele>
        <time>2023-01-01T14:11:12.490Z</time>
      </trkpt>
      <trkpt lat="43.78971" lon="0.89402">
        <ele>159.566102</ele>
        <time>2023-01-01T14:11:15.502Z</time>
      </trkpt>
      <trkpt lat="43.7896" lon="0.89398">
        <ele>159.69545</ele>
        <time>2023-01-01T14:11:18.507Z</time>
      </trkpt>
      <trkpt lat="43.78949" lon="0.89393">
        <ele>159.821818</ele>
        <time>2023-01-01T14:11:21.507Z</time>
      </trkpt>
      <trkpt lat="43.78938" lon="0.8939">
        <ele>159.942266</ele>
        <time>2023-01-01T14:11:24.509Z</time>
      </trkpt>
      <trkpt lat="43.78927" lon="0.89385">
        <ele>160.067875</ele>
        <time>2023-01-01T14:11:27.504Z</time>
      </trkpt>
      <trkpt lat="43.78917" lon="0.89379">
        <ele>160.19452</ele>
        <time>2023-01-01T14:11:30.506Z</time>
      </trkpt>
      <trkpt lat="43.78906" lon="0.89375">
        <ele>160.314416</ele>
        <time>2023-01-01T14:11:33.495Z</time>
      </trkpt>
      <trkpt lat="43.78896" lon="0.89369">
        <ele>160.438855</ele>
        <time>2023-01-01T14:11:36.502Z</time>
      </trkpt>
      <trkpt lat="43.78885" lon="0.89362">
        <ele>160.563513</ele>
        <time>2023-01-01T14:11:39.483Z</time>
      </trkpt>
      <trkpt lat="43.78875" lon="0.89356">
        <ele>160.689179</ele>
        <time>2023-01-01T14:11:42.507Z</time>
      </trkpt>
      <trkpt lat="43.78864" lon="0.89349">
        <ele>160.816809</ele>
        <time>2023-01-01T14:11:45.506Z</time>
      </trkpt>
      <trkpt lat="43.78853" lon="0.89343">
        <ele>160.943091</ele>
        <time>2023-01-01T14:11:48.506Z</time>
      </trkpt>
      <trkpt lat="43.78842" lon="0.89336">
        <ele>161.063895</ele>
        <time>2023-01-01T14:11:51.490Z</time>
      </trkpt>
      <trkpt lat="43.78832" lon="0.89329">
        <ele>161.178089</ele>
        <time>2023-01-01T14:11:54.508Z</time>
      </trkpt>
      <trkpt lat="43.78822" lon="0.89323">
        <ele>161.29076</ele>
        <time>2023-01-01T14:11:57.508Z</time>
      </trkpt>
      <trkpt lat="43.78811" lon="0.89316">
        <ele>161.411564</ele>
        <time>2023-01-01T14:12:00.488Z</time>
      </trkpt>
      <trkpt lat="43.788" lon="0.89309">
        <ele>161.529957</ele>
        <time>2023-01-01T14:12:03.508Z</time>
      </trkpt>
      <trkpt lat="43.78789" lon="0.89302">
        <ele>161.648374</ele>
        <time>2023-01-01T14:12:06.488Z</time>
      </trkpt>
      <trkpt lat="43.78778" lon="0.89294">
        <ele>161.771898</ele>
        <time>2023-01-01T14:12:09.493Z</time>
      </trkpt>
      <trkpt lat="43.78766" lon="0.89287">
        <ele>161.898124</ele>
        <time>2023-01-01T14:12:12.488Z</time>
      </trkpt>
      <trkpt lat="43.78754" lon="0.89279">
        <ele>162.029176</ele>
        <time>2023-01-01T14:12:15.501Z</time>
      </trkpt>
      <trkpt lat="43.78743" lon="0.89272">
        <ele>162.155402</ele>
        <time>2023-01-01T14:12:18.513Z</time>
      </trkpt>
      <trkpt lat="43.78732" lon="0.89265">
        <ele>162.274099</ele>
        <time>2023-01-01T14:12:21.496Z</time>
      </trkpt>
      <trkpt lat="43.78722" lon="0.89258">
        <ele>162.390097</ele>
        <time>2023-01-01T14:12:24.482Z</time>
      </trkpt>
      <trkpt lat="43.78711" lon="0.89251">
        <ele>162.505199</ele>
        <time>2023-01-01T14:12:27.494Z</time>
      </trkpt>
      <trkpt lat="43.78701" lon="0.89244">
        <ele>162.619407</ele>
        <time>2023-01-01T14:12:30.490Z</time>
      </trkpt>
      <trkpt lat="43.78691" lon="0.89237">
        <ele>162.752669</ele>
        <time>2023-01-01T14:12:33.495Z</time>
      </trkpt>
      <trkpt lat="43.7868" lon="0.8923">
        <ele>162.935604</ele>
        <time>2023-01-01T14:12:36.498Z</time>
      </trkpt>
      <trkpt lat="43.78669" lon="0.89223">
        <ele>163.119443</ele>
        <time>2023-01-01T14:12:39.489Z</time>
      </trkpt>
      <trkpt lat="43.78658" lon="0.89216">
        <ele>163.304684</ele>
        <time>2023-01-01T14:12:42.484Z</time>
      </trkpt>
      <trkpt lat="43.78648" lon="0.89209">
        <ele>163.493264</ele>
        <time>2023-01-01T14:12:45.488Z</time>
      </trkpt>
      <trkpt lat="43.78637" lon="0.89203">
        <ele>163.677183</ele>
        <time>2023-01-01T14:12:48.505Z</time>
      </trkpt>
      <trkpt lat="43.78626" lon="0.89196">
        <ele>163.855419</ele>
        <time>2023-01-01T14:12:51.497Z</time>
      </trkpt>
      <trkpt lat="43.78616" lon="0.89189">
        <ele>164.029878</ele>
        <time>2023-01-01T14:12:54.487Z</time>
      </trkpt>
      <trkpt lat="43.78606" lon="0.89182">
        <ele>164.211389</ele>
        <time>2023-01-01T14:12:57.502Z</time>
      </trkpt>
      <trkpt lat="43.78595" lon="0.89175">
        <ele>164.391458</ele>
        <time>2023-01-01T14:13:00.488Z</time>
      </trkpt>
      <trkpt lat="43.78585" lon="0.89168">
        <ele>164.572082</ele>
        <time>2023-01-01T14:13:03.504Z</time>
      </trkpt>
      <trkpt lat="43.78574" lon="0.89161">
        <ele>164.754999</ele>
        <time>2023-01-01T14:13:06.488Z</time>
      </trkpt>
      <trkpt lat="43.78563" lon="0.89154">
        <ele>164.939767</ele>
        <time>2023-01-01T14:13:09.488Z</time>
      </trkpt>
      <trkpt lat="43.78552" lon="0.89148">
        <ele>165.123608</ele>
        <time>2023-01-01T14:13:12.499Z</time>
      </trkpt>
      <trkpt lat="43.78542" lon="0.89141">
        <ele>165.306543</ele>
        <time>2023-01-01T14:13:15.495Z</time>
      </trkpt>
      <trkpt lat="43.78531" lon="0.89134">
        <ele>165.491824</ele>
        <time>2023-01-01T14:13:18.504Z</time>
      </trkpt>
      <trkpt lat="43.7852" lon="0.89127">
        <ele>165.523319</ele>
        <time>2023-01-01T14:13:21.508Z</time>
      </trkpt>
      <trkpt lat="43.78508" lon="0.8912">
        <ele>165.555517</ele>
        <time>2023-01-01T14:13:24.506Z</time>
      </trkpt>
      <trkpt lat="43.78497" lon="0.89113">
        <ele>165.587715</ele>
        <time>2023-01-01T14:13:27.496Z</time>
      </trkpt>
      <trkpt lat="43.78485" lon="0.89105">
        <ele>165.62077</ele>
        <time>2023-01-01T14:13:30.495Z</time>
      </trkpt>
      <trkpt lat="43.78473" lon="0.89097">
        <ele>165.655388</ele>
        <time>2023-01-01T14:13:33.484Z</time>
      </trkpt>
      <trkpt lat="43.78461" lon="0.89089">
        <ele>165.689225</ele>
        <time>2023-01-01T14:13:36.491Z</time>
      </trkpt>
      <trkpt lat="43.78449" lon="0.89082">
        <ele>165.723373</ele>
        <time>2023-01-01T14:13:39.507Z</time>
      </trkpt>
      <trkpt lat="43.78437" lon="0.89074">
        <ele>165.757759</ele>
        <time>2023-01-01T14:13:42.491Z</time>
      </trkpt>
      <trkpt lat="43.78425" lon="0.89066">
        <ele>165.791752</ele>
        <time>2023-01-01T14:13:45.498Z</time>
      </trkpt>
      <trkpt lat="43.78417" lon="0.89061">
        <ele>165.815141</ele>
        <time>2023-01-01T14:13:47.505Z</time>
      </trkpt>
      <trkpt lat="43.78405" lon="0.89053">
        <ele>165.849209</ele>
        <time>2023-01-01T14:13:50.506Z</time>
      </trkpt>
      <trkpt lat="43.78393" lon="0.89046">
        <ele>165.882264</ele>
        <time>2023-01-01T14:13:53.498Z</time>
      </trkpt>
      <trkpt lat="43.78382" lon="0.89038">
        <ele>165.913917</ele>
        <time>2023-01-01T14:13:56.512Z</time>
      </trkpt>
      <trkpt lat="43.78371" lon="0.89031">
        <ele>165.945334</ele>
        <time>2023-01-01T14:13:59.493Z</time>
      </trkpt>
      <trkpt lat="43.78361" lon="0.89025">
        <ele>166.082288</ele>
        <time>2023-01-01T14:14:02.489Z</time>
      </trkpt>
      <trkpt lat="43.78351" lon="0.89018">
        <ele>166.268614</ele>
        <time>2023-01-01T14:14:05.488Z</time>
      </trkpt>
      <trkpt lat="43.7834" lon="0.89012">
        <ele>166.457481</ele>
        <time>2023-01-01T14:14:08.509Z</time>
      </trkpt>
      <trkpt lat="43.7833" lon="0.89005">
        <ele>166.647861</ele>
        <time>2023-01-01T14:14:11.489Z</time>
      </trkpt>
      <trkpt lat="43.7832" lon="0.88999">
        <ele>166.83371</ele>
        <time>2023-01-01T14:14:14.490Z</time>
      </trkpt>
      <trkpt lat="43.7831" lon="0.88992">
        <ele>167.019559</ele>
        <time>2023-01-01T14:14:17.491Z</time>
      </trkpt>
      <trkpt lat="43.783" lon="0.88985">
        <ele>167.200367</ele>
        <time>2023-01-01T14:14:20.504Z</time>
      </trkpt>
      <trkpt lat="43.7829" lon="0.88978">
        <ele>167.38837</ele>
        <time>2023-01-01T14:14:23.513Z</time>
      </trkpt>
      <trkpt lat="43.7828" lon="0.88972">
        <ele>167.57875</ele>
        <time>2023-01-01T14:14:26.508Z</time>
      </trkpt>
      <trkpt lat="43.78271" lon="0.88965">
        <ele>167.757106</ele>
        <time>2023-01-01T14:14:29.489Z</time>
      </trkpt>
      <trkpt lat="43.78261" lon="0.88958">
        <ele>167.932344</ele>
        <time>2023-01-01T14:14:32.506Z</time>
      </trkpt>
      <trkpt lat="43.78252" lon="0.88952">
        <ele>168.101054</ele>
        <time>2023-01-01T14:14:35.490Z</time>
      </trkpt>
      <trkpt lat="43.78243" lon="0.88946">
        <ele>168.265102</ele>
        <time>2023-01-01T14:14:38.498Z</time>
      </trkpt>
      <trkpt lat="43.78235" lon="0.88941">
        <ele>168.422095</ele>
        <time>2023-01-01T14:14:41.488Z</time>
      </trkpt>
      <trkpt lat="43.78226" lon="0.88936">
        <ele>168.579571</ele>
        <time>2023-01-01T14:14:44.482Z</time>
      </trkpt>
      <trkpt lat="43.78217" lon="0.88931">
        <ele>168.740711</ele>
        <time>2023-01-01T14:14:47.491Z</time>
      </trkpt>
      <trkpt lat="43.78208" lon="0.88926">
        <ele>168.904499</ele>
        <time>2023-01-01T14:14:50.506Z</time>
      </trkpt>
      <trkpt lat="43.78199" lon="0.8892">
        <ele>169.005868</ele>
        <time>2023-01-01T14:14:53.488Z</time>
      </trkpt>
      <trkpt lat="43.7819" lon="0.88914">
        <ele>169.068073</ele>
        <time>2023-01-01T14:14:56.511Z</time>
      </trkpt>
      <trkpt lat="43.7818" lon="0.88907">
        <ele>169.133918</ele>
        <time>2023-01-01T14:14:59.486Z</time>
      </trkpt>
      <trkpt lat="43.7817" lon="0.88901">
        <ele>169.201976</ele>
        <time>2023-01-01T14:15:02.506Z</time>
      </trkpt>
      <trkpt lat="43.78161" lon="0.88895">
        <ele>169.267061</ele>
        <time>2023-01-01T14:15:05.512Z</time>
      </trkpt>
      <trkpt lat="43.78151" lon="0.88889">
        <ele>169.333413</ele>
        <time>2023-01-01T14:15:08.504Z</time>
      </trkpt>
      <trkpt lat="43.78141" lon="0.88882">
        <ele>169.404113</ele>
        <time>2023-01-01T14:15:11.506Z</time>
      </trkpt>
      <trkpt lat="43.7813" lon="0.88875">
        <ele>169.479511</ele>
        <time>2023-01-01T14:15:14.493Z</time>
      </trkpt>
      <trkpt lat="43.78119" lon="0.88868">
        <ele>169.55378</ele>
        <time>2023-01-01T14:15:17.485Z</time>
      </trkpt>
      <trkpt lat="43.7811" lon="0.88862">
        <ele>169.619976</ele>
        <time>2023-01-01T14:15:20.491Z</time>
      </trkpt>
      <trkpt lat="43.781" lon="0.88856">
        <ele>169.685605</ele>
        <time>2023-01-01T14:15:23.497Z</time>
      </trkpt>
      <trkpt lat="43.78091" lon="0.8885">
        <ele>169.74897</ele>
        <time>2023-01-01T14:15:26.513Z</time>
      </trkpt>
      <trkpt lat="43.7808" lon="0.88843">
        <ele>169.82043</ele>
        <time>2023-01-01T14:15:29.498Z</time>
      </trkpt>
      <trkpt lat="43.78071" lon="0.88837">
        <ele>169.887918</ele>
        <time>2023-01-01T14:15:32.513Z</time>
      </trkpt>
      <trkpt lat="43.7806" lon="0.8883">
        <ele>169.957475</ele>
        <time>2023-01-01T14:15:35.494Z</time>
      </trkpt>
      <trkpt lat="43.7805" lon="0.88823">
        <ele>170.029106</ele>
        <time>2023-01-01T14:15:38.483Z</time>
      </trkpt>
      <trkpt lat="43.78039" lon="0.88815">
        <ele>170.187656</ele>
        <time>2023-01-01T14:15:42.485Z</time>
      </trkpt>
      <trkpt lat="43.78026" lon="0.88808">
        <ele>170.532942</ele>
        <time>2023-01-01T14:15:45.523Z</time>
      </trkpt>
      <trkpt lat="43.78015" lon="0.88802">
        <ele>170.851968</ele>
        <time>2023-01-01T14:15:48.499Z</time>
      </trkpt>
      <trkpt lat="43.78003" lon="0.88795">
        <ele>171.193149</ele>
        <time>2023-01-01T14:15:51.485Z</time>
      </trkpt>
      <trkpt lat="43.77995" lon="0.8879">
        <ele>171.437827</ele>
        <time>2023-01-01T14:15:53.486Z</time>
      </trkpt>
      <trkpt lat="43.77983" lon="0.88782">
        <ele>171.787668</ele>
        <time>2023-01-01T14:15:56.507Z</time>
      </trkpt>
      <trkpt lat="43.77972" lon="0.88775">
        <ele>172.111223</ele>
        <time>2023-01-01T14:15:59.483Z</time>
      </trkpt>
      <trkpt lat="43.77961" lon="0.88768">
        <ele>172.422054</ele>
        <time>2023-01-01T14:16:02.484Z</time>
      </trkpt>
      <trkpt lat="43.77951" lon="0.88762">
        <ele>172.713737</ele>
        <time>2023-01-01T14:16:05.487Z</time>
      </trkpt>
      <trkpt lat="43.77942" lon="0.88756">
        <ele>172.963163</ele>
        <time>2023-01-01T14:16:08.491Z</time>
      </trkpt>
      <trkpt lat="43.77934" lon="0.88751">
        <ele>173.209753</ele>
        <time>2023-01-01T14:16:11.491Z</time>
      </trkpt>
      <trkpt lat="43.77925" lon="0.88746">
        <ele>173.467268</ele>
        <time>2023-01-01T14:16:14.489Z</time>
      </trkpt>
      <trkpt lat="43.77916" lon="0.8874">
        <ele>173.723883</ele>
        <time>2023-01-01T14:16:17.486Z</time>
      </trkpt>
      <trkpt lat="43.77907" lon="0.88735">
        <ele>173.973625</ele>
        <time>2023-01-01T14:16:20.490Z</time>
      </trkpt>
      <trkpt lat="43.77896" lon="0.88729">
        <ele>174.279646</ele>
        <time>2023-01-01T14:16:24.495Z</time>
      </trkpt>
      <trkpt lat="43.77888" lon="0.88724">
        <ele>174.521918</ele>
        <time>2023-01-01T14:16:27.494Z</time>
      </trkpt>
      <trkpt lat="43.77879" lon="0.88719">
        <ele>174.773232</ele>
        <time>2023-01-01T14:16:30.506Z</time>
      </trkpt>
      <trkpt lat="43.77871" lon="0.88714">
        <ele>174.905506</ele>
        <time>2023-01-01T14:16:33.513Z</time>
      </trkpt>
      <trkpt lat="43.7786" lon="0.88707">
        <ele>175.038926</ele>
        <time>2023-01-01T14:16:37.504Z</time>
      </trkpt>
      <trkpt lat="43.7785" lon="0.88703">
        <ele>175.159584</ele>
        <time>2023-01-01T14:16:41.490Z</time>
      </trkpt>
      <trkpt lat="43.77839" lon="0.88698">
        <ele>175.289245</ele>
        <time>2023-01-01T14:16:45.489Z</time>
      </trkpt>
      <trkpt lat="43.7783" lon="0.88695">
        <ele>175.396782</ele>
        <time>2023-01-01T14:16:48.507Z</time>
      </trkpt>
      <trkpt lat="43.77821" lon="0.88691">
        <ele>175.505851</ele>
        <time>2023-01-01T14:16:51.501Z</time>
      </trkpt>
      <trkpt lat="43.7781" lon="0.88687">
        <ele>175.636609</ele>
        <time>2023-01-01T14:16:55.485Z</time>
      </trkpt>
      <trkpt lat="43.77801" lon="0.88683">
        <ele>175.747888</ele>
        <time>2023-01-01T14:16:59.502Z</time>
      </trkpt>
      <trkpt lat="43.7779" lon="0.8868">
        <ele>175.869789</ele>
        <time>2023-01-01T14:17:03.491Z</time>
      </trkpt>
      <trkpt lat="43.77781" lon="0.88677">
        <ele>175.980912</ele>
        <time>2023-01-01T14:17:06.490Z</time>
      </trkpt>
      <trkpt lat="43.77771" lon="0.88675">
        <ele>176.094838</ele>
        <time>2023-01-01T14:17:09.493Z</time>
      </trkpt>
      <trkpt lat="43.77761" lon="0.88673">
        <ele>176.207768</ele>
        <time>2023-01-01T14:17:12.488Z</time>
      </trkpt>
      <trkpt lat="43.77752" lon="0.88671">
        <ele>176.313139</ele>
        <time>2023-01-01T14:17:15.500Z</time>
      </trkpt>
      <trkpt lat="43.77743" lon="0.88669">
        <ele>176.419879</ele>
        <time>2023-01-01T14:17:18.496Z</time>
      </trkpt>
      <trkpt lat="43.77734" lon="0.88667">
        <ele>176.52859</ele>
        <time>2023-01-01T14:17:21.489Z</time>
      </trkpt>
      <trkpt lat="43.77725" lon="0.88664">
        <ele>176.636507</ele>
        <time>2023-01-01T14:17:24.503Z</time>
      </trkpt>
      <trkpt lat="43.77715" lon="0.88661">
        <ele>176.745219</ele>
        <time>2023-01-01T14:17:27.498Z</time>
      </trkpt>
      <trkpt lat="43.77706" lon="0.8866">
        <ele>176.851727</ele>
        <time>2023-01-01T14:17:30.487Z</time>
      </trkpt>
      <trkpt lat="43.77697" lon="0.88658">
        <ele>177.064972</ele>
        <time>2023-01-01T14:17:33.513Z</time>
      </trkpt>
      <trkpt lat="43.77688" lon="0.88655">
        <ele>177.320032</ele>
        <time>2023-01-01T14:17:36.494Z</time>
      </trkpt>
      <trkpt lat="43.77678" lon="0.88653">
        <ele>177.587165</ele>
        <time>2023-01-01T14:17:39.496Z</time>
      </trkpt>
      <trkpt lat="43.77669" lon="0.88651">
        <ele>177.847068</ele>
        <time>2023-01-01T14:17:42.504Z</time>
      </trkpt>
      <trkpt lat="43.7766" lon="0.88649">
        <ele>178.100118</ele>
        <time>2023-01-01T14:17:45.497Z</time>
      </trkpt>
      <trkpt lat="43.77649" lon="0.88645">
        <ele>178.431451</ele>
        <time>2023-01-01T14:17:49.491Z</time>
      </trkpt>
      <trkpt lat="43.7764" lon="0.88642">
        <ele>178.688034</ele>
        <time>2023-01-01T14:17:52.506Z</time>
      </trkpt>
      <trkpt lat="43.77631" lon="0.88639">
        <ele>178.950564</ele>
        <time>2023-01-01T14:17:55.503Z</time>
      </trkpt>
      <trkpt lat="43.77621" lon="0.88637">
        <ele>179.2154</ele>
        <time>2023-01-01T14:17:58.486Z</time>
      </trkpt>
      <trkpt lat="43.77612" lon="0.88634">
        <ele>179.478725</ele>
        <time>2023-01-01T14:18:01.496Z</time>
      </trkpt>
      <trkpt lat="43.77603" lon="0.88633">
        <ele>179.735562</ele>
        <time>2023-01-01T14:18:04.504Z</time>
      </trkpt>
      <trkpt lat="43.77594" lon="0.8863">
        <ele>179.996167</ele>
        <time>2023-01-01T14:18:07.508Z</time>
      </trkpt>
      <trkpt lat="43.77585" lon="0.88626">
        <ele>180.260899</ele>
        <time>2023-01-01T14:18:10.487Z</time>
      </trkpt>
      <trkpt lat="43.77573" lon="0.88624">
        <ele>180.588535</ele>
        <time>2023-01-01T14:18:14.522Z</time>
      </trkpt>
      <trkpt lat="43.77562" lon="0.88621">
        <ele>180.913162</ele>
        <time>2023-01-01T14:18:18.489Z</time>
      </trkpt>
      <trkpt lat="43.77553" lon="0.88619">
        <ele>181.170631</ele>
        <time>2023-01-01T14:18:21.502Z</time>
      </trkpt>
      <trkpt lat="43.77544" lon="0.88615">
        <ele>181.432074</ele>
        <time>2023-01-01T14:18:24.505Z</time>
      </trkpt>
      <trkpt lat="43.77535" lon="0.88612">
        <ele>181.689511</ele>
        <time>2023-01-01T14:18:27.495Z</time>
      </trkpt>
      <trkpt lat="43.77525" lon="0.88609">
        <ele>181.947943</ele>
        <time>2023-01-01T14:18:30.507Z</time>
      </trkpt>
      <trkpt lat="43.77516" lon="0.88607">
        <ele>182.179174</ele>
        <time>2023-01-01T14:18:33.501Z</time>
      </trkpt>
      <trkpt lat="43.77506" lon="0.88604">
        <ele>182.410722</ele>
        <time>2023-01-01T14:18:36.502Z</time>
      </trkpt>
      <trkpt lat="43.77497" lon="0.88602">
        <ele>182.64285</ele>
        <time>2023-01-01T14:18:39.491Z</time>
      </trkpt>
      <trkpt lat="43.77485" lon="0.88598">
        <ele>182.92659</ele>
        <time>2023-01-01T14:18:43.490Z</time>
      </trkpt>
      <trkpt lat="43.77474" lon="0.88594">
        <ele>183.196849</ele>
        <time>2023-01-01T14:18:47.502Z</time>
      </trkpt>
      <trkpt lat="43.77463" lon="0.88592">
        <ele>183.462321</ele>
        <time>2023-01-01T14:18:51.487Z</time>
      </trkpt>
      <trkpt lat="43.77452" lon="0.88588">
        <ele>183.732149</ele>
        <time>2023-01-01T14:18:55.484Z</time>
      </trkpt>
      <trkpt lat="43.77443" lon="0.88585">
        <ele>183.95367</ele>
        <time>2023-01-01T14:18:59.490Z</time>
      </trkpt>
      <trkpt lat="43.77432" lon="0.88582">
        <ele>184.2081</ele>
        <time>2023-01-01T14:19:04.500Z</time>
      </trkpt>
      <trkpt lat="43.77423" lon="0.88579">
        <ele>184.435017</ele>
        <time>2023-01-01T14:19:08.496Z</time>
      </trkpt>
      <trkpt lat="43.77413" lon="0.88576">
        <ele>184.666952</ele>
        <time>2023-01-01T14:19:12.507Z</time>
      </trkpt>
      <trkpt lat="43.77404" lon="0.88573">
        <ele>184.897761</ele>
        <time>2023-01-01T14:19:16.505Z</time>
      </trkpt>
      <trkpt lat="43.77395" lon="0.8857">
        <ele>185.125892</ele>
        <time>2023-01-01T14:19:20.483Z</time>
      </trkpt>
      <trkpt lat="43.77386" lon="0.88568">
        <ele>185.343069</ele>
        <time>2023-01-01T14:19:24.503Z</time>
      </trkpt>
      <trkpt lat="43.77377" lon="0.88565">
        <ele>185.558431</ele>
        <time>2023-01-01T14:19:28.500Z</time>
      </trkpt>
      <trkpt lat="43.77366" lon="0.88563">
        <ele>185.821564</ele>
        <time>2023-01-01T14:19:33.505Z</time>
      </trkpt>
      <trkpt lat="43.77355" lon="0.88559">
        <ele>186.078206</ele>
        <time>2023-01-01T14:19:38.500Z</time>
      </trkpt>
      <trkpt lat="43.77345" lon="0.88556">
        <ele>186.533155</ele>
        <time>2023-01-01T14:19:43.489Z</time>
      </trkpt>
      <trkpt lat="43.77334" lon="0.88554">
        <ele>187.147786</ele>
        <time>2023-01-01T14:19:48.501Z</time>
      </trkpt>
      <trkpt lat="43.77323" lon="0.88551">
        <ele>187.760932</ele>
        <time>2023-01-01T14:19:53.490Z</time>
      </trkpt>
      <trkpt lat="43.77313" lon="0.88547">
        <ele>188.375188</ele>
        <time>2023-01-01T14:19:58.497Z</time>
      </trkpt>
      <trkpt lat="43.77303" lon="0.88545">
        <ele>188.901456</ele>
        <time>2023-01-01T14:20:02.491Z</time>
      </trkpt>
      <trkpt lat="43.77294" lon="0.88542">
        <ele>189.426051</ele>
        <time>2023-01-01T14:20:06.501Z</time>
      </trkpt>
      <trkpt lat="43.77285" lon="0.88539">
        <ele>189.968702</ele>
        <time>2023-01-01T14:20:10.487Z</time>
      </trkpt>
      <trkpt lat="43.77275" lon="0.88537">
        <ele>190.513721</ele>
        <time>2023-01-01T14:20:14.489Z</time>
      </trkpt>
      <trkpt lat="43.77266" lon="0.88534">
        <ele>191.028212</ele>
        <time>2023-01-01T14:20:18.485Z</time>
      </trkpt>
      <trkpt lat="43.77257" lon="0.88532">
        <ele>191.545764</ele>
        <time>2023-01-01T14:20:22.490Z</time>
      </trkpt>
      <trkpt lat="43.77247" lon="0.88528">
        <ele>192.124059</ele>
        <time>2023-01-01T14:20:27.487Z</time>
      </trkpt>
      <trkpt lat="43.77237" lon="0.88525">
        <ele>192.694875</ele>
        <time>2023-01-01T14:20:32.490Z</time>
      </trkpt>
      <trkpt lat="43.77226" lon="0.88522">
        <ele>193.316565</ele>
        <time>2023-01-01T14:20:37.510Z</time>
      </trkpt>
      <trkpt lat="43.77217" lon="0.8852">
        <ele>193.823145</ele>
        <time>2023-01-01T14:20:41.487Z</time>
      </trkpt>
      <trkpt lat="43.77207" lon="0.88516">
        <ele>194.434886</ele>
        <time>2023-01-01T14:20:46.498Z</time>
      </trkpt>
      <trkpt lat="43.77196" lon="0.88513">
        <ele>195.054255</ele>
        <time>2023-01-01T14:20:51.493Z</time>
      </trkpt>
      <trkpt lat="43.77186" lon="0.88511">
        <ele>195.586221</ele>
        <time>2023-01-01T14:20:55.507Z</time>
      </trkpt>
      <trkpt lat="43.77177" lon="0.88508">
        <ele>196.100712</ele>
        <time>2023-01-01T14:20:59.492Z</time>
      </trkpt>
      <trkpt lat="43.77167" lon="0.88504">
        <ele>196.6385</ele>
        <time>2023-01-01T14:21:04.498Z</time>
      </trkpt>
      <trkpt lat="43.77156" lon="0.88502">
        <ele>197.149048</ele>
        <time>2023-01-01T14:21:09.498Z</time>
      </trkpt>
      <trkpt lat="43.77145" lon="0.88499">
        <ele>197.650582</ele>
        <time>2023-01-01T14:21:14.518Z</time>
      </trkpt>
      <trkpt lat="43.77134" lon="0.88498">
        <ele>198.159633</ele>
        <time>2023-01-01T14:21:19.495Z</time>
      </trkpt>
      <trkpt lat="43.77124" lon="0.88496">
        <ele>198.6119</ele>
        <time>2023-01-01T14:21:23.498Z</time>
      </trkpt>
      <trkpt lat="43.77115" lon="0.88495">
        <ele>199.066544</ele>
        <time>2023-01-01T14:21:28.504Z</time>
      </trkpt>
      <trkpt lat="43.77105" lon="0.88493">
        <ele>199.537959</ele>
        <time>2023-01-01T14:21:33.509Z</time>
      </trkpt>
      <trkpt lat="43.77094" lon="0.88489">
        <ele>200.062516</ele>
        <time>2023-01-01T14:21:38.483Z</time>
      </trkpt>
      <trkpt lat="43.77084" lon="0.88487">
        <ele>200.518677</ele>
        <time>2023-01-01T14:21:42.493Z</time>
      </trkpt>
      <trkpt lat="43.77075" lon="0.88485">
        <ele>200.940688</ele>
        <time>2023-01-01T14:21:46.485Z</time>
      </trkpt>
      <trkpt lat="43.77064" lon="0.88483">
        <ele>201.442127</ele>
        <time>2023-01-01T14:21:50.501Z</time>
      </trkpt>
      <trkpt lat="43.77053" lon="0.88481">
        <ele>201.973895</ele>
        <time>2023-01-01T14:21:54.499Z</time>
      </trkpt>
      <trkpt lat="43.77042" lon="0.88479">
        <ele>202.488346</ele>
        <time>2023-01-01T14:21:58.499Z</time>
      </trkpt>
      <trkpt lat="43.7703" lon="0.88477">
        <ele>203.043539</ele>
        <time>2023-01-01T14:22:02.497Z</time>
      </trkpt>
      <trkpt lat="43.7702" lon="0.88476">
        <ele>203.495495</ele>
        <time>2023-01-01T14:22:05.490Z</time>
      </trkpt>
      <trkpt lat="43.77011" lon="0.88474">
        <ele>203.943064</ele>
        <time>2023-01-01T14:22:08.507Z</time>
      </trkpt>
      <trkpt lat="43.77001" lon="0.88472">
        <ele>204.391413</ele>
        <time>2023-01-01T14:22:11.489Z</time>
      </trkpt>
      <trkpt lat="43.76992" lon="0.88471">
        <ele>204.710199</ele>
        <time>2023-01-01T14:22:14.524Z</time>
      </trkpt>
      <trkpt lat="43.76982" lon="0.8847">
        <ele>204.941129</ele>
        <time>2023-01-01T14:22:17.501Z</time>
      </trkpt>
      <trkpt lat="43.76973" lon="0.88468">
        <ele>205.167993</ele>
        <time>2023-01-01T14:22:20.488Z</time>
      </trkpt>
      <trkpt lat="43.76963" lon="0.88467">
        <ele>205.406157</ele>
        <time>2023-01-01T14:22:23.505Z</time>
      </trkpt>
      <trkpt lat="43.76953" lon="0.88466">
        <ele>205.651412</ele>
        <time>2023-01-01T14:22:26.507Z</time>
      </trkpt>
      <trkpt lat="43.76944" lon="0.88464">
        <ele>205.880899</ele>
        <time>2023-01-01T14:22:29.505Z</time>
      </trkpt>
      <trkpt lat="43.76935" lon="0.88463">
        <ele>206.099778</ele>
        <time>2023-01-01T14:22:32.523Z</time>
      </trkpt>
      <trkpt lat="43.76923" lon="0.88461">
        <ele>206.384566</ele>
        <time>2023-01-01T14:22:36.498Z</time>
      </trkpt>
      <trkpt lat="43.76914" lon="0.8846">
        <ele>206.603138</ele>
        <time>2023-01-01T14:22:39.493Z</time>
      </trkpt>
      <trkpt lat="43.76902" lon="0.88459">
        <ele>206.894521</ele>
        <time>2023-01-01T14:22:43.488Z</time>
      </trkpt>
      <trkpt lat="43.76893" lon="0.88458">
        <ele>207.11581</ele>
        <time>2023-01-01T14:22:46.505Z</time>
      </trkpt>
      <trkpt lat="43.76883" lon="0.88457">
        <ele>207.344175</ele>
        <time>2023-01-01T14:22:49.511Z</time>
      </trkpt>
      <trkpt lat="43.76874" lon="0.88456">
        <ele>207.572273</ele>
        <time>2023-01-01T14:22:52.501Z</time>
      </trkpt>
      <trkpt lat="43.76865" lon="0.88455">
        <ele>207.793562</ele>
        <time>2023-01-01T14:22:55.501Z</time>
      </trkpt>
      <trkpt lat="43.76855" lon="0.88454">
        <ele>208.04538</ele>
        <time>2023-01-01T14:22:59.492Z</time>
      </trkpt>
      <trkpt lat="43.76844" lon="0.88452">
        <ele>208.311052</ele>
        <time>2023-01-01T14:23:03.501Z</time>
      </trkpt>
      <trkpt lat="43.76835" lon="0.88451">
        <ele>208.52977</ele>
        <time>2023-01-01T14:23:06.505Z</time>
      </trkpt>
      <trkpt lat="43.76825" lon="0.8845">
        <ele>208.757754</ele>
        <time>2023-01-01T14:23:09.504Z</time>
      </trkpt>
      <trkpt lat="43.76816" lon="0.88449">
        <ele>208.980917</ele>
        <time>2023-01-01T14:23:12.498Z</time>
      </trkpt>
      <trkpt lat="43.76807" lon="0.88448">
        <ele>209.218856</ele>
        <time>2023-01-01T14:23:15.486Z</time>
      </trkpt>
      <trkpt lat="43.76795" lon="0.88447">
        <ele>209.508007</ele>
        <time>2023-01-01T14:23:19.502Z</time>
      </trkpt>
      <trkpt lat="43.76786" lon="0.88446">
        <ele>209.737926</ele>
        <time>2023-01-01T14:23:22.492Z</time>
      </trkpt>
      <trkpt lat="43.76777" lon="0.88445">
        <ele>209.971079</ele>
        <time>2023-01-01T14:23:25.488Z</time>
      </trkpt>
      <trkpt lat="43.76768" lon="0.88445">
        <ele>210.209018</ele>
        <time>2023-01-01T14:23:28.509Z</time>
      </trkpt>
      <trkpt lat="43.76759" lon="0.88444">
        <ele>210.442171</ele>
        <time>2023-01-01T14:23:31.487Z</time>
      </trkpt>
      <trkpt lat="43.76749" lon="0.88443">
        <ele>210.695058</ele>
        <time>2023-01-01T14:23:34.493Z</time>
      </trkpt>
      <trkpt lat="43.76739" lon="0.88442">
        <ele>210.948504</ele>
        <time>2023-01-01T14:23:37.490Z</time>
      </trkpt>
      <trkpt lat="43.76729" lon="0.88442">
        <ele>211.186023</ele>
        <time>2023-01-01T14:23:40.494Z</time>
      </trkpt>
      <trkpt lat="43.7672" lon="0.88443">
        <ele>211.426878</ele>
        <time>2023-01-01T14:23:43.505Z</time>
      </trkpt>
      <trkpt lat="43.7671" lon="0.88446">
        <ele>211.671882</ele>
        <time>2023-01-01T14:23:46.487Z</time>
      </trkpt>
      <trkpt lat="43.76701" lon="0.88448">
        <ele>211.903107</ele>
        <time>2023-01-01T14:23:49.506Z</time>
      </trkpt>
      <trkpt lat="43.7669" lon="0.8845">
        <ele>212.195937</ele>
        <time>2023-01-01T14:23:53.500Z</time>
      </trkpt>
      <trkpt lat="43.76681" lon="0.88449">
        <ele>212.424053</ele>
        <time>2023-01-01T14:24:02.494Z</time>
      </trkpt>
      <trkpt lat="43.76681" lon="0.8845">
        <ele>212.440667</ele>
        <time>2023-01-01T14:24:13.821Z</time>
      </trkpt>
      <trkpt lat="43.7667" lon="0.8844">
        <ele>212.77208</ele>
        <time>2023-01-01T14:27:03.496Z</time>
      </trkpt>
      <trkpt lat="43.76658" lon="0.88439">
        <ele>213.072822</ele>
        <time>2023-01-01T14:27:07.496Z</time>
      </trkpt>
      <trkpt lat="43.76647" lon="0.88439">
        <ele>213.350833</ele>
        <time>2023-01-01T14:27:10.489Z</time>
      </trkpt>
      <trkpt lat="43.76636" lon="0.88439">
        <ele>213.382818</ele>
        <time>2023-01-01T14:27:13.486Z</time>
      </trkpt>
      <trkpt lat="43.76623" lon="0.88439">
        <ele>213.214656</ele>
        <time>2023-01-01T14:27:16.514Z</time>
      </trkpt>
      <trkpt lat="43.7661" lon="0.88438">
        <ele>213.032812</ele>
        <time>2023-01-01T14:27:19.508Z</time>
      </trkpt>
      <trkpt lat="43.766" lon="0.88437">
        <ele>212.901175</ele>
        <time>2023-01-01T14:27:21.519Z</time>
      </trkpt>
      <trkpt lat="43.7659" lon="0.88437">
        <ele>212.76434</ele>
        <time>2023-01-01T14:27:23.524Z</time>
      </trkpt>
      <trkpt lat="43.76579" lon="0.88435">
        <ele>212.615953</ele>
        <time>2023-01-01T14:27:25.496Z</time>
      </trkpt>
      <trkpt lat="43.76567" lon="0.88434">
        <ele>212.45574</ele>
        <time>2023-01-01T14:27:27.490Z</time>
      </trkpt>
      <trkpt lat="43.76555" lon="0.88432">
        <ele>212.289819</ele>
        <time>2023-01-01T14:27:29.491Z</time>
      </trkpt>
      <trkpt lat="43.76542" lon="0.8843">
        <ele>212.116181</ele>
        <time>2023-01-01T14:27:31.489Z</time>
      </trkpt>
      <trkpt lat="43.7653" lon="0.88428">
        <ele>211.943885</ele>
        <time>2023-01-01T14:27:33.490Z</time>
      </trkpt>
      <trkpt lat="43.76518" lon="0.88426">
        <ele>211.781496</ele>
        <time>2023-01-01T14:27:35.510Z</time>
      </trkpt>
      <trkpt lat="43.76506" lon="0.88424">
        <ele>211.623476</ele>
        <time>2023-01-01T14:27:37.497Z</time>
      </trkpt>
      <trkpt lat="43.76496" lon="0.88422">
        <ele>211.484523</ele>
        <time>2023-01-01T14:27:39.505Z</time>
      </trkpt>
      <trkpt lat="43.76487" lon="0.88421">
        <ele>211.354759</ele>
        <time>2023-01-01T14:27:41.488Z</time>
      </trkpt>
      <trkpt lat="43.76478" lon="0.88419">
        <ele>211.230613</ele>
        <time>2023-01-01T14:27:43.508Z</time>
      </trkpt>
      <trkpt lat="43.76469" lon="0.88417">
        <ele>211.107284</ele>
        <time>2023-01-01T14:27:45.502Z</time>
      </trkpt>
      <trkpt lat="43.76459" lon="0.88416">
        <ele>211.090304</ele>
        <time>2023-01-01T14:27:47.522Z</time>
      </trkpt>
      <trkpt lat="43.7645" lon="0.88414">
        <ele>211.21612</ele>
        <time>2023-01-01T14:27:49.505Z</time>
      </trkpt>
      <trkpt lat="43.76441" lon="0.88413">
        <ele>211.334159</ele>
        <time>2023-01-01T14:27:51.490Z</time>
      </trkpt>
      <trkpt lat="43.76428" lon="0.8841">
        <ele>211.504063</ele>
        <time>2023-01-01T14:27:54.501Z</time>
      </trkpt>
      <trkpt lat="43.76414" lon="0.88408">
        <ele>211.679822</ele>
        <time>2023-01-01T14:27:57.493Z</time>
      </trkpt>
      <trkpt lat="43.76405" lon="0.88407">
        <ele>211.798349</ele>
        <time>2023-01-01T14:27:59.508Z</time>
      </trkpt>
      <trkpt lat="43.76392" lon="0.88405">
        <ele>211.970247</ele>
        <time>2023-01-01T14:28:02.489Z</time>
      </trkpt>
      <trkpt lat="43.76383" lon="0.88404">
        <ele>212.0861</ele>
        <time>2023-01-01T14:28:04.486Z</time>
      </trkpt>
      <trkpt lat="43.7637" lon="0.88401">
        <ele>212.254595</ele>
        <time>2023-01-01T14:28:07.516Z</time>
      </trkpt>
      <trkpt lat="43.76358" lon="0.884">
        <ele>212.410749</ele>
        <time>2023-01-01T14:28:10.490Z</time>
      </trkpt>
      <trkpt lat="43.76347" lon="0.88397">
        <ele>212.556642</ele>
        <time>2023-01-01T14:28:13.512Z</time>
      </trkpt>
      <trkpt lat="43.76335" lon="0.88394">
        <ele>212.709072</ele>
        <time>2023-01-01T14:28:16.492Z</time>
      </trkpt>
      <trkpt lat="43.76323" lon="0.88392">
        <ele>212.863605</ele>
        <time>2023-01-01T14:28:19.496Z</time>
      </trkpt>
      <trkpt lat="43.76311" lon="0.8839">
        <ele>213.027784</ele>
        <time>2023-01-01T14:28:22.486Z</time>
      </trkpt>
      <trkpt lat="43.76299" lon="0.88388">
        <ele>213.187712</ele>
        <time>2023-01-01T14:28:25.487Z</time>
      </trkpt>
      <trkpt lat="43.76287" lon="0.88386">
        <ele>213.343255</ele>
        <time>2023-01-01T14:28:28.497Z</time>
      </trkpt>
      <trkpt lat="43.76275" lon="0.88384">
        <ele>213.50651</ele>
        <time>2023-01-01T14:28:31.504Z</time>
      </trkpt>
      <trkpt lat="43.76263" lon="0.88381">
        <ele>213.667248</ele>
        <time>2023-01-01T14:28:34.490Z</time>
      </trkpt>
      <trkpt lat="43.76252" lon="0.8838">
        <ele>213.824658</ele>
        <time>2023-01-01T14:28:37.499Z</time>
      </trkpt>
      <trkpt lat="43.76241" lon="0.88378">
        <ele>213.977676</ele>
        <time>2023-01-01T14:28:40.491Z</time>
      </trkpt>
      <trkpt lat="43.7623" lon="0.88376">
        <ele>214.129986</ele>
        <time>2023-01-01T14:28:43.487Z</time>
      </trkpt>
      <trkpt lat="43.76219" lon="0.88375">
        <ele>214.281831</ele>
        <time>2023-01-01T14:28:46.489Z</time>
      </trkpt>
      <trkpt lat="43.76207" lon="0.88373">
        <ele>214.438489</ele>
        <time>2023-01-01T14:28:49.504Z</time>
      </trkpt>
      <trkpt lat="43.76196" lon="0.88371">
        <ele>214.597373</ele>
        <time>2023-01-01T14:28:52.484Z</time>
      </trkpt>
      <trkpt lat="43.76184" lon="0.88369">
        <ele>214.754493</ele>
        <time>2023-01-01T14:28:55.505Z</time>
      </trkpt>
      <trkpt lat="43.76173" lon="0.88367">
        <ele>214.908576</ele>
        <time>2023-01-01T14:28:58.500Z</time>
      </trkpt>
      <trkpt lat="43.76162" lon="0.88365">
        <ele>215.068616</ele>
        <time>2023-01-01T14:29:01.485Z</time>
      </trkpt>
      <trkpt lat="43.7615" lon="0.88364">
        <ele>215.228387</ele>
        <time>2023-01-01T14:29:04.485Z</time>
      </trkpt>
      <trkpt lat="43.76138" lon="0.88364">
        <ele>215.389121</ele>
        <time>2023-01-01T14:29:07.496Z</time>
      </trkpt>
      <trkpt lat="43.76127" lon="0.88363">
        <ele>215.551312</ele>
        <time>2023-01-01T14:29:10.496Z</time>
      </trkpt>
      <trkpt lat="43.76115" lon="0.88362">
        <ele>215.706701</ele>
        <time>2023-01-01T14:29:13.504Z</time>
      </trkpt>
      <trkpt lat="43.76104" lon="0.88361">
        <ele>215.84946</ele>
        <time>2023-01-01T14:29:16.490Z</time>
      </trkpt>
      <trkpt lat="43.76092" lon="0.8836">
        <ele>215.924481</ele>
        <time>2023-01-01T14:29:19.485Z</time>
      </trkpt>
      <trkpt lat="43.76081" lon="0.8836">
        <ele>216.000573</ele>
        <time>2023-01-01T14:29:22.499Z</time>
      </trkpt>
      <trkpt lat="43.76069" lon="0.8836">
        <ele>216.075378</ele>
        <time>2023-01-01T14:29:25.489Z</time>
      </trkpt>
      <trkpt lat="43.76058" lon="0.88361">
        <ele>216.150839</ele>
        <time>2023-01-01T14:29:28.517Z</time>
      </trkpt>
      <trkpt lat="43.76047" lon="0.88361">
        <ele>216.224295</ele>
        <time>2023-01-01T14:29:31.504Z</time>
      </trkpt>
      <trkpt lat="43.76036" lon="0.88361">
        <ele>216.297094</ele>
        <time>2023-01-01T14:29:34.502Z</time>
      </trkpt>
      <trkpt lat="43.76024" lon="0.88361">
        <ele>216.371212</ele>
        <time>2023-01-01T14:29:37.486Z</time>
      </trkpt>
      <trkpt lat="43.76013" lon="0.8836">
        <ele>216.445337</ele>
        <time>2023-01-01T14:29:40.496Z</time>
      </trkpt>
      <trkpt lat="43.76001" lon="0.88359">
        <ele>216.520974</ele>
        <time>2023-01-01T14:29:43.505Z</time>
      </trkpt>
      <trkpt lat="43.7599" lon="0.88358">
        <ele>216.59792</ele>
        <time>2023-01-01T14:29:46.493Z</time>
      </trkpt>
      <trkpt lat="43.75978" lon="0.88356">
        <ele>216.674424</ele>
        <time>2023-01-01T14:29:49.504Z</time>
      </trkpt>
      <trkpt lat="43.75967" lon="0.88355">
        <ele>216.747378</ele>
        <time>2023-01-01T14:29:52.506Z</time>
      </trkpt>
      <trkpt lat="43.75956" lon="0.88353">
        <ele>216.820081</ele>
        <time>2023-01-01T14:29:55.489Z</time>
      </trkpt>
      <trkpt lat="43.75945" lon="0.88351">
        <ele>216.890894</ele>
        <time>2023-01-01T14:29:58.503Z</time>
      </trkpt>
      <trkpt lat="43.75934" lon="0.8835">
        <ele>216.965302</ele>
        <time>2023-01-01T14:30:01.500Z</time>
      </trkpt>
      <trkpt lat="43.75922" lon="0.88349">
        <ele>217.040488</ele>
        <time>2023-01-01T14:30:04.495Z</time>
      </trkpt>
      <trkpt lat="43.75911" lon="0.88347">
        <ele>217.112814</ele>
        <time>2023-01-01T14:30:07.506Z</time>
      </trkpt>
      <trkpt lat="43.75898" lon="0.88345">
        <ele>217.189566</ele>
        <time>2023-01-01T14:30:10.494Z</time>
      </trkpt>
      <trkpt lat="43.75885" lon="0.88342">
        <ele>217.271971</ele>
        <time>2023-01-01T14:30:13.507Z</time>
      </trkpt>
      <trkpt lat="43.75876" lon="0.88341">
        <ele>217.330273</ele>
        <time>2023-01-01T14:30:15.511Z</time>
      </trkpt>
      <trkpt lat="43.75866" lon="0.8834">
        <ele>217.38762</ele>
        <time>2023-01-01T14:30:17.489Z</time>
      </trkpt>
      <trkpt lat="43.75856" lon="0.88338">
        <ele>217.448149</ele>
        <time>2023-01-01T14:30:19.497Z</time>
      </trkpt>
      <trkpt lat="43.75846" lon="0.88337">
        <ele>217.511124</ele>
        <time>2023-01-01T14:30:21.500Z</time>
      </trkpt>
      <trkpt lat="43.75836" lon="0.88335">
        <ele>217.571701</ele>
        <time>2023-01-01T14:30:23.492Z</time>
      </trkpt>
      <trkpt lat="43.75826" lon="0.88333">
        <ele>217.633657</ele>
        <time>2023-01-01T14:30:25.504Z</time>
      </trkpt>
      <trkpt lat="43.75817" lon="0.88331">
        <ele>217.69155</ele>
        <time>2023-01-01T14:30:27.520Z</time>
      </trkpt>
      <trkpt lat="43.75804" lon="0.88329">
        <ele>217.77268</ele>
        <time>2023-01-01T14:30:30.493Z</time>
      </trkpt>
      <trkpt lat="43.75795" lon="0.88328">
        <ele>217.828842</ele>
        <time>2023-01-01T14:30:32.513Z</time>
      </trkpt>
      <trkpt lat="43.75782" lon="0.88326">
        <ele>217.908644</ele>
        <time>2023-01-01T14:30:35.502Z</time>
      </trkpt>
      <trkpt lat="43.7577" lon="0.88323">
        <ele>217.984292</ele>
        <time>2023-01-01T14:30:38.487Z</time>
      </trkpt>
      <trkpt lat="43.75758" lon="0.88322">
        <ele>218.055396</ele>
        <time>2023-01-01T14:30:41.510Z</time>
      </trkpt>
      <trkpt lat="43.75747" lon="0.8832">
        <ele>218.147009</ele>
        <time>2023-01-01T14:30:44.503Z</time>
      </trkpt>
      <trkpt lat="43.75736" lon="0.88319">
        <ele>218.481131</ele>
        <time>2023-01-01T14:30:47.483Z</time>
      </trkpt>
      <trkpt lat="43.75726" lon="0.88317">
        <ele>218.813428</ele>
        <time>2023-01-01T14:30:50.490Z</time>
      </trkpt>
      <trkpt lat="43.75715" lon="0.88316">
        <ele>219.14882</ele>
        <time>2023-01-01T14:30:53.492Z</time>
      </trkpt>
      <trkpt lat="43.75705" lon="0.88315">
        <ele>219.473181</ele>
        <time>2023-01-01T14:30:56.500Z</time>
      </trkpt>
      <trkpt lat="43.75694" lon="0.88313">
        <ele>219.805228</ele>
        <time>2023-01-01T14:30:59.484Z</time>
      </trkpt>
      <trkpt lat="43.75684" lon="0.88312">
        <ele>220.136611</ele>
        <time>2023-01-01T14:31:02.505Z</time>
      </trkpt>
      <trkpt lat="43.75674" lon="0.8831">
        <ele>220.44755</ele>
        <time>2023-01-01T14:31:05.491Z</time>
      </trkpt>
      <trkpt lat="43.75664" lon="0.88308">
        <ele>220.758489</ele>
        <time>2023-01-01T14:31:08.509Z</time>
      </trkpt>
      <trkpt lat="43.75654" lon="0.88306">
        <ele>221.060804</ele>
        <time>2023-01-01T14:31:11.512Z</time>
      </trkpt>
      <trkpt lat="43.75645" lon="0.88305">
        <ele>221.342833</ele>
        <time>2023-01-01T14:31:14.492Z</time>
      </trkpt>
      <trkpt lat="43.75636" lon="0.88304">
        <ele>221.627956</ele>
        <time>2023-01-01T14:31:17.485Z</time>
      </trkpt>
      <trkpt lat="43.75624" lon="0.88302">
        <ele>221.998159</ele>
        <time>2023-01-01T14:31:21.487Z</time>
      </trkpt>
      <trkpt lat="43.75612" lon="0.883">
        <ele>222.368641</ele>
        <time>2023-01-01T14:31:25.492Z</time>
      </trkpt>
      <trkpt lat="43.75603" lon="0.88299">
        <ele>222.652743</ele>
        <time>2023-01-01T14:31:28.510Z</time>
      </trkpt>
      <trkpt lat="43.75595" lon="0.88297">
        <ele>222.930821</ele>
        <time>2023-01-01T14:31:31.504Z</time>
      </trkpt>
      <trkpt lat="43.75585" lon="0.88295">
        <ele>223.219566</ele>
        <time>2023-01-01T14:31:34.488Z</time>
      </trkpt>
      <trkpt lat="43.75574" lon="0.88293">
        <ele>223.58696</ele>
        <time>2023-01-01T14:31:38.484Z</time>
      </trkpt>
      <trkpt lat="43.75562" lon="0.88291">
        <ele>223.658205</ele>
        <time>2023-01-01T14:31:42.484Z</time>
      </trkpt>
      <trkpt lat="43.7555" lon="0.8829">
        <ele>223.560397</ele>
        <time>2023-01-01T14:31:46.511Z</time>
      </trkpt>
      <trkpt lat="43.75541" lon="0.88289">
        <ele>223.485871</ele>
        <time>2023-01-01T14:31:49.493Z</time>
      </trkpt>
      <trkpt lat="43.75532" lon="0.88287">
        <ele>223.41036</ele>
        <time>2023-01-01T14:31:52.495Z</time>
      </trkpt>
      <trkpt lat="43.75523" lon="0.88286">
        <ele>223.333264</ele>
        <time>2023-01-01T14:31:55.496Z</time>
      </trkpt>
      <trkpt lat="43.75513" lon="0.88286">
        <ele>223.254023</ele>
        <time>2023-01-01T14:31:58.494Z</time>
      </trkpt>
      <trkpt lat="43.75503" lon="0.88286">
        <ele>223.173938</ele>
        <time>2023-01-01T14:32:01.487Z</time>
      </trkpt>
      <trkpt lat="43.75494" lon="0.88288">
        <ele>223.096656</ele>
        <time>2023-01-01T14:32:04.505Z</time>
      </trkpt>
      <trkpt lat="43.75484" lon="0.88289">
        <ele>223.0155</ele>
        <time>2023-01-01T14:32:07.493Z</time>
      </trkpt>
      <trkpt lat="43.75473" lon="0.8829">
        <ele>222.922822</ele>
        <time>2023-01-01T14:32:10.498Z</time>
      </trkpt>
      <trkpt lat="43.75461" lon="0.88291">
        <ele>222.818486</ele>
        <time>2023-01-01T14:32:13.506Z</time>
      </trkpt>
      <trkpt lat="43.75448" lon="0.88293">
        <ele>222.711681</ele>
        <time>2023-01-01T14:32:16.484Z</time>
      </trkpt>
      <trkpt lat="43.75435" lon="0.88295">
        <ele>222.602961</ele>
        <time>2023-01-01T14:32:19.485Z</time>
      </trkpt>
      <trkpt lat="43.75421" lon="0.88296">
        <ele>222.494412</ele>
        <time>2023-01-01T14:32:22.487Z</time>
      </trkpt>
      <trkpt lat="43.75409" lon="0.88298">
        <ele>222.390122</ele>
        <time>2023-01-01T14:32:25.486Z</time>
      </trkpt>
      <trkpt lat="43.75397" lon="0.88299">
        <ele>222.288254</ele>
        <time>2023-01-01T14:32:28.489Z</time>
      </trkpt>
      <trkpt lat="43.75384" lon="0.88301">
        <ele>222.119166</ele>
        <time>2023-01-01T14:32:31.492Z</time>
      </trkpt>
      <trkpt lat="43.75371" lon="0.88304">
        <ele>221.852997</ele>
        <time>2023-01-01T14:32:34.487Z</time>
      </trkpt>
      <trkpt lat="43.75361" lon="0.88305">
        <ele>221.662409</ele>
        <time>2023-01-01T14:32:36.496Z</time>
      </trkpt>
      <trkpt lat="43.75352" lon="0.88306">
        <ele>221.471934</ele>
        <time>2023-01-01T14:32:38.504Z</time>
      </trkpt>
      <trkpt lat="43.75342" lon="0.88307">
        <ele>221.27489</ele>
        <time>2023-01-01T14:32:40.494Z</time>
      </trkpt>
      <trkpt lat="43.75332" lon="0.88308">
        <ele>221.082633</ele>
        <time>2023-01-01T14:32:42.491Z</time>
      </trkpt>
      <trkpt lat="43.75323" lon="0.8831">
        <ele>220.900551</ele>
        <time>2023-01-01T14:32:44.509Z</time>
      </trkpt>
      <trkpt lat="43.75314" lon="0.88311">
        <ele>220.715878</ele>
        <time>2023-01-01T14:32:46.520Z</time>
      </trkpt>
      <trkpt lat="43.75301" lon="0.88312">
        <ele>220.456297</ele>
        <time>2023-01-01T14:32:49.489Z</time>
      </trkpt>
      <trkpt lat="43.75288" lon="0.88314">
        <ele>220.20976</ele>
        <time>2023-01-01T14:32:52.494Z</time>
      </trkpt>
      <trkpt lat="43.75276" lon="0.88315">
        <ele>219.959546</ele>
        <time>2023-01-01T14:32:55.492Z</time>
      </trkpt>
      <trkpt lat="43.75262" lon="0.88317">
        <ele>219.691343</ele>
        <time>2023-01-01T14:32:58.503Z</time>
      </trkpt>
      <trkpt lat="43.75253" lon="0.88318">
        <ele>219.508512</ele>
        <time>2023-01-01T14:33:00.520Z</time>
      </trkpt>
      <trkpt lat="43.75244" lon="0.88319">
        <ele>219.32406</ele>
        <time>2023-01-01T14:33:02.510Z</time>
      </trkpt>
      <trkpt lat="43.75234" lon="0.8832">
        <ele>219.139503</ele>
        <time>2023-01-01T14:33:04.503Z</time>
      </trkpt>
      <trkpt lat="43.75225" lon="0.88321">
        <ele>218.950763</ele>
        <time>2023-01-01T14:33:06.506Z</time>
      </trkpt>
      <trkpt lat="43.75215" lon="0.88323">
        <ele>218.758081</ele>
        <time>2023-01-01T14:33:08.502Z</time>
      </trkpt>
      <trkpt lat="43.75205" lon="0.88324">
        <ele>218.556532</ele>
        <time>2023-01-01T14:33:10.519Z</time>
      </trkpt>
      <trkpt lat="43.75196" lon="0.88325">
        <ele>218.350931</ele>
        <time>2023-01-01T14:33:12.532Z</time>
      </trkpt>
      <trkpt lat="43.75186" lon="0.88327">
        <ele>218.144754</ele>
        <time>2023-01-01T14:33:14.523Z</time>
      </trkpt>
      <trkpt lat="43.75177" lon="0.88328">
        <ele>217.950861</ele>
        <time>2023-01-01T14:33:16.504Z</time>
      </trkpt>
      <trkpt lat="43.75163" lon="0.8833">
        <ele>217.669337</ele>
        <time>2023-01-01T14:33:19.495Z</time>
      </trkpt>
      <trkpt lat="43.7515" lon="0.88332">
        <ele>217.393742</ele>
        <time>2023-01-01T14:33:22.500Z</time>
      </trkpt>
      <trkpt lat="43.75137" lon="0.88334">
        <ele>217.11236</ele>
        <time>2023-01-01T14:33:25.508Z</time>
      </trkpt>
      <trkpt lat="43.75128" lon="0.88335">
        <ele>216.925219</ele>
        <time>2023-01-01T14:33:27.488Z</time>
      </trkpt>
      <trkpt lat="43.75115" lon="0.88337">
        <ele>216.649624</ele>
        <time>2023-01-01T14:33:30.491Z</time>
      </trkpt>
      <trkpt lat="43.75106" lon="0.88338">
        <ele>216.459118</ele>
        <time>2023-01-01T14:33:32.486Z</time>
      </trkpt>
      <trkpt lat="43.75097" lon="0.88339">
        <ele>216.268104</ele>
        <time>2023-01-01T14:33:34.509Z</time>
      </trkpt>
      <trkpt lat="43.75087" lon="0.8834">
        <ele>216.070406</ele>
        <time>2023-01-01T14:33:36.493Z</time>
      </trkpt>
      <trkpt lat="43.75078" lon="0.88341">
        <ele>215.881716</ele>
        <time>2023-01-01T14:33:38.489Z</time>
      </trkpt>
      <trkpt lat="43.75069" lon="0.88342">
        <ele>215.688956</ele>
        <time>2023-01-01T14:33:40.510Z</time>
      </trkpt>
      <trkpt lat="43.7506" lon="0.88343">
        <ele>215.495244</ele>
        <time>2023-01-01T14:33:42.494Z</time>
      </trkpt>
      <trkpt lat="43.7505" lon="0.88345">
        <ele>215.289228</ele>
        <time>2023-01-01T14:33:44.494Z</time>
      </trkpt>
      <trkpt lat="43.7504" lon="0.88344">
        <ele>215.081857</ele>
        <time>2023-01-01T14:33:46.492Z</time>
      </trkpt>
      <trkpt lat="43.7503" lon="0.88343">
        <ele>214.899063</ele>
        <time>2023-01-01T14:33:48.499Z</time>
      </trkpt>
      <trkpt lat="43.7502" lon="0.88343">
        <ele>214.82084</ele>
        <time>2023-01-01T14:33:50.490Z</time>
      </trkpt>
      <trkpt lat="43.75009" lon="0.88341">
        <ele>214.740809</ele>
        <time>2023-01-01T14:33:52.503Z</time>
      </trkpt>
      <trkpt lat="43.74998" lon="0.88339">
        <ele>214.661023</ele>
        <time>2023-01-01T14:33:54.505Z</time>
      </trkpt>
      <trkpt lat="43.74988" lon="0.88337">
        <ele>214.582057</ele>
        <time>2023-01-01T14:33:56.514Z</time>
      </trkpt>
      <trkpt lat="43.74978" lon="0.88335">
        <ele>214.504987</ele>
        <time>2023-01-01T14:33:58.503Z</time>
      </trkpt>
      <trkpt lat="43.74967" lon="0.88332">
        <ele>214.421512</ele>
        <time>2023-01-01T14:34:00.491Z</time>
      </trkpt>
      <trkpt lat="43.74957" lon="0.88329">
        <ele>214.340881</ele>
        <time>2023-01-01T14:34:02.502Z</time>
      </trkpt>
      <trkpt lat="43.74946" lon="0.88326">
        <ele>214.261978</ele>
        <time>2023-01-01T14:34:04.491Z</time>
      </trkpt>
      <trkpt lat="43.74936" lon="0.88322">
        <ele>214.183542</ele>
        <time>2023-01-01T14:34:06.493Z</time>
      </trkpt>
      <trkpt lat="43.74927" lon="0.88318">
        <ele>214.106775</ele>
        <time>2023-01-01T14:34:08.487Z</time>
      </trkpt>
      <trkpt lat="43.74917" lon="0.88314">
        <ele>214.033843</ele>
        <time>2023-01-01T14:34:10.494Z</time>
      </trkpt>
      <trkpt lat="43.74908" lon="0.88311">
        <ele>213.963363</ele>
        <time>2023-01-01T14:34:12.516Z</time>
      </trkpt>
      <trkpt lat="43.74895" lon="0.88306">
        <ele>213.863486</ele>
        <time>2023-01-01T14:34:15.493Z</time>
      </trkpt>
      <trkpt lat="43.74886" lon="0.88303">
        <ele>213.794919</ele>
        <time>2023-01-01T14:34:17.487Z</time>
      </trkpt>
      <trkpt lat="43.74878" lon="0.883">
        <ele>213.726352</ele>
        <time>2023-01-01T14:34:19.510Z</time>
      </trkpt>
      <trkpt lat="43.74868" lon="0.88296">
        <ele>213.654148</ele>
        <time>2023-01-01T14:34:21.496Z</time>
      </trkpt>
      <trkpt lat="43.7486" lon="0.88292">
        <ele>213.585538</ele>
        <time>2023-01-01T14:34:23.502Z</time>
      </trkpt>
      <trkpt lat="43.74851" lon="0.88289">
        <ele>213.720019</ele>
        <time>2023-01-01T14:34:25.487Z</time>
      </trkpt>
      <trkpt lat="43.74838" lon="0.88285">
        <ele>214.043213</ele>
        <time>2023-01-01T14:34:28.507Z</time>
      </trkpt>
      <trkpt lat="43.74827" lon="0.88281">
        <ele>214.328023</ele>
        <time>2023-01-01T14:34:31.485Z</time>
      </trkpt>
      <trkpt lat="43.74816" lon="0.88276">
        <ele>214.624899</ele>
        <time>2023-01-01T14:34:34.503Z</time>
      </trkpt>
      <trkpt lat="43.74804" lon="0.88272">
        <ele>214.918873</ele>
        <time>2023-01-01T14:34:37.494Z</time>
      </trkpt>
      <trkpt lat="43.74793" lon="0.88267">
        <ele>215.212846</ele>
        <time>2023-01-01T14:34:40.492Z</time>
      </trkpt>
      <trkpt lat="43.74783" lon="0.88263">
        <ele>215.479423</ele>
        <time>2023-01-01T14:34:43.489Z</time>
      </trkpt>
      <trkpt lat="43.74774" lon="0.88259">
        <ele>215.709891</ele>
        <time>2023-01-01T14:34:46.511Z</time>
      </trkpt>
      <trkpt lat="43.74763" lon="0.88255">
        <ele>215.992766</ele>
        <time>2023-01-01T14:34:50.491Z</time>
      </trkpt>
      <trkpt lat="43.74752" lon="0.88252">
        <ele>216.272113</ele>
        <time>2023-01-01T14:34:54.491Z</time>
      </trkpt>
      <trkpt lat="43.74741" lon="0.88249">
        <ele>216.549281</ele>
        <time>2023-01-01T14:34:58.501Z</time>
      </trkpt>
      <trkpt lat="43.74731" lon="0.88245">
        <ele>216.825795</ele>
        <time>2023-01-01T14:35:02.489Z</time>
      </trkpt>
      <trkpt lat="43.7472" lon="0.88244">
        <ele>217.08906</ele>
        <time>2023-01-01T14:35:06.489Z</time>
      </trkpt>
      <trkpt lat="43.74709" lon="0.88244">
        <ele>217.359075</ele>
        <time>2023-01-01T14:35:10.490Z</time>
      </trkpt>
      <trkpt lat="43.74698" lon="0.88245">
        <ele>217.634113</ele>
        <time>2023-01-01T14:35:14.510Z</time>
      </trkpt>
      <trkpt lat="43.74687" lon="0.88246">
        <ele>217.916009</ele>
        <time>2023-01-01T14:35:18.497Z</time>
      </trkpt>
      <trkpt lat="43.74678" lon="0.88248">
        <ele>218.089446</ele>
        <time>2023-01-01T14:35:21.497Z</time>
      </trkpt>
      <trkpt lat="43.74668" lon="0.88251">
        <ele>218.170917</ele>
        <time>2023-01-01T14:35:24.488Z</time>
      </trkpt>
      <trkpt lat="43.74658" lon="0.88255">
        <ele>218.25728</ele>
        <time>2023-01-01T14:35:27.513Z</time>
      </trkpt>
      <trkpt lat="43.74647" lon="0.88258">
        <ele>218.34379</ele>
        <time>2023-01-01T14:35:30.489Z</time>
      </trkpt>
      <trkpt lat="43.74637" lon="0.88262">
        <ele>218.43345</ele>
        <time>2023-01-01T14:35:33.484Z</time>
      </trkpt>
      <trkpt lat="43.74626" lon="0.88266">
        <ele>218.525592</ele>
        <time>2023-01-01T14:35:36.493Z</time>
      </trkpt>
      <trkpt lat="43.74615" lon="0.88271">
        <ele>218.620082</ele>
        <time>2023-01-01T14:35:39.490Z</time>
      </trkpt>
      <trkpt lat="43.74603" lon="0.88275">
        <ele>218.718802</ele>
        <time>2023-01-01T14:35:42.487Z</time>
      </trkpt>
      <trkpt lat="43.74591" lon="0.8828">
        <ele>218.81909</ele>
        <time>2023-01-01T14:35:45.507Z</time>
      </trkpt>
      <trkpt lat="43.74579" lon="0.88284">
        <ele>218.918141</ele>
        <time>2023-01-01T14:35:48.481Z</time>
      </trkpt>
      <trkpt lat="43.74567" lon="0.88288">
        <ele>219.018768</ele>
        <time>2023-01-01T14:35:51.489Z</time>
      </trkpt>
      <trkpt lat="43.74555" lon="0.88293">
        <ele>219.120625</ele>
        <time>2023-01-01T14:35:54.505Z</time>
      </trkpt>
      <trkpt lat="43.74542" lon="0.88297">
        <ele>219.227057</ele>
        <time>2023-01-01T14:35:57.490Z</time>
      </trkpt>
      <trkpt lat="43.7453" lon="0.88302">
        <ele>219.335023</ele>
        <time>2023-01-01T14:36:00.489Z</time>
      </trkpt>
      <trkpt lat="43.74517" lon="0.88306">
        <ele>219.440666</ele>
        <time>2023-01-01T14:36:03.492Z</time>
      </trkpt>
      <trkpt lat="43.74504" lon="0.88312">
        <ele>219.50321</ele>
        <time>2023-01-01T14:36:06.481Z</time>
      </trkpt>
      <trkpt lat="43.74492" lon="0.88316">
        <ele>219.425055</ele>
        <time>2023-01-01T14:36:09.502Z</time>
      </trkpt>
      <trkpt lat="43.74479" lon="0.88321">
        <ele>219.350431</ele>
        <time>2023-01-01T14:36:12.495Z</time>
      </trkpt>
      <trkpt lat="43.74467" lon="0.88325">
        <ele>219.27711</ele>
        <time>2023-01-01T14:36:15.509Z</time>
      </trkpt>
      <trkpt lat="43.74455" lon="0.8833">
        <ele>219.200552</ele>
        <time>2023-01-01T14:36:18.512Z</time>
      </trkpt>
      <trkpt lat="43.74446" lon="0.88333">
        <ele>219.146063</ele>
        <time>2023-01-01T14:36:20.500Z</time>
      </trkpt>
      <trkpt lat="43.74437" lon="0.88336">
        <ele>219.089974</ele>
        <time>2023-01-01T14:36:22.495Z</time>
      </trkpt>
      <trkpt lat="43.74428" lon="0.8834">
        <ele>219.033433</ele>
        <time>2023-01-01T14:36:24.495Z</time>
      </trkpt>
      <trkpt lat="43.74418" lon="0.88343">
        <ele>218.9762</ele>
        <time>2023-01-01T14:36:26.507Z</time>
      </trkpt>
      <trkpt lat="43.74409" lon="0.88347">
        <ele>218.917501</ele>
        <time>2023-01-01T14:36:28.504Z</time>
      </trkpt>
      <trkpt lat="43.74399" lon="0.88351">
        <ele>218.858455</ele>
        <time>2023-01-01T14:36:30.507Z</time>
      </trkpt>
      <trkpt lat="43.74389" lon="0.88355">
        <ele>218.796781</ele>
        <time>2023-01-01T14:36:32.511Z</time>
      </trkpt>
      <trkpt lat="43.74379" lon="0.88359">
        <ele>218.7358</ele>
        <time>2023-01-01T14:36:34.502Z</time>
      </trkpt>
      <trkpt lat="43.74369" lon="0.88363">
        <ele>218.675944</ele>
        <time>2023-01-01T14:36:36.509Z</time>
      </trkpt>
      <trkpt lat="43.7436" lon="0.88367">
        <ele>218.6177</ele>
        <time>2023-01-01T14:36:38.511Z</time>
      </trkpt>
      <trkpt lat="43.7435" lon="0.8837">
        <ele>218.557029</ele>
        <time>2023-01-01T14:36:40.519Z</time>
      </trkpt>
      <trkpt lat="43.7434" lon="0.88373">
        <ele>218.495582</ele>
        <time>2023-01-01T14:36:42.500Z</time>
      </trkpt>
      <trkpt lat="43.7433" lon="0.88377">
        <ele>218.401923</ele>
        <time>2023-01-01T14:36:44.521Z</time>
      </trkpt>
      <trkpt lat="43.74319" lon="0.88381">
        <ele>218.251988</ele>
        <time>2023-01-01T14:36:46.508Z</time>
      </trkpt>
      <trkpt lat="43.74308" lon="0.88386">
        <ele>218.094065</ele>
        <time>2023-01-01T14:36:48.502Z</time>
      </trkpt>
      <trkpt lat="43.74298" lon="0.8839">
        <ele>217.940322</ele>
        <time>2023-01-01T14:36:50.493Z</time>
      </trkpt>
      <trkpt lat="43.74287" lon="0.88393">
        <ele>217.787466</ele>
        <time>2023-01-01T14:36:52.491Z</time>
      </trkpt>
      <trkpt lat="43.74276" lon="0.88397">
        <ele>217.631031</ele>
        <time>2023-01-01T14:36:54.512Z</time>
      </trkpt>
      <trkpt lat="43.74265" lon="0.88401">
        <ele>217.478394</ele>
        <time>2023-01-01T14:36:56.525Z</time>
      </trkpt>
      <trkpt lat="43.74256" lon="0.88405">
        <ele>217.340064</ele>
        <time>2023-01-01T14:36:58.510Z</time>
      </trkpt>
      <trkpt lat="43.74246" lon="0.88408">
        <ele>217.203404</ele>
        <time>2023-01-01T14:37:00.490Z</time>
      </trkpt>
      <trkpt lat="43.74237" lon="0.88412">
        <ele>217.068623</ele>
        <time>2023-01-01T14:37:02.508Z</time>
      </trkpt>
      <trkpt lat="43.74227" lon="0.88415">
        <ele>216.930332</ele>
        <time>2023-01-01T14:37:04.493Z</time>
      </trkpt>
      <trkpt lat="43.74217" lon="0.88419">
        <ele>216.784142</ele>
        <time>2023-01-01T14:37:06.513Z</time>
      </trkpt>
      <trkpt lat="43.74207" lon="0.88423">
        <ele>216.636862</ele>
        <time>2023-01-01T14:37:08.508Z</time>
      </trkpt>
      <trkpt lat="43.74196" lon="0.88427">
        <ele>216.481605</ele>
        <time>2023-01-01T14:37:10.496Z</time>
      </trkpt>
      <trkpt lat="43.74185" lon="0.88432">
        <ele>216.32551</ele>
        <time>2023-01-01T14:37:12.504Z</time>
      </trkpt>
      <trkpt lat="43.74174" lon="0.88436">
        <ele>216.162212</ele>
        <time>2023-01-01T14:37:14.512Z</time>
      </trkpt>
      <trkpt lat="43.74163" lon="0.8844">
        <ele>216.007483</ele>
        <time>2023-01-01T14:37:16.501Z</time>
      </trkpt>
      <trkpt lat="43.74152" lon="0.88444">
        <ele>216.057874</ele>
        <time>2023-01-01T14:37:18.493Z</time>
      </trkpt>
      <trkpt lat="43.74141" lon="0.88448">
        <ele>216.159775</ele>
        <time>2023-01-01T14:37:20.512Z</time>
      </trkpt>
      <trkpt lat="43.74131" lon="0.88452">
        <ele>216.263601</ele>
        <time>2023-01-01T14:37:22.504Z</time>
      </trkpt>
      <trkpt lat="43.7412" lon="0.88455">
        <ele>216.371192</ele>
        <time>2023-01-01T14:37:24.504Z</time>
      </trkpt>
      <trkpt lat="43.74109" lon="0.88459">
        <ele>216.470069</ele>
        <time>2023-01-01T14:37:26.509Z</time>
      </trkpt>
      <trkpt lat="43.74099" lon="0.88462">
        <ele>216.57197</ele>
        <time>2023-01-01T14:37:28.491Z</time>
      </trkpt>
      <trkpt lat="43.74089" lon="0.88466">
        <ele>216.670029</ele>
        <time>2023-01-01T14:37:30.516Z</time>
      </trkpt>
      <trkpt lat="43.74079" lon="0.88468">
        <ele>216.766452</ele>
        <time>2023-01-01T14:37:32.505Z</time>
      </trkpt>
      <trkpt lat="43.74069" lon="0.88471">
        <ele>216.860887</ele>
        <time>2023-01-01T14:37:34.490Z</time>
      </trkpt>
      <trkpt lat="43.74059" lon="0.88473">
        <ele>216.958692</ele>
        <time>2023-01-01T14:37:36.489Z</time>
      </trkpt>
      <trkpt lat="43.74049" lon="0.88475">
        <ele>217.048597</ele>
        <time>2023-01-01T14:37:38.496Z</time>
      </trkpt>
      <trkpt lat="43.7404" lon="0.88477">
        <ele>217.139343</ele>
        <time>2023-01-01T14:37:40.499Z</time>
      </trkpt>
      <trkpt lat="43.74031" lon="0.88478">
        <ele>217.228747</ele>
        <time>2023-01-01T14:37:42.502Z</time>
      </trkpt>
      <trkpt lat="43.74022" lon="0.8848">
        <ele>217.314538</ele>
        <time>2023-01-01T14:37:44.492Z</time>
      </trkpt>
      <trkpt lat="43.74008" lon="0.88482">
        <ele>217.439883</ele>
        <time>2023-01-01T14:37:47.510Z</time>
      </trkpt>
      <trkpt lat="43.73995" lon="0.88484">
        <ele>217.568376</ele>
        <time>2023-01-01T14:37:50.504Z</time>
      </trkpt>
      <trkpt lat="43.73986" lon="0.88485">
        <ele>217.656457</ele>
        <time>2023-01-01T14:37:52.496Z</time>
      </trkpt>
      <trkpt lat="43.73976" lon="0.88486">
        <ele>217.614661</ele>
        <time>2023-01-01T14:37:54.506Z</time>
      </trkpt>
      <trkpt lat="43.73967" lon="0.88488">
        <ele>217.543485</ele>
        <time>2023-01-01T14:37:56.501Z</time>
      </trkpt>
      <trkpt lat="43.73954" lon="0.8849">
        <ele>217.442642</ele>
        <time>2023-01-01T14:37:59.493Z</time>
      </trkpt>
      <trkpt lat="43.73941" lon="0.8849">
        <ele>217.33939</ele>
        <time>2023-01-01T14:38:02.489Z</time>
      </trkpt>
      <trkpt lat="43.73931" lon="0.88491">
        <ele>217.2677</ele>
        <time>2023-01-01T14:38:04.487Z</time>
      </trkpt>
      <trkpt lat="43.73922" lon="0.88492">
        <ele>217.195907</ele>
        <time>2023-01-01T14:38:06.491Z</time>
      </trkpt>
      <trkpt lat="43.73913" lon="0.88492">
        <ele>217.12502</ele>
        <time>2023-01-01T14:38:08.506Z</time>
      </trkpt>
      <trkpt lat="43.73904" lon="0.88491">
        <ele>217.054896</ele>
        <time>2023-01-01T14:38:10.495Z</time>
      </trkpt>
      <trkpt lat="43.7389" lon="0.8849">
        <ele>216.949683</ele>
        <time>2023-01-01T14:38:13.489Z</time>
      </trkpt>
      <trkpt lat="43.73881" lon="0.88487">
        <ele>216.87841</ele>
        <time>2023-01-01T14:38:15.494Z</time>
      </trkpt>
      <trkpt lat="43.73872" lon="0.88485">
        <ele>216.808087</ele>
        <time>2023-01-01T14:38:17.503Z</time>
      </trkpt>
      <trkpt lat="43.73863" lon="0.88481">
        <ele>216.732483</ele>
        <time>2023-01-01T14:38:19.503Z</time>
      </trkpt>
      <trkpt lat="43.73854" lon="0.88477">
        <ele>216.657302</ele>
        <time>2023-01-01T14:38:21.490Z</time>
      </trkpt>
      <trkpt lat="43.73845" lon="0.88472">
        <ele>216.582158</ele>
        <time>2023-01-01T14:38:23.494Z</time>
      </trkpt>
      <trkpt lat="43.73836" lon="0.88466">
        <ele>216.511634</ele>
        <time>2023-01-01T14:38:25.495Z</time>
      </trkpt>
      <trkpt lat="43.73827" lon="0.88459">
        <ele>216.427417</ele>
        <time>2023-01-01T14:38:27.504Z</time>
      </trkpt>
      <trkpt lat="43.73816" lon="0.88452">
        <ele>216.339196</ele>
        <time>2023-01-01T14:38:29.491Z</time>
      </trkpt>
      <trkpt lat="43.73806" lon="0.88444">
        <ele>216.270319</ele>
        <time>2023-01-01T14:38:31.491Z</time>
      </trkpt>
      <trkpt lat="43.73795" lon="0.88436">
        <ele>216.229528</ele>
        <time>2023-01-01T14:38:33.510Z</time>
      </trkpt>
      <trkpt lat="43.73784" lon="0.88428">
        <ele>216.190584</ele>
        <time>2023-01-01T14:38:35.499Z</time>
      </trkpt>
      <trkpt lat="43.73773" lon="0.88421">
        <ele>216.149548</ele>
        <time>2023-01-01T14:38:37.487Z</time>
      </trkpt>
      <trkpt lat="43.73763" lon="0.88413">
        <ele>216.110464</ele>
        <time>2023-01-01T14:38:39.508Z</time>
      </trkpt>
      <trkpt lat="43.73753" lon="0.88405">
        <ele>216.074486</ele>
        <time>2023-01-01T14:38:41.501Z</time>
      </trkpt>
      <trkpt lat="43.73745" lon="0.88399">
        <ele>216.043926</ele>
        <time>2023-01-01T14:38:43.503Z</time>
      </trkpt>
      <trkpt lat="43.73734" lon="0.8839">
        <ele>216.001129</ele>
        <time>2023-01-01T14:38:46.489Z</time>
      </trkpt>
      <trkpt lat="43.73723" lon="0.8838">
        <ele>215.95993</ele>
        <time>2023-01-01T14:38:49.493Z</time>
      </trkpt>
      <trkpt lat="43.73714" lon="0.88372">
        <ele>215.92383</ele>
        <time>2023-01-01T14:38:52.500Z</time>
      </trkpt>
      <trkpt lat="43.73705" lon="0.88365">
        <ele>215.890712</ele>
        <time>2023-01-01T14:38:55.500Z</time>
      </trkpt>
      <trkpt lat="43.73697" lon="0.88359">
        <ele>215.86026</ele>
        <time>2023-01-01T14:38:58.500Z</time>
      </trkpt>
      <trkpt lat="43.73688" lon="0.8835">
        <ele>215.822168</ele>
        <time>2023-01-01T14:39:02.494Z</time>
      </trkpt>
      <trkpt lat="43.73679" lon="0.88343">
        <ele>215.789858</ele>
        <time>2023-01-01T14:39:05.485Z</time>
      </trkpt>
      <trkpt lat="43.73669" lon="0.88335">
        <ele>215.752006</ele>
        <time>2023-01-01T14:39:08.490Z</time>
      </trkpt>
      <trkpt lat="43.73658" lon="0.88327">
        <ele>215.710363</ele>
        <time>2023-01-01T14:39:11.486Z</time>
      </trkpt>
      <trkpt lat="43.7365" lon="0.8832">
        <ele>215.357513</ele>
        <time>2023-01-01T14:39:13.487Z</time>
      </trkpt>
      <trkpt lat="43.73642" lon="0.88314">
        <ele>214.744897</ele>
        <time>2023-01-01T14:39:15.492Z</time>
      </trkpt>
      <trkpt lat="43.73633" lon="0.88307">
        <ele>214.10546</ele>
        <time>2023-01-01T14:39:17.490Z</time>
      </trkpt>
      <trkpt lat="43.73624" lon="0.88299">
        <ele>213.433745</ele>
        <time>2023-01-01T14:39:19.483Z</time>
      </trkpt>
      <trkpt lat="43.73615" lon="0.88292">
        <ele>212.751771</ele>
        <time>2023-01-01T14:39:21.491Z</time>
      </trkpt>
      <trkpt lat="43.73604" lon="0.88284">
        <ele>212.001457</ele>
        <time>2023-01-01T14:39:23.485Z</time>
      </trkpt>
      <trkpt lat="43.73593" lon="0.88276">
        <ele>211.183985</ele>
        <time>2023-01-01T14:39:25.484Z</time>
      </trkpt>
      <trkpt lat="43.73582" lon="0.88265">
        <ele>210.301957</ele>
        <time>2023-01-01T14:39:27.507Z</time>
      </trkpt>
      <trkpt lat="43.7357" lon="0.88256">
        <ele>209.407054</ele>
        <time>2023-01-01T14:39:29.508Z</time>
      </trkpt>
      <trkpt lat="43.73558" lon="0.88247">
        <ele>208.567122</ele>
        <time>2023-01-01T14:39:31.485Z</time>
      </trkpt>
      <trkpt lat="43.73546" lon="0.88237">
        <ele>207.685609</ele>
        <time>2023-01-01T14:39:33.494Z</time>
      </trkpt>
      <trkpt lat="43.73535" lon="0.88228">
        <ele>206.835521</ele>
        <time>2023-01-01T14:39:35.492Z</time>
      </trkpt>
      <trkpt lat="43.73523" lon="0.88219">
        <ele>205.98893</ele>
        <time>2023-01-01T14:39:37.490Z</time>
      </trkpt>
      <trkpt lat="43.73512" lon="0.8821">
        <ele>205.170254</ele>
        <time>2023-01-01T14:39:39.507Z</time>
      </trkpt>
      <trkpt lat="43.735" lon="0.88201">
        <ele>204.286711</ele>
        <time>2023-01-01T14:39:41.495Z</time>
      </trkpt>
      <trkpt lat="43.73488" lon="0.88192">
        <ele>203.798514</ele>
        <time>2023-01-01T14:39:43.497Z</time>
      </trkpt>
      <trkpt lat="43.73476" lon="0.88181">
        <ele>203.324662</ele>
        <time>2023-01-01T14:39:45.491Z</time>
      </trkpt>
      <trkpt lat="43.73463" lon="0.88172">
        <ele>202.86184</ele>
        <time>2023-01-01T14:39:47.504Z</time>
      </trkpt>
      <trkpt lat="43.7345" lon="0.88161">
        <ele>202.366718</ele>
        <time>2023-01-01T14:39:49.494Z</time>
      </trkpt>
      <trkpt lat="43.73438" lon="0.88151">
        <ele>201.895675</ele>
        <time>2023-01-01T14:39:51.485Z</time>
      </trkpt>
      <trkpt lat="43.73425" lon="0.8814">
        <ele>201.411704</ele>
        <time>2023-01-01T14:39:53.485Z</time>
      </trkpt>
      <trkpt lat="43.73413" lon="0.8813">
        <ele>200.939788</ele>
        <time>2023-01-01T14:39:55.498Z</time>
      </trkpt>
      <trkpt lat="43.734" lon="0.8812">
        <ele>200.457931</ele>
        <time>2023-01-01T14:39:57.499Z</time>
      </trkpt>
      <trkpt lat="43.73387" lon="0.88111">
        <ele>199.966284</ele>
        <time>2023-01-01T14:39:59.494Z</time>
      </trkpt>
      <trkpt lat="43.73374" lon="0.88101">
        <ele>199.491991</ele>
        <time>2023-01-01T14:40:01.491Z</time>
      </trkpt>
      <trkpt lat="43.73361" lon="0.8809">
        <ele>199.006471</ele>
        <time>2023-01-01T14:40:03.494Z</time>
      </trkpt>
      <trkpt lat="43.73348" lon="0.8808">
        <ele>198.51848</ele>
        <time>2023-01-01T14:40:05.498Z</time>
      </trkpt>
      <trkpt lat="43.73335" lon="0.88068">
        <ele>198.312711</ele>
        <time>2023-01-01T14:40:07.496Z</time>
      </trkpt>
      <trkpt lat="43.73321" lon="0.88058">
        <ele>198.312711</ele>
        <time>2023-01-01T14:40:09.498Z</time>
      </trkpt>
      <trkpt lat="43.73307" lon="0.88047">
        <ele>198.312711</ele>
        <time>2023-01-01T14:40:11.492Z</time>
      </trkpt>
      <trkpt lat="43.73294" lon="0.88037">
        <ele>198.312711</ele>
        <time>2023-01-01T14:40:13.493Z</time>
      </trkpt>
      <trkpt lat="43.73279" lon="0.88026">
        <ele>198.312711</ele>
        <time>2023-01-01T14:40:15.499Z</time>
      </trkpt>
      <trkpt lat="43.73265" lon="0.88015">
        <ele>198.312711</ele>
        <time>2023-01-01T14:40:17.488Z</time>
      </trkpt>
      <trkpt lat="43.73252" lon="0.88005">
        <ele>198.312711</ele>
        <time>2023-01-01T14:40:19.508Z</time>
      </trkpt>
      <trkpt lat="43.73241" lon="0.87995">
        <ele>198.312711</ele>
        <time>2023-01-01T14:40:21.502Z</time>
      </trkpt>
      <trkpt lat="43.73231" lon="0.87988">
        <ele>198.312711</ele>
        <time>2023-01-01T14:40:23.496Z</time>
      </trkpt>
      <trkpt lat="43.73223" lon="0.87981">
        <ele>198.312711</ele>
        <time>2023-01-01T14:40:25.492Z</time>
      </trkpt>
      <trkpt lat="43.73213" lon="0.87972">
        <ele>198.312711</ele>
        <time>2023-01-01T14:40:28.503Z</time>
      </trkpt>
      <trkpt lat="43.73203" lon="0.87965">
        <ele>198.312711</ele>
        <time>2023-01-01T14:40:31.495Z</time>
      </trkpt>
      <trkpt lat="43.73195" lon="0.87958">
        <ele>198.312711</ele>
        <time>2023-01-01T14:40:34.487Z</time>
      </trkpt>
      <trkpt lat="43.73184" lon="0.87951">
        <ele>198.312711</ele>
        <time>2023-01-01T14:40:38.486Z</time>
      </trkpt>
      <trkpt lat="43.73174" lon="0.87943">
        <ele>198.312711</ele>
        <time>2023-01-01T14:40:42.511Z</time>
      </trkpt>
      <trkpt lat="43.73163" lon="0.87935">
        <ele>198.312711</ele>
        <time>2023-01-01T14:40:46.493Z</time>
      </trkpt>
      <trkpt lat="43.73157" lon="0.87926">
        <ele>198.312711</ele>
        <time>2023-01-01T14:40:50.492Z</time>
      </trkpt>
      <trkpt lat="43.73151" lon="0.87918">
        <ele>198.312711</ele>
        <time>2023-01-01T14:41:00.647Z</time>
        <extensions>
          <visugpx:TrkExtension xmlns:visugpx="https://www.visugpx.com/editgpx/">
            <visugpx:node>1</visugpx:node>
            </visugpx:TrkExtension>
        </extensions>
      </trkpt>
    </trkseg>
  </trk>
</gpx>